<?xml version="1.0" encoding="UTF-8" standalone="no" ?>
<gpx xmlns="http://www.topografix.com/GPX/1/1" xmlns:xsi="http://www.w3.org/2001/XMLSchema-instance" xsi:schemaLocation="http://www.topografix.com/GPX/1/1 http://www.topografix.com/GPX/1/1/gpx.xsd" version="1.1" creator="VisuGPX - https://www.visugpx.com">
  <metadata>
    <name>Pornichet 18/08/2022</name>
    <desc><![CDATA[Sortie jeudi 18 août 2022]]></desc>
  </metadata>
  <trk>
    <name><![CDATA[Pornichet Cyclisme]]></name>
    <trkseg>
      <trkpt lat="47.26409" lon="-2.31563">
        <ele>8.8000001907349</ele>
        <time>2022-08-18T06:49:01.000Z</time>
      </trkpt>
      <trkpt lat="47.26409" lon="-2.31579">
        <ele>8.8000001907349</ele>
        <time>2022-08-18T06:49:05.000Z</time>
      </trkpt>
      <trkpt lat="47.26409" lon="-2.31583">
        <ele>8.8000001907349</ele>
        <time>2022-08-18T06:49:06.000Z</time>
      </trkpt>
      <trkpt lat="47.26409" lon="-2.31597">
        <ele>8.8000001907349</ele>
        <time>2022-08-18T06:49:09.000Z</time>
      </trkpt>
      <trkpt lat="47.26409" lon="-2.31634">
        <ele>8.8000001907349</ele>
        <time>2022-08-18T06:49:16.000Z</time>
      </trkpt>
      <trkpt lat="47.26409" lon="-2.3166">
        <ele>8.8000001907349</ele>
        <time>2022-08-18T06:49:21.000Z</time>
      </trkpt>
      <trkpt lat="47.26401" lon="-2.31667">
        <ele>8.8000001907349</ele>
        <time>2022-08-18T06:49:24.000Z</time>
      </trkpt>
      <trkpt lat="47.26398" lon="-2.31668">
        <ele>8.8000001907349</ele>
        <time>2022-08-18T06:49:25.000Z</time>
      </trkpt>
      <trkpt lat="47.26387" lon="-2.31675">
        <ele>8.8000001907349</ele>
        <time>2022-08-18T06:49:28.000Z</time>
      </trkpt>
      <trkpt lat="47.26382" lon="-2.31678">
        <ele>8.8000001907349</ele>
        <time>2022-08-18T06:49:29.000Z</time>
      </trkpt>
      <trkpt lat="47.26374" lon="-2.31683">
        <ele>8.3999996185303</ele>
        <time>2022-08-18T06:49:31.000Z</time>
      </trkpt>
      <trkpt lat="47.2637" lon="-2.31685">
        <ele>8</ele>
        <time>2022-08-18T06:49:32.000Z</time>
      </trkpt>
      <trkpt lat="47.26366" lon="-2.31687">
        <ele>7.5999999046326</ele>
        <time>2022-08-18T06:49:33.000Z</time>
      </trkpt>
      <trkpt lat="47.26362" lon="-2.3169">
        <ele>7.1999998092651</ele>
        <time>2022-08-18T06:49:34.000Z</time>
      </trkpt>
      <trkpt lat="47.26358" lon="-2.31692">
        <ele>6.8000001907349</ele>
        <time>2022-08-18T06:49:35.000Z</time>
      </trkpt>
      <trkpt lat="47.26333" lon="-2.31703">
        <ele>6.8000001907349</ele>
        <time>2022-08-18T06:49:40.000Z</time>
      </trkpt>
      <trkpt lat="47.26318" lon="-2.31711">
        <ele>6.4000000953674</ele>
        <time>2022-08-18T06:49:43.000Z</time>
      </trkpt>
      <trkpt lat="47.26314" lon="-2.31712">
        <ele>6</ele>
        <time>2022-08-18T06:49:44.000Z</time>
      </trkpt>
      <trkpt lat="47.2631" lon="-2.31715">
        <ele>5.5999999046326</ele>
        <time>2022-08-18T06:49:45.000Z</time>
      </trkpt>
      <trkpt lat="47.26307" lon="-2.31721">
        <ele>5.1999998092651</ele>
        <time>2022-08-18T06:49:46.000Z</time>
      </trkpt>
      <trkpt lat="47.26305" lon="-2.31728">
        <ele>4.8000001907349</ele>
        <time>2022-08-18T06:49:47.000Z</time>
      </trkpt>
      <trkpt lat="47.26306" lon="-2.31734">
        <ele>4.8000001907349</ele>
        <time>2022-08-18T06:49:48.000Z</time>
      </trkpt>
      <trkpt lat="47.26309" lon="-2.31764">
        <ele>4.8000001907349</ele>
        <time>2022-08-18T06:49:53.000Z</time>
      </trkpt>
      <trkpt lat="47.26308" lon="-2.31782">
        <ele>4.8000001907349</ele>
        <time>2022-08-18T06:49:56.000Z</time>
      </trkpt>
      <trkpt lat="47.26307" lon="-2.31787">
        <ele>4.8000001907349</ele>
        <time>2022-08-18T06:49:57.000Z</time>
      </trkpt>
      <trkpt lat="47.26308" lon="-2.31813">
        <ele>4.8000001907349</ele>
        <time>2022-08-18T06:50:02.000Z</time>
      </trkpt>
      <trkpt lat="47.26304" lon="-2.31849">
        <ele>4.8000001907349</ele>
        <time>2022-08-18T06:50:08.000Z</time>
      </trkpt>
      <trkpt lat="47.26301" lon="-2.31874">
        <ele>4.8000001907349</ele>
        <time>2022-08-18T06:50:13.000Z</time>
      </trkpt>
      <trkpt lat="47.26299" lon="-2.31882">
        <ele>4.8000001907349</ele>
        <time>2022-08-18T06:50:15.000Z</time>
      </trkpt>
      <trkpt lat="47.26294" lon="-2.31888">
        <ele>4.8000001907349</ele>
        <time>2022-08-18T06:50:17.000Z</time>
      </trkpt>
      <trkpt lat="47.26288" lon="-2.31893">
        <ele>4.8000001907349</ele>
        <time>2022-08-18T06:50:19.000Z</time>
      </trkpt>
      <trkpt lat="47.26278" lon="-2.31905">
        <ele>4.8000001907349</ele>
        <time>2022-08-18T06:50:23.000Z</time>
      </trkpt>
      <trkpt lat="47.26268" lon="-2.31923">
        <ele>4.8000001907349</ele>
        <time>2022-08-18T06:50:27.000Z</time>
      </trkpt>
      <trkpt lat="47.26259" lon="-2.31942">
        <ele>4.8000001907349</ele>
        <time>2022-08-18T06:50:32.000Z</time>
      </trkpt>
      <trkpt lat="47.26245" lon="-2.31958">
        <ele>4.4000000953674</ele>
        <time>2022-08-18T06:50:37.000Z</time>
      </trkpt>
      <trkpt lat="47.26242" lon="-2.3196">
        <ele>3.7999999523163</ele>
        <time>2022-08-18T06:50:38.000Z</time>
      </trkpt>
      <trkpt lat="47.26239" lon="-2.31963">
        <ele>3.4000000953674</ele>
        <time>2022-08-18T06:50:39.000Z</time>
      </trkpt>
      <trkpt lat="47.26236" lon="-2.31966">
        <ele>3</ele>
        <time>2022-08-18T06:50:40.000Z</time>
      </trkpt>
      <trkpt lat="47.26233" lon="-2.31969">
        <ele>2.5999999046326</ele>
        <time>2022-08-18T06:50:41.000Z</time>
      </trkpt>
      <trkpt lat="47.26231" lon="-2.31973">
        <ele>2.5999999046326</ele>
        <time>2022-08-18T06:50:42.000Z</time>
      </trkpt>
      <trkpt lat="47.26225" lon="-2.3198">
        <ele>2.5999999046326</ele>
        <time>2022-08-18T06:50:45.000Z</time>
      </trkpt>
      <trkpt lat="47.26223" lon="-2.31983">
        <ele>2.5999999046326</ele>
        <time>2022-08-18T06:50:46.000Z</time>
      </trkpt>
      <trkpt lat="47.26207" lon="-2.31998">
        <ele>2.5999999046326</ele>
        <time>2022-08-18T06:50:52.000Z</time>
      </trkpt>
      <trkpt lat="47.26205" lon="-2.32002">
        <ele>2.5999999046326</ele>
        <time>2022-08-18T06:50:53.000Z</time>
      </trkpt>
      <trkpt lat="47.26205" lon="-2.32008">
        <ele>2.5999999046326</ele>
        <time>2022-08-18T06:50:55.000Z</time>
      </trkpt>
      <trkpt lat="47.26201" lon="-2.32018">
        <ele>2.5999999046326</ele>
        <time>2022-08-18T06:50:59.000Z</time>
      </trkpt>
      <trkpt lat="47.26191" lon="-2.32018">
        <ele>2.5999999046326</ele>
        <time>2022-08-18T06:51:04.000Z</time>
      </trkpt>
      <trkpt lat="47.26189" lon="-2.32018">
        <ele>2.5999999046326</ele>
        <time>2022-08-18T06:51:05.000Z</time>
      </trkpt>
      <trkpt lat="47.26175" lon="-2.32018">
        <ele>2.5999999046326</ele>
        <time>2022-08-18T06:51:10.000Z</time>
      </trkpt>
      <trkpt lat="47.26164" lon="-2.3203">
        <ele>2.5999999046326</ele>
        <time>2022-08-18T06:51:14.000Z</time>
      </trkpt>
      <trkpt lat="47.26154" lon="-2.3206">
        <ele>2.5999999046326</ele>
        <time>2022-08-18T06:51:20.000Z</time>
      </trkpt>
      <trkpt lat="47.2614" lon="-2.32102">
        <ele>2.5999999046326</ele>
        <time>2022-08-18T06:51:28.000Z</time>
      </trkpt>
      <trkpt lat="47.26133" lon="-2.32126">
        <ele>2.5999999046326</ele>
        <time>2022-08-18T06:51:33.000Z</time>
      </trkpt>
      <trkpt lat="47.26122" lon="-2.32157">
        <ele>2.5999999046326</ele>
        <time>2022-08-18T06:51:39.000Z</time>
      </trkpt>
      <trkpt lat="47.26106" lon="-2.32197">
        <ele>2.5999999046326</ele>
        <time>2022-08-18T06:51:47.000Z</time>
      </trkpt>
      <trkpt lat="47.26085" lon="-2.3223">
        <ele>2.5999999046326</ele>
        <time>2022-08-18T06:51:54.000Z</time>
      </trkpt>
      <trkpt lat="47.26061" lon="-2.32257">
        <ele>2.5999999046326</ele>
        <time>2022-08-18T06:52:01.000Z</time>
      </trkpt>
      <trkpt lat="47.26033" lon="-2.32291">
        <ele>2.5999999046326</ele>
        <time>2022-08-18T06:52:09.000Z</time>
      </trkpt>
      <trkpt lat="47.26012" lon="-2.32314">
        <ele>2.5999999046326</ele>
        <time>2022-08-18T06:52:15.000Z</time>
      </trkpt>
      <trkpt lat="47.25986" lon="-2.3235">
        <ele>2.5999999046326</ele>
        <time>2022-08-18T06:52:23.000Z</time>
      </trkpt>
      <trkpt lat="47.25966" lon="-2.32376">
        <ele>2.5999999046326</ele>
        <time>2022-08-18T06:52:29.000Z</time>
      </trkpt>
      <trkpt lat="47.25943" lon="-2.32405">
        <ele>2.5999999046326</ele>
        <time>2022-08-18T06:52:36.000Z</time>
      </trkpt>
      <trkpt lat="47.25924" lon="-2.32431">
        <ele>2.5999999046326</ele>
        <time>2022-08-18T06:52:42.000Z</time>
      </trkpt>
      <trkpt lat="47.2592" lon="-2.32434">
        <ele>2.5999999046326</ele>
        <time>2022-08-18T06:52:43.000Z</time>
      </trkpt>
      <trkpt lat="47.25908" lon="-2.3245">
        <ele>2.5999999046326</ele>
        <time>2022-08-18T06:52:47.000Z</time>
      </trkpt>
      <trkpt lat="47.25903" lon="-2.32462">
        <ele>2.5999999046326</ele>
        <time>2022-08-18T06:52:50.000Z</time>
      </trkpt>
      <trkpt lat="47.25904" lon="-2.32467">
        <ele>2.5999999046326</ele>
        <time>2022-08-18T06:52:51.000Z</time>
      </trkpt>
      <trkpt lat="47.25913" lon="-2.3247">
        <ele>2.5999999046326</ele>
        <time>2022-08-18T06:52:54.000Z</time>
      </trkpt>
      <trkpt lat="47.25928" lon="-2.32488">
        <ele>2.5999999046326</ele>
        <time>2022-08-18T06:52:59.000Z</time>
      </trkpt>
      <trkpt lat="47.25935" lon="-2.32513">
        <ele>2.5999999046326</ele>
        <time>2022-08-18T06:53:03.000Z</time>
      </trkpt>
      <trkpt lat="47.25937" lon="-2.3252">
        <ele>2.5999999046326</ele>
        <time>2022-08-18T06:53:04.000Z</time>
      </trkpt>
      <trkpt lat="47.2595" lon="-2.32568">
        <ele>2.5999999046326</ele>
        <time>2022-08-18T06:53:12.000Z</time>
      </trkpt>
      <trkpt lat="47.25956" lon="-2.32599">
        <ele>2.5999999046326</ele>
        <time>2022-08-18T06:53:17.000Z</time>
      </trkpt>
      <trkpt lat="47.25958" lon="-2.32612">
        <ele>2.5999999046326</ele>
        <time>2022-08-18T06:53:19.000Z</time>
      </trkpt>
      <trkpt lat="47.25961" lon="-2.32629">
        <ele>2.5999999046326</ele>
        <time>2022-08-18T06:53:22.000Z</time>
      </trkpt>
      <trkpt lat="47.25961" lon="-2.32646">
        <ele>2.5999999046326</ele>
        <time>2022-08-18T06:53:25.000Z</time>
      </trkpt>
      <trkpt lat="47.25966" lon="-2.32657">
        <ele>2.5999999046326</ele>
        <time>2022-08-18T06:53:28.000Z</time>
      </trkpt>
      <trkpt lat="47.25969" lon="-2.32657">
        <ele>2.5999999046326</ele>
        <time>2022-08-18T06:53:29.000Z</time>
      </trkpt>
      <trkpt lat="47.25983" lon="-2.32657">
        <ele>2.5999999046326</ele>
        <time>2022-08-18T06:53:33.000Z</time>
      </trkpt>
      <trkpt lat="47.26006" lon="-2.32656">
        <ele>2.5999999046326</ele>
        <time>2022-08-18T06:53:39.000Z</time>
      </trkpt>
      <trkpt lat="47.26032" lon="-2.32652">
        <ele>2.5999999046326</ele>
        <time>2022-08-18T06:53:46.000Z</time>
      </trkpt>
      <trkpt lat="47.26047" lon="-2.32649">
        <ele>3</ele>
        <time>2022-08-18T06:53:50.000Z</time>
      </trkpt>
      <trkpt lat="47.26051" lon="-2.32648">
        <ele>3.4000000953674</ele>
        <time>2022-08-18T06:53:51.000Z</time>
      </trkpt>
      <trkpt lat="47.26055" lon="-2.32648">
        <ele>3.7999999523163</ele>
        <time>2022-08-18T06:53:52.000Z</time>
      </trkpt>
      <trkpt lat="47.26059" lon="-2.32647">
        <ele>4.1999998092651</ele>
        <time>2022-08-18T06:53:53.000Z</time>
      </trkpt>
      <trkpt lat="47.26063" lon="-2.32646">
        <ele>4.5999999046326</ele>
        <time>2022-08-18T06:53:54.000Z</time>
      </trkpt>
      <trkpt lat="47.26071" lon="-2.32644">
        <ele>4.5999999046326</ele>
        <time>2022-08-18T06:53:56.000Z</time>
      </trkpt>
      <trkpt lat="47.26108" lon="-2.32639">
        <ele>4.5999999046326</ele>
        <time>2022-08-18T06:54:05.000Z</time>
      </trkpt>
      <trkpt lat="47.26136" lon="-2.32641">
        <ele>4.5999999046326</ele>
        <time>2022-08-18T06:54:12.000Z</time>
      </trkpt>
      <trkpt lat="47.26148" lon="-2.32644">
        <ele>4.5999999046326</ele>
        <time>2022-08-18T06:54:15.000Z</time>
      </trkpt>
      <trkpt lat="47.26165" lon="-2.32651">
        <ele>4.5999999046326</ele>
        <time>2022-08-18T06:54:19.000Z</time>
      </trkpt>
      <trkpt lat="47.26192" lon="-2.32671">
        <ele>4.5999999046326</ele>
        <time>2022-08-18T06:54:26.000Z</time>
      </trkpt>
      <trkpt lat="47.26221" lon="-2.32701">
        <ele>4.5999999046326</ele>
        <time>2022-08-18T06:54:34.000Z</time>
      </trkpt>
      <trkpt lat="47.26245" lon="-2.32738">
        <ele>4.5999999046326</ele>
        <time>2022-08-18T06:54:41.000Z</time>
      </trkpt>
      <trkpt lat="47.2627" lon="-2.32778">
        <ele>4.5999999046326</ele>
        <time>2022-08-18T06:54:48.000Z</time>
      </trkpt>
      <trkpt lat="47.26284" lon="-2.32815">
        <ele>4.5999999046326</ele>
        <time>2022-08-18T06:54:54.000Z</time>
      </trkpt>
      <trkpt lat="47.26285" lon="-2.32822">
        <ele>4.5999999046326</ele>
        <time>2022-08-18T06:54:55.000Z</time>
      </trkpt>
      <trkpt lat="47.2629" lon="-2.3285">
        <ele>4.5999999046326</ele>
        <time>2022-08-18T06:54:59.000Z</time>
      </trkpt>
      <trkpt lat="47.26292" lon="-2.32856">
        <ele>4.5999999046326</ele>
        <time>2022-08-18T06:55:00.000Z</time>
      </trkpt>
      <trkpt lat="47.26304" lon="-2.32865">
        <ele>4.5999999046326</ele>
        <time>2022-08-18T06:55:03.000Z</time>
      </trkpt>
      <trkpt lat="47.26313" lon="-2.32869">
        <ele>4.5999999046326</ele>
        <time>2022-08-18T06:55:05.000Z</time>
      </trkpt>
      <trkpt lat="47.26317" lon="-2.32873">
        <ele>4.5999999046326</ele>
        <time>2022-08-18T06:55:06.000Z</time>
      </trkpt>
      <trkpt lat="47.2632" lon="-2.32878">
        <ele>4.5999999046326</ele>
        <time>2022-08-18T06:55:07.000Z</time>
      </trkpt>
      <trkpt lat="47.26328" lon="-2.32904">
        <ele>4.5999999046326</ele>
        <time>2022-08-18T06:55:11.000Z</time>
      </trkpt>
      <trkpt lat="47.26329" lon="-2.3291">
        <ele>4.5999999046326</ele>
        <time>2022-08-18T06:55:12.000Z</time>
      </trkpt>
      <trkpt lat="47.26345" lon="-2.32959">
        <ele>4.5999999046326</ele>
        <time>2022-08-18T06:55:20.000Z</time>
      </trkpt>
      <trkpt lat="47.26353" lon="-2.32975">
        <ele>4.5999999046326</ele>
        <time>2022-08-18T06:55:23.000Z</time>
      </trkpt>
      <trkpt lat="47.26362" lon="-2.32988">
        <ele>4.5999999046326</ele>
        <time>2022-08-18T06:55:26.000Z</time>
      </trkpt>
      <trkpt lat="47.26365" lon="-2.33007">
        <ele>4.5999999046326</ele>
        <time>2022-08-18T06:55:29.000Z</time>
      </trkpt>
      <trkpt lat="47.26367" lon="-2.3306">
        <ele>4.5999999046326</ele>
        <time>2022-08-18T06:55:37.000Z</time>
      </trkpt>
      <trkpt lat="47.26373" lon="-2.33128">
        <ele>4.5999999046326</ele>
        <time>2022-08-18T06:55:47.000Z</time>
      </trkpt>
      <trkpt lat="47.26376" lon="-2.33188">
        <ele>4.5999999046326</ele>
        <time>2022-08-18T06:55:56.000Z</time>
      </trkpt>
      <trkpt lat="47.2638" lon="-2.33241">
        <ele>4.5999999046326</ele>
        <time>2022-08-18T06:56:04.000Z</time>
      </trkpt>
      <trkpt lat="47.26381" lon="-2.33247">
        <ele>4.5999999046326</ele>
        <time>2022-08-18T06:56:05.000Z</time>
      </trkpt>
      <trkpt lat="47.26388" lon="-2.33262">
        <ele>4.5999999046326</ele>
        <time>2022-08-18T06:56:08.000Z</time>
      </trkpt>
      <trkpt lat="47.26403" lon="-2.33274">
        <ele>4.5999999046326</ele>
        <time>2022-08-18T06:56:12.000Z</time>
      </trkpt>
      <trkpt lat="47.2642" lon="-2.33276">
        <ele>4.5999999046326</ele>
        <time>2022-08-18T06:56:16.000Z</time>
      </trkpt>
      <trkpt lat="47.26461" lon="-2.33278">
        <ele>4.5999999046326</ele>
        <time>2022-08-18T06:56:25.000Z</time>
      </trkpt>
      <trkpt lat="47.2647" lon="-2.33278">
        <ele>4.5999999046326</ele>
        <time>2022-08-18T06:56:27.000Z</time>
      </trkpt>
      <trkpt lat="47.26492" lon="-2.33279">
        <ele>4.5999999046326</ele>
        <time>2022-08-18T06:56:32.000Z</time>
      </trkpt>
      <trkpt lat="47.26508" lon="-2.33286">
        <ele>4.5999999046326</ele>
        <time>2022-08-18T06:56:37.000Z</time>
      </trkpt>
      <trkpt lat="47.26523" lon="-2.33303">
        <ele>4.5999999046326</ele>
        <time>2022-08-18T06:56:42.000Z</time>
      </trkpt>
      <trkpt lat="47.26527" lon="-2.33327">
        <ele>4.5999999046326</ele>
        <time>2022-08-18T06:56:46.000Z</time>
      </trkpt>
      <trkpt lat="47.26527" lon="-2.33341">
        <ele>4.5999999046326</ele>
        <time>2022-08-18T06:56:48.000Z</time>
      </trkpt>
      <trkpt lat="47.26527" lon="-2.33349">
        <ele>4.5999999046326</ele>
        <time>2022-08-18T06:56:49.000Z</time>
      </trkpt>
      <trkpt lat="47.2653" lon="-2.33364">
        <ele>4.5999999046326</ele>
        <time>2022-08-18T06:56:51.000Z</time>
      </trkpt>
      <trkpt lat="47.26536" lon="-2.33384">
        <ele>4.5999999046326</ele>
        <time>2022-08-18T06:56:54.000Z</time>
      </trkpt>
      <trkpt lat="47.26541" lon="-2.33411">
        <ele>4.5999999046326</ele>
        <time>2022-08-18T06:56:58.000Z</time>
      </trkpt>
      <trkpt lat="47.26554" lon="-2.33478">
        <ele>4.5999999046326</ele>
        <time>2022-08-18T06:57:08.000Z</time>
      </trkpt>
      <trkpt lat="47.26559" lon="-2.33503">
        <ele>4.5999999046326</ele>
        <time>2022-08-18T06:57:12.000Z</time>
      </trkpt>
      <trkpt lat="47.26563" lon="-2.33515">
        <ele>4.5999999046326</ele>
        <time>2022-08-18T06:57:14.000Z</time>
      </trkpt>
      <trkpt lat="47.26565" lon="-2.33529">
        <ele>4.5999999046326</ele>
        <time>2022-08-18T06:57:16.000Z</time>
      </trkpt>
      <trkpt lat="47.26566" lon="-2.33549">
        <ele>4.5999999046326</ele>
        <time>2022-08-18T06:57:19.000Z</time>
      </trkpt>
      <trkpt lat="47.26573" lon="-2.33604">
        <ele>4.5999999046326</ele>
        <time>2022-08-18T06:57:27.000Z</time>
      </trkpt>
      <trkpt lat="47.26575" lon="-2.3361">
        <ele>4.5999999046326</ele>
        <time>2022-08-18T06:57:28.000Z</time>
      </trkpt>
      <trkpt lat="47.26578" lon="-2.33634">
        <ele>4.5999999046326</ele>
        <time>2022-08-18T06:57:32.000Z</time>
      </trkpt>
      <trkpt lat="47.26579" lon="-2.3364">
        <ele>4.5999999046326</ele>
        <time>2022-08-18T06:57:33.000Z</time>
      </trkpt>
      <trkpt lat="47.26584" lon="-2.33661">
        <ele>4.5999999046326</ele>
        <time>2022-08-18T06:57:37.000Z</time>
      </trkpt>
      <trkpt lat="47.26588" lon="-2.3367">
        <ele>5</ele>
        <time>2022-08-18T06:57:39.000Z</time>
      </trkpt>
      <trkpt lat="47.26591" lon="-2.33673">
        <ele>5.4000000953674</ele>
        <time>2022-08-18T06:57:40.000Z</time>
      </trkpt>
      <trkpt lat="47.26593" lon="-2.33678">
        <ele>5.8000001907349</ele>
        <time>2022-08-18T06:57:41.000Z</time>
      </trkpt>
      <trkpt lat="47.26594" lon="-2.33683">
        <ele>6.1999998092651</ele>
        <time>2022-08-18T06:57:42.000Z</time>
      </trkpt>
      <trkpt lat="47.26596" lon="-2.33687">
        <ele>6.5999999046326</ele>
        <time>2022-08-18T06:57:43.000Z</time>
      </trkpt>
      <trkpt lat="47.2661" lon="-2.33706">
        <ele>6.5999999046326</ele>
        <time>2022-08-18T06:57:48.000Z</time>
      </trkpt>
      <trkpt lat="47.26613" lon="-2.3371">
        <ele>6.5999999046326</ele>
        <time>2022-08-18T06:57:49.000Z</time>
      </trkpt>
      <trkpt lat="47.26621" lon="-2.33724">
        <ele>6.5999999046326</ele>
        <time>2022-08-18T06:57:52.000Z</time>
      </trkpt>
      <trkpt lat="47.26627" lon="-2.33734">
        <ele>6.5999999046326</ele>
        <time>2022-08-18T06:57:54.000Z</time>
      </trkpt>
      <trkpt lat="47.26645" lon="-2.33763">
        <ele>6.5999999046326</ele>
        <time>2022-08-18T06:58:01.000Z</time>
      </trkpt>
      <trkpt lat="47.26658" lon="-2.33779">
        <ele>6.5999999046326</ele>
        <time>2022-08-18T06:58:06.000Z</time>
      </trkpt>
      <trkpt lat="47.26672" lon="-2.338">
        <ele>6.5999999046326</ele>
        <time>2022-08-18T06:58:11.000Z</time>
      </trkpt>
      <trkpt lat="47.26691" lon="-2.33836">
        <ele>6.5999999046326</ele>
        <time>2022-08-18T06:58:18.000Z</time>
      </trkpt>
      <trkpt lat="47.26695" lon="-2.33841">
        <ele>6.5999999046326</ele>
        <time>2022-08-18T06:58:19.000Z</time>
      </trkpt>
      <trkpt lat="47.26712" lon="-2.33868">
        <ele>6.5999999046326</ele>
        <time>2022-08-18T06:58:25.000Z</time>
      </trkpt>
      <trkpt lat="47.26725" lon="-2.3389">
        <ele>7</ele>
        <time>2022-08-18T06:58:29.000Z</time>
      </trkpt>
      <trkpt lat="47.26728" lon="-2.33895">
        <ele>7.4000000953674</ele>
        <time>2022-08-18T06:58:30.000Z</time>
      </trkpt>
      <trkpt lat="47.26731" lon="-2.339">
        <ele>7.8000001907349</ele>
        <time>2022-08-18T06:58:31.000Z</time>
      </trkpt>
      <trkpt lat="47.26734" lon="-2.33905">
        <ele>8.1999998092651</ele>
        <time>2022-08-18T06:58:32.000Z</time>
      </trkpt>
      <trkpt lat="47.26737" lon="-2.33911">
        <ele>8.6000003814697</ele>
        <time>2022-08-18T06:58:33.000Z</time>
      </trkpt>
      <trkpt lat="47.26766" lon="-2.33958">
        <ele>8.6000003814697</ele>
        <time>2022-08-18T06:58:42.000Z</time>
      </trkpt>
      <trkpt lat="47.2677" lon="-2.33962">
        <ele>8.6000003814697</ele>
        <time>2022-08-18T06:58:43.000Z</time>
      </trkpt>
      <trkpt lat="47.26784" lon="-2.33982">
        <ele>8.6000003814697</ele>
        <time>2022-08-18T06:58:47.000Z</time>
      </trkpt>
      <trkpt lat="47.26809" lon="-2.34024">
        <ele>8.6000003814697</ele>
        <time>2022-08-18T06:58:55.000Z</time>
      </trkpt>
      <trkpt lat="47.26827" lon="-2.34054">
        <ele>8.6000003814697</ele>
        <time>2022-08-18T06:59:01.000Z</time>
      </trkpt>
      <trkpt lat="47.26851" lon="-2.34095">
        <ele>8.6000003814697</ele>
        <time>2022-08-18T06:59:09.000Z</time>
      </trkpt>
      <trkpt lat="47.26861" lon="-2.3411">
        <ele>8.6000003814697</ele>
        <time>2022-08-18T06:59:12.000Z</time>
      </trkpt>
      <trkpt lat="47.26873" lon="-2.34131">
        <ele>8.6000003814697</ele>
        <time>2022-08-18T06:59:16.000Z</time>
      </trkpt>
      <trkpt lat="47.26897" lon="-2.34168">
        <ele>8.6000003814697</ele>
        <time>2022-08-18T06:59:23.000Z</time>
      </trkpt>
      <trkpt lat="47.26914" lon="-2.34193">
        <ele>8.6000003814697</ele>
        <time>2022-08-18T06:59:28.000Z</time>
      </trkpt>
      <trkpt lat="47.26921" lon="-2.34203">
        <ele>8.6000003814697</ele>
        <time>2022-08-18T06:59:30.000Z</time>
      </trkpt>
      <trkpt lat="47.26928" lon="-2.34213">
        <ele>8.6000003814697</ele>
        <time>2022-08-18T06:59:32.000Z</time>
      </trkpt>
      <trkpt lat="47.26943" lon="-2.34234">
        <ele>8.6000003814697</ele>
        <time>2022-08-18T06:59:36.000Z</time>
      </trkpt>
      <trkpt lat="47.26969" lon="-2.34277">
        <ele>8.6000003814697</ele>
        <time>2022-08-18T06:59:44.000Z</time>
      </trkpt>
      <trkpt lat="47.26985" lon="-2.34302">
        <ele>8.6000003814697</ele>
        <time>2022-08-18T06:59:49.000Z</time>
      </trkpt>
      <trkpt lat="47.26988" lon="-2.34307">
        <ele>8.6000003814697</ele>
        <time>2022-08-18T06:59:50.000Z</time>
      </trkpt>
      <trkpt lat="47.26996" lon="-2.34316">
        <ele>8.6000003814697</ele>
        <time>2022-08-18T06:59:54.000Z</time>
      </trkpt>
      <trkpt lat="47.2701" lon="-2.34318">
        <ele>8.6000003814697</ele>
        <time>2022-08-18T06:59:59.000Z</time>
      </trkpt>
      <trkpt lat="47.27014" lon="-2.3432">
        <ele>8.6000003814697</ele>
        <time>2022-08-18T07:00:01.000Z</time>
      </trkpt>
      <trkpt lat="47.27015" lon="-2.34323">
        <ele>8.6000003814697</ele>
        <time>2022-08-18T07:00:03.000Z</time>
      </trkpt>
      <trkpt lat="47.27016" lon="-2.34328">
        <ele>8.6000003814697</ele>
        <time>2022-08-18T07:00:08.000Z</time>
      </trkpt>
      <trkpt lat="47.27022" lon="-2.34329">
        <ele>10.800000190735</ele>
        <time>2022-08-18T07:00:34.000Z</time>
      </trkpt>
      <trkpt lat="47.27032" lon="-2.3433">
        <ele>10.800000190735</ele>
        <time>2022-08-18T07:00:39.000Z</time>
      </trkpt>
      <trkpt lat="47.2704" lon="-2.34341">
        <ele>10.800000190735</ele>
        <time>2022-08-18T07:00:43.000Z</time>
      </trkpt>
      <trkpt lat="47.27043" lon="-2.34353">
        <ele>10.800000190735</ele>
        <time>2022-08-18T07:00:45.000Z</time>
      </trkpt>
      <trkpt lat="47.27048" lon="-2.34372">
        <ele>10.800000190735</ele>
        <time>2022-08-18T07:00:48.000Z</time>
      </trkpt>
      <trkpt lat="47.27061" lon="-2.34424">
        <ele>10.800000190735</ele>
        <time>2022-08-18T07:00:56.000Z</time>
      </trkpt>
      <trkpt lat="47.27075" lon="-2.34485">
        <ele>10.800000190735</ele>
        <time>2022-08-18T07:01:05.000Z</time>
      </trkpt>
      <trkpt lat="47.27088" lon="-2.34541">
        <ele>10.800000190735</ele>
        <time>2022-08-18T07:01:13.000Z</time>
      </trkpt>
      <trkpt lat="47.27099" lon="-2.34589">
        <ele>10.800000190735</ele>
        <time>2022-08-18T07:01:20.000Z</time>
      </trkpt>
      <trkpt lat="47.27101" lon="-2.34597">
        <ele>10.800000190735</ele>
        <time>2022-08-18T07:01:21.000Z</time>
      </trkpt>
      <trkpt lat="47.27115" lon="-2.34659">
        <ele>10.800000190735</ele>
        <time>2022-08-18T07:01:29.000Z</time>
      </trkpt>
      <trkpt lat="47.27127" lon="-2.34714">
        <ele>10.800000190735</ele>
        <time>2022-08-18T07:01:36.000Z</time>
      </trkpt>
      <trkpt lat="47.27138" lon="-2.34766">
        <ele>10.800000190735</ele>
        <time>2022-08-18T07:01:43.000Z</time>
      </trkpt>
      <trkpt lat="47.27148" lon="-2.34817">
        <ele>10.800000190735</ele>
        <time>2022-08-18T07:01:50.000Z</time>
      </trkpt>
      <trkpt lat="47.27159" lon="-2.34867">
        <ele>10.800000190735</ele>
        <time>2022-08-18T07:01:57.000Z</time>
      </trkpt>
      <trkpt lat="47.27173" lon="-2.34914">
        <ele>10.800000190735</ele>
        <time>2022-08-18T07:02:04.000Z</time>
      </trkpt>
      <trkpt lat="47.27196" lon="-2.34982">
        <ele>10.800000190735</ele>
        <time>2022-08-18T07:02:14.000Z</time>
      </trkpt>
      <trkpt lat="47.27208" lon="-2.35013">
        <ele>10.800000190735</ele>
        <time>2022-08-18T07:02:19.000Z</time>
      </trkpt>
      <trkpt lat="47.27212" lon="-2.35025">
        <ele>11.199999809265</ele>
        <time>2022-08-18T07:02:21.000Z</time>
      </trkpt>
      <trkpt lat="47.27214" lon="-2.35032">
        <ele>11.60000038147</ele>
        <time>2022-08-18T07:02:22.000Z</time>
      </trkpt>
      <trkpt lat="47.27217" lon="-2.35038">
        <ele>12</ele>
        <time>2022-08-18T07:02:23.000Z</time>
      </trkpt>
      <trkpt lat="47.27219" lon="-2.35044">
        <ele>12.60000038147</ele>
        <time>2022-08-18T07:02:24.000Z</time>
      </trkpt>
      <trkpt lat="47.27221" lon="-2.35052">
        <ele>13</ele>
        <time>2022-08-18T07:02:25.000Z</time>
      </trkpt>
      <trkpt lat="47.27235" lon="-2.35085">
        <ele>13</ele>
        <time>2022-08-18T07:02:30.000Z</time>
      </trkpt>
      <trkpt lat="47.27238" lon="-2.35091">
        <ele>13</ele>
        <time>2022-08-18T07:02:31.000Z</time>
      </trkpt>
      <trkpt lat="47.27257" lon="-2.35124">
        <ele>13</ele>
        <time>2022-08-18T07:02:38.000Z</time>
      </trkpt>
      <trkpt lat="47.27269" lon="-2.35117">
        <ele>13</ele>
        <time>2022-08-18T07:02:41.000Z</time>
      </trkpt>
      <trkpt lat="47.27272" lon="-2.35115">
        <ele>13</ele>
        <time>2022-08-18T07:02:42.000Z</time>
      </trkpt>
      <trkpt lat="47.27288" lon="-2.35106">
        <ele>13</ele>
        <time>2022-08-18T07:02:47.000Z</time>
      </trkpt>
      <trkpt lat="47.27301" lon="-2.35106">
        <ele>13</ele>
        <time>2022-08-18T07:02:52.000Z</time>
      </trkpt>
      <trkpt lat="47.27313" lon="-2.35096">
        <ele>13</ele>
        <time>2022-08-18T07:02:56.000Z</time>
      </trkpt>
      <trkpt lat="47.27316" lon="-2.35094">
        <ele>13.39999961853</ele>
        <time>2022-08-18T07:02:57.000Z</time>
      </trkpt>
      <trkpt lat="47.2732" lon="-2.35092">
        <ele>13.800000190735</ele>
        <time>2022-08-18T07:02:58.000Z</time>
      </trkpt>
      <trkpt lat="47.27323" lon="-2.35091">
        <ele>14.199999809265</ele>
        <time>2022-08-18T07:02:59.000Z</time>
      </trkpt>
      <trkpt lat="47.27327" lon="-2.3509">
        <ele>14.60000038147</ele>
        <time>2022-08-18T07:03:00.000Z</time>
      </trkpt>
      <trkpt lat="47.2733" lon="-2.35089">
        <ele>15.199999809265</ele>
        <time>2022-08-18T07:03:01.000Z</time>
      </trkpt>
      <trkpt lat="47.27334" lon="-2.35087">
        <ele>15.199999809265</ele>
        <time>2022-08-18T07:03:02.000Z</time>
      </trkpt>
      <trkpt lat="47.27341" lon="-2.35085">
        <ele>15.60000038147</ele>
        <time>2022-08-18T07:03:05.000Z</time>
      </trkpt>
      <trkpt lat="47.27345" lon="-2.35083">
        <ele>16</ele>
        <time>2022-08-18T07:03:06.000Z</time>
      </trkpt>
      <trkpt lat="47.27349" lon="-2.3508">
        <ele>16.39999961853</ele>
        <time>2022-08-18T07:03:07.000Z</time>
      </trkpt>
      <trkpt lat="47.27354" lon="-2.35078">
        <ele>16.799999237061</ele>
        <time>2022-08-18T07:03:08.000Z</time>
      </trkpt>
      <trkpt lat="47.27357" lon="-2.35076">
        <ele>17.200000762939</ele>
        <time>2022-08-18T07:03:09.000Z</time>
      </trkpt>
      <trkpt lat="47.27369" lon="-2.35069">
        <ele>17.200000762939</ele>
        <time>2022-08-18T07:03:12.000Z</time>
      </trkpt>
      <trkpt lat="47.27379" lon="-2.35063">
        <ele>17.60000038147</ele>
        <time>2022-08-18T07:03:15.000Z</time>
      </trkpt>
      <trkpt lat="47.27382" lon="-2.3506">
        <ele>18</ele>
        <time>2022-08-18T07:03:16.000Z</time>
      </trkpt>
      <trkpt lat="47.27386" lon="-2.35059">
        <ele>18.799999237061</ele>
        <time>2022-08-18T07:03:17.000Z</time>
      </trkpt>
      <trkpt lat="47.27389" lon="-2.35057">
        <ele>19.200000762939</ele>
        <time>2022-08-18T07:03:18.000Z</time>
      </trkpt>
      <trkpt lat="47.274" lon="-2.35059">
        <ele>19.200000762939</ele>
        <time>2022-08-18T07:03:22.000Z</time>
      </trkpt>
      <trkpt lat="47.27402" lon="-2.35063">
        <ele>19.200000762939</ele>
        <time>2022-08-18T07:03:23.000Z</time>
      </trkpt>
      <trkpt lat="47.27408" lon="-2.35083">
        <ele>19.200000762939</ele>
        <time>2022-08-18T07:03:27.000Z</time>
      </trkpt>
      <trkpt lat="47.27409" lon="-2.35088">
        <ele>19.200000762939</ele>
        <time>2022-08-18T07:03:28.000Z</time>
      </trkpt>
      <trkpt lat="47.27419" lon="-2.35129">
        <ele>19.200000762939</ele>
        <time>2022-08-18T07:03:35.000Z</time>
      </trkpt>
      <trkpt lat="47.27421" lon="-2.35135">
        <ele>19.200000762939</ele>
        <time>2022-08-18T07:03:36.000Z</time>
      </trkpt>
      <trkpt lat="47.27428" lon="-2.3517">
        <ele>19.200000762939</ele>
        <time>2022-08-18T07:03:42.000Z</time>
      </trkpt>
      <trkpt lat="47.27432" lon="-2.35173">
        <ele>19.200000762939</ele>
        <time>2022-08-18T07:03:43.000Z</time>
      </trkpt>
      <trkpt lat="47.27439" lon="-2.3517">
        <ele>19.200000762939</ele>
        <time>2022-08-18T07:03:45.000Z</time>
      </trkpt>
      <trkpt lat="47.27442" lon="-2.35167">
        <ele>19.200000762939</ele>
        <time>2022-08-18T07:03:46.000Z</time>
      </trkpt>
      <trkpt lat="47.27461" lon="-2.35158">
        <ele>19.60000038147</ele>
        <time>2022-08-18T07:03:51.000Z</time>
      </trkpt>
      <trkpt lat="47.27465" lon="-2.35156">
        <ele>20</ele>
        <time>2022-08-18T07:03:52.000Z</time>
      </trkpt>
      <trkpt lat="47.27469" lon="-2.35154">
        <ele>20.39999961853</ele>
        <time>2022-08-18T07:03:53.000Z</time>
      </trkpt>
      <trkpt lat="47.27473" lon="-2.35152">
        <ele>20.799999237061</ele>
        <time>2022-08-18T07:03:54.000Z</time>
      </trkpt>
      <trkpt lat="47.27477" lon="-2.3515">
        <ele>21.200000762939</ele>
        <time>2022-08-18T07:03:55.000Z</time>
      </trkpt>
      <trkpt lat="47.27491" lon="-2.35144">
        <ele>21.200000762939</ele>
        <time>2022-08-18T07:03:59.000Z</time>
      </trkpt>
      <trkpt lat="47.27499" lon="-2.35138">
        <ele>21.200000762939</ele>
        <time>2022-08-18T07:04:02.000Z</time>
      </trkpt>
      <trkpt lat="47.275" lon="-2.35135">
        <ele>21.200000762939</ele>
        <time>2022-08-18T07:04:03.000Z</time>
      </trkpt>
      <trkpt lat="47.27507" lon="-2.35129">
        <ele>21.60000038147</ele>
        <time>2022-08-18T07:04:05.000Z</time>
      </trkpt>
      <trkpt lat="47.27511" lon="-2.3513">
        <ele>22.60000038147</ele>
        <time>2022-08-18T07:04:06.000Z</time>
      </trkpt>
      <trkpt lat="47.27515" lon="-2.35131">
        <ele>23</ele>
        <time>2022-08-18T07:04:07.000Z</time>
      </trkpt>
      <trkpt lat="47.27519" lon="-2.35132">
        <ele>23.39999961853</ele>
        <time>2022-08-18T07:04:08.000Z</time>
      </trkpt>
      <trkpt lat="47.27536" lon="-2.35139">
        <ele>23.39999961853</ele>
        <time>2022-08-18T07:04:13.000Z</time>
      </trkpt>
      <trkpt lat="47.27555" lon="-2.35136">
        <ele>23.39999961853</ele>
        <time>2022-08-18T07:04:18.000Z</time>
      </trkpt>
      <trkpt lat="47.27584" lon="-2.35131">
        <ele>23.39999961853</ele>
        <time>2022-08-18T07:04:25.000Z</time>
      </trkpt>
      <trkpt lat="47.27602" lon="-2.35133">
        <ele>23.39999961853</ele>
        <time>2022-08-18T07:04:29.000Z</time>
      </trkpt>
      <trkpt lat="47.27606" lon="-2.35137">
        <ele>23.39999961853</ele>
        <time>2022-08-18T07:04:30.000Z</time>
      </trkpt>
      <trkpt lat="47.2761" lon="-2.35156">
        <ele>23.39999961853</ele>
        <time>2022-08-18T07:04:33.000Z</time>
      </trkpt>
      <trkpt lat="47.27611" lon="-2.35162">
        <ele>23.39999961853</ele>
        <time>2022-08-18T07:04:34.000Z</time>
      </trkpt>
      <trkpt lat="47.27616" lon="-2.35172">
        <ele>23.39999961853</ele>
        <time>2022-08-18T07:04:36.000Z</time>
      </trkpt>
      <trkpt lat="47.27622" lon="-2.35173">
        <ele>23.39999961853</ele>
        <time>2022-08-18T07:04:37.000Z</time>
      </trkpt>
      <trkpt lat="47.27626" lon="-2.35174">
        <ele>23.39999961853</ele>
        <time>2022-08-18T07:04:38.000Z</time>
      </trkpt>
      <trkpt lat="47.27646" lon="-2.35171">
        <ele>23.39999961853</ele>
        <time>2022-08-18T07:04:42.000Z</time>
      </trkpt>
      <trkpt lat="47.2765" lon="-2.3517">
        <ele>23.39999961853</ele>
        <time>2022-08-18T07:04:43.000Z</time>
      </trkpt>
      <trkpt lat="47.2766" lon="-2.3517">
        <ele>23.39999961853</ele>
        <time>2022-08-18T07:04:45.000Z</time>
      </trkpt>
      <trkpt lat="47.27669" lon="-2.35175">
        <ele>23</ele>
        <time>2022-08-18T07:04:47.000Z</time>
      </trkpt>
      <trkpt lat="47.27673" lon="-2.35181">
        <ele>22.39999961853</ele>
        <time>2022-08-18T07:04:48.000Z</time>
      </trkpt>
      <trkpt lat="47.27675" lon="-2.35187">
        <ele>22</ele>
        <time>2022-08-18T07:04:49.000Z</time>
      </trkpt>
      <trkpt lat="47.27675" lon="-2.35195">
        <ele>21.60000038147</ele>
        <time>2022-08-18T07:04:50.000Z</time>
      </trkpt>
      <trkpt lat="47.27675" lon="-2.35202">
        <ele>21.200000762939</ele>
        <time>2022-08-18T07:04:51.000Z</time>
      </trkpt>
      <trkpt lat="47.27675" lon="-2.35209">
        <ele>21.200000762939</ele>
        <time>2022-08-18T07:04:52.000Z</time>
      </trkpt>
      <trkpt lat="47.27677" lon="-2.35218">
        <ele>21.200000762939</ele>
        <time>2022-08-18T07:04:54.000Z</time>
      </trkpt>
      <trkpt lat="47.27684" lon="-2.35221">
        <ele>20.799999237061</ele>
        <time>2022-08-18T07:04:56.000Z</time>
      </trkpt>
      <trkpt lat="47.27688" lon="-2.3522">
        <ele>20.39999961853</ele>
        <time>2022-08-18T07:04:57.000Z</time>
      </trkpt>
      <trkpt lat="47.27693" lon="-2.35218">
        <ele>20</ele>
        <time>2022-08-18T07:04:58.000Z</time>
      </trkpt>
      <trkpt lat="47.27698" lon="-2.35217">
        <ele>19.60000038147</ele>
        <time>2022-08-18T07:04:59.000Z</time>
      </trkpt>
      <trkpt lat="47.27703" lon="-2.35215">
        <ele>19.200000762939</ele>
        <time>2022-08-18T07:05:00.000Z</time>
      </trkpt>
      <trkpt lat="47.27718" lon="-2.3521">
        <ele>19.200000762939</ele>
        <time>2022-08-18T07:05:03.000Z</time>
      </trkpt>
      <trkpt lat="47.2776" lon="-2.35199">
        <ele>19.200000762939</ele>
        <time>2022-08-18T07:05:11.000Z</time>
      </trkpt>
      <trkpt lat="47.27764" lon="-2.35198">
        <ele>19.200000762939</ele>
        <time>2022-08-18T07:05:12.000Z</time>
      </trkpt>
      <trkpt lat="47.2777" lon="-2.35202">
        <ele>18.60000038147</ele>
        <time>2022-08-18T07:05:14.000Z</time>
      </trkpt>
      <trkpt lat="47.27772" lon="-2.35207">
        <ele>18.200000762939</ele>
        <time>2022-08-18T07:05:15.000Z</time>
      </trkpt>
      <trkpt lat="47.27774" lon="-2.35212">
        <ele>17.799999237061</ele>
        <time>2022-08-18T07:05:16.000Z</time>
      </trkpt>
      <trkpt lat="47.27776" lon="-2.35218">
        <ele>17.39999961853</ele>
        <time>2022-08-18T07:05:17.000Z</time>
      </trkpt>
      <trkpt lat="47.27777" lon="-2.35224">
        <ele>16.799999237061</ele>
        <time>2022-08-18T07:05:18.000Z</time>
      </trkpt>
      <trkpt lat="47.27778" lon="-2.35231">
        <ele>16.799999237061</ele>
        <time>2022-08-18T07:05:19.000Z</time>
      </trkpt>
      <trkpt lat="47.27789" lon="-2.35291">
        <ele>16.799999237061</ele>
        <time>2022-08-18T07:05:27.000Z</time>
      </trkpt>
      <trkpt lat="47.27804" lon="-2.3535">
        <ele>16.799999237061</ele>
        <time>2022-08-18T07:05:35.000Z</time>
      </trkpt>
      <trkpt lat="47.27807" lon="-2.35356">
        <ele>16.799999237061</ele>
        <time>2022-08-18T07:05:36.000Z</time>
      </trkpt>
      <trkpt lat="47.2782" lon="-2.35363">
        <ele>16.799999237061</ele>
        <time>2022-08-18T07:05:39.000Z</time>
      </trkpt>
      <trkpt lat="47.27834" lon="-2.35362">
        <ele>16.799999237061</ele>
        <time>2022-08-18T07:05:42.000Z</time>
      </trkpt>
      <trkpt lat="47.27844" lon="-2.35361">
        <ele>16.799999237061</ele>
        <time>2022-08-18T07:05:44.000Z</time>
      </trkpt>
      <trkpt lat="47.27866" lon="-2.35361">
        <ele>16.799999237061</ele>
        <time>2022-08-18T07:05:49.000Z</time>
      </trkpt>
      <trkpt lat="47.27874" lon="-2.35364">
        <ele>16.799999237061</ele>
        <time>2022-08-18T07:05:51.000Z</time>
      </trkpt>
      <trkpt lat="47.27884" lon="-2.35374">
        <ele>16.799999237061</ele>
        <time>2022-08-18T07:05:54.000Z</time>
      </trkpt>
      <trkpt lat="47.27891" lon="-2.35382">
        <ele>16.799999237061</ele>
        <time>2022-08-18T07:05:56.000Z</time>
      </trkpt>
      <trkpt lat="47.27914" lon="-2.35412">
        <ele>16.799999237061</ele>
        <time>2022-08-18T07:06:03.000Z</time>
      </trkpt>
      <trkpt lat="47.27935" lon="-2.3544">
        <ele>16.799999237061</ele>
        <time>2022-08-18T07:06:09.000Z</time>
      </trkpt>
      <trkpt lat="47.27943" lon="-2.35448">
        <ele>16.799999237061</ele>
        <time>2022-08-18T07:06:11.000Z</time>
      </trkpt>
      <trkpt lat="47.27952" lon="-2.35454">
        <ele>16.799999237061</ele>
        <time>2022-08-18T07:06:13.000Z</time>
      </trkpt>
      <trkpt lat="47.2797" lon="-2.35466">
        <ele>16.799999237061</ele>
        <time>2022-08-18T07:06:17.000Z</time>
      </trkpt>
      <trkpt lat="47.27985" lon="-2.35486">
        <ele>16.799999237061</ele>
        <time>2022-08-18T07:06:21.000Z</time>
      </trkpt>
      <trkpt lat="47.27998" lon="-2.35512">
        <ele>16.799999237061</ele>
        <time>2022-08-18T07:06:26.000Z</time>
      </trkpt>
      <trkpt lat="47.28005" lon="-2.35536">
        <ele>17.39999961853</ele>
        <time>2022-08-18T07:06:31.000Z</time>
      </trkpt>
      <trkpt lat="47.28006" lon="-2.3554">
        <ele>17.799999237061</ele>
        <time>2022-08-18T07:06:32.000Z</time>
      </trkpt>
      <trkpt lat="47.28007" lon="-2.35544">
        <ele>18.200000762939</ele>
        <time>2022-08-18T07:06:33.000Z</time>
      </trkpt>
      <trkpt lat="47.28008" lon="-2.35547">
        <ele>19</ele>
        <time>2022-08-18T07:06:34.000Z</time>
      </trkpt>
      <trkpt lat="47.28012" lon="-2.35558">
        <ele>19</ele>
        <time>2022-08-18T07:06:37.000Z</time>
      </trkpt>
      <trkpt lat="47.28013" lon="-2.35562">
        <ele>19</ele>
        <time>2022-08-18T07:06:38.000Z</time>
      </trkpt>
      <trkpt lat="47.28019" lon="-2.35564">
        <ele>19</ele>
        <time>2022-08-18T07:06:40.000Z</time>
      </trkpt>
      <trkpt lat="47.28035" lon="-2.3557">
        <ele>19</ele>
        <time>2022-08-18T07:06:45.000Z</time>
      </trkpt>
      <trkpt lat="47.28045" lon="-2.35574">
        <ele>19.60000038147</ele>
        <time>2022-08-18T07:06:48.000Z</time>
      </trkpt>
      <trkpt lat="47.28047" lon="-2.35575">
        <ele>20</ele>
        <time>2022-08-18T07:06:49.000Z</time>
      </trkpt>
      <trkpt lat="47.2805" lon="-2.35576">
        <ele>20.39999961853</ele>
        <time>2022-08-18T07:06:50.000Z</time>
      </trkpt>
      <trkpt lat="47.28052" lon="-2.35576">
        <ele>20.799999237061</ele>
        <time>2022-08-18T07:06:51.000Z</time>
      </trkpt>
      <trkpt lat="47.28054" lon="-2.35577">
        <ele>21.200000762939</ele>
        <time>2022-08-18T07:06:52.000Z</time>
      </trkpt>
      <trkpt lat="47.28057" lon="-2.35579">
        <ele>21.200000762939</ele>
        <time>2022-08-18T07:06:54.000Z</time>
      </trkpt>
      <trkpt lat="47.28057" lon="-2.35578">
        <ele>21.200000762939</ele>
        <time>2022-08-18T07:11:52.000Z</time>
      </trkpt>
      <trkpt lat="47.28045" lon="-2.35575">
        <ele>21.200000762939</ele>
        <time>2022-08-18T07:11:57.000Z</time>
      </trkpt>
      <trkpt lat="47.28028" lon="-2.35569">
        <ele>21.200000762939</ele>
        <time>2022-08-18T07:12:03.000Z</time>
      </trkpt>
      <trkpt lat="47.28014" lon="-2.35566">
        <ele>21.200000762939</ele>
        <time>2022-08-18T07:12:08.000Z</time>
      </trkpt>
      <trkpt lat="47.27992" lon="-2.35573">
        <ele>21.200000762939</ele>
        <time>2022-08-18T07:12:14.000Z</time>
      </trkpt>
      <trkpt lat="47.27984" lon="-2.35576">
        <ele>21.200000762939</ele>
        <time>2022-08-18T07:12:16.000Z</time>
      </trkpt>
      <trkpt lat="47.27969" lon="-2.3558">
        <ele>21.200000762939</ele>
        <time>2022-08-18T07:12:20.000Z</time>
      </trkpt>
      <trkpt lat="47.27956" lon="-2.35582">
        <ele>21.200000762939</ele>
        <time>2022-08-18T07:12:23.000Z</time>
      </trkpt>
      <trkpt lat="47.27948" lon="-2.35585">
        <ele>21.200000762939</ele>
        <time>2022-08-18T07:12:25.000Z</time>
      </trkpt>
      <trkpt lat="47.27917" lon="-2.35591">
        <ele>21.200000762939</ele>
        <time>2022-08-18T07:12:32.000Z</time>
      </trkpt>
      <trkpt lat="47.27912" lon="-2.35592">
        <ele>20.799999237061</ele>
        <time>2022-08-18T07:12:33.000Z</time>
      </trkpt>
      <trkpt lat="47.27907" lon="-2.35593">
        <ele>20.39999961853</ele>
        <time>2022-08-18T07:12:34.000Z</time>
      </trkpt>
      <trkpt lat="47.27903" lon="-2.35594">
        <ele>20</ele>
        <time>2022-08-18T07:12:35.000Z</time>
      </trkpt>
      <trkpt lat="47.27898" lon="-2.35595">
        <ele>19.60000038147</ele>
        <time>2022-08-18T07:12:36.000Z</time>
      </trkpt>
      <trkpt lat="47.27892" lon="-2.35596">
        <ele>19.200000762939</ele>
        <time>2022-08-18T07:12:37.000Z</time>
      </trkpt>
      <trkpt lat="47.2788" lon="-2.35599">
        <ele>19.200000762939</ele>
        <time>2022-08-18T07:12:39.000Z</time>
      </trkpt>
      <trkpt lat="47.27841" lon="-2.3561">
        <ele>18.200000762939</ele>
        <time>2022-08-18T07:12:45.000Z</time>
      </trkpt>
      <trkpt lat="47.27834" lon="-2.35612">
        <ele>17.799999237061</ele>
        <time>2022-08-18T07:12:46.000Z</time>
      </trkpt>
      <trkpt lat="47.27827" lon="-2.35614">
        <ele>17.39999961853</ele>
        <time>2022-08-18T07:12:47.000Z</time>
      </trkpt>
      <trkpt lat="47.2782" lon="-2.35616">
        <ele>17</ele>
        <time>2022-08-18T07:12:48.000Z</time>
      </trkpt>
      <trkpt lat="47.278" lon="-2.35623">
        <ele>17</ele>
        <time>2022-08-18T07:12:51.000Z</time>
      </trkpt>
      <trkpt lat="47.27768" lon="-2.35644">
        <ele>16.60000038147</ele>
        <time>2022-08-18T07:12:56.000Z</time>
      </trkpt>
      <trkpt lat="47.27762" lon="-2.3565">
        <ele>16</ele>
        <time>2022-08-18T07:12:57.000Z</time>
      </trkpt>
      <trkpt lat="47.27757" lon="-2.35656">
        <ele>15.60000038147</ele>
        <time>2022-08-18T07:12:58.000Z</time>
      </trkpt>
      <trkpt lat="47.27753" lon="-2.35663">
        <ele>15.199999809265</ele>
        <time>2022-08-18T07:12:59.000Z</time>
      </trkpt>
      <trkpt lat="47.27748" lon="-2.35669">
        <ele>14.800000190735</ele>
        <time>2022-08-18T07:13:00.000Z</time>
      </trkpt>
      <trkpt lat="47.27743" lon="-2.35677">
        <ele>14.800000190735</ele>
        <time>2022-08-18T07:13:01.000Z</time>
      </trkpt>
      <trkpt lat="47.27711" lon="-2.35719">
        <ele>14.800000190735</ele>
        <time>2022-08-18T07:13:07.000Z</time>
      </trkpt>
      <trkpt lat="47.27705" lon="-2.35724">
        <ele>14.800000190735</ele>
        <time>2022-08-18T07:13:08.000Z</time>
      </trkpt>
      <trkpt lat="47.27698" lon="-2.35728">
        <ele>14.39999961853</ele>
        <time>2022-08-18T07:13:09.000Z</time>
      </trkpt>
      <trkpt lat="47.27693" lon="-2.35733">
        <ele>13.39999961853</ele>
        <time>2022-08-18T07:13:10.000Z</time>
      </trkpt>
      <trkpt lat="47.27688" lon="-2.35739">
        <ele>13</ele>
        <time>2022-08-18T07:13:11.000Z</time>
      </trkpt>
      <trkpt lat="47.27686" lon="-2.35747">
        <ele>12.60000038147</ele>
        <time>2022-08-18T07:13:12.000Z</time>
      </trkpt>
      <trkpt lat="47.27686" lon="-2.35755">
        <ele>12.60000038147</ele>
        <time>2022-08-18T07:13:13.000Z</time>
      </trkpt>
      <trkpt lat="47.27697" lon="-2.35773">
        <ele>12.60000038147</ele>
        <time>2022-08-18T07:13:16.000Z</time>
      </trkpt>
      <trkpt lat="47.27701" lon="-2.35777">
        <ele>12.60000038147</ele>
        <time>2022-08-18T07:13:17.000Z</time>
      </trkpt>
      <trkpt lat="47.27731" lon="-2.35806">
        <ele>12.60000038147</ele>
        <time>2022-08-18T07:13:23.000Z</time>
      </trkpt>
      <trkpt lat="47.2776" lon="-2.35834">
        <ele>12.60000038147</ele>
        <time>2022-08-18T07:13:29.000Z</time>
      </trkpt>
      <trkpt lat="47.2777" lon="-2.35842">
        <ele>12.60000038147</ele>
        <time>2022-08-18T07:13:31.000Z</time>
      </trkpt>
      <trkpt lat="47.27774" lon="-2.35847">
        <ele>13</ele>
        <time>2022-08-18T07:13:32.000Z</time>
      </trkpt>
      <trkpt lat="47.27778" lon="-2.35851">
        <ele>13.39999961853</ele>
        <time>2022-08-18T07:13:33.000Z</time>
      </trkpt>
      <trkpt lat="47.27783" lon="-2.35855">
        <ele>14.199999809265</ele>
        <time>2022-08-18T07:13:34.000Z</time>
      </trkpt>
      <trkpt lat="47.27787" lon="-2.3586">
        <ele>14.60000038147</ele>
        <time>2022-08-18T07:13:35.000Z</time>
      </trkpt>
      <trkpt lat="47.27792" lon="-2.35864">
        <ele>14.60000038147</ele>
        <time>2022-08-18T07:13:36.000Z</time>
      </trkpt>
      <trkpt lat="47.27803" lon="-2.35882">
        <ele>14.60000038147</ele>
        <time>2022-08-18T07:13:39.000Z</time>
      </trkpt>
      <trkpt lat="47.27809" lon="-2.35893">
        <ele>14.60000038147</ele>
        <time>2022-08-18T07:13:41.000Z</time>
      </trkpt>
      <trkpt lat="47.27816" lon="-2.35905">
        <ele>14.60000038147</ele>
        <time>2022-08-18T07:13:43.000Z</time>
      </trkpt>
      <trkpt lat="47.27825" lon="-2.35912">
        <ele>15</ele>
        <time>2022-08-18T07:13:45.000Z</time>
      </trkpt>
      <trkpt lat="47.27831" lon="-2.35912">
        <ele>15.39999961853</ele>
        <time>2022-08-18T07:13:46.000Z</time>
      </trkpt>
      <trkpt lat="47.27836" lon="-2.35912">
        <ele>16</ele>
        <time>2022-08-18T07:13:47.000Z</time>
      </trkpt>
      <trkpt lat="47.27841" lon="-2.35911">
        <ele>16.39999961853</ele>
        <time>2022-08-18T07:13:48.000Z</time>
      </trkpt>
      <trkpt lat="47.27847" lon="-2.3591">
        <ele>16.799999237061</ele>
        <time>2022-08-18T07:13:49.000Z</time>
      </trkpt>
      <trkpt lat="47.27857" lon="-2.35909">
        <ele>16.799999237061</ele>
        <time>2022-08-18T07:13:51.000Z</time>
      </trkpt>
      <trkpt lat="47.27872" lon="-2.35905">
        <ele>16.799999237061</ele>
        <time>2022-08-18T07:13:54.000Z</time>
      </trkpt>
      <trkpt lat="47.27877" lon="-2.35905">
        <ele>17.200000762939</ele>
        <time>2022-08-18T07:13:55.000Z</time>
      </trkpt>
      <trkpt lat="47.27881" lon="-2.35906">
        <ele>17.60000038147</ele>
        <time>2022-08-18T07:13:56.000Z</time>
      </trkpt>
      <trkpt lat="47.27886" lon="-2.35908">
        <ele>18</ele>
        <time>2022-08-18T07:13:57.000Z</time>
      </trkpt>
      <trkpt lat="47.2789" lon="-2.35912">
        <ele>18.39999961853</ele>
        <time>2022-08-18T07:13:58.000Z</time>
      </trkpt>
      <trkpt lat="47.27893" lon="-2.35916">
        <ele>18.799999237061</ele>
        <time>2022-08-18T07:13:59.000Z</time>
      </trkpt>
      <trkpt lat="47.27899" lon="-2.35937">
        <ele>18.799999237061</ele>
        <time>2022-08-18T07:14:03.000Z</time>
      </trkpt>
      <trkpt lat="47.27899" lon="-2.35943">
        <ele>19.200000762939</ele>
        <time>2022-08-18T07:14:04.000Z</time>
      </trkpt>
      <trkpt lat="47.279" lon="-2.35949">
        <ele>19.60000038147</ele>
        <time>2022-08-18T07:14:05.000Z</time>
      </trkpt>
      <trkpt lat="47.27901" lon="-2.35955">
        <ele>20</ele>
        <time>2022-08-18T07:14:06.000Z</time>
      </trkpt>
      <trkpt lat="47.27901" lon="-2.35961">
        <ele>20.39999961853</ele>
        <time>2022-08-18T07:14:07.000Z</time>
      </trkpt>
      <trkpt lat="47.27902" lon="-2.35968">
        <ele>21</ele>
        <time>2022-08-18T07:14:08.000Z</time>
      </trkpt>
      <trkpt lat="47.27904" lon="-2.35979">
        <ele>21</ele>
        <time>2022-08-18T07:14:10.000Z</time>
      </trkpt>
      <trkpt lat="47.27908" lon="-2.3601">
        <ele>21</ele>
        <time>2022-08-18T07:14:15.000Z</time>
      </trkpt>
      <trkpt lat="47.27915" lon="-2.36064">
        <ele>20.60000038147</ele>
        <time>2022-08-18T07:14:22.000Z</time>
      </trkpt>
      <trkpt lat="47.27916" lon="-2.36073">
        <ele>20</ele>
        <time>2022-08-18T07:14:23.000Z</time>
      </trkpt>
      <trkpt lat="47.27917" lon="-2.36082">
        <ele>19.200000762939</ele>
        <time>2022-08-18T07:14:24.000Z</time>
      </trkpt>
      <trkpt lat="47.27919" lon="-2.36092">
        <ele>18.799999237061</ele>
        <time>2022-08-18T07:14:25.000Z</time>
      </trkpt>
      <trkpt lat="47.27922" lon="-2.36113">
        <ele>18.39999961853</ele>
        <time>2022-08-18T07:14:27.000Z</time>
      </trkpt>
      <trkpt lat="47.27924" lon="-2.36124">
        <ele>18</ele>
        <time>2022-08-18T07:14:28.000Z</time>
      </trkpt>
      <trkpt lat="47.27925" lon="-2.36134">
        <ele>17.39999961853</ele>
        <time>2022-08-18T07:14:29.000Z</time>
      </trkpt>
      <trkpt lat="47.27927" lon="-2.36143">
        <ele>17</ele>
        <time>2022-08-18T07:14:30.000Z</time>
      </trkpt>
      <trkpt lat="47.27929" lon="-2.36152">
        <ele>16.39999961853</ele>
        <time>2022-08-18T07:14:31.000Z</time>
      </trkpt>
      <trkpt lat="47.2793" lon="-2.36161">
        <ele>16</ele>
        <time>2022-08-18T07:14:32.000Z</time>
      </trkpt>
      <trkpt lat="47.27931" lon="-2.36169">
        <ele>15.60000038147</ele>
        <time>2022-08-18T07:14:33.000Z</time>
      </trkpt>
      <trkpt lat="47.27932" lon="-2.36177">
        <ele>15</ele>
        <time>2022-08-18T07:14:34.000Z</time>
      </trkpt>
      <trkpt lat="47.27934" lon="-2.36184">
        <ele>14.60000038147</ele>
        <time>2022-08-18T07:14:35.000Z</time>
      </trkpt>
      <trkpt lat="47.27935" lon="-2.3619">
        <ele>14</ele>
        <time>2022-08-18T07:14:36.000Z</time>
      </trkpt>
      <trkpt lat="47.27937" lon="-2.36196">
        <ele>13.60000038147</ele>
        <time>2022-08-18T07:14:37.000Z</time>
      </trkpt>
      <trkpt lat="47.27938" lon="-2.36202">
        <ele>13.199999809265</ele>
        <time>2022-08-18T07:14:38.000Z</time>
      </trkpt>
      <trkpt lat="47.2794" lon="-2.36208">
        <ele>12.60000038147</ele>
        <time>2022-08-18T07:14:39.000Z</time>
      </trkpt>
      <trkpt lat="47.27942" lon="-2.36214">
        <ele>12.199999809265</ele>
        <time>2022-08-18T07:14:40.000Z</time>
      </trkpt>
      <trkpt lat="47.27944" lon="-2.3622">
        <ele>11.60000038147</ele>
        <time>2022-08-18T07:14:41.000Z</time>
      </trkpt>
      <trkpt lat="47.27946" lon="-2.36225">
        <ele>11.60000038147</ele>
        <time>2022-08-18T07:14:42.000Z</time>
      </trkpt>
      <trkpt lat="47.27949" lon="-2.36229">
        <ele>11.60000038147</ele>
        <time>2022-08-18T07:14:43.000Z</time>
      </trkpt>
      <trkpt lat="47.27964" lon="-2.36248">
        <ele>11.60000038147</ele>
        <time>2022-08-18T07:14:48.000Z</time>
      </trkpt>
      <trkpt lat="47.27967" lon="-2.36252">
        <ele>11.60000038147</ele>
        <time>2022-08-18T07:14:49.000Z</time>
      </trkpt>
      <trkpt lat="47.27982" lon="-2.36276">
        <ele>11.199999809265</ele>
        <time>2022-08-18T07:14:53.000Z</time>
      </trkpt>
      <trkpt lat="47.27987" lon="-2.36282">
        <ele>10.800000190735</ele>
        <time>2022-08-18T07:14:54.000Z</time>
      </trkpt>
      <trkpt lat="47.27991" lon="-2.36289">
        <ele>10.199999809265</ele>
        <time>2022-08-18T07:14:55.000Z</time>
      </trkpt>
      <trkpt lat="47.27995" lon="-2.36296">
        <ele>9.8000001907349</ele>
        <time>2022-08-18T07:14:56.000Z</time>
      </trkpt>
      <trkpt lat="47.28" lon="-2.36304">
        <ele>9.1999998092651</ele>
        <time>2022-08-18T07:14:57.000Z</time>
      </trkpt>
      <trkpt lat="47.28013" lon="-2.36324">
        <ele>9.1999998092651</ele>
        <time>2022-08-18T07:15:00.000Z</time>
      </trkpt>
      <trkpt lat="47.28034" lon="-2.36357">
        <ele>9.1999998092651</ele>
        <time>2022-08-18T07:15:06.000Z</time>
      </trkpt>
      <trkpt lat="47.28056" lon="-2.36393">
        <ele>9.1999998092651</ele>
        <time>2022-08-18T07:15:13.000Z</time>
      </trkpt>
      <trkpt lat="47.28059" lon="-2.36398">
        <ele>9.1999998092651</ele>
        <time>2022-08-18T07:15:14.000Z</time>
      </trkpt>
      <trkpt lat="47.28076" lon="-2.36424">
        <ele>9.1999998092651</ele>
        <time>2022-08-18T07:15:19.000Z</time>
      </trkpt>
      <trkpt lat="47.28093" lon="-2.36451">
        <ele>9.1999998092651</ele>
        <time>2022-08-18T07:15:25.000Z</time>
      </trkpt>
      <trkpt lat="47.28109" lon="-2.36473">
        <ele>9.1999998092651</ele>
        <time>2022-08-18T07:15:31.000Z</time>
      </trkpt>
      <trkpt lat="47.28113" lon="-2.36477">
        <ele>9.1999998092651</ele>
        <time>2022-08-18T07:15:33.000Z</time>
      </trkpt>
      <trkpt lat="47.28115" lon="-2.36477">
        <ele>9.8000001907349</ele>
        <time>2022-08-18T07:15:34.000Z</time>
      </trkpt>
      <trkpt lat="47.28117" lon="-2.36475">
        <ele>10.199999809265</ele>
        <time>2022-08-18T07:15:35.000Z</time>
      </trkpt>
      <trkpt lat="47.28118" lon="-2.36472">
        <ele>10.60000038147</ele>
        <time>2022-08-18T07:15:36.000Z</time>
      </trkpt>
      <trkpt lat="47.2812" lon="-2.36467">
        <ele>11</ele>
        <time>2022-08-18T07:15:37.000Z</time>
      </trkpt>
      <trkpt lat="47.28122" lon="-2.36463">
        <ele>11.60000038147</ele>
        <time>2022-08-18T07:15:38.000Z</time>
      </trkpt>
      <trkpt lat="47.28122" lon="-2.36457">
        <ele>11.60000038147</ele>
        <time>2022-08-18T07:15:39.000Z</time>
      </trkpt>
      <trkpt lat="47.28123" lon="-2.3645">
        <ele>11.60000038147</ele>
        <time>2022-08-18T07:15:40.000Z</time>
      </trkpt>
      <trkpt lat="47.28124" lon="-2.36443">
        <ele>11.60000038147</ele>
        <time>2022-08-18T07:15:41.000Z</time>
      </trkpt>
      <trkpt lat="47.28129" lon="-2.36424">
        <ele>11.60000038147</ele>
        <time>2022-08-18T07:15:44.000Z</time>
      </trkpt>
      <trkpt lat="47.28138" lon="-2.36404">
        <ele>11.60000038147</ele>
        <time>2022-08-18T07:15:48.000Z</time>
      </trkpt>
      <trkpt lat="47.28148" lon="-2.3639">
        <ele>12</ele>
        <time>2022-08-18T07:15:51.000Z</time>
      </trkpt>
      <trkpt lat="47.28151" lon="-2.36385">
        <ele>12.39999961853</ele>
        <time>2022-08-18T07:15:52.000Z</time>
      </trkpt>
      <trkpt lat="47.28154" lon="-2.36381">
        <ele>12.800000190735</ele>
        <time>2022-08-18T07:15:53.000Z</time>
      </trkpt>
      <trkpt lat="47.28157" lon="-2.36377">
        <ele>13.199999809265</ele>
        <time>2022-08-18T07:15:54.000Z</time>
      </trkpt>
      <trkpt lat="47.2816" lon="-2.36374">
        <ele>13.60000038147</ele>
        <time>2022-08-18T07:15:55.000Z</time>
      </trkpt>
      <trkpt lat="47.28173" lon="-2.36366">
        <ele>13.60000038147</ele>
        <time>2022-08-18T07:15:59.000Z</time>
      </trkpt>
      <trkpt lat="47.28181" lon="-2.36367">
        <ele>14</ele>
        <time>2022-08-18T07:16:01.000Z</time>
      </trkpt>
      <trkpt lat="47.28185" lon="-2.36368">
        <ele>14.39999961853</ele>
        <time>2022-08-18T07:16:02.000Z</time>
      </trkpt>
      <trkpt lat="47.28189" lon="-2.36368">
        <ele>15.39999961853</ele>
        <time>2022-08-18T07:16:03.000Z</time>
      </trkpt>
      <trkpt lat="47.28193" lon="-2.36369">
        <ele>15.800000190735</ele>
        <time>2022-08-18T07:16:04.000Z</time>
      </trkpt>
      <trkpt lat="47.28209" lon="-2.36374">
        <ele>15.800000190735</ele>
        <time>2022-08-18T07:16:08.000Z</time>
      </trkpt>
      <trkpt lat="47.28216" lon="-2.36374">
        <ele>15.800000190735</ele>
        <time>2022-08-18T07:16:10.000Z</time>
      </trkpt>
      <trkpt lat="47.28231" lon="-2.36379">
        <ele>15.800000190735</ele>
        <time>2022-08-18T07:16:15.000Z</time>
      </trkpt>
      <trkpt lat="47.28233" lon="-2.36383">
        <ele>15.800000190735</ele>
        <time>2022-08-18T07:16:16.000Z</time>
      </trkpt>
      <trkpt lat="47.28237" lon="-2.36397">
        <ele>15.800000190735</ele>
        <time>2022-08-18T07:16:19.000Z</time>
      </trkpt>
      <trkpt lat="47.28239" lon="-2.3642">
        <ele>15.800000190735</ele>
        <time>2022-08-18T07:16:23.000Z</time>
      </trkpt>
      <trkpt lat="47.2824" lon="-2.36427">
        <ele>15.800000190735</ele>
        <time>2022-08-18T07:16:24.000Z</time>
      </trkpt>
      <trkpt lat="47.28239" lon="-2.36458">
        <ele>15.800000190735</ele>
        <time>2022-08-18T07:16:28.000Z</time>
      </trkpt>
      <trkpt lat="47.28241" lon="-2.36475">
        <ele>15.800000190735</ele>
        <time>2022-08-18T07:16:30.000Z</time>
      </trkpt>
      <trkpt lat="47.28246" lon="-2.36498">
        <ele>15.800000190735</ele>
        <time>2022-08-18T07:16:33.000Z</time>
      </trkpt>
      <trkpt lat="47.28254" lon="-2.3652">
        <ele>15.800000190735</ele>
        <time>2022-08-18T07:16:36.000Z</time>
      </trkpt>
      <trkpt lat="47.28271" lon="-2.36551">
        <ele>15.800000190735</ele>
        <time>2022-08-18T07:16:41.000Z</time>
      </trkpt>
      <trkpt lat="47.28294" lon="-2.36593">
        <ele>15.39999961853</ele>
        <time>2022-08-18T07:16:48.000Z</time>
      </trkpt>
      <trkpt lat="47.28297" lon="-2.36599">
        <ele>15</ele>
        <time>2022-08-18T07:16:49.000Z</time>
      </trkpt>
      <trkpt lat="47.283" lon="-2.36605">
        <ele>14.60000038147</ele>
        <time>2022-08-18T07:16:50.000Z</time>
      </trkpt>
      <trkpt lat="47.28303" lon="-2.3661">
        <ele>14.199999809265</ele>
        <time>2022-08-18T07:16:51.000Z</time>
      </trkpt>
      <trkpt lat="47.28306" lon="-2.36615">
        <ele>13.60000038147</ele>
        <time>2022-08-18T07:16:52.000Z</time>
      </trkpt>
      <trkpt lat="47.28313" lon="-2.36619">
        <ele>13.60000038147</ele>
        <time>2022-08-18T07:16:54.000Z</time>
      </trkpt>
      <trkpt lat="47.28323" lon="-2.36611">
        <ele>13.60000038147</ele>
        <time>2022-08-18T07:16:57.000Z</time>
      </trkpt>
      <trkpt lat="47.28348" lon="-2.36584">
        <ele>14</ele>
        <time>2022-08-18T07:17:04.000Z</time>
      </trkpt>
      <trkpt lat="47.28351" lon="-2.3658">
        <ele>14.39999961853</ele>
        <time>2022-08-18T07:17:05.000Z</time>
      </trkpt>
      <trkpt lat="47.28354" lon="-2.36576">
        <ele>15</ele>
        <time>2022-08-18T07:17:06.000Z</time>
      </trkpt>
      <trkpt lat="47.28356" lon="-2.36572">
        <ele>15.39999961853</ele>
        <time>2022-08-18T07:17:07.000Z</time>
      </trkpt>
      <trkpt lat="47.28359" lon="-2.36569">
        <ele>15.800000190735</ele>
        <time>2022-08-18T07:17:08.000Z</time>
      </trkpt>
      <trkpt lat="47.28362" lon="-2.3657">
        <ele>15.800000190735</ele>
        <time>2022-08-18T07:17:09.000Z</time>
      </trkpt>
      <trkpt lat="47.28372" lon="-2.3658">
        <ele>16.200000762939</ele>
        <time>2022-08-18T07:17:12.000Z</time>
      </trkpt>
      <trkpt lat="47.28374" lon="-2.36584">
        <ele>16.60000038147</ele>
        <time>2022-08-18T07:17:13.000Z</time>
      </trkpt>
      <trkpt lat="47.28377" lon="-2.36588">
        <ele>17</ele>
        <time>2022-08-18T07:17:14.000Z</time>
      </trkpt>
      <trkpt lat="47.28379" lon="-2.36592">
        <ele>17.39999961853</ele>
        <time>2022-08-18T07:17:15.000Z</time>
      </trkpt>
      <trkpt lat="47.28382" lon="-2.36596">
        <ele>17.799999237061</ele>
        <time>2022-08-18T07:17:16.000Z</time>
      </trkpt>
      <trkpt lat="47.28389" lon="-2.36607">
        <ele>18.200000762939</ele>
        <time>2022-08-18T07:17:19.000Z</time>
      </trkpt>
      <trkpt lat="47.28391" lon="-2.3661">
        <ele>18.799999237061</ele>
        <time>2022-08-18T07:17:20.000Z</time>
      </trkpt>
      <trkpt lat="47.28393" lon="-2.36614">
        <ele>19.200000762939</ele>
        <time>2022-08-18T07:17:21.000Z</time>
      </trkpt>
      <trkpt lat="47.28395" lon="-2.36617">
        <ele>19.60000038147</ele>
        <time>2022-08-18T07:17:22.000Z</time>
      </trkpt>
      <trkpt lat="47.28397" lon="-2.3662">
        <ele>20</ele>
        <time>2022-08-18T07:17:23.000Z</time>
      </trkpt>
      <trkpt lat="47.28404" lon="-2.3663">
        <ele>20</ele>
        <time>2022-08-18T07:17:26.000Z</time>
      </trkpt>
      <trkpt lat="47.28408" lon="-2.36637">
        <ele>20.60000038147</ele>
        <time>2022-08-18T07:17:28.000Z</time>
      </trkpt>
      <trkpt lat="47.28411" lon="-2.3664">
        <ele>21</ele>
        <time>2022-08-18T07:17:29.000Z</time>
      </trkpt>
      <trkpt lat="47.28413" lon="-2.36644">
        <ele>21.39999961853</ele>
        <time>2022-08-18T07:17:30.000Z</time>
      </trkpt>
      <trkpt lat="47.28415" lon="-2.36647">
        <ele>21.799999237061</ele>
        <time>2022-08-18T07:17:31.000Z</time>
      </trkpt>
      <trkpt lat="47.28417" lon="-2.3665">
        <ele>22.200000762939</ele>
        <time>2022-08-18T07:17:32.000Z</time>
      </trkpt>
      <trkpt lat="47.28419" lon="-2.36654">
        <ele>22.200000762939</ele>
        <time>2022-08-18T07:17:33.000Z</time>
      </trkpt>
      <trkpt lat="47.28431" lon="-2.36679">
        <ele>22.200000762939</ele>
        <time>2022-08-18T07:17:39.000Z</time>
      </trkpt>
      <trkpt lat="47.28441" lon="-2.36702">
        <ele>22.60000038147</ele>
        <time>2022-08-18T07:17:44.000Z</time>
      </trkpt>
      <trkpt lat="47.28443" lon="-2.36707">
        <ele>23</ele>
        <time>2022-08-18T07:17:45.000Z</time>
      </trkpt>
      <trkpt lat="47.28446" lon="-2.3671">
        <ele>23.60000038147</ele>
        <time>2022-08-18T07:17:46.000Z</time>
      </trkpt>
      <trkpt lat="47.28449" lon="-2.36713">
        <ele>24</ele>
        <time>2022-08-18T07:17:47.000Z</time>
      </trkpt>
      <trkpt lat="47.28453" lon="-2.36713">
        <ele>24.39999961853</ele>
        <time>2022-08-18T07:17:48.000Z</time>
      </trkpt>
      <trkpt lat="47.2846" lon="-2.3671">
        <ele>24.39999961853</ele>
        <time>2022-08-18T07:17:50.000Z</time>
      </trkpt>
      <trkpt lat="47.28467" lon="-2.36702">
        <ele>24.39999961853</ele>
        <time>2022-08-18T07:17:52.000Z</time>
      </trkpt>
      <trkpt lat="47.28476" lon="-2.36692">
        <ele>24.39999961853</ele>
        <time>2022-08-18T07:17:55.000Z</time>
      </trkpt>
      <trkpt lat="47.28493" lon="-2.36675">
        <ele>24.39999961853</ele>
        <time>2022-08-18T07:18:00.000Z</time>
      </trkpt>
      <trkpt lat="47.28513" lon="-2.3667">
        <ele>24.39999961853</ele>
        <time>2022-08-18T07:18:05.000Z</time>
      </trkpt>
      <trkpt lat="47.28541" lon="-2.36671">
        <ele>24.39999961853</ele>
        <time>2022-08-18T07:18:11.000Z</time>
      </trkpt>
      <trkpt lat="47.2855" lon="-2.36671">
        <ele>24.39999961853</ele>
        <time>2022-08-18T07:18:13.000Z</time>
      </trkpt>
      <trkpt lat="47.28568" lon="-2.3667">
        <ele>24.39999961853</ele>
        <time>2022-08-18T07:18:17.000Z</time>
      </trkpt>
      <trkpt lat="47.28576" lon="-2.36671">
        <ele>24.799999237061</ele>
        <time>2022-08-18T07:18:19.000Z</time>
      </trkpt>
      <trkpt lat="47.28579" lon="-2.36671">
        <ele>25.200000762939</ele>
        <time>2022-08-18T07:18:20.000Z</time>
      </trkpt>
      <trkpt lat="47.28583" lon="-2.3667">
        <ele>25.60000038147</ele>
        <time>2022-08-18T07:18:21.000Z</time>
      </trkpt>
      <trkpt lat="47.28587" lon="-2.3667">
        <ele>26</ele>
        <time>2022-08-18T07:18:22.000Z</time>
      </trkpt>
      <trkpt lat="47.28591" lon="-2.36669">
        <ele>26.39999961853</ele>
        <time>2022-08-18T07:18:23.000Z</time>
      </trkpt>
      <trkpt lat="47.28611" lon="-2.36667">
        <ele>26.39999961853</ele>
        <time>2022-08-18T07:18:28.000Z</time>
      </trkpt>
      <trkpt lat="47.28619" lon="-2.36664">
        <ele>26.799999237061</ele>
        <time>2022-08-18T07:18:30.000Z</time>
      </trkpt>
      <trkpt lat="47.28624" lon="-2.36663">
        <ele>27.200000762939</ele>
        <time>2022-08-18T07:18:31.000Z</time>
      </trkpt>
      <trkpt lat="47.28628" lon="-2.36661">
        <ele>27.799999237061</ele>
        <time>2022-08-18T07:18:32.000Z</time>
      </trkpt>
      <trkpt lat="47.28632" lon="-2.3666">
        <ele>28.200000762939</ele>
        <time>2022-08-18T07:18:33.000Z</time>
      </trkpt>
      <trkpt lat="47.28636" lon="-2.36658">
        <ele>28.60000038147</ele>
        <time>2022-08-18T07:18:34.000Z</time>
      </trkpt>
      <trkpt lat="47.2864" lon="-2.36656">
        <ele>28.60000038147</ele>
        <time>2022-08-18T07:18:35.000Z</time>
      </trkpt>
      <trkpt lat="47.28648" lon="-2.3665">
        <ele>29</ele>
        <time>2022-08-18T07:18:38.000Z</time>
      </trkpt>
      <trkpt lat="47.2865" lon="-2.36648">
        <ele>29.39999961853</ele>
        <time>2022-08-18T07:18:39.000Z</time>
      </trkpt>
      <trkpt lat="47.28652" lon="-2.36647">
        <ele>29.799999237061</ele>
        <time>2022-08-18T07:18:40.000Z</time>
      </trkpt>
      <trkpt lat="47.28655" lon="-2.36644">
        <ele>30.39999961853</ele>
        <time>2022-08-18T07:18:41.000Z</time>
      </trkpt>
      <trkpt lat="47.28658" lon="-2.36642">
        <ele>30.799999237061</ele>
        <time>2022-08-18T07:18:42.000Z</time>
      </trkpt>
      <trkpt lat="47.28667" lon="-2.36634">
        <ele>30.799999237061</ele>
        <time>2022-08-18T07:18:45.000Z</time>
      </trkpt>
      <trkpt lat="47.28675" lon="-2.36629">
        <ele>31.200000762939</ele>
        <time>2022-08-18T07:18:48.000Z</time>
      </trkpt>
      <trkpt lat="47.28678" lon="-2.36627">
        <ele>31.60000038147</ele>
        <time>2022-08-18T07:18:49.000Z</time>
      </trkpt>
      <trkpt lat="47.28681" lon="-2.36624">
        <ele>32</ele>
        <time>2022-08-18T07:18:50.000Z</time>
      </trkpt>
      <trkpt lat="47.28684" lon="-2.36621">
        <ele>32.400001525879</ele>
        <time>2022-08-18T07:18:51.000Z</time>
      </trkpt>
      <trkpt lat="47.28686" lon="-2.36619">
        <ele>33</ele>
        <time>2022-08-18T07:18:52.000Z</time>
      </trkpt>
      <trkpt lat="47.28694" lon="-2.36611">
        <ele>33</ele>
        <time>2022-08-18T07:18:55.000Z</time>
      </trkpt>
      <trkpt lat="47.28697" lon="-2.36607">
        <ele>33.400001525879</ele>
        <time>2022-08-18T07:18:56.000Z</time>
      </trkpt>
      <trkpt lat="47.287" lon="-2.36604">
        <ele>33.799999237061</ele>
        <time>2022-08-18T07:18:57.000Z</time>
      </trkpt>
      <trkpt lat="47.28703" lon="-2.36599">
        <ele>34.200000762939</ele>
        <time>2022-08-18T07:18:58.000Z</time>
      </trkpt>
      <trkpt lat="47.28706" lon="-2.36593">
        <ele>34.599998474121</ele>
        <time>2022-08-18T07:18:59.000Z</time>
      </trkpt>
      <trkpt lat="47.2871" lon="-2.36587">
        <ele>35.200000762939</ele>
        <time>2022-08-18T07:19:00.000Z</time>
      </trkpt>
      <trkpt lat="47.28713" lon="-2.36581">
        <ele>35.200000762939</ele>
        <time>2022-08-18T07:19:01.000Z</time>
      </trkpt>
      <trkpt lat="47.28729" lon="-2.36551">
        <ele>35.200000762939</ele>
        <time>2022-08-18T07:19:06.000Z</time>
      </trkpt>
      <trkpt lat="47.28732" lon="-2.36544">
        <ele>35.200000762939</ele>
        <time>2022-08-18T07:19:07.000Z</time>
      </trkpt>
      <trkpt lat="47.28735" lon="-2.36539">
        <ele>35.200000762939</ele>
        <time>2022-08-18T07:19:08.000Z</time>
      </trkpt>
      <trkpt lat="47.28749" lon="-2.36512">
        <ele>35.200000762939</ele>
        <time>2022-08-18T07:19:13.000Z</time>
      </trkpt>
      <trkpt lat="47.28765" lon="-2.36477">
        <ele>35.200000762939</ele>
        <time>2022-08-18T07:19:20.000Z</time>
      </trkpt>
      <trkpt lat="47.28773" lon="-2.36461">
        <ele>35.599998474121</ele>
        <time>2022-08-18T07:19:23.000Z</time>
      </trkpt>
      <trkpt lat="47.28775" lon="-2.36456">
        <ele>36</ele>
        <time>2022-08-18T07:19:24.000Z</time>
      </trkpt>
      <trkpt lat="47.28777" lon="-2.36451">
        <ele>36.400001525879</ele>
        <time>2022-08-18T07:19:25.000Z</time>
      </trkpt>
      <trkpt lat="47.2878" lon="-2.36446">
        <ele>36.799999237061</ele>
        <time>2022-08-18T07:19:26.000Z</time>
      </trkpt>
      <trkpt lat="47.28782" lon="-2.36441">
        <ele>37.200000762939</ele>
        <time>2022-08-18T07:19:27.000Z</time>
      </trkpt>
      <trkpt lat="47.28795" lon="-2.36422">
        <ele>37.200000762939</ele>
        <time>2022-08-18T07:19:33.000Z</time>
      </trkpt>
      <trkpt lat="47.28805" lon="-2.36409">
        <ele>37.200000762939</ele>
        <time>2022-08-18T07:19:38.000Z</time>
      </trkpt>
      <trkpt lat="47.28814" lon="-2.3639">
        <ele>37.200000762939</ele>
        <time>2022-08-18T07:19:43.000Z</time>
      </trkpt>
      <trkpt lat="47.28827" lon="-2.36363">
        <ele>37.200000762939</ele>
        <time>2022-08-18T07:19:49.000Z</time>
      </trkpt>
      <trkpt lat="47.2884" lon="-2.36347">
        <ele>37.200000762939</ele>
        <time>2022-08-18T07:19:53.000Z</time>
      </trkpt>
      <trkpt lat="47.28844" lon="-2.3634">
        <ele>36.799999237061</ele>
        <time>2022-08-18T07:19:56.000Z</time>
      </trkpt>
      <trkpt lat="47.28845" lon="-2.36338">
        <ele>36.400001525879</ele>
        <time>2022-08-18T07:19:57.000Z</time>
      </trkpt>
      <trkpt lat="47.28846" lon="-2.36337">
        <ele>36</ele>
        <time>2022-08-18T07:19:58.000Z</time>
      </trkpt>
      <trkpt lat="47.28847" lon="-2.36336">
        <ele>35.599998474121</ele>
        <time>2022-08-18T07:19:59.000Z</time>
      </trkpt>
      <trkpt lat="47.28848" lon="-2.36335">
        <ele>35.200000762939</ele>
        <time>2022-08-18T07:20:00.000Z</time>
      </trkpt>
      <trkpt lat="47.28851" lon="-2.36332">
        <ele>35.200000762939</ele>
        <time>2022-08-18T07:20:03.000Z</time>
      </trkpt>
      <trkpt lat="47.28856" lon="-2.36325">
        <ele>35.200000762939</ele>
        <time>2022-08-18T07:20:22.000Z</time>
      </trkpt>
      <trkpt lat="47.28858" lon="-2.36325">
        <ele>35.200000762939</ele>
        <time>2022-08-18T07:20:24.000Z</time>
      </trkpt>
      <trkpt lat="47.28857" lon="-2.36327">
        <ele>35.200000762939</ele>
        <time>2022-08-18T07:20:26.000Z</time>
      </trkpt>
      <trkpt lat="47.28857" lon="-2.36327">
        <ele>35.200000762939</ele>
        <time>2022-08-18T07:20:27.000Z</time>
      </trkpt>
      <trkpt lat="47.2886" lon="-2.36329">
        <ele>35.200000762939</ele>
        <time>2022-08-18T07:20:34.000Z</time>
      </trkpt>
      <trkpt lat="47.28863" lon="-2.36328">
        <ele>34.599998474121</ele>
        <time>2022-08-18T07:20:35.000Z</time>
      </trkpt>
      <trkpt lat="47.28867" lon="-2.3633">
        <ele>34.200000762939</ele>
        <time>2022-08-18T07:20:36.000Z</time>
      </trkpt>
      <trkpt lat="47.28872" lon="-2.36332">
        <ele>33.799999237061</ele>
        <time>2022-08-18T07:20:37.000Z</time>
      </trkpt>
      <trkpt lat="47.28878" lon="-2.36336">
        <ele>33</ele>
        <time>2022-08-18T07:20:38.000Z</time>
      </trkpt>
      <trkpt lat="47.28885" lon="-2.3634">
        <ele>32.200000762939</ele>
        <time>2022-08-18T07:20:39.000Z</time>
      </trkpt>
      <trkpt lat="47.28894" lon="-2.36345">
        <ele>31.200000762939</ele>
        <time>2022-08-18T07:20:40.000Z</time>
      </trkpt>
      <trkpt lat="47.28904" lon="-2.3635">
        <ele>30.200000762939</ele>
        <time>2022-08-18T07:20:41.000Z</time>
      </trkpt>
      <trkpt lat="47.28913" lon="-2.36355">
        <ele>29.200000762939</ele>
        <time>2022-08-18T07:20:42.000Z</time>
      </trkpt>
      <trkpt lat="47.28922" lon="-2.3636">
        <ele>28.200000762939</ele>
        <time>2022-08-18T07:20:43.000Z</time>
      </trkpt>
      <trkpt lat="47.2893" lon="-2.36366">
        <ele>27.39999961853</ele>
        <time>2022-08-18T07:20:44.000Z</time>
      </trkpt>
      <trkpt lat="47.28938" lon="-2.36373">
        <ele>26.39999961853</ele>
        <time>2022-08-18T07:20:45.000Z</time>
      </trkpt>
      <trkpt lat="47.28946" lon="-2.3638">
        <ele>25.60000038147</ele>
        <time>2022-08-18T07:20:46.000Z</time>
      </trkpt>
      <trkpt lat="47.28954" lon="-2.36388">
        <ele>24.60000038147</ele>
        <time>2022-08-18T07:20:47.000Z</time>
      </trkpt>
      <trkpt lat="47.28968" lon="-2.36406">
        <ele>24.200000762939</ele>
        <time>2022-08-18T07:20:49.000Z</time>
      </trkpt>
      <trkpt lat="47.28974" lon="-2.36416">
        <ele>23.799999237061</ele>
        <time>2022-08-18T07:20:50.000Z</time>
      </trkpt>
      <trkpt lat="47.2898" lon="-2.36426">
        <ele>23.39999961853</ele>
        <time>2022-08-18T07:20:51.000Z</time>
      </trkpt>
      <trkpt lat="47.28986" lon="-2.36436">
        <ele>23</ele>
        <time>2022-08-18T07:20:52.000Z</time>
      </trkpt>
      <trkpt lat="47.28991" lon="-2.36445">
        <ele>22.60000038147</ele>
        <time>2022-08-18T07:20:53.000Z</time>
      </trkpt>
      <trkpt lat="47.28997" lon="-2.36452">
        <ele>22.60000038147</ele>
        <time>2022-08-18T07:20:54.000Z</time>
      </trkpt>
      <trkpt lat="47.29017" lon="-2.36484">
        <ele>22.60000038147</ele>
        <time>2022-08-18T07:20:58.000Z</time>
      </trkpt>
      <trkpt lat="47.2902" lon="-2.36492">
        <ele>22.60000038147</ele>
        <time>2022-08-18T07:20:59.000Z</time>
      </trkpt>
      <trkpt lat="47.29026" lon="-2.36513">
        <ele>22.60000038147</ele>
        <time>2022-08-18T07:21:02.000Z</time>
      </trkpt>
      <trkpt lat="47.29027" lon="-2.3652">
        <ele>23</ele>
        <time>2022-08-18T07:21:03.000Z</time>
      </trkpt>
      <trkpt lat="47.29028" lon="-2.36528">
        <ele>23.39999961853</ele>
        <time>2022-08-18T07:21:04.000Z</time>
      </trkpt>
      <trkpt lat="47.2903" lon="-2.36536">
        <ele>23.799999237061</ele>
        <time>2022-08-18T07:21:05.000Z</time>
      </trkpt>
      <trkpt lat="47.29031" lon="-2.36544">
        <ele>24.39999961853</ele>
        <time>2022-08-18T07:21:06.000Z</time>
      </trkpt>
      <trkpt lat="47.29033" lon="-2.36552">
        <ele>24.799999237061</ele>
        <time>2022-08-18T07:21:07.000Z</time>
      </trkpt>
      <trkpt lat="47.29037" lon="-2.36573">
        <ele>25.200000762939</ele>
        <time>2022-08-18T07:21:10.000Z</time>
      </trkpt>
      <trkpt lat="47.29038" lon="-2.3658">
        <ele>25.60000038147</ele>
        <time>2022-08-18T07:21:11.000Z</time>
      </trkpt>
      <trkpt lat="47.2904" lon="-2.36586">
        <ele>26.200000762939</ele>
        <time>2022-08-18T07:21:12.000Z</time>
      </trkpt>
      <trkpt lat="47.29041" lon="-2.36593">
        <ele>26.60000038147</ele>
        <time>2022-08-18T07:21:13.000Z</time>
      </trkpt>
      <trkpt lat="47.29042" lon="-2.36599">
        <ele>27</ele>
        <time>2022-08-18T07:21:14.000Z</time>
      </trkpt>
      <trkpt lat="47.29047" lon="-2.36617">
        <ele>27</ele>
        <time>2022-08-18T07:21:17.000Z</time>
      </trkpt>
      <trkpt lat="47.29048" lon="-2.36622">
        <ele>27.39999961853</ele>
        <time>2022-08-18T07:21:18.000Z</time>
      </trkpt>
      <trkpt lat="47.2905" lon="-2.36627">
        <ele>27.799999237061</ele>
        <time>2022-08-18T07:21:19.000Z</time>
      </trkpt>
      <trkpt lat="47.29054" lon="-2.36629">
        <ele>28.39999961853</ele>
        <time>2022-08-18T07:21:20.000Z</time>
      </trkpt>
      <trkpt lat="47.29057" lon="-2.36629">
        <ele>28.799999237061</ele>
        <time>2022-08-18T07:21:21.000Z</time>
      </trkpt>
      <trkpt lat="47.29061" lon="-2.36629">
        <ele>29.200000762939</ele>
        <time>2022-08-18T07:21:22.000Z</time>
      </trkpt>
      <trkpt lat="47.29069" lon="-2.36623">
        <ele>29.200000762939</ele>
        <time>2022-08-18T07:21:25.000Z</time>
      </trkpt>
      <trkpt lat="47.29072" lon="-2.3662">
        <ele>29.200000762939</ele>
        <time>2022-08-18T07:21:26.000Z</time>
      </trkpt>
      <trkpt lat="47.29088" lon="-2.36604">
        <ele>29.200000762939</ele>
        <time>2022-08-18T07:21:31.000Z</time>
      </trkpt>
      <trkpt lat="47.29091" lon="-2.366">
        <ele>29.200000762939</ele>
        <time>2022-08-18T07:21:32.000Z</time>
      </trkpt>
      <trkpt lat="47.29099" lon="-2.36592">
        <ele>29.200000762939</ele>
        <time>2022-08-18T07:21:34.000Z</time>
      </trkpt>
      <trkpt lat="47.29115" lon="-2.3658">
        <ele>29.60000038147</ele>
        <time>2022-08-18T07:21:38.000Z</time>
      </trkpt>
      <trkpt lat="47.29119" lon="-2.36577">
        <ele>30</ele>
        <time>2022-08-18T07:21:39.000Z</time>
      </trkpt>
      <trkpt lat="47.29123" lon="-2.36575">
        <ele>30.39999961853</ele>
        <time>2022-08-18T07:21:40.000Z</time>
      </trkpt>
      <trkpt lat="47.29127" lon="-2.36573">
        <ele>30.799999237061</ele>
        <time>2022-08-18T07:21:41.000Z</time>
      </trkpt>
      <trkpt lat="47.29131" lon="-2.36571">
        <ele>31.200000762939</ele>
        <time>2022-08-18T07:21:42.000Z</time>
      </trkpt>
      <trkpt lat="47.29139" lon="-2.36567">
        <ele>31.200000762939</ele>
        <time>2022-08-18T07:21:45.000Z</time>
      </trkpt>
      <trkpt lat="47.29155" lon="-2.36564">
        <ele>31.200000762939</ele>
        <time>2022-08-18T07:21:50.000Z</time>
      </trkpt>
      <trkpt lat="47.29176" lon="-2.36558">
        <ele>31.200000762939</ele>
        <time>2022-08-18T07:21:56.000Z</time>
      </trkpt>
      <trkpt lat="47.29189" lon="-2.36558">
        <ele>31.200000762939</ele>
        <time>2022-08-18T07:22:01.000Z</time>
      </trkpt>
      <trkpt lat="47.29202" lon="-2.36553">
        <ele>31.200000762939</ele>
        <time>2022-08-18T07:22:07.000Z</time>
      </trkpt>
      <trkpt lat="47.29206" lon="-2.36548">
        <ele>31.200000762939</ele>
        <time>2022-08-18T07:22:09.000Z</time>
      </trkpt>
      <trkpt lat="47.2921" lon="-2.36541">
        <ele>31.200000762939</ele>
        <time>2022-08-18T07:22:11.000Z</time>
      </trkpt>
      <trkpt lat="47.29224" lon="-2.36537">
        <ele>31.200000762939</ele>
        <time>2022-08-18T07:22:15.000Z</time>
      </trkpt>
      <trkpt lat="47.29242" lon="-2.36533">
        <ele>31.200000762939</ele>
        <time>2022-08-18T07:22:20.000Z</time>
      </trkpt>
      <trkpt lat="47.29249" lon="-2.36547">
        <ele>31.200000762939</ele>
        <time>2022-08-18T07:22:23.000Z</time>
      </trkpt>
      <trkpt lat="47.29252" lon="-2.36565">
        <ele>31.200000762939</ele>
        <time>2022-08-18T07:22:26.000Z</time>
      </trkpt>
      <trkpt lat="47.29254" lon="-2.36579">
        <ele>31.200000762939</ele>
        <time>2022-08-18T07:22:28.000Z</time>
      </trkpt>
      <trkpt lat="47.29254" lon="-2.36586">
        <ele>31.200000762939</ele>
        <time>2022-08-18T07:22:29.000Z</time>
      </trkpt>
      <trkpt lat="47.29249" lon="-2.36604">
        <ele>31.200000762939</ele>
        <time>2022-08-18T07:22:32.000Z</time>
      </trkpt>
      <trkpt lat="47.29234" lon="-2.36617">
        <ele>31.200000762939</ele>
        <time>2022-08-18T07:22:36.000Z</time>
      </trkpt>
      <trkpt lat="47.2923" lon="-2.36619">
        <ele>31.200000762939</ele>
        <time>2022-08-18T07:22:37.000Z</time>
      </trkpt>
      <trkpt lat="47.29218" lon="-2.36626">
        <ele>31.60000038147</ele>
        <time>2022-08-18T07:22:40.000Z</time>
      </trkpt>
      <trkpt lat="47.29214" lon="-2.36629">
        <ele>32</ele>
        <time>2022-08-18T07:22:41.000Z</time>
      </trkpt>
      <trkpt lat="47.29211" lon="-2.36631">
        <ele>32.400001525879</ele>
        <time>2022-08-18T07:22:42.000Z</time>
      </trkpt>
      <trkpt lat="47.29207" lon="-2.36633">
        <ele>32.799999237061</ele>
        <time>2022-08-18T07:22:43.000Z</time>
      </trkpt>
      <trkpt lat="47.29205" lon="-2.36635">
        <ele>33.200000762939</ele>
        <time>2022-08-18T07:22:44.000Z</time>
      </trkpt>
      <trkpt lat="47.29204" lon="-2.36638">
        <ele>33.200000762939</ele>
        <time>2022-08-18T07:22:45.000Z</time>
      </trkpt>
      <trkpt lat="47.29205" lon="-2.36642">
        <ele>33.200000762939</ele>
        <time>2022-08-18T07:22:46.000Z</time>
      </trkpt>
      <trkpt lat="47.29211" lon="-2.3665">
        <ele>33.200000762939</ele>
        <time>2022-08-18T07:22:49.000Z</time>
      </trkpt>
      <trkpt lat="47.29217" lon="-2.36664">
        <ele>33.200000762939</ele>
        <time>2022-08-18T07:22:52.000Z</time>
      </trkpt>
      <trkpt lat="47.2922" lon="-2.36675">
        <ele>33.200000762939</ele>
        <time>2022-08-18T07:22:54.000Z</time>
      </trkpt>
      <trkpt lat="47.29228" lon="-2.36701">
        <ele>33.200000762939</ele>
        <time>2022-08-18T07:22:59.000Z</time>
      </trkpt>
      <trkpt lat="47.29235" lon="-2.36723">
        <ele>33.200000762939</ele>
        <time>2022-08-18T07:23:03.000Z</time>
      </trkpt>
      <trkpt lat="47.29236" lon="-2.36729">
        <ele>33.200000762939</ele>
        <time>2022-08-18T07:23:04.000Z</time>
      </trkpt>
      <trkpt lat="47.29246" lon="-2.3676">
        <ele>33.599998474121</ele>
        <time>2022-08-18T07:23:11.000Z</time>
      </trkpt>
      <trkpt lat="47.29248" lon="-2.36764">
        <ele>34</ele>
        <time>2022-08-18T07:23:12.000Z</time>
      </trkpt>
      <trkpt lat="47.2925" lon="-2.36768">
        <ele>34.400001525879</ele>
        <time>2022-08-18T07:23:13.000Z</time>
      </trkpt>
      <trkpt lat="47.29252" lon="-2.3677">
        <ele>35</ele>
        <time>2022-08-18T07:23:14.000Z</time>
      </trkpt>
      <trkpt lat="47.29255" lon="-2.3677">
        <ele>35.400001525879</ele>
        <time>2022-08-18T07:23:15.000Z</time>
      </trkpt>
      <trkpt lat="47.29257" lon="-2.36767">
        <ele>35.400001525879</ele>
        <time>2022-08-18T07:23:16.000Z</time>
      </trkpt>
      <trkpt lat="47.29277" lon="-2.36747">
        <ele>35.400001525879</ele>
        <time>2022-08-18T07:23:22.000Z</time>
      </trkpt>
      <trkpt lat="47.29286" lon="-2.36741">
        <ele>35.400001525879</ele>
        <time>2022-08-18T07:23:24.000Z</time>
      </trkpt>
      <trkpt lat="47.29301" lon="-2.36734">
        <ele>35.400001525879</ele>
        <time>2022-08-18T07:23:27.000Z</time>
      </trkpt>
      <trkpt lat="47.29335" lon="-2.36723">
        <ele>35.400001525879</ele>
        <time>2022-08-18T07:23:33.000Z</time>
      </trkpt>
      <trkpt lat="47.29368" lon="-2.3671">
        <ele>35.400001525879</ele>
        <time>2022-08-18T07:23:39.000Z</time>
      </trkpt>
      <trkpt lat="47.29399" lon="-2.36692">
        <ele>35.400001525879</ele>
        <time>2022-08-18T07:23:45.000Z</time>
      </trkpt>
      <trkpt lat="47.29414" lon="-2.36691">
        <ele>34.799999237061</ele>
        <time>2022-08-18T07:23:48.000Z</time>
      </trkpt>
      <trkpt lat="47.29419" lon="-2.36694">
        <ele>34.400001525879</ele>
        <time>2022-08-18T07:23:49.000Z</time>
      </trkpt>
      <trkpt lat="47.29423" lon="-2.36698">
        <ele>34</ele>
        <time>2022-08-18T07:23:50.000Z</time>
      </trkpt>
      <trkpt lat="47.29427" lon="-2.36703">
        <ele>33.200000762939</ele>
        <time>2022-08-18T07:23:51.000Z</time>
      </trkpt>
      <trkpt lat="47.29435" lon="-2.36715">
        <ele>33.200000762939</ele>
        <time>2022-08-18T07:23:53.000Z</time>
      </trkpt>
      <trkpt lat="47.29438" lon="-2.3672">
        <ele>33.200000762939</ele>
        <time>2022-08-18T07:23:54.000Z</time>
      </trkpt>
      <trkpt lat="47.29453" lon="-2.36739">
        <ele>33.200000762939</ele>
        <time>2022-08-18T07:23:58.000Z</time>
      </trkpt>
      <trkpt lat="47.29451" lon="-2.36752">
        <ele>33.200000762939</ele>
        <time>2022-08-18T07:24:00.000Z</time>
      </trkpt>
      <trkpt lat="47.29443" lon="-2.36763">
        <ele>33.200000762939</ele>
        <time>2022-08-18T07:24:02.000Z</time>
      </trkpt>
      <trkpt lat="47.29436" lon="-2.36776">
        <ele>33.200000762939</ele>
        <time>2022-08-18T07:24:04.000Z</time>
      </trkpt>
      <trkpt lat="47.29416" lon="-2.36817">
        <ele>33.200000762939</ele>
        <time>2022-08-18T07:24:10.000Z</time>
      </trkpt>
      <trkpt lat="47.29404" lon="-2.36835">
        <ele>33.200000762939</ele>
        <time>2022-08-18T07:24:13.000Z</time>
      </trkpt>
      <trkpt lat="47.29396" lon="-2.36847">
        <ele>33.599998474121</ele>
        <time>2022-08-18T07:24:15.000Z</time>
      </trkpt>
      <trkpt lat="47.29392" lon="-2.36852">
        <ele>34</ele>
        <time>2022-08-18T07:24:16.000Z</time>
      </trkpt>
      <trkpt lat="47.29388" lon="-2.36856">
        <ele>34.400001525879</ele>
        <time>2022-08-18T07:24:17.000Z</time>
      </trkpt>
      <trkpt lat="47.29383" lon="-2.3686">
        <ele>34.799999237061</ele>
        <time>2022-08-18T07:24:18.000Z</time>
      </trkpt>
      <trkpt lat="47.29379" lon="-2.36864">
        <ele>35.200000762939</ele>
        <time>2022-08-18T07:24:19.000Z</time>
      </trkpt>
      <trkpt lat="47.29374" lon="-2.36867">
        <ele>35.200000762939</ele>
        <time>2022-08-18T07:24:20.000Z</time>
      </trkpt>
      <trkpt lat="47.29369" lon="-2.36871">
        <ele>35.200000762939</ele>
        <time>2022-08-18T07:24:21.000Z</time>
      </trkpt>
      <trkpt lat="47.29337" lon="-2.36899">
        <ele>35.200000762939</ele>
        <time>2022-08-18T07:24:29.000Z</time>
      </trkpt>
      <trkpt lat="47.29332" lon="-2.36902">
        <ele>35.200000762939</ele>
        <time>2022-08-18T07:24:34.000Z</time>
      </trkpt>
      <trkpt lat="47.2933" lon="-2.3691">
        <ele>35.200000762939</ele>
        <time>2022-08-18T07:24:37.000Z</time>
      </trkpt>
      <trkpt lat="47.29332" lon="-2.36912">
        <ele>35.200000762939</ele>
        <time>2022-08-18T07:24:38.000Z</time>
      </trkpt>
      <trkpt lat="47.29345" lon="-2.36931">
        <ele>35.200000762939</ele>
        <time>2022-08-18T07:24:43.000Z</time>
      </trkpt>
      <trkpt lat="47.2935" lon="-2.36944">
        <ele>35.200000762939</ele>
        <time>2022-08-18T07:24:46.000Z</time>
      </trkpt>
      <trkpt lat="47.29349" lon="-2.36949">
        <ele>35.200000762939</ele>
        <time>2022-08-18T07:24:47.000Z</time>
      </trkpt>
      <trkpt lat="47.29338" lon="-2.36966">
        <ele>35.200000762939</ele>
        <time>2022-08-18T07:24:51.000Z</time>
      </trkpt>
      <trkpt lat="47.29329" lon="-2.3698">
        <ele>35.200000762939</ele>
        <time>2022-08-18T07:24:54.000Z</time>
      </trkpt>
      <trkpt lat="47.29326" lon="-2.36999">
        <ele>35.200000762939</ele>
        <time>2022-08-18T07:24:57.000Z</time>
      </trkpt>
      <trkpt lat="47.29328" lon="-2.37019">
        <ele>35.200000762939</ele>
        <time>2022-08-18T07:25:00.000Z</time>
      </trkpt>
      <trkpt lat="47.29328" lon="-2.37033">
        <ele>35.200000762939</ele>
        <time>2022-08-18T07:25:02.000Z</time>
      </trkpt>
      <trkpt lat="47.29326" lon="-2.37071">
        <ele>35.200000762939</ele>
        <time>2022-08-18T07:25:07.000Z</time>
      </trkpt>
      <trkpt lat="47.29335" lon="-2.37084">
        <ele>35.200000762939</ele>
        <time>2022-08-18T07:25:10.000Z</time>
      </trkpt>
      <trkpt lat="47.29348" lon="-2.37085">
        <ele>35.200000762939</ele>
        <time>2022-08-18T07:25:13.000Z</time>
      </trkpt>
      <trkpt lat="47.29354" lon="-2.37101">
        <ele>35.200000762939</ele>
        <time>2022-08-18T07:25:16.000Z</time>
      </trkpt>
      <trkpt lat="47.29359" lon="-2.3713">
        <ele>35.200000762939</ele>
        <time>2022-08-18T07:25:20.000Z</time>
      </trkpt>
      <trkpt lat="47.29361" lon="-2.37137">
        <ele>35.200000762939</ele>
        <time>2022-08-18T07:25:21.000Z</time>
      </trkpt>
      <trkpt lat="47.29377" lon="-2.37171">
        <ele>35.200000762939</ele>
        <time>2022-08-18T07:25:26.000Z</time>
      </trkpt>
      <trkpt lat="47.29382" lon="-2.37177">
        <ele>35.200000762939</ele>
        <time>2022-08-18T07:25:27.000Z</time>
      </trkpt>
      <trkpt lat="47.29391" lon="-2.37187">
        <ele>34.400001525879</ele>
        <time>2022-08-18T07:25:29.000Z</time>
      </trkpt>
      <trkpt lat="47.29396" lon="-2.3719">
        <ele>34</ele>
        <time>2022-08-18T07:25:30.000Z</time>
      </trkpt>
      <trkpt lat="47.29399" lon="-2.37196">
        <ele>33.599998474121</ele>
        <time>2022-08-18T07:25:31.000Z</time>
      </trkpt>
      <trkpt lat="47.29401" lon="-2.37203">
        <ele>33.200000762939</ele>
        <time>2022-08-18T07:25:32.000Z</time>
      </trkpt>
      <trkpt lat="47.29402" lon="-2.37217">
        <ele>33.200000762939</ele>
        <time>2022-08-18T07:25:34.000Z</time>
      </trkpt>
      <trkpt lat="47.29406" lon="-2.37229">
        <ele>33.200000762939</ele>
        <time>2022-08-18T07:25:37.000Z</time>
      </trkpt>
      <trkpt lat="47.29421" lon="-2.37239">
        <ele>33.200000762939</ele>
        <time>2022-08-18T07:25:41.000Z</time>
      </trkpt>
      <trkpt lat="47.29425" lon="-2.37244">
        <ele>33.200000762939</ele>
        <time>2022-08-18T07:25:42.000Z</time>
      </trkpt>
      <trkpt lat="47.29445" lon="-2.37263">
        <ele>33.200000762939</ele>
        <time>2022-08-18T07:25:47.000Z</time>
      </trkpt>
      <trkpt lat="47.29449" lon="-2.37267">
        <ele>33.200000762939</ele>
        <time>2022-08-18T07:25:48.000Z</time>
      </trkpt>
      <trkpt lat="47.29468" lon="-2.37287">
        <ele>33.200000762939</ele>
        <time>2022-08-18T07:25:53.000Z</time>
      </trkpt>
      <trkpt lat="47.29484" lon="-2.37304">
        <ele>33.200000762939</ele>
        <time>2022-08-18T07:25:57.000Z</time>
      </trkpt>
      <trkpt lat="47.29496" lon="-2.37318">
        <ele>33.599998474121</ele>
        <time>2022-08-18T07:26:00.000Z</time>
      </trkpt>
      <trkpt lat="47.29499" lon="-2.37323">
        <ele>34</ele>
        <time>2022-08-18T07:26:01.000Z</time>
      </trkpt>
      <trkpt lat="47.29503" lon="-2.37327">
        <ele>34.599998474121</ele>
        <time>2022-08-18T07:26:02.000Z</time>
      </trkpt>
      <trkpt lat="47.29507" lon="-2.37331">
        <ele>35</ele>
        <time>2022-08-18T07:26:03.000Z</time>
      </trkpt>
      <trkpt lat="47.29511" lon="-2.37335">
        <ele>35.400001525879</ele>
        <time>2022-08-18T07:26:04.000Z</time>
      </trkpt>
      <trkpt lat="47.29523" lon="-2.37349">
        <ele>35.400001525879</ele>
        <time>2022-08-18T07:26:07.000Z</time>
      </trkpt>
      <trkpt lat="47.29536" lon="-2.37367">
        <ele>35.400001525879</ele>
        <time>2022-08-18T07:26:11.000Z</time>
      </trkpt>
      <trkpt lat="47.29546" lon="-2.3738">
        <ele>35.400001525879</ele>
        <time>2022-08-18T07:26:14.000Z</time>
      </trkpt>
      <trkpt lat="47.29557" lon="-2.37392">
        <ele>35.400001525879</ele>
        <time>2022-08-18T07:26:17.000Z</time>
      </trkpt>
      <trkpt lat="47.29563" lon="-2.37401">
        <ele>36.200000762939</ele>
        <time>2022-08-18T07:26:19.000Z</time>
      </trkpt>
      <trkpt lat="47.29566" lon="-2.37406">
        <ele>36.599998474121</ele>
        <time>2022-08-18T07:26:20.000Z</time>
      </trkpt>
      <trkpt lat="47.29569" lon="-2.3741">
        <ele>37</ele>
        <time>2022-08-18T07:26:21.000Z</time>
      </trkpt>
      <trkpt lat="47.29572" lon="-2.37416">
        <ele>37.400001525879</ele>
        <time>2022-08-18T07:26:22.000Z</time>
      </trkpt>
      <trkpt lat="47.29577" lon="-2.37427">
        <ele>37.400001525879</ele>
        <time>2022-08-18T07:26:24.000Z</time>
      </trkpt>
      <trkpt lat="47.29584" lon="-2.37442">
        <ele>37.400001525879</ele>
        <time>2022-08-18T07:26:27.000Z</time>
      </trkpt>
      <trkpt lat="47.2961" lon="-2.37484">
        <ele>37.400001525879</ele>
        <time>2022-08-18T07:26:35.000Z</time>
      </trkpt>
      <trkpt lat="47.2962" lon="-2.37493">
        <ele>37.400001525879</ele>
        <time>2022-08-18T07:26:37.000Z</time>
      </trkpt>
      <trkpt lat="47.29631" lon="-2.37502">
        <ele>37.400001525879</ele>
        <time>2022-08-18T07:26:39.000Z</time>
      </trkpt>
      <trkpt lat="47.29644" lon="-2.37511">
        <ele>37</ele>
        <time>2022-08-18T07:26:41.000Z</time>
      </trkpt>
      <trkpt lat="47.29651" lon="-2.37516">
        <ele>36.599998474121</ele>
        <time>2022-08-18T07:26:42.000Z</time>
      </trkpt>
      <trkpt lat="47.29658" lon="-2.3752">
        <ele>35.599998474121</ele>
        <time>2022-08-18T07:26:43.000Z</time>
      </trkpt>
      <trkpt lat="47.29666" lon="-2.37526">
        <ele>35.200000762939</ele>
        <time>2022-08-18T07:26:44.000Z</time>
      </trkpt>
      <trkpt lat="47.29673" lon="-2.37531">
        <ele>35.200000762939</ele>
        <time>2022-08-18T07:26:45.000Z</time>
      </trkpt>
      <trkpt lat="47.29708" lon="-2.37562">
        <ele>35.200000762939</ele>
        <time>2022-08-18T07:26:51.000Z</time>
      </trkpt>
      <trkpt lat="47.29734" lon="-2.37595">
        <ele>35.200000762939</ele>
        <time>2022-08-18T07:26:57.000Z</time>
      </trkpt>
      <trkpt lat="47.29751" lon="-2.37617">
        <ele>35.599998474121</ele>
        <time>2022-08-18T07:27:01.000Z</time>
      </trkpt>
      <trkpt lat="47.29755" lon="-2.37622">
        <ele>36</ele>
        <time>2022-08-18T07:27:02.000Z</time>
      </trkpt>
      <trkpt lat="47.29759" lon="-2.37627">
        <ele>36.400001525879</ele>
        <time>2022-08-18T07:27:03.000Z</time>
      </trkpt>
      <trkpt lat="47.29763" lon="-2.37632">
        <ele>36.799999237061</ele>
        <time>2022-08-18T07:27:04.000Z</time>
      </trkpt>
      <trkpt lat="47.29766" lon="-2.37638">
        <ele>37.200000762939</ele>
        <time>2022-08-18T07:27:05.000Z</time>
      </trkpt>
      <trkpt lat="47.29779" lon="-2.37655">
        <ele>37.200000762939</ele>
        <time>2022-08-18T07:27:09.000Z</time>
      </trkpt>
      <trkpt lat="47.29785" lon="-2.37664">
        <ele>37.200000762939</ele>
        <time>2022-08-18T07:27:11.000Z</time>
      </trkpt>
      <trkpt lat="47.29799" lon="-2.37685">
        <ele>37.200000762939</ele>
        <time>2022-08-18T07:27:16.000Z</time>
      </trkpt>
      <trkpt lat="47.2982" lon="-2.37719">
        <ele>37.200000762939</ele>
        <time>2022-08-18T07:27:23.000Z</time>
      </trkpt>
      <trkpt lat="47.29844" lon="-2.37761">
        <ele>37.200000762939</ele>
        <time>2022-08-18T07:27:30.000Z</time>
      </trkpt>
      <trkpt lat="47.29864" lon="-2.37793">
        <ele>37.200000762939</ele>
        <time>2022-08-18T07:27:35.000Z</time>
      </trkpt>
      <trkpt lat="47.29869" lon="-2.37804">
        <ele>37.200000762939</ele>
        <time>2022-08-18T07:27:37.000Z</time>
      </trkpt>
      <trkpt lat="47.29866" lon="-2.37824">
        <ele>37.200000762939</ele>
        <time>2022-08-18T07:27:40.000Z</time>
      </trkpt>
      <trkpt lat="47.29863" lon="-2.3783">
        <ele>36.799999237061</ele>
        <time>2022-08-18T07:27:41.000Z</time>
      </trkpt>
      <trkpt lat="47.29861" lon="-2.37837">
        <ele>36.400001525879</ele>
        <time>2022-08-18T07:27:42.000Z</time>
      </trkpt>
      <trkpt lat="47.29858" lon="-2.37844">
        <ele>36</ele>
        <time>2022-08-18T07:27:43.000Z</time>
      </trkpt>
      <trkpt lat="47.29855" lon="-2.3785">
        <ele>35.599998474121</ele>
        <time>2022-08-18T07:27:44.000Z</time>
      </trkpt>
      <trkpt lat="47.29852" lon="-2.37856">
        <ele>35.200000762939</ele>
        <time>2022-08-18T07:27:45.000Z</time>
      </trkpt>
      <trkpt lat="47.29846" lon="-2.37868">
        <ele>35.200000762939</ele>
        <time>2022-08-18T07:27:47.000Z</time>
      </trkpt>
      <trkpt lat="47.29837" lon="-2.37876">
        <ele>35.200000762939</ele>
        <time>2022-08-18T07:27:49.000Z</time>
      </trkpt>
      <trkpt lat="47.29814" lon="-2.37894">
        <ele>35.200000762939</ele>
        <time>2022-08-18T07:27:54.000Z</time>
      </trkpt>
      <trkpt lat="47.29809" lon="-2.37896">
        <ele>35.200000762939</ele>
        <time>2022-08-18T07:27:55.000Z</time>
      </trkpt>
      <trkpt lat="47.29792" lon="-2.37906">
        <ele>35.200000762939</ele>
        <time>2022-08-18T07:27:59.000Z</time>
      </trkpt>
      <trkpt lat="47.29788" lon="-2.37908">
        <ele>35.200000762939</ele>
        <time>2022-08-18T07:28:00.000Z</time>
      </trkpt>
      <trkpt lat="47.29772" lon="-2.3792">
        <ele>35.200000762939</ele>
        <time>2022-08-18T07:28:03.000Z</time>
      </trkpt>
      <trkpt lat="47.29767" lon="-2.37924">
        <ele>35.200000762939</ele>
        <time>2022-08-18T07:28:04.000Z</time>
      </trkpt>
      <trkpt lat="47.29745" lon="-2.37952">
        <ele>35.200000762939</ele>
        <time>2022-08-18T07:28:09.000Z</time>
      </trkpt>
      <trkpt lat="47.29739" lon="-2.37966">
        <ele>35.200000762939</ele>
        <time>2022-08-18T07:28:11.000Z</time>
      </trkpt>
      <trkpt lat="47.29732" lon="-2.3798">
        <ele>34.599998474121</ele>
        <time>2022-08-18T07:28:13.000Z</time>
      </trkpt>
      <trkpt lat="47.29731" lon="-2.37987">
        <ele>34.200000762939</ele>
        <time>2022-08-18T07:28:14.000Z</time>
      </trkpt>
      <trkpt lat="47.29729" lon="-2.37995">
        <ele>33.599998474121</ele>
        <time>2022-08-18T07:28:15.000Z</time>
      </trkpt>
      <trkpt lat="47.29728" lon="-2.38003">
        <ele>33</ele>
        <time>2022-08-18T07:28:16.000Z</time>
      </trkpt>
      <trkpt lat="47.29729" lon="-2.3801">
        <ele>32.400001525879</ele>
        <time>2022-08-18T07:28:17.000Z</time>
      </trkpt>
      <trkpt lat="47.2973" lon="-2.38017">
        <ele>31.60000038147</ele>
        <time>2022-08-18T07:28:18.000Z</time>
      </trkpt>
      <trkpt lat="47.29732" lon="-2.38023">
        <ele>31</ele>
        <time>2022-08-18T07:28:19.000Z</time>
      </trkpt>
      <trkpt lat="47.29732" lon="-2.38029">
        <ele>30.200000762939</ele>
        <time>2022-08-18T07:28:20.000Z</time>
      </trkpt>
      <trkpt lat="47.29731" lon="-2.38033">
        <ele>28.60000038147</ele>
        <time>2022-08-18T07:28:21.000Z</time>
      </trkpt>
      <trkpt lat="47.29728" lon="-2.38039">
        <ele>27.799999237061</ele>
        <time>2022-08-18T07:28:22.000Z</time>
      </trkpt>
      <trkpt lat="47.29724" lon="-2.38043">
        <ele>27</ele>
        <time>2022-08-18T07:28:23.000Z</time>
      </trkpt>
      <trkpt lat="47.29718" lon="-2.38047">
        <ele>26.39999961853</ele>
        <time>2022-08-18T07:28:24.000Z</time>
      </trkpt>
      <trkpt lat="47.29712" lon="-2.38053">
        <ele>25.60000038147</ele>
        <time>2022-08-18T07:28:25.000Z</time>
      </trkpt>
      <trkpt lat="47.29705" lon="-2.38059">
        <ele>24.799999237061</ele>
        <time>2022-08-18T07:28:26.000Z</time>
      </trkpt>
      <trkpt lat="47.29698" lon="-2.38065">
        <ele>24.200000762939</ele>
        <time>2022-08-18T07:28:27.000Z</time>
      </trkpt>
      <trkpt lat="47.2969" lon="-2.38071">
        <ele>23.39999961853</ele>
        <time>2022-08-18T07:28:28.000Z</time>
      </trkpt>
      <trkpt lat="47.29681" lon="-2.38077">
        <ele>22.39999961853</ele>
        <time>2022-08-18T07:28:29.000Z</time>
      </trkpt>
      <trkpt lat="47.29673" lon="-2.38083">
        <ele>21.60000038147</ele>
        <time>2022-08-18T07:28:30.000Z</time>
      </trkpt>
      <trkpt lat="47.29664" lon="-2.38088">
        <ele>20.60000038147</ele>
        <time>2022-08-18T07:28:31.000Z</time>
      </trkpt>
      <trkpt lat="47.29656" lon="-2.38093">
        <ele>19.60000038147</ele>
        <time>2022-08-18T07:28:32.000Z</time>
      </trkpt>
      <trkpt lat="47.29647" lon="-2.38097">
        <ele>18.799999237061</ele>
        <time>2022-08-18T07:28:33.000Z</time>
      </trkpt>
      <trkpt lat="47.29639" lon="-2.38102">
        <ele>18</ele>
        <time>2022-08-18T07:28:34.000Z</time>
      </trkpt>
      <trkpt lat="47.29631" lon="-2.38107">
        <ele>17.200000762939</ele>
        <time>2022-08-18T07:28:35.000Z</time>
      </trkpt>
      <trkpt lat="47.29622" lon="-2.3811">
        <ele>16.39999961853</ele>
        <time>2022-08-18T07:28:36.000Z</time>
      </trkpt>
      <trkpt lat="47.29614" lon="-2.38113">
        <ele>15.60000038147</ele>
        <time>2022-08-18T07:28:37.000Z</time>
      </trkpt>
      <trkpt lat="47.29607" lon="-2.38115">
        <ele>14.800000190735</ele>
        <time>2022-08-18T07:28:38.000Z</time>
      </trkpt>
      <trkpt lat="47.29599" lon="-2.38117">
        <ele>14.39999961853</ele>
        <time>2022-08-18T07:28:39.000Z</time>
      </trkpt>
      <trkpt lat="47.29592" lon="-2.38119">
        <ele>14</ele>
        <time>2022-08-18T07:28:40.000Z</time>
      </trkpt>
      <trkpt lat="47.29584" lon="-2.3812">
        <ele>13.60000038147</ele>
        <time>2022-08-18T07:28:41.000Z</time>
      </trkpt>
      <trkpt lat="47.29577" lon="-2.38122">
        <ele>13.199999809265</ele>
        <time>2022-08-18T07:28:42.000Z</time>
      </trkpt>
      <trkpt lat="47.29569" lon="-2.38123">
        <ele>12.800000190735</ele>
        <time>2022-08-18T07:28:43.000Z</time>
      </trkpt>
      <trkpt lat="47.29548" lon="-2.38127">
        <ele>12</ele>
        <time>2022-08-18T07:28:46.000Z</time>
      </trkpt>
      <trkpt lat="47.29541" lon="-2.38128">
        <ele>11.60000038147</ele>
        <time>2022-08-18T07:28:47.000Z</time>
      </trkpt>
      <trkpt lat="47.29534" lon="-2.38127">
        <ele>11.199999809265</ele>
        <time>2022-08-18T07:28:48.000Z</time>
      </trkpt>
      <trkpt lat="47.29526" lon="-2.38127">
        <ele>10.60000038147</ele>
        <time>2022-08-18T07:28:49.000Z</time>
      </trkpt>
      <trkpt lat="47.29504" lon="-2.38125">
        <ele>10.199999809265</ele>
        <time>2022-08-18T07:28:52.000Z</time>
      </trkpt>
      <trkpt lat="47.29497" lon="-2.38125">
        <ele>9.8000001907349</ele>
        <time>2022-08-18T07:28:53.000Z</time>
      </trkpt>
      <trkpt lat="47.2949" lon="-2.38127">
        <ele>9.3999996185303</ele>
        <time>2022-08-18T07:28:54.000Z</time>
      </trkpt>
      <trkpt lat="47.29483" lon="-2.38131">
        <ele>9</ele>
        <time>2022-08-18T07:28:55.000Z</time>
      </trkpt>
      <trkpt lat="47.29477" lon="-2.38136">
        <ele>8.6000003814697</ele>
        <time>2022-08-18T07:28:56.000Z</time>
      </trkpt>
      <trkpt lat="47.29467" lon="-2.38144">
        <ele>8.6000003814697</ele>
        <time>2022-08-18T07:28:58.000Z</time>
      </trkpt>
      <trkpt lat="47.29459" lon="-2.38149">
        <ele>8.6000003814697</ele>
        <time>2022-08-18T07:29:00.000Z</time>
      </trkpt>
      <trkpt lat="47.29453" lon="-2.38152">
        <ele>8</ele>
        <time>2022-08-18T07:29:03.000Z</time>
      </trkpt>
      <trkpt lat="47.29451" lon="-2.38153">
        <ele>7.5999999046326</ele>
        <time>2022-08-18T07:29:04.000Z</time>
      </trkpt>
      <trkpt lat="47.29449" lon="-2.38155">
        <ele>7.1999998092651</ele>
        <time>2022-08-18T07:29:05.000Z</time>
      </trkpt>
      <trkpt lat="47.29448" lon="-2.38158">
        <ele>6.8000001907349</ele>
        <time>2022-08-18T07:29:06.000Z</time>
      </trkpt>
      <trkpt lat="47.29447" lon="-2.38162">
        <ele>6.4000000953674</ele>
        <time>2022-08-18T07:29:07.000Z</time>
      </trkpt>
      <trkpt lat="47.29448" lon="-2.38167">
        <ele>6.4000000953674</ele>
        <time>2022-08-18T07:29:08.000Z</time>
      </trkpt>
      <trkpt lat="47.29451" lon="-2.38184">
        <ele>6.4000000953674</ele>
        <time>2022-08-18T07:29:11.000Z</time>
      </trkpt>
      <trkpt lat="47.29451" lon="-2.38191">
        <ele>6.4000000953674</ele>
        <time>2022-08-18T07:29:12.000Z</time>
      </trkpt>
      <trkpt lat="47.29456" lon="-2.38244">
        <ele>6.4000000953674</ele>
        <time>2022-08-18T07:29:20.000Z</time>
      </trkpt>
      <trkpt lat="47.29458" lon="-2.38294">
        <ele>6.4000000953674</ele>
        <time>2022-08-18T07:29:27.000Z</time>
      </trkpt>
      <trkpt lat="47.29455" lon="-2.38365">
        <ele>6.4000000953674</ele>
        <time>2022-08-18T07:29:35.000Z</time>
      </trkpt>
      <trkpt lat="47.29458" lon="-2.38428">
        <ele>6.4000000953674</ele>
        <time>2022-08-18T07:29:42.000Z</time>
      </trkpt>
      <trkpt lat="47.29462" lon="-2.38509">
        <ele>6.4000000953674</ele>
        <time>2022-08-18T07:29:51.000Z</time>
      </trkpt>
      <trkpt lat="47.29464" lon="-2.38586">
        <ele>6.4000000953674</ele>
        <time>2022-08-18T07:30:00.000Z</time>
      </trkpt>
      <trkpt lat="47.29464" lon="-2.38645">
        <ele>6.4000000953674</ele>
        <time>2022-08-18T07:30:07.000Z</time>
      </trkpt>
      <trkpt lat="47.29465" lon="-2.38654">
        <ele>6.4000000953674</ele>
        <time>2022-08-18T07:30:08.000Z</time>
      </trkpt>
      <trkpt lat="47.29469" lon="-2.38685">
        <ele>6.4000000953674</ele>
        <time>2022-08-18T07:30:12.000Z</time>
      </trkpt>
      <trkpt lat="47.29474" lon="-2.38743">
        <ele>6.4000000953674</ele>
        <time>2022-08-18T07:30:19.000Z</time>
      </trkpt>
      <trkpt lat="47.29473" lon="-2.38791">
        <ele>6.8000001907349</ele>
        <time>2022-08-18T07:30:25.000Z</time>
      </trkpt>
      <trkpt lat="47.29473" lon="-2.38799">
        <ele>7.1999998092651</ele>
        <time>2022-08-18T07:30:26.000Z</time>
      </trkpt>
      <trkpt lat="47.29473" lon="-2.38806">
        <ele>7.5999999046326</ele>
        <time>2022-08-18T07:30:27.000Z</time>
      </trkpt>
      <trkpt lat="47.29473" lon="-2.38813">
        <ele>8</ele>
        <time>2022-08-18T07:30:28.000Z</time>
      </trkpt>
      <trkpt lat="47.29473" lon="-2.3882">
        <ele>8.3999996185303</ele>
        <time>2022-08-18T07:30:29.000Z</time>
      </trkpt>
      <trkpt lat="47.29474" lon="-2.38827">
        <ele>8.3999996185303</ele>
        <time>2022-08-18T07:30:30.000Z</time>
      </trkpt>
      <trkpt lat="47.29476" lon="-2.38834">
        <ele>8.3999996185303</ele>
        <time>2022-08-18T07:30:31.000Z</time>
      </trkpt>
      <trkpt lat="47.29492" lon="-2.38899">
        <ele>8.3999996185303</ele>
        <time>2022-08-18T07:30:40.000Z</time>
      </trkpt>
      <trkpt lat="47.29509" lon="-2.38941">
        <ele>8.3999996185303</ele>
        <time>2022-08-18T07:30:46.000Z</time>
      </trkpt>
      <trkpt lat="47.29513" lon="-2.38946">
        <ele>8.3999996185303</ele>
        <time>2022-08-18T07:30:47.000Z</time>
      </trkpt>
      <trkpt lat="47.2953" lon="-2.38966">
        <ele>8.3999996185303</ele>
        <time>2022-08-18T07:30:51.000Z</time>
      </trkpt>
      <trkpt lat="47.29555" lon="-2.38983">
        <ele>8.3999996185303</ele>
        <time>2022-08-18T07:30:56.000Z</time>
      </trkpt>
      <trkpt lat="47.2956" lon="-2.38986">
        <ele>8.3999996185303</ele>
        <time>2022-08-18T07:30:57.000Z</time>
      </trkpt>
      <trkpt lat="47.29587" lon="-2.38997">
        <ele>8.3999996185303</ele>
        <time>2022-08-18T07:31:02.000Z</time>
      </trkpt>
      <trkpt lat="47.29592" lon="-2.38998">
        <ele>8.3999996185303</ele>
        <time>2022-08-18T07:31:03.000Z</time>
      </trkpt>
      <trkpt lat="47.29598" lon="-2.39">
        <ele>8.3999996185303</ele>
        <time>2022-08-18T07:31:04.000Z</time>
      </trkpt>
      <trkpt lat="47.29618" lon="-2.39013">
        <ele>8.3999996185303</ele>
        <time>2022-08-18T07:31:08.000Z</time>
      </trkpt>
      <trkpt lat="47.29621" lon="-2.39017">
        <ele>8.3999996185303</ele>
        <time>2022-08-18T07:31:09.000Z</time>
      </trkpt>
      <trkpt lat="47.29626" lon="-2.39031">
        <ele>8.3999996185303</ele>
        <time>2022-08-18T07:31:11.000Z</time>
      </trkpt>
      <trkpt lat="47.29628" lon="-2.39055">
        <ele>8.3999996185303</ele>
        <time>2022-08-18T07:31:14.000Z</time>
      </trkpt>
      <trkpt lat="47.29628" lon="-2.39063">
        <ele>8.3999996185303</ele>
        <time>2022-08-18T07:31:15.000Z</time>
      </trkpt>
      <trkpt lat="47.29629" lon="-2.39128">
        <ele>8.3999996185303</ele>
        <time>2022-08-18T07:31:23.000Z</time>
      </trkpt>
      <trkpt lat="47.29636" lon="-2.39158">
        <ele>8.3999996185303</ele>
        <time>2022-08-18T07:31:27.000Z</time>
      </trkpt>
      <trkpt lat="47.2964" lon="-2.39166">
        <ele>8.3999996185303</ele>
        <time>2022-08-18T07:31:28.000Z</time>
      </trkpt>
      <trkpt lat="47.29654" lon="-2.3918">
        <ele>8.3999996185303</ele>
        <time>2022-08-18T07:31:31.000Z</time>
      </trkpt>
      <trkpt lat="47.29659" lon="-2.39183">
        <ele>8</ele>
        <time>2022-08-18T07:31:32.000Z</time>
      </trkpt>
      <trkpt lat="47.29663" lon="-2.39187">
        <ele>7.5999999046326</ele>
        <time>2022-08-18T07:31:33.000Z</time>
      </trkpt>
      <trkpt lat="47.29665" lon="-2.39192">
        <ele>7.1999998092651</ele>
        <time>2022-08-18T07:31:34.000Z</time>
      </trkpt>
      <trkpt lat="47.29664" lon="-2.39199">
        <ele>6.8000001907349</ele>
        <time>2022-08-18T07:31:35.000Z</time>
      </trkpt>
      <trkpt lat="47.29663" lon="-2.39205">
        <ele>6.4000000953674</ele>
        <time>2022-08-18T07:31:36.000Z</time>
      </trkpt>
      <trkpt lat="47.29656" lon="-2.39226">
        <ele>6.4000000953674</ele>
        <time>2022-08-18T07:31:39.000Z</time>
      </trkpt>
      <trkpt lat="47.29655" lon="-2.39234">
        <ele>6.4000000953674</ele>
        <time>2022-08-18T07:31:40.000Z</time>
      </trkpt>
      <trkpt lat="47.29649" lon="-2.39268">
        <ele>6.4000000953674</ele>
        <time>2022-08-18T07:31:44.000Z</time>
      </trkpt>
      <trkpt lat="47.29645" lon="-2.39327">
        <ele>6.4000000953674</ele>
        <time>2022-08-18T07:31:51.000Z</time>
      </trkpt>
      <trkpt lat="47.29642" lon="-2.39384">
        <ele>6.4000000953674</ele>
        <time>2022-08-18T07:31:58.000Z</time>
      </trkpt>
      <trkpt lat="47.29639" lon="-2.39391">
        <ele>6.4000000953674</ele>
        <time>2022-08-18T07:31:59.000Z</time>
      </trkpt>
      <trkpt lat="47.29634" lon="-2.39405">
        <ele>6.4000000953674</ele>
        <time>2022-08-18T07:32:01.000Z</time>
      </trkpt>
      <trkpt lat="47.2963" lon="-2.39431">
        <ele>6.4000000953674</ele>
        <time>2022-08-18T07:32:04.000Z</time>
      </trkpt>
      <trkpt lat="47.29628" lon="-2.39439">
        <ele>6.4000000953674</ele>
        <time>2022-08-18T07:32:05.000Z</time>
      </trkpt>
      <trkpt lat="47.29613" lon="-2.39464">
        <ele>6.4000000953674</ele>
        <time>2022-08-18T07:32:09.000Z</time>
      </trkpt>
      <trkpt lat="47.29589" lon="-2.39499">
        <ele>6.4000000953674</ele>
        <time>2022-08-18T07:32:15.000Z</time>
      </trkpt>
      <trkpt lat="47.29584" lon="-2.39501">
        <ele>6.4000000953674</ele>
        <time>2022-08-18T07:32:16.000Z</time>
      </trkpt>
      <trkpt lat="47.29571" lon="-2.39498">
        <ele>6.4000000953674</ele>
        <time>2022-08-18T07:32:19.000Z</time>
      </trkpt>
      <trkpt lat="47.29557" lon="-2.39498">
        <ele>6.4000000953674</ele>
        <time>2022-08-18T07:32:23.000Z</time>
      </trkpt>
      <trkpt lat="47.29554" lon="-2.39512">
        <ele>6.4000000953674</ele>
        <time>2022-08-18T07:32:26.000Z</time>
      </trkpt>
      <trkpt lat="47.29554" lon="-2.39521">
        <ele>6.4000000953674</ele>
        <time>2022-08-18T07:32:28.000Z</time>
      </trkpt>
      <trkpt lat="47.29556" lon="-2.3953">
        <ele>6.4000000953674</ele>
        <time>2022-08-18T07:32:31.000Z</time>
      </trkpt>
      <trkpt lat="47.29557" lon="-2.39532">
        <ele>6.8000001907349</ele>
        <time>2022-08-18T07:32:32.000Z</time>
      </trkpt>
      <trkpt lat="47.29557" lon="-2.39536">
        <ele>7.4000000953674</ele>
        <time>2022-08-18T07:32:33.000Z</time>
      </trkpt>
      <trkpt lat="47.29556" lon="-2.3954">
        <ele>7.8000001907349</ele>
        <time>2022-08-18T07:32:34.000Z</time>
      </trkpt>
      <trkpt lat="47.29556" lon="-2.39543">
        <ele>8.1999998092651</ele>
        <time>2022-08-18T07:32:35.000Z</time>
      </trkpt>
      <trkpt lat="47.29559" lon="-2.39545">
        <ele>8.6000003814697</ele>
        <time>2022-08-18T07:32:36.000Z</time>
      </trkpt>
      <trkpt lat="47.29569" lon="-2.39545">
        <ele>8.6000003814697</ele>
        <time>2022-08-18T07:32:39.000Z</time>
      </trkpt>
      <trkpt lat="47.29579" lon="-2.39547">
        <ele>9</ele>
        <time>2022-08-18T07:32:42.000Z</time>
      </trkpt>
      <trkpt lat="47.29582" lon="-2.39547">
        <ele>9.3999996185303</ele>
        <time>2022-08-18T07:32:43.000Z</time>
      </trkpt>
      <trkpt lat="47.29584" lon="-2.39547">
        <ele>9.8000001907349</ele>
        <time>2022-08-18T07:32:44.000Z</time>
      </trkpt>
      <trkpt lat="47.29587" lon="-2.39548">
        <ele>10.199999809265</ele>
        <time>2022-08-18T07:32:45.000Z</time>
      </trkpt>
      <trkpt lat="47.29589" lon="-2.39548">
        <ele>10.800000190735</ele>
        <time>2022-08-18T07:32:46.000Z</time>
      </trkpt>
      <trkpt lat="47.296" lon="-2.3955">
        <ele>10.800000190735</ele>
        <time>2022-08-18T07:32:50.000Z</time>
      </trkpt>
      <trkpt lat="47.2962" lon="-2.39553">
        <ele>10.800000190735</ele>
        <time>2022-08-18T07:32:54.000Z</time>
      </trkpt>
      <trkpt lat="47.29625" lon="-2.39557">
        <ele>10.800000190735</ele>
        <time>2022-08-18T07:32:56.000Z</time>
      </trkpt>
      <trkpt lat="47.29624" lon="-2.3956">
        <ele>10.800000190735</ele>
        <time>2022-08-18T07:32:57.000Z</time>
      </trkpt>
      <trkpt lat="47.29613" lon="-2.39565">
        <ele>10.199999809265</ele>
        <time>2022-08-18T07:33:00.000Z</time>
      </trkpt>
      <trkpt lat="47.29609" lon="-2.39567">
        <ele>9.8000001907349</ele>
        <time>2022-08-18T07:33:01.000Z</time>
      </trkpt>
      <trkpt lat="47.29609" lon="-2.39571">
        <ele>9.3999996185303</ele>
        <time>2022-08-18T07:33:02.000Z</time>
      </trkpt>
      <trkpt lat="47.29611" lon="-2.39575">
        <ele>9</ele>
        <time>2022-08-18T07:33:03.000Z</time>
      </trkpt>
      <trkpt lat="47.29614" lon="-2.39576">
        <ele>8.6000003814697</ele>
        <time>2022-08-18T07:33:04.000Z</time>
      </trkpt>
      <trkpt lat="47.29623" lon="-2.39575">
        <ele>8.1999998092651</ele>
        <time>2022-08-18T07:33:06.000Z</time>
      </trkpt>
      <trkpt lat="47.29626" lon="-2.39576">
        <ele>7.8000001907349</ele>
        <time>2022-08-18T07:33:07.000Z</time>
      </trkpt>
      <trkpt lat="47.29629" lon="-2.39579">
        <ele>7.1999998092651</ele>
        <time>2022-08-18T07:33:08.000Z</time>
      </trkpt>
      <trkpt lat="47.29631" lon="-2.39584">
        <ele>6.8000001907349</ele>
        <time>2022-08-18T07:33:09.000Z</time>
      </trkpt>
      <trkpt lat="47.29632" lon="-2.39589">
        <ele>6.4000000953674</ele>
        <time>2022-08-18T07:33:10.000Z</time>
      </trkpt>
      <trkpt lat="47.29631" lon="-2.39603">
        <ele>6.4000000953674</ele>
        <time>2022-08-18T07:33:12.000Z</time>
      </trkpt>
      <trkpt lat="47.29629" lon="-2.39635">
        <ele>6.4000000953674</ele>
        <time>2022-08-18T07:33:16.000Z</time>
      </trkpt>
      <trkpt lat="47.29625" lon="-2.39651">
        <ele>6.4000000953674</ele>
        <time>2022-08-18T07:33:18.000Z</time>
      </trkpt>
      <trkpt lat="47.2961" lon="-2.39677">
        <ele>6.4000000953674</ele>
        <time>2022-08-18T07:33:22.000Z</time>
      </trkpt>
      <trkpt lat="47.29598" lon="-2.39701">
        <ele>6.4000000953674</ele>
        <time>2022-08-18T07:33:26.000Z</time>
      </trkpt>
      <trkpt lat="47.29597" lon="-2.39708">
        <ele>6.4000000953674</ele>
        <time>2022-08-18T07:33:27.000Z</time>
      </trkpt>
      <trkpt lat="47.29603" lon="-2.39725">
        <ele>6.4000000953674</ele>
        <time>2022-08-18T07:33:30.000Z</time>
      </trkpt>
      <trkpt lat="47.29606" lon="-2.3973">
        <ele>6.4000000953674</ele>
        <time>2022-08-18T07:33:31.000Z</time>
      </trkpt>
      <trkpt lat="47.29608" lon="-2.39736">
        <ele>6.4000000953674</ele>
        <time>2022-08-18T07:33:32.000Z</time>
      </trkpt>
      <trkpt lat="47.29616" lon="-2.39754">
        <ele>6.4000000953674</ele>
        <time>2022-08-18T07:33:35.000Z</time>
      </trkpt>
      <trkpt lat="47.29617" lon="-2.39761">
        <ele>6.4000000953674</ele>
        <time>2022-08-18T07:33:36.000Z</time>
      </trkpt>
      <trkpt lat="47.29616" lon="-2.39776">
        <ele>6.4000000953674</ele>
        <time>2022-08-18T07:33:38.000Z</time>
      </trkpt>
      <trkpt lat="47.29606" lon="-2.39793">
        <ele>6.4000000953674</ele>
        <time>2022-08-18T07:33:41.000Z</time>
      </trkpt>
      <trkpt lat="47.29602" lon="-2.39799">
        <ele>6.4000000953674</ele>
        <time>2022-08-18T07:33:42.000Z</time>
      </trkpt>
      <trkpt lat="47.29599" lon="-2.39805">
        <ele>6.4000000953674</ele>
        <time>2022-08-18T07:33:43.000Z</time>
      </trkpt>
      <trkpt lat="47.29601" lon="-2.39817">
        <ele>6.4000000953674</ele>
        <time>2022-08-18T07:33:45.000Z</time>
      </trkpt>
      <trkpt lat="47.29607" lon="-2.39829">
        <ele>6.4000000953674</ele>
        <time>2022-08-18T07:33:47.000Z</time>
      </trkpt>
      <trkpt lat="47.29609" lon="-2.39835">
        <ele>6.4000000953674</ele>
        <time>2022-08-18T07:33:48.000Z</time>
      </trkpt>
      <trkpt lat="47.29611" lon="-2.39841">
        <ele>6.4000000953674</ele>
        <time>2022-08-18T07:33:49.000Z</time>
      </trkpt>
      <trkpt lat="47.29607" lon="-2.3986">
        <ele>6.4000000953674</ele>
        <time>2022-08-18T07:33:52.000Z</time>
      </trkpt>
      <trkpt lat="47.29604" lon="-2.39866">
        <ele>6.4000000953674</ele>
        <time>2022-08-18T07:33:53.000Z</time>
      </trkpt>
      <trkpt lat="47.29603" lon="-2.39872">
        <ele>6.4000000953674</ele>
        <time>2022-08-18T07:33:54.000Z</time>
      </trkpt>
      <trkpt lat="47.29605" lon="-2.39886">
        <ele>6.4000000953674</ele>
        <time>2022-08-18T07:33:56.000Z</time>
      </trkpt>
      <trkpt lat="47.29612" lon="-2.39897">
        <ele>6.4000000953674</ele>
        <time>2022-08-18T07:33:58.000Z</time>
      </trkpt>
      <trkpt lat="47.29615" lon="-2.39902">
        <ele>6.4000000953674</ele>
        <time>2022-08-18T07:33:59.000Z</time>
      </trkpt>
      <trkpt lat="47.29617" lon="-2.39908">
        <ele>6.4000000953674</ele>
        <time>2022-08-18T07:34:00.000Z</time>
      </trkpt>
      <trkpt lat="47.29625" lon="-2.39922">
        <ele>6.4000000953674</ele>
        <time>2022-08-18T07:34:03.000Z</time>
      </trkpt>
      <trkpt lat="47.29639" lon="-2.39949">
        <ele>6.4000000953674</ele>
        <time>2022-08-18T07:34:09.000Z</time>
      </trkpt>
      <trkpt lat="47.29649" lon="-2.39973">
        <ele>6.8000001907349</ele>
        <time>2022-08-18T07:34:15.000Z</time>
      </trkpt>
      <trkpt lat="47.29648" lon="-2.39979">
        <ele>7.1999998092651</ele>
        <time>2022-08-18T07:34:16.000Z</time>
      </trkpt>
      <trkpt lat="47.29645" lon="-2.39983">
        <ele>7.5999999046326</ele>
        <time>2022-08-18T07:34:17.000Z</time>
      </trkpt>
      <trkpt lat="47.29642" lon="-2.39988">
        <ele>8</ele>
        <time>2022-08-18T07:34:18.000Z</time>
      </trkpt>
      <trkpt lat="47.29638" lon="-2.39992">
        <ele>8.3999996185303</ele>
        <time>2022-08-18T07:34:19.000Z</time>
      </trkpt>
      <trkpt lat="47.29633" lon="-2.39995">
        <ele>8.3999996185303</ele>
        <time>2022-08-18T07:34:20.000Z</time>
      </trkpt>
      <trkpt lat="47.2962" lon="-2.40009">
        <ele>8.3999996185303</ele>
        <time>2022-08-18T07:34:23.000Z</time>
      </trkpt>
      <trkpt lat="47.29619" lon="-2.40031">
        <ele>8.3999996185303</ele>
        <time>2022-08-18T07:34:26.000Z</time>
      </trkpt>
      <trkpt lat="47.29623" lon="-2.40042">
        <ele>8.3999996185303</ele>
        <time>2022-08-18T07:34:28.000Z</time>
      </trkpt>
      <trkpt lat="47.29627" lon="-2.40049">
        <ele>8.3999996185303</ele>
        <time>2022-08-18T07:34:30.000Z</time>
      </trkpt>
      <trkpt lat="47.29633" lon="-2.40063">
        <ele>8.3999996185303</ele>
        <time>2022-08-18T07:34:35.000Z</time>
      </trkpt>
      <trkpt lat="47.29639" lon="-2.40064">
        <ele>8.3999996185303</ele>
        <time>2022-08-18T07:34:38.000Z</time>
      </trkpt>
      <trkpt lat="47.2964" lon="-2.40064">
        <ele>8.3999996185303</ele>
        <time>2022-08-18T07:34:39.000Z</time>
      </trkpt>
      <trkpt lat="47.29647" lon="-2.40067">
        <ele>8.3999996185303</ele>
        <time>2022-08-18T07:34:43.000Z</time>
      </trkpt>
      <trkpt lat="47.29651" lon="-2.40084">
        <ele>8.3999996185303</ele>
        <time>2022-08-18T07:34:47.000Z</time>
      </trkpt>
      <trkpt lat="47.29656" lon="-2.40108">
        <ele>8.3999996185303</ele>
        <time>2022-08-18T07:34:52.000Z</time>
      </trkpt>
      <trkpt lat="47.29664" lon="-2.40134">
        <ele>8.8000001907349</ele>
        <time>2022-08-18T07:34:58.000Z</time>
      </trkpt>
      <trkpt lat="47.29667" lon="-2.40136">
        <ele>9.1999998092651</ele>
        <time>2022-08-18T07:34:59.000Z</time>
      </trkpt>
      <trkpt lat="47.29669" lon="-2.4014">
        <ele>9.8000001907349</ele>
        <time>2022-08-18T07:35:00.000Z</time>
      </trkpt>
      <trkpt lat="47.29671" lon="-2.40145">
        <ele>10.199999809265</ele>
        <time>2022-08-18T07:35:01.000Z</time>
      </trkpt>
      <trkpt lat="47.29671" lon="-2.40152">
        <ele>10.60000038147</ele>
        <time>2022-08-18T07:35:02.000Z</time>
      </trkpt>
      <trkpt lat="47.2967" lon="-2.40159">
        <ele>10.60000038147</ele>
        <time>2022-08-18T07:35:03.000Z</time>
      </trkpt>
      <trkpt lat="47.29671" lon="-2.40175">
        <ele>10.60000038147</ele>
        <time>2022-08-18T07:35:05.000Z</time>
      </trkpt>
      <trkpt lat="47.29673" lon="-2.402">
        <ele>10.60000038147</ele>
        <time>2022-08-18T07:35:08.000Z</time>
      </trkpt>
      <trkpt lat="47.29677" lon="-2.40255">
        <ele>11</ele>
        <time>2022-08-18T07:35:15.000Z</time>
      </trkpt>
      <trkpt lat="47.29678" lon="-2.40262">
        <ele>11.39999961853</ele>
        <time>2022-08-18T07:35:16.000Z</time>
      </trkpt>
      <trkpt lat="47.29678" lon="-2.40268">
        <ele>12</ele>
        <time>2022-08-18T07:35:17.000Z</time>
      </trkpt>
      <trkpt lat="47.29678" lon="-2.40274">
        <ele>12.39999961853</ele>
        <time>2022-08-18T07:35:18.000Z</time>
      </trkpt>
      <trkpt lat="47.29676" lon="-2.40279">
        <ele>12.800000190735</ele>
        <time>2022-08-18T07:35:19.000Z</time>
      </trkpt>
      <trkpt lat="47.2967" lon="-2.40286">
        <ele>12.800000190735</ele>
        <time>2022-08-18T07:35:21.000Z</time>
      </trkpt>
      <trkpt lat="47.29663" lon="-2.40292">
        <ele>12.800000190735</ele>
        <time>2022-08-18T07:35:23.000Z</time>
      </trkpt>
      <trkpt lat="47.29662" lon="-2.40301">
        <ele>12.800000190735</ele>
        <time>2022-08-18T07:35:25.000Z</time>
      </trkpt>
      <trkpt lat="47.29666" lon="-2.40318">
        <ele>12.800000190735</ele>
        <time>2022-08-18T07:35:29.000Z</time>
      </trkpt>
      <trkpt lat="47.29671" lon="-2.40329">
        <ele>12.800000190735</ele>
        <time>2022-08-18T07:35:34.000Z</time>
      </trkpt>
      <trkpt lat="47.29671" lon="-2.40329">
        <ele>12.800000190735</ele>
        <time>2022-08-18T07:35:35.000Z</time>
      </trkpt>
      <trkpt lat="47.29674" lon="-2.40333">
        <ele>12.800000190735</ele>
        <time>2022-08-18T07:35:53.000Z</time>
      </trkpt>
      <trkpt lat="47.29677" lon="-2.40339">
        <ele>12.800000190735</ele>
        <time>2022-08-18T07:35:55.000Z</time>
      </trkpt>
      <trkpt lat="47.2968" lon="-2.40347">
        <ele>12.800000190735</ele>
        <time>2022-08-18T07:35:57.000Z</time>
      </trkpt>
      <trkpt lat="47.29683" lon="-2.40353">
        <ele>12.800000190735</ele>
        <time>2022-08-18T07:35:59.000Z</time>
      </trkpt>
      <trkpt lat="47.2969" lon="-2.40366">
        <ele>12.800000190735</ele>
        <time>2022-08-18T07:36:03.000Z</time>
      </trkpt>
      <trkpt lat="47.29704" lon="-2.40381">
        <ele>12.800000190735</ele>
        <time>2022-08-18T07:36:09.000Z</time>
      </trkpt>
      <trkpt lat="47.29716" lon="-2.40377">
        <ele>12.800000190735</ele>
        <time>2022-08-18T07:36:12.000Z</time>
      </trkpt>
      <trkpt lat="47.29721" lon="-2.40374">
        <ele>12.800000190735</ele>
        <time>2022-08-18T07:36:13.000Z</time>
      </trkpt>
      <trkpt lat="47.29738" lon="-2.40362">
        <ele>13.199999809265</ele>
        <time>2022-08-18T07:36:17.000Z</time>
      </trkpt>
      <trkpt lat="47.29742" lon="-2.40359">
        <ele>13.60000038147</ele>
        <time>2022-08-18T07:36:18.000Z</time>
      </trkpt>
      <trkpt lat="47.29746" lon="-2.40357">
        <ele>14</ele>
        <time>2022-08-18T07:36:19.000Z</time>
      </trkpt>
      <trkpt lat="47.29751" lon="-2.40355">
        <ele>14.39999961853</ele>
        <time>2022-08-18T07:36:20.000Z</time>
      </trkpt>
      <trkpt lat="47.29754" lon="-2.40354">
        <ele>14.800000190735</ele>
        <time>2022-08-18T07:36:21.000Z</time>
      </trkpt>
      <trkpt lat="47.29769" lon="-2.40344">
        <ele>14.800000190735</ele>
        <time>2022-08-18T07:36:24.000Z</time>
      </trkpt>
      <trkpt lat="47.29771" lon="-2.40338">
        <ele>14.800000190735</ele>
        <time>2022-08-18T07:36:26.000Z</time>
      </trkpt>
      <trkpt lat="47.29774" lon="-2.40312">
        <ele>14.800000190735</ele>
        <time>2022-08-18T07:36:30.000Z</time>
      </trkpt>
      <trkpt lat="47.29774" lon="-2.40282">
        <ele>14.800000190735</ele>
        <time>2022-08-18T07:36:34.000Z</time>
      </trkpt>
      <trkpt lat="47.29774" lon="-2.40267">
        <ele>14.800000190735</ele>
        <time>2022-08-18T07:36:36.000Z</time>
      </trkpt>
      <trkpt lat="47.29775" lon="-2.40254">
        <ele>14.800000190735</ele>
        <time>2022-08-18T07:36:38.000Z</time>
      </trkpt>
      <trkpt lat="47.29779" lon="-2.40217">
        <ele>14.800000190735</ele>
        <time>2022-08-18T07:36:43.000Z</time>
      </trkpt>
      <trkpt lat="47.29789" lon="-2.40159">
        <ele>14.800000190735</ele>
        <time>2022-08-18T07:36:50.000Z</time>
      </trkpt>
      <trkpt lat="47.29797" lon="-2.40102">
        <ele>14.800000190735</ele>
        <time>2022-08-18T07:36:57.000Z</time>
      </trkpt>
      <trkpt lat="47.29798" lon="-2.40086">
        <ele>14.800000190735</ele>
        <time>2022-08-18T07:36:59.000Z</time>
      </trkpt>
      <trkpt lat="47.29797" lon="-2.40062">
        <ele>14.800000190735</ele>
        <time>2022-08-18T07:37:02.000Z</time>
      </trkpt>
      <trkpt lat="47.29789" lon="-2.39993">
        <ele>14.800000190735</ele>
        <time>2022-08-18T07:37:10.000Z</time>
      </trkpt>
      <trkpt lat="47.29788" lon="-2.39974">
        <ele>14.800000190735</ele>
        <time>2022-08-18T07:37:12.000Z</time>
      </trkpt>
      <trkpt lat="47.2979" lon="-2.39946">
        <ele>14.800000190735</ele>
        <time>2022-08-18T07:37:15.000Z</time>
      </trkpt>
      <trkpt lat="47.29794" lon="-2.3993">
        <ele>14.800000190735</ele>
        <time>2022-08-18T07:37:17.000Z</time>
      </trkpt>
      <trkpt lat="47.298" lon="-2.39915">
        <ele>14.800000190735</ele>
        <time>2022-08-18T07:37:19.000Z</time>
      </trkpt>
      <trkpt lat="47.29803" lon="-2.39908">
        <ele>14.800000190735</ele>
        <time>2022-08-18T07:37:20.000Z</time>
      </trkpt>
      <trkpt lat="47.29827" lon="-2.39859">
        <ele>14.800000190735</ele>
        <time>2022-08-18T07:37:27.000Z</time>
      </trkpt>
      <trkpt lat="47.2985" lon="-2.39815">
        <ele>14.800000190735</ele>
        <time>2022-08-18T07:37:34.000Z</time>
      </trkpt>
      <trkpt lat="47.29876" lon="-2.39766">
        <ele>14.800000190735</ele>
        <time>2022-08-18T07:37:42.000Z</time>
      </trkpt>
      <trkpt lat="47.29881" lon="-2.39754">
        <ele>14.800000190735</ele>
        <time>2022-08-18T07:37:44.000Z</time>
      </trkpt>
      <trkpt lat="47.2989" lon="-2.39734">
        <ele>14.800000190735</ele>
        <time>2022-08-18T07:37:47.000Z</time>
      </trkpt>
      <trkpt lat="47.29901" lon="-2.39714">
        <ele>14.800000190735</ele>
        <time>2022-08-18T07:37:50.000Z</time>
      </trkpt>
      <trkpt lat="47.29911" lon="-2.39699">
        <ele>14.800000190735</ele>
        <time>2022-08-18T07:37:52.000Z</time>
      </trkpt>
      <trkpt lat="47.29921" lon="-2.39685">
        <ele>14.800000190735</ele>
        <time>2022-08-18T07:37:54.000Z</time>
      </trkpt>
      <trkpt lat="47.2993" lon="-2.39671">
        <ele>14.800000190735</ele>
        <time>2022-08-18T07:37:56.000Z</time>
      </trkpt>
      <trkpt lat="47.29952" lon="-2.39629">
        <ele>14.800000190735</ele>
        <time>2022-08-18T07:38:02.000Z</time>
      </trkpt>
      <trkpt lat="47.29979" lon="-2.39576">
        <ele>14.800000190735</ele>
        <time>2022-08-18T07:38:10.000Z</time>
      </trkpt>
      <trkpt lat="47.30002" lon="-2.39537">
        <ele>14.800000190735</ele>
        <time>2022-08-18T07:38:17.000Z</time>
      </trkpt>
      <trkpt lat="47.30009" lon="-2.39527">
        <ele>14.800000190735</ele>
        <time>2022-08-18T07:38:19.000Z</time>
      </trkpt>
      <trkpt lat="47.30018" lon="-2.39519">
        <ele>14.800000190735</ele>
        <time>2022-08-18T07:38:21.000Z</time>
      </trkpt>
      <trkpt lat="47.30022" lon="-2.39515">
        <ele>14.800000190735</ele>
        <time>2022-08-18T07:38:22.000Z</time>
      </trkpt>
      <trkpt lat="47.30051" lon="-2.39498">
        <ele>14.800000190735</ele>
        <time>2022-08-18T07:38:28.000Z</time>
      </trkpt>
      <trkpt lat="47.30072" lon="-2.39496">
        <ele>14.800000190735</ele>
        <time>2022-08-18T07:38:32.000Z</time>
      </trkpt>
      <trkpt lat="47.30077" lon="-2.39497">
        <ele>14.800000190735</ele>
        <time>2022-08-18T07:38:33.000Z</time>
      </trkpt>
      <trkpt lat="47.30097" lon="-2.39501">
        <ele>14.800000190735</ele>
        <time>2022-08-18T07:38:37.000Z</time>
      </trkpt>
      <trkpt lat="47.30103" lon="-2.395">
        <ele>14.800000190735</ele>
        <time>2022-08-18T07:38:38.000Z</time>
      </trkpt>
      <trkpt lat="47.30108" lon="-2.39498">
        <ele>14.800000190735</ele>
        <time>2022-08-18T07:38:39.000Z</time>
      </trkpt>
      <trkpt lat="47.30118" lon="-2.39492">
        <ele>14.800000190735</ele>
        <time>2022-08-18T07:38:41.000Z</time>
      </trkpt>
      <trkpt lat="47.30123" lon="-2.39489">
        <ele>14.800000190735</ele>
        <time>2022-08-18T07:38:42.000Z</time>
      </trkpt>
      <trkpt lat="47.30133" lon="-2.39481">
        <ele>15.199999809265</ele>
        <time>2022-08-18T07:38:44.000Z</time>
      </trkpt>
      <trkpt lat="47.30137" lon="-2.39477">
        <ele>15.60000038147</ele>
        <time>2022-08-18T07:38:45.000Z</time>
      </trkpt>
      <trkpt lat="47.30142" lon="-2.39474">
        <ele>16.200000762939</ele>
        <time>2022-08-18T07:38:46.000Z</time>
      </trkpt>
      <trkpt lat="47.30147" lon="-2.3947">
        <ele>16.60000038147</ele>
        <time>2022-08-18T07:38:47.000Z</time>
      </trkpt>
      <trkpt lat="47.30152" lon="-2.39466">
        <ele>17</ele>
        <time>2022-08-18T07:38:48.000Z</time>
      </trkpt>
      <trkpt lat="47.30192" lon="-2.39441">
        <ele>17</ele>
        <time>2022-08-18T07:38:56.000Z</time>
      </trkpt>
      <trkpt lat="47.30217" lon="-2.39426">
        <ele>17.39999961853</ele>
        <time>2022-08-18T07:39:01.000Z</time>
      </trkpt>
      <trkpt lat="47.30222" lon="-2.39423">
        <ele>17.799999237061</ele>
        <time>2022-08-18T07:39:02.000Z</time>
      </trkpt>
      <trkpt lat="47.30227" lon="-2.39421">
        <ele>18.60000038147</ele>
        <time>2022-08-18T07:39:03.000Z</time>
      </trkpt>
      <trkpt lat="47.30232" lon="-2.39418">
        <ele>19</ele>
        <time>2022-08-18T07:39:04.000Z</time>
      </trkpt>
      <trkpt lat="47.30258" lon="-2.39403">
        <ele>19</ele>
        <time>2022-08-18T07:39:09.000Z</time>
      </trkpt>
      <trkpt lat="47.30282" lon="-2.39388">
        <ele>19.39999961853</ele>
        <time>2022-08-18T07:39:14.000Z</time>
      </trkpt>
      <trkpt lat="47.30286" lon="-2.39385">
        <ele>19.799999237061</ele>
        <time>2022-08-18T07:39:15.000Z</time>
      </trkpt>
      <trkpt lat="47.3029" lon="-2.39381">
        <ele>20.39999961853</ele>
        <time>2022-08-18T07:39:16.000Z</time>
      </trkpt>
      <trkpt lat="47.30295" lon="-2.39378">
        <ele>20.799999237061</ele>
        <time>2022-08-18T07:39:17.000Z</time>
      </trkpt>
      <trkpt lat="47.30299" lon="-2.39374">
        <ele>21.200000762939</ele>
        <time>2022-08-18T07:39:18.000Z</time>
      </trkpt>
      <trkpt lat="47.30303" lon="-2.3937">
        <ele>21.200000762939</ele>
        <time>2022-08-18T07:39:19.000Z</time>
      </trkpt>
      <trkpt lat="47.30313" lon="-2.39356">
        <ele>21.60000038147</ele>
        <time>2022-08-18T07:39:22.000Z</time>
      </trkpt>
      <trkpt lat="47.30316" lon="-2.39352">
        <ele>22</ele>
        <time>2022-08-18T07:39:23.000Z</time>
      </trkpt>
      <trkpt lat="47.30319" lon="-2.39348">
        <ele>22.60000038147</ele>
        <time>2022-08-18T07:39:24.000Z</time>
      </trkpt>
      <trkpt lat="47.30322" lon="-2.39343">
        <ele>23</ele>
        <time>2022-08-18T07:39:25.000Z</time>
      </trkpt>
      <trkpt lat="47.30324" lon="-2.39339">
        <ele>23.39999961853</ele>
        <time>2022-08-18T07:39:26.000Z</time>
      </trkpt>
      <trkpt lat="47.30329" lon="-2.3933">
        <ele>23.39999961853</ele>
        <time>2022-08-18T07:39:28.000Z</time>
      </trkpt>
      <trkpt lat="47.30332" lon="-2.39326">
        <ele>23.799999237061</ele>
        <time>2022-08-18T07:39:29.000Z</time>
      </trkpt>
      <trkpt lat="47.30335" lon="-2.39321">
        <ele>24.200000762939</ele>
        <time>2022-08-18T07:39:30.000Z</time>
      </trkpt>
      <trkpt lat="47.30338" lon="-2.39317">
        <ele>24.60000038147</ele>
        <time>2022-08-18T07:39:31.000Z</time>
      </trkpt>
      <trkpt lat="47.3034" lon="-2.39314">
        <ele>25</ele>
        <time>2022-08-18T07:39:32.000Z</time>
      </trkpt>
      <trkpt lat="47.30343" lon="-2.3931">
        <ele>25.60000038147</ele>
        <time>2022-08-18T07:39:33.000Z</time>
      </trkpt>
      <trkpt lat="47.30345" lon="-2.39307">
        <ele>25.60000038147</ele>
        <time>2022-08-18T07:39:34.000Z</time>
      </trkpt>
      <trkpt lat="47.30355" lon="-2.39292">
        <ele>26</ele>
        <time>2022-08-18T07:39:38.000Z</time>
      </trkpt>
      <trkpt lat="47.30358" lon="-2.39288">
        <ele>26.39999961853</ele>
        <time>2022-08-18T07:39:39.000Z</time>
      </trkpt>
      <trkpt lat="47.30361" lon="-2.39284">
        <ele>26.799999237061</ele>
        <time>2022-08-18T07:39:40.000Z</time>
      </trkpt>
      <trkpt lat="47.30364" lon="-2.3928">
        <ele>27.200000762939</ele>
        <time>2022-08-18T07:39:41.000Z</time>
      </trkpt>
      <trkpt lat="47.30368" lon="-2.39277">
        <ele>27.799999237061</ele>
        <time>2022-08-18T07:39:42.000Z</time>
      </trkpt>
      <trkpt lat="47.30389" lon="-2.39258">
        <ele>27.799999237061</ele>
        <time>2022-08-18T07:39:48.000Z</time>
      </trkpt>
      <trkpt lat="47.30396" lon="-2.39253">
        <ele>28.200000762939</ele>
        <time>2022-08-18T07:39:50.000Z</time>
      </trkpt>
      <trkpt lat="47.304" lon="-2.39251">
        <ele>28.60000038147</ele>
        <time>2022-08-18T07:39:51.000Z</time>
      </trkpt>
      <trkpt lat="47.30404" lon="-2.39249">
        <ele>29.60000038147</ele>
        <time>2022-08-18T07:39:52.000Z</time>
      </trkpt>
      <trkpt lat="47.30408" lon="-2.39247">
        <ele>30</ele>
        <time>2022-08-18T07:39:53.000Z</time>
      </trkpt>
      <trkpt lat="47.30415" lon="-2.39243">
        <ele>30</ele>
        <time>2022-08-18T07:39:55.000Z</time>
      </trkpt>
      <trkpt lat="47.30438" lon="-2.39232">
        <ele>30.39999961853</ele>
        <time>2022-08-18T07:40:01.000Z</time>
      </trkpt>
      <trkpt lat="47.30442" lon="-2.3923">
        <ele>30.799999237061</ele>
        <time>2022-08-18T07:40:02.000Z</time>
      </trkpt>
      <trkpt lat="47.30446" lon="-2.39228">
        <ele>31.200000762939</ele>
        <time>2022-08-18T07:40:03.000Z</time>
      </trkpt>
      <trkpt lat="47.3045" lon="-2.39226">
        <ele>31.60000038147</ele>
        <time>2022-08-18T07:40:04.000Z</time>
      </trkpt>
      <trkpt lat="47.30454" lon="-2.39223">
        <ele>32</ele>
        <time>2022-08-18T07:40:05.000Z</time>
      </trkpt>
      <trkpt lat="47.30461" lon="-2.39219">
        <ele>32</ele>
        <time>2022-08-18T07:40:07.000Z</time>
      </trkpt>
      <trkpt lat="47.30469" lon="-2.39213">
        <ele>32</ele>
        <time>2022-08-18T07:40:09.000Z</time>
      </trkpt>
      <trkpt lat="47.30496" lon="-2.39195">
        <ele>32</ele>
        <time>2022-08-18T07:40:16.000Z</time>
      </trkpt>
      <trkpt lat="47.30507" lon="-2.39187">
        <ele>32.400001525879</ele>
        <time>2022-08-18T07:40:19.000Z</time>
      </trkpt>
      <trkpt lat="47.30511" lon="-2.39185">
        <ele>32.799999237061</ele>
        <time>2022-08-18T07:40:20.000Z</time>
      </trkpt>
      <trkpt lat="47.30515" lon="-2.39182">
        <ele>33.200000762939</ele>
        <time>2022-08-18T07:40:21.000Z</time>
      </trkpt>
      <trkpt lat="47.30519" lon="-2.3918">
        <ele>33.799999237061</ele>
        <time>2022-08-18T07:40:22.000Z</time>
      </trkpt>
      <trkpt lat="47.30523" lon="-2.39177">
        <ele>34.200000762939</ele>
        <time>2022-08-18T07:40:23.000Z</time>
      </trkpt>
      <trkpt lat="47.30531" lon="-2.39171">
        <ele>34.200000762939</ele>
        <time>2022-08-18T07:40:25.000Z</time>
      </trkpt>
      <trkpt lat="47.30562" lon="-2.39151">
        <ele>34.200000762939</ele>
        <time>2022-08-18T07:40:33.000Z</time>
      </trkpt>
      <trkpt lat="47.30574" lon="-2.39143">
        <ele>34.200000762939</ele>
        <time>2022-08-18T07:40:36.000Z</time>
      </trkpt>
      <trkpt lat="47.30585" lon="-2.39134">
        <ele>34.200000762939</ele>
        <time>2022-08-18T07:40:39.000Z</time>
      </trkpt>
      <trkpt lat="47.30589" lon="-2.39131">
        <ele>34.599998474121</ele>
        <time>2022-08-18T07:40:40.000Z</time>
      </trkpt>
      <trkpt lat="47.30593" lon="-2.39129">
        <ele>35.400001525879</ele>
        <time>2022-08-18T07:40:41.000Z</time>
      </trkpt>
      <trkpt lat="47.30597" lon="-2.39126">
        <ele>35.799999237061</ele>
        <time>2022-08-18T07:40:42.000Z</time>
      </trkpt>
      <trkpt lat="47.30601" lon="-2.39123">
        <ele>36.200000762939</ele>
        <time>2022-08-18T07:40:43.000Z</time>
      </trkpt>
      <trkpt lat="47.30609" lon="-2.39118">
        <ele>36.200000762939</ele>
        <time>2022-08-18T07:40:45.000Z</time>
      </trkpt>
      <trkpt lat="47.30621" lon="-2.3911">
        <ele>36.200000762939</ele>
        <time>2022-08-18T07:40:48.000Z</time>
      </trkpt>
      <trkpt lat="47.30633" lon="-2.39103">
        <ele>36.200000762939</ele>
        <time>2022-08-18T07:40:51.000Z</time>
      </trkpt>
      <trkpt lat="47.30637" lon="-2.39099">
        <ele>36.599998474121</ele>
        <time>2022-08-18T07:40:52.000Z</time>
      </trkpt>
      <trkpt lat="47.30642" lon="-2.39097">
        <ele>37</ele>
        <time>2022-08-18T07:40:53.000Z</time>
      </trkpt>
      <trkpt lat="47.30646" lon="-2.39094">
        <ele>37.400001525879</ele>
        <time>2022-08-18T07:40:54.000Z</time>
      </trkpt>
      <trkpt lat="47.3065" lon="-2.39091">
        <ele>37.799999237061</ele>
        <time>2022-08-18T07:40:55.000Z</time>
      </trkpt>
      <trkpt lat="47.30654" lon="-2.39089">
        <ele>38.200000762939</ele>
        <time>2022-08-18T07:40:56.000Z</time>
      </trkpt>
      <trkpt lat="47.30658" lon="-2.39086">
        <ele>38.200000762939</ele>
        <time>2022-08-18T07:40:57.000Z</time>
      </trkpt>
      <trkpt lat="47.30689" lon="-2.39071">
        <ele>38.200000762939</ele>
        <time>2022-08-18T07:41:04.000Z</time>
      </trkpt>
      <trkpt lat="47.30693" lon="-2.39068">
        <ele>38.200000762939</ele>
        <time>2022-08-18T07:41:05.000Z</time>
      </trkpt>
      <trkpt lat="47.30709" lon="-2.39059">
        <ele>38.200000762939</ele>
        <time>2022-08-18T07:41:09.000Z</time>
      </trkpt>
      <trkpt lat="47.30724" lon="-2.39052">
        <ele>38.599998474121</ele>
        <time>2022-08-18T07:41:13.000Z</time>
      </trkpt>
      <trkpt lat="47.30728" lon="-2.3905">
        <ele>39</ele>
        <time>2022-08-18T07:41:14.000Z</time>
      </trkpt>
      <trkpt lat="47.30732" lon="-2.39048">
        <ele>39.400001525879</ele>
        <time>2022-08-18T07:41:15.000Z</time>
      </trkpt>
      <trkpt lat="47.30735" lon="-2.39045">
        <ele>39.799999237061</ele>
        <time>2022-08-18T07:41:16.000Z</time>
      </trkpt>
      <trkpt lat="47.30738" lon="-2.39041">
        <ele>40.200000762939</ele>
        <time>2022-08-18T07:41:17.000Z</time>
      </trkpt>
      <trkpt lat="47.30741" lon="-2.39027">
        <ele>40.200000762939</ele>
        <time>2022-08-18T07:41:20.000Z</time>
      </trkpt>
      <trkpt lat="47.30737" lon="-2.39012">
        <ele>40.200000762939</ele>
        <time>2022-08-18T07:41:23.000Z</time>
      </trkpt>
      <trkpt lat="47.30734" lon="-2.39008">
        <ele>40.200000762939</ele>
        <time>2022-08-18T07:41:24.000Z</time>
      </trkpt>
      <trkpt lat="47.3072" lon="-2.38988">
        <ele>40.200000762939</ele>
        <time>2022-08-18T07:41:29.000Z</time>
      </trkpt>
      <trkpt lat="47.30719" lon="-2.38981">
        <ele>40.200000762939</ele>
        <time>2022-08-18T07:41:30.000Z</time>
      </trkpt>
      <trkpt lat="47.30722" lon="-2.3897">
        <ele>40.200000762939</ele>
        <time>2022-08-18T07:41:32.000Z</time>
      </trkpt>
      <trkpt lat="47.30733" lon="-2.38957">
        <ele>40.200000762939</ele>
        <time>2022-08-18T07:41:35.000Z</time>
      </trkpt>
      <trkpt lat="47.30749" lon="-2.38956">
        <ele>40.200000762939</ele>
        <time>2022-08-18T07:41:38.000Z</time>
      </trkpt>
      <trkpt lat="47.30755" lon="-2.38955">
        <ele>40.200000762939</ele>
        <time>2022-08-18T07:41:39.000Z</time>
      </trkpt>
      <trkpt lat="47.3076" lon="-2.38953">
        <ele>40.200000762939</ele>
        <time>2022-08-18T07:41:40.000Z</time>
      </trkpt>
      <trkpt lat="47.30772" lon="-2.38946">
        <ele>40.200000762939</ele>
        <time>2022-08-18T07:41:42.000Z</time>
      </trkpt>
      <trkpt lat="47.30811" lon="-2.38917">
        <ele>40.200000762939</ele>
        <time>2022-08-18T07:41:48.000Z</time>
      </trkpt>
      <trkpt lat="47.30839" lon="-2.38895">
        <ele>40.200000762939</ele>
        <time>2022-08-18T07:41:53.000Z</time>
      </trkpt>
      <trkpt lat="47.30863" lon="-2.3887">
        <ele>40.200000762939</ele>
        <time>2022-08-18T07:41:59.000Z</time>
      </trkpt>
      <trkpt lat="47.30874" lon="-2.38846">
        <ele>40.599998474121</ele>
        <time>2022-08-18T07:42:03.000Z</time>
      </trkpt>
      <trkpt lat="47.30878" lon="-2.38842">
        <ele>41.200000762939</ele>
        <time>2022-08-18T07:42:04.000Z</time>
      </trkpt>
      <trkpt lat="47.30882" lon="-2.38839">
        <ele>41.599998474121</ele>
        <time>2022-08-18T07:42:05.000Z</time>
      </trkpt>
      <trkpt lat="47.30887" lon="-2.38838">
        <ele>42</ele>
        <time>2022-08-18T07:42:06.000Z</time>
      </trkpt>
      <trkpt lat="47.30892" lon="-2.38839">
        <ele>42.400001525879</ele>
        <time>2022-08-18T07:42:07.000Z</time>
      </trkpt>
      <trkpt lat="47.309" lon="-2.38845">
        <ele>42.400001525879</ele>
        <time>2022-08-18T07:42:09.000Z</time>
      </trkpt>
      <trkpt lat="47.30909" lon="-2.38871">
        <ele>42.400001525879</ele>
        <time>2022-08-18T07:42:13.000Z</time>
      </trkpt>
      <trkpt lat="47.3092" lon="-2.38888">
        <ele>42.400001525879</ele>
        <time>2022-08-18T07:42:16.000Z</time>
      </trkpt>
      <trkpt lat="47.30931" lon="-2.38913">
        <ele>42.400001525879</ele>
        <time>2022-08-18T07:42:20.000Z</time>
      </trkpt>
      <trkpt lat="47.30928" lon="-2.38937">
        <ele>42.400001525879</ele>
        <time>2022-08-18T07:42:23.000Z</time>
      </trkpt>
      <trkpt lat="47.30921" lon="-2.3895">
        <ele>42.400001525879</ele>
        <time>2022-08-18T07:42:25.000Z</time>
      </trkpt>
      <trkpt lat="47.30912" lon="-2.38971">
        <ele>42.400001525879</ele>
        <time>2022-08-18T07:42:28.000Z</time>
      </trkpt>
      <trkpt lat="47.30907" lon="-2.38986">
        <ele>42.400001525879</ele>
        <time>2022-08-18T07:42:30.000Z</time>
      </trkpt>
      <trkpt lat="47.30905" lon="-2.39003">
        <ele>42.400001525879</ele>
        <time>2022-08-18T07:42:32.000Z</time>
      </trkpt>
      <trkpt lat="47.30901" lon="-2.3906">
        <ele>42.400001525879</ele>
        <time>2022-08-18T07:42:38.000Z</time>
      </trkpt>
      <trkpt lat="47.30901" lon="-2.39078">
        <ele>42.400001525879</ele>
        <time>2022-08-18T07:42:40.000Z</time>
      </trkpt>
      <trkpt lat="47.30905" lon="-2.39096">
        <ele>42.400001525879</ele>
        <time>2022-08-18T07:42:42.000Z</time>
      </trkpt>
      <trkpt lat="47.30911" lon="-2.39113">
        <ele>42.400001525879</ele>
        <time>2022-08-18T07:42:44.000Z</time>
      </trkpt>
      <trkpt lat="47.30923" lon="-2.39147">
        <ele>42.400001525879</ele>
        <time>2022-08-18T07:42:48.000Z</time>
      </trkpt>
      <trkpt lat="47.30946" lon="-2.39202">
        <ele>42.400001525879</ele>
        <time>2022-08-18T07:42:55.000Z</time>
      </trkpt>
      <trkpt lat="47.3097" lon="-2.39255">
        <ele>42.400001525879</ele>
        <time>2022-08-18T07:43:02.000Z</time>
      </trkpt>
      <trkpt lat="47.30987" lon="-2.39302">
        <ele>42.400001525879</ele>
        <time>2022-08-18T07:43:08.000Z</time>
      </trkpt>
      <trkpt lat="47.31009" lon="-2.39367">
        <ele>42.400001525879</ele>
        <time>2022-08-18T07:43:16.000Z</time>
      </trkpt>
      <trkpt lat="47.31034" lon="-2.39444">
        <ele>42.400001525879</ele>
        <time>2022-08-18T07:43:25.000Z</time>
      </trkpt>
      <trkpt lat="47.31053" lon="-2.39499">
        <ele>42.400001525879</ele>
        <time>2022-08-18T07:43:31.000Z</time>
      </trkpt>
      <trkpt lat="47.31068" lon="-2.39544">
        <ele>42.400001525879</ele>
        <time>2022-08-18T07:43:37.000Z</time>
      </trkpt>
      <trkpt lat="47.31075" lon="-2.39565">
        <ele>42.400001525879</ele>
        <time>2022-08-18T07:43:40.000Z</time>
      </trkpt>
      <trkpt lat="47.31083" lon="-2.39585">
        <ele>42.400001525879</ele>
        <time>2022-08-18T07:43:43.000Z</time>
      </trkpt>
      <trkpt lat="47.311" lon="-2.39636">
        <ele>42.400001525879</ele>
        <time>2022-08-18T07:43:50.000Z</time>
      </trkpt>
      <trkpt lat="47.3112" lon="-2.39693">
        <ele>42.400001525879</ele>
        <time>2022-08-18T07:43:57.000Z</time>
      </trkpt>
      <trkpt lat="47.31137" lon="-2.39741">
        <ele>42.400001525879</ele>
        <time>2022-08-18T07:44:03.000Z</time>
      </trkpt>
      <trkpt lat="47.31147" lon="-2.39781">
        <ele>42.400001525879</ele>
        <time>2022-08-18T07:44:08.000Z</time>
      </trkpt>
      <trkpt lat="47.3115" lon="-2.39789">
        <ele>42.400001525879</ele>
        <time>2022-08-18T07:44:09.000Z</time>
      </trkpt>
      <trkpt lat="47.31175" lon="-2.39843">
        <ele>42.400001525879</ele>
        <time>2022-08-18T07:44:17.000Z</time>
      </trkpt>
      <trkpt lat="47.31177" lon="-2.39848">
        <ele>42.400001525879</ele>
        <time>2022-08-18T07:44:18.000Z</time>
      </trkpt>
      <trkpt lat="47.3118" lon="-2.3986">
        <ele>42</ele>
        <time>2022-08-18T07:44:20.000Z</time>
      </trkpt>
      <trkpt lat="47.31181" lon="-2.39866">
        <ele>41.599998474121</ele>
        <time>2022-08-18T07:44:21.000Z</time>
      </trkpt>
      <trkpt lat="47.31182" lon="-2.39871">
        <ele>41.200000762939</ele>
        <time>2022-08-18T07:44:22.000Z</time>
      </trkpt>
      <trkpt lat="47.31183" lon="-2.39875">
        <ele>40.400001525879</ele>
        <time>2022-08-18T07:44:23.000Z</time>
      </trkpt>
      <trkpt lat="47.31186" lon="-2.3988">
        <ele>40.400001525879</ele>
        <time>2022-08-18T07:44:25.000Z</time>
      </trkpt>
      <trkpt lat="47.31186" lon="-2.39883">
        <ele>40.400001525879</ele>
        <time>2022-08-18T07:44:26.000Z</time>
      </trkpt>
      <trkpt lat="47.31189" lon="-2.39894">
        <ele>40.400001525879</ele>
        <time>2022-08-18T07:44:29.000Z</time>
      </trkpt>
      <trkpt lat="47.31193" lon="-2.39904">
        <ele>40.400001525879</ele>
        <time>2022-08-18T07:44:31.000Z</time>
      </trkpt>
      <trkpt lat="47.31198" lon="-2.39917">
        <ele>40.400001525879</ele>
        <time>2022-08-18T07:44:34.000Z</time>
      </trkpt>
      <trkpt lat="47.31207" lon="-2.39939">
        <ele>40</ele>
        <time>2022-08-18T07:44:39.000Z</time>
      </trkpt>
      <trkpt lat="47.31208" lon="-2.39943">
        <ele>39.599998474121</ele>
        <time>2022-08-18T07:44:40.000Z</time>
      </trkpt>
      <trkpt lat="47.3121" lon="-2.39948">
        <ele>39.200000762939</ele>
        <time>2022-08-18T07:44:41.000Z</time>
      </trkpt>
      <trkpt lat="47.31211" lon="-2.39952">
        <ele>38.799999237061</ele>
        <time>2022-08-18T07:44:42.000Z</time>
      </trkpt>
      <trkpt lat="47.31213" lon="-2.39956">
        <ele>38.400001525879</ele>
        <time>2022-08-18T07:44:43.000Z</time>
      </trkpt>
      <trkpt lat="47.31215" lon="-2.39963">
        <ele>38.400001525879</ele>
        <time>2022-08-18T07:44:45.000Z</time>
      </trkpt>
      <trkpt lat="47.31222" lon="-2.39987">
        <ele>37.799999237061</ele>
        <time>2022-08-18T07:44:51.000Z</time>
      </trkpt>
      <trkpt lat="47.31223" lon="-2.39991">
        <ele>37.400001525879</ele>
        <time>2022-08-18T07:44:52.000Z</time>
      </trkpt>
      <trkpt lat="47.31225" lon="-2.39995">
        <ele>37</ele>
        <time>2022-08-18T07:44:53.000Z</time>
      </trkpt>
      <trkpt lat="47.31226" lon="-2.39998">
        <ele>36.599998474121</ele>
        <time>2022-08-18T07:44:54.000Z</time>
      </trkpt>
      <trkpt lat="47.31227" lon="-2.40002">
        <ele>36.200000762939</ele>
        <time>2022-08-18T07:44:55.000Z</time>
      </trkpt>
      <trkpt lat="47.31231" lon="-2.40017">
        <ele>36.200000762939</ele>
        <time>2022-08-18T07:44:58.000Z</time>
      </trkpt>
      <trkpt lat="47.31237" lon="-2.40038">
        <ele>36.200000762939</ele>
        <time>2022-08-18T07:45:03.000Z</time>
      </trkpt>
      <trkpt lat="47.31243" lon="-2.40041">
        <ele>36.200000762939</ele>
        <time>2022-08-18T07:45:06.000Z</time>
      </trkpt>
      <trkpt lat="47.31245" lon="-2.40041">
        <ele>36.200000762939</ele>
        <time>2022-08-18T07:45:07.000Z</time>
      </trkpt>
      <trkpt lat="47.31249" lon="-2.40046">
        <ele>36.200000762939</ele>
        <time>2022-08-18T07:45:10.000Z</time>
      </trkpt>
      <trkpt lat="47.31251" lon="-2.4005">
        <ele>36.200000762939</ele>
        <time>2022-08-18T07:45:11.000Z</time>
      </trkpt>
      <trkpt lat="47.31266" lon="-2.40059">
        <ele>35.799999237061</ele>
        <time>2022-08-18T07:45:14.000Z</time>
      </trkpt>
      <trkpt lat="47.31271" lon="-2.4006">
        <ele>35.200000762939</ele>
        <time>2022-08-18T07:45:15.000Z</time>
      </trkpt>
      <trkpt lat="47.31275" lon="-2.40061">
        <ele>34.799999237061</ele>
        <time>2022-08-18T07:45:16.000Z</time>
      </trkpt>
      <trkpt lat="47.3128" lon="-2.40062">
        <ele>34.200000762939</ele>
        <time>2022-08-18T07:45:17.000Z</time>
      </trkpt>
      <trkpt lat="47.31284" lon="-2.40063">
        <ele>33.799999237061</ele>
        <time>2022-08-18T07:45:18.000Z</time>
      </trkpt>
      <trkpt lat="47.31299" lon="-2.40067">
        <ele>33.799999237061</ele>
        <time>2022-08-18T07:45:22.000Z</time>
      </trkpt>
      <trkpt lat="47.31312" lon="-2.40073">
        <ele>33.799999237061</ele>
        <time>2022-08-18T07:45:25.000Z</time>
      </trkpt>
      <trkpt lat="47.31316" lon="-2.40075">
        <ele>33.799999237061</ele>
        <time>2022-08-18T07:45:26.000Z</time>
      </trkpt>
      <trkpt lat="47.31352" lon="-2.40091">
        <ele>33.799999237061</ele>
        <time>2022-08-18T07:45:33.000Z</time>
      </trkpt>
      <trkpt lat="47.31367" lon="-2.40098">
        <ele>33.799999237061</ele>
        <time>2022-08-18T07:45:36.000Z</time>
      </trkpt>
      <trkpt lat="47.31382" lon="-2.40105">
        <ele>33.799999237061</ele>
        <time>2022-08-18T07:45:39.000Z</time>
      </trkpt>
      <trkpt lat="47.31387" lon="-2.40108">
        <ele>34.200000762939</ele>
        <time>2022-08-18T07:45:40.000Z</time>
      </trkpt>
      <trkpt lat="47.31391" lon="-2.40111">
        <ele>34.599998474121</ele>
        <time>2022-08-18T07:45:41.000Z</time>
      </trkpt>
      <trkpt lat="47.31395" lon="-2.40114">
        <ele>35</ele>
        <time>2022-08-18T07:45:42.000Z</time>
      </trkpt>
      <trkpt lat="47.31398" lon="-2.40116">
        <ele>35.400001525879</ele>
        <time>2022-08-18T07:45:43.000Z</time>
      </trkpt>
      <trkpt lat="47.31402" lon="-2.40118">
        <ele>35.799999237061</ele>
        <time>2022-08-18T07:45:44.000Z</time>
      </trkpt>
      <trkpt lat="47.31421" lon="-2.40133">
        <ele>35.799999237061</ele>
        <time>2022-08-18T07:45:49.000Z</time>
      </trkpt>
      <trkpt lat="47.31435" lon="-2.40143">
        <ele>35.799999237061</ele>
        <time>2022-08-18T07:45:52.000Z</time>
      </trkpt>
      <trkpt lat="47.31444" lon="-2.4015">
        <ele>35.799999237061</ele>
        <time>2022-08-18T07:45:54.000Z</time>
      </trkpt>
      <trkpt lat="47.3147" lon="-2.40167">
        <ele>35.799999237061</ele>
        <time>2022-08-18T07:46:00.000Z</time>
      </trkpt>
      <trkpt lat="47.31489" lon="-2.4018">
        <ele>35.799999237061</ele>
        <time>2022-08-18T07:46:05.000Z</time>
      </trkpt>
      <trkpt lat="47.31503" lon="-2.40191">
        <ele>36.200000762939</ele>
        <time>2022-08-18T07:46:09.000Z</time>
      </trkpt>
      <trkpt lat="47.31506" lon="-2.40195">
        <ele>36.599998474121</ele>
        <time>2022-08-18T07:46:10.000Z</time>
      </trkpt>
      <trkpt lat="47.3151" lon="-2.40198">
        <ele>37.200000762939</ele>
        <time>2022-08-18T07:46:11.000Z</time>
      </trkpt>
      <trkpt lat="47.31513" lon="-2.40202">
        <ele>37.599998474121</ele>
        <time>2022-08-18T07:46:12.000Z</time>
      </trkpt>
      <trkpt lat="47.31517" lon="-2.40206">
        <ele>38</ele>
        <time>2022-08-18T07:46:13.000Z</time>
      </trkpt>
      <trkpt lat="47.3153" lon="-2.40215">
        <ele>38</ele>
        <time>2022-08-18T07:46:16.000Z</time>
      </trkpt>
      <trkpt lat="47.3155" lon="-2.4023">
        <ele>38</ele>
        <time>2022-08-18T07:46:21.000Z</time>
      </trkpt>
      <trkpt lat="47.31554" lon="-2.40233">
        <ele>38</ele>
        <time>2022-08-18T07:46:22.000Z</time>
      </trkpt>
      <trkpt lat="47.3157" lon="-2.40246">
        <ele>38</ele>
        <time>2022-08-18T07:46:26.000Z</time>
      </trkpt>
      <trkpt lat="47.31598" lon="-2.40264">
        <ele>38</ele>
        <time>2022-08-18T07:46:33.000Z</time>
      </trkpt>
      <trkpt lat="47.31621" lon="-2.40278">
        <ele>38</ele>
        <time>2022-08-18T07:46:39.000Z</time>
      </trkpt>
      <trkpt lat="47.31629" lon="-2.40284">
        <ele>38.400001525879</ele>
        <time>2022-08-18T07:46:41.000Z</time>
      </trkpt>
      <trkpt lat="47.31632" lon="-2.40286">
        <ele>38.799999237061</ele>
        <time>2022-08-18T07:46:42.000Z</time>
      </trkpt>
      <trkpt lat="47.31635" lon="-2.40289">
        <ele>39.200000762939</ele>
        <time>2022-08-18T07:46:43.000Z</time>
      </trkpt>
      <trkpt lat="47.31639" lon="-2.40292">
        <ele>39.599998474121</ele>
        <time>2022-08-18T07:46:44.000Z</time>
      </trkpt>
      <trkpt lat="47.31642" lon="-2.40294">
        <ele>40</ele>
        <time>2022-08-18T07:46:45.000Z</time>
      </trkpt>
      <trkpt lat="47.31662" lon="-2.40309">
        <ele>40</ele>
        <time>2022-08-18T07:46:51.000Z</time>
      </trkpt>
      <trkpt lat="47.31673" lon="-2.40319">
        <ele>40</ele>
        <time>2022-08-18T07:46:56.000Z</time>
      </trkpt>
      <trkpt lat="47.31678" lon="-2.40322">
        <ele>40.400001525879</ele>
        <time>2022-08-18T07:46:58.000Z</time>
      </trkpt>
      <trkpt lat="47.3168" lon="-2.40322">
        <ele>40.799999237061</ele>
        <time>2022-08-18T07:46:59.000Z</time>
      </trkpt>
      <trkpt lat="47.31683" lon="-2.40321">
        <ele>41.200000762939</ele>
        <time>2022-08-18T07:47:00.000Z</time>
      </trkpt>
      <trkpt lat="47.31685" lon="-2.40318">
        <ele>41.599998474121</ele>
        <time>2022-08-18T07:47:01.000Z</time>
      </trkpt>
      <trkpt lat="47.31686" lon="-2.40316">
        <ele>42</ele>
        <time>2022-08-18T07:47:02.000Z</time>
      </trkpt>
      <trkpt lat="47.31687" lon="-2.40313">
        <ele>42</ele>
        <time>2022-08-18T07:47:04.000Z</time>
      </trkpt>
      <trkpt lat="47.31688" lon="-2.40311">
        <ele>42</ele>
        <time>2022-08-18T07:47:06.000Z</time>
      </trkpt>
      <trkpt lat="47.31689" lon="-2.40309">
        <ele>42</ele>
        <time>2022-08-18T07:47:08.000Z</time>
      </trkpt>
      <trkpt lat="47.3169" lon="-2.40309">
        <ele>42</ele>
        <time>2022-08-18T07:47:09.000Z</time>
      </trkpt>
      <trkpt lat="47.3169" lon="-2.40309">
        <ele>42</ele>
        <time>2022-08-18T07:47:10.000Z</time>
      </trkpt>
      <trkpt lat="47.31694" lon="-2.40303">
        <ele>42</ele>
        <time>2022-08-18T07:48:17.000Z</time>
      </trkpt>
      <trkpt lat="47.31695" lon="-2.40301">
        <ele>42</ele>
        <time>2022-08-18T07:48:18.000Z</time>
      </trkpt>
      <trkpt lat="47.31701" lon="-2.40295">
        <ele>42</ele>
        <time>2022-08-18T07:48:21.000Z</time>
      </trkpt>
      <trkpt lat="47.31708" lon="-2.40285">
        <ele>42</ele>
        <time>2022-08-18T07:48:25.000Z</time>
      </trkpt>
      <trkpt lat="47.31713" lon="-2.40276">
        <ele>42</ele>
        <time>2022-08-18T07:48:28.000Z</time>
      </trkpt>
      <trkpt lat="47.31718" lon="-2.4027">
        <ele>42</ele>
        <time>2022-08-18T07:48:30.000Z</time>
      </trkpt>
      <trkpt lat="47.3173" lon="-2.40249">
        <ele>42</ele>
        <time>2022-08-18T07:48:35.000Z</time>
      </trkpt>
      <trkpt lat="47.31732" lon="-2.40244">
        <ele>42</ele>
        <time>2022-08-18T07:48:36.000Z</time>
      </trkpt>
      <trkpt lat="47.31742" lon="-2.40227">
        <ele>42</ele>
        <time>2022-08-18T07:48:39.000Z</time>
      </trkpt>
      <trkpt lat="47.31761" lon="-2.4019">
        <ele>42</ele>
        <time>2022-08-18T07:48:44.000Z</time>
      </trkpt>
      <trkpt lat="47.31778" lon="-2.40165">
        <ele>42</ele>
        <time>2022-08-18T07:48:48.000Z</time>
      </trkpt>
      <trkpt lat="47.31797" lon="-2.4014">
        <ele>42</ele>
        <time>2022-08-18T07:48:52.000Z</time>
      </trkpt>
      <trkpt lat="47.31802" lon="-2.40133">
        <ele>42</ele>
        <time>2022-08-18T07:48:53.000Z</time>
      </trkpt>
      <trkpt lat="47.31822" lon="-2.40099">
        <ele>42</ele>
        <time>2022-08-18T07:48:58.000Z</time>
      </trkpt>
      <trkpt lat="47.31845" lon="-2.40063">
        <ele>42</ele>
        <time>2022-08-18T07:49:04.000Z</time>
      </trkpt>
      <trkpt lat="47.31871" lon="-2.40025">
        <ele>42</ele>
        <time>2022-08-18T07:49:10.000Z</time>
      </trkpt>
      <trkpt lat="47.31893" lon="-2.39997">
        <ele>42</ele>
        <time>2022-08-18T07:49:15.000Z</time>
      </trkpt>
      <trkpt lat="47.31907" lon="-2.39977">
        <ele>42</ele>
        <time>2022-08-18T07:49:19.000Z</time>
      </trkpt>
      <trkpt lat="47.31921" lon="-2.39961">
        <ele>42</ele>
        <time>2022-08-18T07:49:23.000Z</time>
      </trkpt>
      <trkpt lat="47.31925" lon="-2.39957">
        <ele>42</ele>
        <time>2022-08-18T07:49:24.000Z</time>
      </trkpt>
      <trkpt lat="47.31934" lon="-2.39949">
        <ele>42</ele>
        <time>2022-08-18T07:49:26.000Z</time>
      </trkpt>
      <trkpt lat="47.31942" lon="-2.3994">
        <ele>42</ele>
        <time>2022-08-18T07:49:28.000Z</time>
      </trkpt>
      <trkpt lat="47.3195" lon="-2.39932">
        <ele>42</ele>
        <time>2022-08-18T07:49:30.000Z</time>
      </trkpt>
      <trkpt lat="47.31976" lon="-2.39911">
        <ele>42</ele>
        <time>2022-08-18T07:49:35.000Z</time>
      </trkpt>
      <trkpt lat="47.3198" lon="-2.39906">
        <ele>42</ele>
        <time>2022-08-18T07:49:36.000Z</time>
      </trkpt>
      <trkpt lat="47.31996" lon="-2.39893">
        <ele>42.400001525879</ele>
        <time>2022-08-18T07:49:39.000Z</time>
      </trkpt>
      <trkpt lat="47.32" lon="-2.3989">
        <ele>42.799999237061</ele>
        <time>2022-08-18T07:49:40.000Z</time>
      </trkpt>
      <trkpt lat="47.32005" lon="-2.39885">
        <ele>43.400001525879</ele>
        <time>2022-08-18T07:49:41.000Z</time>
      </trkpt>
      <trkpt lat="47.32009" lon="-2.39882">
        <ele>44.200000762939</ele>
        <time>2022-08-18T07:49:42.000Z</time>
      </trkpt>
      <trkpt lat="47.32013" lon="-2.39878">
        <ele>44.200000762939</ele>
        <time>2022-08-18T07:49:43.000Z</time>
      </trkpt>
      <trkpt lat="47.32022" lon="-2.3987">
        <ele>44.200000762939</ele>
        <time>2022-08-18T07:49:45.000Z</time>
      </trkpt>
      <trkpt lat="47.32034" lon="-2.3986">
        <ele>44.200000762939</ele>
        <time>2022-08-18T07:49:48.000Z</time>
      </trkpt>
      <trkpt lat="47.32047" lon="-2.39849">
        <ele>44.599998474121</ele>
        <time>2022-08-18T07:49:51.000Z</time>
      </trkpt>
      <trkpt lat="47.3205" lon="-2.39846">
        <ele>45</ele>
        <time>2022-08-18T07:49:52.000Z</time>
      </trkpt>
      <trkpt lat="47.32054" lon="-2.39843">
        <ele>45.400001525879</ele>
        <time>2022-08-18T07:49:53.000Z</time>
      </trkpt>
      <trkpt lat="47.32058" lon="-2.3984">
        <ele>45.799999237061</ele>
        <time>2022-08-18T07:49:54.000Z</time>
      </trkpt>
      <trkpt lat="47.32062" lon="-2.39836">
        <ele>46.200000762939</ele>
        <time>2022-08-18T07:49:55.000Z</time>
      </trkpt>
      <trkpt lat="47.32075" lon="-2.39826">
        <ele>46.200000762939</ele>
        <time>2022-08-18T07:49:58.000Z</time>
      </trkpt>
      <trkpt lat="47.32079" lon="-2.39823">
        <ele>46.200000762939</ele>
        <time>2022-08-18T07:49:59.000Z</time>
      </trkpt>
      <trkpt lat="47.32082" lon="-2.39805">
        <ele>46.200000762939</ele>
        <time>2022-08-18T07:50:02.000Z</time>
      </trkpt>
      <trkpt lat="47.32081" lon="-2.39798">
        <ele>46.200000762939</ele>
        <time>2022-08-18T07:50:03.000Z</time>
      </trkpt>
      <trkpt lat="47.32077" lon="-2.3978">
        <ele>46.200000762939</ele>
        <time>2022-08-18T07:50:06.000Z</time>
      </trkpt>
      <trkpt lat="47.32074" lon="-2.39772">
        <ele>46.200000762939</ele>
        <time>2022-08-18T07:50:07.000Z</time>
      </trkpt>
      <trkpt lat="47.32069" lon="-2.3975">
        <ele>46.200000762939</ele>
        <time>2022-08-18T07:50:10.000Z</time>
      </trkpt>
      <trkpt lat="47.32068" lon="-2.39741">
        <ele>46.200000762939</ele>
        <time>2022-08-18T07:50:11.000Z</time>
      </trkpt>
      <trkpt lat="47.32058" lon="-2.39701">
        <ele>46.200000762939</ele>
        <time>2022-08-18T07:50:16.000Z</time>
      </trkpt>
      <trkpt lat="47.32046" lon="-2.3966">
        <ele>46.200000762939</ele>
        <time>2022-08-18T07:50:21.000Z</time>
      </trkpt>
      <trkpt lat="47.32033" lon="-2.39605">
        <ele>46.200000762939</ele>
        <time>2022-08-18T07:50:27.000Z</time>
      </trkpt>
      <trkpt lat="47.32021" lon="-2.39557">
        <ele>45.799999237061</ele>
        <time>2022-08-18T07:50:32.000Z</time>
      </trkpt>
      <trkpt lat="47.32019" lon="-2.39547">
        <ele>45.400001525879</ele>
        <time>2022-08-18T07:50:33.000Z</time>
      </trkpt>
      <trkpt lat="47.32016" lon="-2.39537">
        <ele>45</ele>
        <time>2022-08-18T07:50:34.000Z</time>
      </trkpt>
      <trkpt lat="47.32014" lon="-2.39527">
        <ele>44.599998474121</ele>
        <time>2022-08-18T07:50:35.000Z</time>
      </trkpt>
      <trkpt lat="47.32012" lon="-2.39518">
        <ele>44.200000762939</ele>
        <time>2022-08-18T07:50:36.000Z</time>
      </trkpt>
      <trkpt lat="47.32003" lon="-2.39478">
        <ele>44.200000762939</ele>
        <time>2022-08-18T07:50:40.000Z</time>
      </trkpt>
      <trkpt lat="47.31992" lon="-2.39431">
        <ele>44.200000762939</ele>
        <time>2022-08-18T07:50:45.000Z</time>
      </trkpt>
      <trkpt lat="47.31986" lon="-2.39403">
        <ele>43.799999237061</ele>
        <time>2022-08-18T07:50:48.000Z</time>
      </trkpt>
      <trkpt lat="47.31984" lon="-2.39392">
        <ele>43.400001525879</ele>
        <time>2022-08-18T07:50:49.000Z</time>
      </trkpt>
      <trkpt lat="47.31982" lon="-2.39382">
        <ele>43</ele>
        <time>2022-08-18T07:50:50.000Z</time>
      </trkpt>
      <trkpt lat="47.3198" lon="-2.39371">
        <ele>42.599998474121</ele>
        <time>2022-08-18T07:50:51.000Z</time>
      </trkpt>
      <trkpt lat="47.31978" lon="-2.39361">
        <ele>42.200000762939</ele>
        <time>2022-08-18T07:50:52.000Z</time>
      </trkpt>
      <trkpt lat="47.31964" lon="-2.39309">
        <ele>42.200000762939</ele>
        <time>2022-08-18T07:50:57.000Z</time>
      </trkpt>
      <trkpt lat="47.31943" lon="-2.39233">
        <ele>41.799999237061</ele>
        <time>2022-08-18T07:51:04.000Z</time>
      </trkpt>
      <trkpt lat="47.31941" lon="-2.39222">
        <ele>41.400001525879</ele>
        <time>2022-08-18T07:51:05.000Z</time>
      </trkpt>
      <trkpt lat="47.31938" lon="-2.39212">
        <ele>41</ele>
        <time>2022-08-18T07:51:06.000Z</time>
      </trkpt>
      <trkpt lat="47.31935" lon="-2.39201">
        <ele>40.599998474121</ele>
        <time>2022-08-18T07:51:07.000Z</time>
      </trkpt>
      <trkpt lat="47.31931" lon="-2.39191">
        <ele>40.200000762939</ele>
        <time>2022-08-18T07:51:08.000Z</time>
      </trkpt>
      <trkpt lat="47.31923" lon="-2.39162">
        <ele>40.200000762939</ele>
        <time>2022-08-18T07:51:11.000Z</time>
      </trkpt>
      <trkpt lat="47.31905" lon="-2.39104">
        <ele>40.200000762939</ele>
        <time>2022-08-18T07:51:17.000Z</time>
      </trkpt>
      <trkpt lat="47.31887" lon="-2.39047">
        <ele>40.200000762939</ele>
        <time>2022-08-18T07:51:23.000Z</time>
      </trkpt>
      <trkpt lat="47.3188" lon="-2.3902">
        <ele>40.200000762939</ele>
        <time>2022-08-18T07:51:26.000Z</time>
      </trkpt>
      <trkpt lat="47.31876" lon="-2.3901">
        <ele>39.799999237061</ele>
        <time>2022-08-18T07:51:27.000Z</time>
      </trkpt>
      <trkpt lat="47.31873" lon="-2.39001">
        <ele>39.200000762939</ele>
        <time>2022-08-18T07:51:28.000Z</time>
      </trkpt>
      <trkpt lat="47.31869" lon="-2.38991">
        <ele>38.799999237061</ele>
        <time>2022-08-18T07:51:29.000Z</time>
      </trkpt>
      <trkpt lat="47.31866" lon="-2.38982">
        <ele>38.400001525879</ele>
        <time>2022-08-18T07:51:30.000Z</time>
      </trkpt>
      <trkpt lat="47.31862" lon="-2.38974">
        <ele>38</ele>
        <time>2022-08-18T07:51:31.000Z</time>
      </trkpt>
      <trkpt lat="47.31856" lon="-2.38956">
        <ele>38</ele>
        <time>2022-08-18T07:51:33.000Z</time>
      </trkpt>
      <trkpt lat="47.31841" lon="-2.38902">
        <ele>38</ele>
        <time>2022-08-18T07:51:39.000Z</time>
      </trkpt>
      <trkpt lat="47.31827" lon="-2.38838">
        <ele>38</ele>
        <time>2022-08-18T07:51:46.000Z</time>
      </trkpt>
      <trkpt lat="47.31821" lon="-2.38802">
        <ele>38</ele>
        <time>2022-08-18T07:51:50.000Z</time>
      </trkpt>
      <trkpt lat="47.3182" lon="-2.38793">
        <ele>38</ele>
        <time>2022-08-18T07:51:51.000Z</time>
      </trkpt>
      <trkpt lat="47.31821" lon="-2.38739">
        <ele>38</ele>
        <time>2022-08-18T07:51:57.000Z</time>
      </trkpt>
      <trkpt lat="47.31818" lon="-2.38689">
        <ele>38</ele>
        <time>2022-08-18T07:52:03.000Z</time>
      </trkpt>
      <trkpt lat="47.31815" lon="-2.38638">
        <ele>38</ele>
        <time>2022-08-18T07:52:09.000Z</time>
      </trkpt>
      <trkpt lat="47.31812" lon="-2.38606">
        <ele>38.400001525879</ele>
        <time>2022-08-18T07:52:13.000Z</time>
      </trkpt>
      <trkpt lat="47.31812" lon="-2.38599">
        <ele>38.799999237061</ele>
        <time>2022-08-18T07:52:14.000Z</time>
      </trkpt>
      <trkpt lat="47.31811" lon="-2.38592">
        <ele>39.200000762939</ele>
        <time>2022-08-18T07:52:15.000Z</time>
      </trkpt>
      <trkpt lat="47.31811" lon="-2.38585">
        <ele>39.599998474121</ele>
        <time>2022-08-18T07:52:16.000Z</time>
      </trkpt>
      <trkpt lat="47.3181" lon="-2.38578">
        <ele>40.200000762939</ele>
        <time>2022-08-18T07:52:17.000Z</time>
      </trkpt>
      <trkpt lat="47.31811" lon="-2.38545">
        <ele>40.200000762939</ele>
        <time>2022-08-18T07:52:23.000Z</time>
      </trkpt>
      <trkpt lat="47.31824" lon="-2.38537">
        <ele>40.200000762939</ele>
        <time>2022-08-18T07:52:26.000Z</time>
      </trkpt>
      <trkpt lat="47.31834" lon="-2.38534">
        <ele>40.200000762939</ele>
        <time>2022-08-18T07:52:28.000Z</time>
      </trkpt>
      <trkpt lat="47.31856" lon="-2.38526">
        <ele>39.799999237061</ele>
        <time>2022-08-18T07:52:32.000Z</time>
      </trkpt>
      <trkpt lat="47.31862" lon="-2.38524">
        <ele>39.200000762939</ele>
        <time>2022-08-18T07:52:33.000Z</time>
      </trkpt>
      <trkpt lat="47.31868" lon="-2.38521">
        <ele>38.400001525879</ele>
        <time>2022-08-18T07:52:34.000Z</time>
      </trkpt>
      <trkpt lat="47.31873" lon="-2.38519">
        <ele>38</ele>
        <time>2022-08-18T07:52:35.000Z</time>
      </trkpt>
      <trkpt lat="47.31906" lon="-2.38503">
        <ele>37.599998474121</ele>
        <time>2022-08-18T07:52:40.000Z</time>
      </trkpt>
      <trkpt lat="47.31913" lon="-2.38499">
        <ele>37.200000762939</ele>
        <time>2022-08-18T07:52:41.000Z</time>
      </trkpt>
      <trkpt lat="47.31919" lon="-2.38496">
        <ele>36.799999237061</ele>
        <time>2022-08-18T07:52:42.000Z</time>
      </trkpt>
      <trkpt lat="47.31926" lon="-2.38493">
        <ele>36.400001525879</ele>
        <time>2022-08-18T07:52:43.000Z</time>
      </trkpt>
      <trkpt lat="47.31933" lon="-2.38491">
        <ele>35.799999237061</ele>
        <time>2022-08-18T07:52:44.000Z</time>
      </trkpt>
      <trkpt lat="47.31945" lon="-2.38488">
        <ele>35.799999237061</ele>
        <time>2022-08-18T07:52:46.000Z</time>
      </trkpt>
      <trkpt lat="47.31959" lon="-2.38484">
        <ele>35.400001525879</ele>
        <time>2022-08-18T07:52:48.000Z</time>
      </trkpt>
      <trkpt lat="47.31965" lon="-2.38482">
        <ele>35</ele>
        <time>2022-08-18T07:52:49.000Z</time>
      </trkpt>
      <trkpt lat="47.31971" lon="-2.3848">
        <ele>34.599998474121</ele>
        <time>2022-08-18T07:52:50.000Z</time>
      </trkpt>
      <trkpt lat="47.31978" lon="-2.38477">
        <ele>34</ele>
        <time>2022-08-18T07:52:51.000Z</time>
      </trkpt>
      <trkpt lat="47.31985" lon="-2.38474">
        <ele>33.599998474121</ele>
        <time>2022-08-18T07:52:52.000Z</time>
      </trkpt>
      <trkpt lat="47.32" lon="-2.3847">
        <ele>33.599998474121</ele>
        <time>2022-08-18T07:52:54.000Z</time>
      </trkpt>
      <trkpt lat="47.32014" lon="-2.38465">
        <ele>33.599998474121</ele>
        <time>2022-08-18T07:52:56.000Z</time>
      </trkpt>
      <trkpt lat="47.32049" lon="-2.38453">
        <ele>33.599998474121</ele>
        <time>2022-08-18T07:53:01.000Z</time>
      </trkpt>
      <trkpt lat="47.32056" lon="-2.3845">
        <ele>33.200000762939</ele>
        <time>2022-08-18T07:53:02.000Z</time>
      </trkpt>
      <trkpt lat="47.32063" lon="-2.38446">
        <ele>32.799999237061</ele>
        <time>2022-08-18T07:53:03.000Z</time>
      </trkpt>
      <trkpt lat="47.3207" lon="-2.38443">
        <ele>32.400001525879</ele>
        <time>2022-08-18T07:53:04.000Z</time>
      </trkpt>
      <trkpt lat="47.32077" lon="-2.38439">
        <ele>31.799999237061</ele>
        <time>2022-08-18T07:53:05.000Z</time>
      </trkpt>
      <trkpt lat="47.32084" lon="-2.38436">
        <ele>31.39999961853</ele>
        <time>2022-08-18T07:53:06.000Z</time>
      </trkpt>
      <trkpt lat="47.32127" lon="-2.38414">
        <ele>31.39999961853</ele>
        <time>2022-08-18T07:53:13.000Z</time>
      </trkpt>
      <trkpt lat="47.32137" lon="-2.38402">
        <ele>31</ele>
        <time>2022-08-18T07:53:15.000Z</time>
      </trkpt>
      <trkpt lat="47.32143" lon="-2.38394">
        <ele>30.60000038147</ele>
        <time>2022-08-18T07:53:16.000Z</time>
      </trkpt>
      <trkpt lat="47.32148" lon="-2.38387">
        <ele>30.200000762939</ele>
        <time>2022-08-18T07:53:17.000Z</time>
      </trkpt>
      <trkpt lat="47.32153" lon="-2.38379">
        <ele>29.60000038147</ele>
        <time>2022-08-18T07:53:18.000Z</time>
      </trkpt>
      <trkpt lat="47.32157" lon="-2.38372">
        <ele>29.200000762939</ele>
        <time>2022-08-18T07:53:19.000Z</time>
      </trkpt>
      <trkpt lat="47.3217" lon="-2.38352">
        <ele>29.200000762939</ele>
        <time>2022-08-18T07:53:22.000Z</time>
      </trkpt>
      <trkpt lat="47.3219" lon="-2.38323">
        <ele>29.200000762939</ele>
        <time>2022-08-18T07:53:27.000Z</time>
      </trkpt>
      <trkpt lat="47.32214" lon="-2.38295">
        <ele>29.200000762939</ele>
        <time>2022-08-18T07:53:32.000Z</time>
      </trkpt>
      <trkpt lat="47.3222" lon="-2.38295">
        <ele>29.200000762939</ele>
        <time>2022-08-18T07:53:33.000Z</time>
      </trkpt>
      <trkpt lat="47.32259" lon="-2.38289">
        <ele>29.200000762939</ele>
        <time>2022-08-18T07:53:40.000Z</time>
      </trkpt>
      <trkpt lat="47.32275" lon="-2.38288">
        <ele>29.200000762939</ele>
        <time>2022-08-18T07:53:43.000Z</time>
      </trkpt>
      <trkpt lat="47.32281" lon="-2.38289">
        <ele>29.200000762939</ele>
        <time>2022-08-18T07:53:44.000Z</time>
      </trkpt>
      <trkpt lat="47.32309" lon="-2.38299">
        <ele>29.200000762939</ele>
        <time>2022-08-18T07:53:49.000Z</time>
      </trkpt>
      <trkpt lat="47.3234" lon="-2.38313">
        <ele>29.200000762939</ele>
        <time>2022-08-18T07:53:55.000Z</time>
      </trkpt>
      <trkpt lat="47.32354" lon="-2.38319">
        <ele>29.200000762939</ele>
        <time>2022-08-18T07:53:58.000Z</time>
      </trkpt>
      <trkpt lat="47.32373" lon="-2.38325">
        <ele>29.60000038147</ele>
        <time>2022-08-18T07:54:02.000Z</time>
      </trkpt>
      <trkpt lat="47.32377" lon="-2.38327">
        <ele>30</ele>
        <time>2022-08-18T07:54:03.000Z</time>
      </trkpt>
      <trkpt lat="47.32381" lon="-2.3833">
        <ele>30.39999961853</ele>
        <time>2022-08-18T07:54:04.000Z</time>
      </trkpt>
      <trkpt lat="47.32386" lon="-2.38332">
        <ele>30.799999237061</ele>
        <time>2022-08-18T07:54:05.000Z</time>
      </trkpt>
      <trkpt lat="47.32389" lon="-2.38334">
        <ele>31.200000762939</ele>
        <time>2022-08-18T07:54:06.000Z</time>
      </trkpt>
      <trkpt lat="47.32392" lon="-2.38335">
        <ele>31.200000762939</ele>
        <time>2022-08-18T07:54:07.000Z</time>
      </trkpt>
      <trkpt lat="47.32412" lon="-2.38345">
        <ele>31.200000762939</ele>
        <time>2022-08-18T07:54:12.000Z</time>
      </trkpt>
      <trkpt lat="47.3244" lon="-2.38358">
        <ele>31.200000762939</ele>
        <time>2022-08-18T07:54:18.000Z</time>
      </trkpt>
      <trkpt lat="47.32471" lon="-2.38373">
        <ele>31.200000762939</ele>
        <time>2022-08-18T07:54:24.000Z</time>
      </trkpt>
      <trkpt lat="47.32493" lon="-2.3838">
        <ele>31.200000762939</ele>
        <time>2022-08-18T07:54:28.000Z</time>
      </trkpt>
      <trkpt lat="47.32502" lon="-2.38383">
        <ele>31.200000762939</ele>
        <time>2022-08-18T07:54:30.000Z</time>
      </trkpt>
      <trkpt lat="47.32511" lon="-2.38381">
        <ele>31.200000762939</ele>
        <time>2022-08-18T07:54:32.000Z</time>
      </trkpt>
      <trkpt lat="47.32515" lon="-2.38378">
        <ele>31.200000762939</ele>
        <time>2022-08-18T07:54:33.000Z</time>
      </trkpt>
      <trkpt lat="47.32518" lon="-2.3836">
        <ele>31.200000762939</ele>
        <time>2022-08-18T07:54:36.000Z</time>
      </trkpt>
      <trkpt lat="47.32519" lon="-2.38352">
        <ele>31.200000762939</ele>
        <time>2022-08-18T07:54:37.000Z</time>
      </trkpt>
      <trkpt lat="47.32523" lon="-2.38317">
        <ele>31.200000762939</ele>
        <time>2022-08-18T07:54:42.000Z</time>
      </trkpt>
      <trkpt lat="47.32529" lon="-2.3831">
        <ele>31.200000762939</ele>
        <time>2022-08-18T07:54:44.000Z</time>
      </trkpt>
      <trkpt lat="47.32535" lon="-2.38309">
        <ele>30.799999237061</ele>
        <time>2022-08-18T07:54:45.000Z</time>
      </trkpt>
      <trkpt lat="47.32542" lon="-2.38308">
        <ele>30.39999961853</ele>
        <time>2022-08-18T07:54:46.000Z</time>
      </trkpt>
      <trkpt lat="47.32548" lon="-2.38307">
        <ele>30</ele>
        <time>2022-08-18T07:54:47.000Z</time>
      </trkpt>
      <trkpt lat="47.32554" lon="-2.38305">
        <ele>29.60000038147</ele>
        <time>2022-08-18T07:54:48.000Z</time>
      </trkpt>
      <trkpt lat="47.3256" lon="-2.38304">
        <ele>29.200000762939</ele>
        <time>2022-08-18T07:54:49.000Z</time>
      </trkpt>
      <trkpt lat="47.32573" lon="-2.383">
        <ele>29.200000762939</ele>
        <time>2022-08-18T07:54:51.000Z</time>
      </trkpt>
      <trkpt lat="47.326" lon="-2.38297">
        <ele>29.200000762939</ele>
        <time>2022-08-18T07:54:55.000Z</time>
      </trkpt>
      <trkpt lat="47.32606" lon="-2.38299">
        <ele>29.200000762939</ele>
        <time>2022-08-18T07:54:56.000Z</time>
      </trkpt>
      <trkpt lat="47.32624" lon="-2.38314">
        <ele>29.200000762939</ele>
        <time>2022-08-18T07:54:59.000Z</time>
      </trkpt>
      <trkpt lat="47.32648" lon="-2.38344">
        <ele>29.200000762939</ele>
        <time>2022-08-18T07:55:05.000Z</time>
      </trkpt>
      <trkpt lat="47.32659" lon="-2.38357">
        <ele>29.60000038147</ele>
        <time>2022-08-18T07:55:08.000Z</time>
      </trkpt>
      <trkpt lat="47.32662" lon="-2.38362">
        <ele>30</ele>
        <time>2022-08-18T07:55:09.000Z</time>
      </trkpt>
      <trkpt lat="47.32665" lon="-2.38366">
        <ele>30.39999961853</ele>
        <time>2022-08-18T07:55:10.000Z</time>
      </trkpt>
      <trkpt lat="47.32668" lon="-2.38371">
        <ele>30.799999237061</ele>
        <time>2022-08-18T07:55:11.000Z</time>
      </trkpt>
      <trkpt lat="47.32671" lon="-2.38375">
        <ele>31.200000762939</ele>
        <time>2022-08-18T07:55:12.000Z</time>
      </trkpt>
      <trkpt lat="47.3268" lon="-2.38387">
        <ele>31.200000762939</ele>
        <time>2022-08-18T07:55:15.000Z</time>
      </trkpt>
      <trkpt lat="47.32688" lon="-2.38394">
        <ele>31.799999237061</ele>
        <time>2022-08-18T07:55:17.000Z</time>
      </trkpt>
      <trkpt lat="47.32691" lon="-2.38396">
        <ele>32.200000762939</ele>
        <time>2022-08-18T07:55:18.000Z</time>
      </trkpt>
      <trkpt lat="47.32695" lon="-2.384">
        <ele>32.599998474121</ele>
        <time>2022-08-18T07:55:19.000Z</time>
      </trkpt>
      <trkpt lat="47.32698" lon="-2.38402">
        <ele>33</ele>
        <time>2022-08-18T07:55:20.000Z</time>
      </trkpt>
      <trkpt lat="47.32701" lon="-2.38403">
        <ele>33.400001525879</ele>
        <time>2022-08-18T07:55:21.000Z</time>
      </trkpt>
      <trkpt lat="47.32719" lon="-2.38406">
        <ele>33.400001525879</ele>
        <time>2022-08-18T07:55:26.000Z</time>
      </trkpt>
      <trkpt lat="47.32722" lon="-2.38405">
        <ele>33.799999237061</ele>
        <time>2022-08-18T07:55:27.000Z</time>
      </trkpt>
      <trkpt lat="47.32725" lon="-2.38404">
        <ele>34.200000762939</ele>
        <time>2022-08-18T07:55:28.000Z</time>
      </trkpt>
      <trkpt lat="47.32727" lon="-2.38403">
        <ele>34.599998474121</ele>
        <time>2022-08-18T07:55:29.000Z</time>
      </trkpt>
      <trkpt lat="47.3273" lon="-2.38402">
        <ele>35</ele>
        <time>2022-08-18T07:55:30.000Z</time>
      </trkpt>
      <trkpt lat="47.32733" lon="-2.38401">
        <ele>35.400001525879</ele>
        <time>2022-08-18T07:55:31.000Z</time>
      </trkpt>
      <trkpt lat="47.3275" lon="-2.38397">
        <ele>35.400001525879</ele>
        <time>2022-08-18T07:55:36.000Z</time>
      </trkpt>
      <trkpt lat="47.32763" lon="-2.38395">
        <ele>35.400001525879</ele>
        <time>2022-08-18T07:55:41.000Z</time>
      </trkpt>
      <trkpt lat="47.32772" lon="-2.38391">
        <ele>35.400001525879</ele>
        <time>2022-08-18T07:55:45.000Z</time>
      </trkpt>
      <trkpt lat="47.32774" lon="-2.38389">
        <ele>35.400001525879</ele>
        <time>2022-08-18T07:55:46.000Z</time>
      </trkpt>
      <trkpt lat="47.32776" lon="-2.38383">
        <ele>35.400001525879</ele>
        <time>2022-08-18T07:55:49.000Z</time>
      </trkpt>
      <trkpt lat="47.32778" lon="-2.38382">
        <ele>35.400001525879</ele>
        <time>2022-08-18T07:55:51.000Z</time>
      </trkpt>
      <trkpt lat="47.32778" lon="-2.38378">
        <ele>35.400001525879</ele>
        <time>2022-08-18T07:56:02.000Z</time>
      </trkpt>
      <trkpt lat="47.3278" lon="-2.38369">
        <ele>35.400001525879</ele>
        <time>2022-08-18T07:56:04.000Z</time>
      </trkpt>
      <trkpt lat="47.32785" lon="-2.38343">
        <ele>35.400001525879</ele>
        <time>2022-08-18T07:56:08.000Z</time>
      </trkpt>
      <trkpt lat="47.32798" lon="-2.38285">
        <ele>35</ele>
        <time>2022-08-18T07:56:15.000Z</time>
      </trkpt>
      <trkpt lat="47.328" lon="-2.38275">
        <ele>34.200000762939</ele>
        <time>2022-08-18T07:56:16.000Z</time>
      </trkpt>
      <trkpt lat="47.32803" lon="-2.38265">
        <ele>33.599998474121</ele>
        <time>2022-08-18T07:56:17.000Z</time>
      </trkpt>
      <trkpt lat="47.32805" lon="-2.38254">
        <ele>33.200000762939</ele>
        <time>2022-08-18T07:56:18.000Z</time>
      </trkpt>
      <trkpt lat="47.32811" lon="-2.38232">
        <ele>32.799999237061</ele>
        <time>2022-08-18T07:56:20.000Z</time>
      </trkpt>
      <trkpt lat="47.32815" lon="-2.38222">
        <ele>32.200000762939</ele>
        <time>2022-08-18T07:56:21.000Z</time>
      </trkpt>
      <trkpt lat="47.32819" lon="-2.38211">
        <ele>31.799999237061</ele>
        <time>2022-08-18T07:56:22.000Z</time>
      </trkpt>
      <trkpt lat="47.32823" lon="-2.38201">
        <ele>31.39999961853</ele>
        <time>2022-08-18T07:56:23.000Z</time>
      </trkpt>
      <trkpt lat="47.32827" lon="-2.38191">
        <ele>30.799999237061</ele>
        <time>2022-08-18T07:56:24.000Z</time>
      </trkpt>
      <trkpt lat="47.32832" lon="-2.3818">
        <ele>30.39999961853</ele>
        <time>2022-08-18T07:56:25.000Z</time>
      </trkpt>
      <trkpt lat="47.32836" lon="-2.3817">
        <ele>30</ele>
        <time>2022-08-18T07:56:26.000Z</time>
      </trkpt>
      <trkpt lat="47.32841" lon="-2.3816">
        <ele>29.60000038147</ele>
        <time>2022-08-18T07:56:27.000Z</time>
      </trkpt>
      <trkpt lat="47.32846" lon="-2.38152">
        <ele>29.200000762939</ele>
        <time>2022-08-18T07:56:28.000Z</time>
      </trkpt>
      <trkpt lat="47.32851" lon="-2.38143">
        <ele>28.799999237061</ele>
        <time>2022-08-18T07:56:29.000Z</time>
      </trkpt>
      <trkpt lat="47.32872" lon="-2.38108">
        <ele>28.39999961853</ele>
        <time>2022-08-18T07:56:33.000Z</time>
      </trkpt>
      <trkpt lat="47.32877" lon="-2.381">
        <ele>28</ele>
        <time>2022-08-18T07:56:34.000Z</time>
      </trkpt>
      <trkpt lat="47.32882" lon="-2.38091">
        <ele>27.60000038147</ele>
        <time>2022-08-18T07:56:35.000Z</time>
      </trkpt>
      <trkpt lat="47.32887" lon="-2.38082">
        <ele>27.200000762939</ele>
        <time>2022-08-18T07:56:36.000Z</time>
      </trkpt>
      <trkpt lat="47.32892" lon="-2.38073">
        <ele>26.60000038147</ele>
        <time>2022-08-18T07:56:37.000Z</time>
      </trkpt>
      <trkpt lat="47.32912" lon="-2.3804">
        <ele>26.60000038147</ele>
        <time>2022-08-18T07:56:41.000Z</time>
      </trkpt>
      <trkpt lat="47.32926" lon="-2.38017">
        <ele>26.60000038147</ele>
        <time>2022-08-18T07:56:44.000Z</time>
      </trkpt>
      <trkpt lat="47.32936" lon="-2.38006">
        <ele>26.60000038147</ele>
        <time>2022-08-18T07:56:46.000Z</time>
      </trkpt>
      <trkpt lat="47.32944" lon="-2.37994">
        <ele>26.60000038147</ele>
        <time>2022-08-18T07:56:48.000Z</time>
      </trkpt>
      <trkpt lat="47.32957" lon="-2.37976">
        <ele>26.60000038147</ele>
        <time>2022-08-18T07:56:51.000Z</time>
      </trkpt>
      <trkpt lat="47.3297" lon="-2.37956">
        <ele>26.60000038147</ele>
        <time>2022-08-18T07:56:54.000Z</time>
      </trkpt>
      <trkpt lat="47.32974" lon="-2.37949">
        <ele>26.200000762939</ele>
        <time>2022-08-18T07:56:55.000Z</time>
      </trkpt>
      <trkpt lat="47.32978" lon="-2.37943">
        <ele>25.799999237061</ele>
        <time>2022-08-18T07:56:56.000Z</time>
      </trkpt>
      <trkpt lat="47.32982" lon="-2.37936">
        <ele>25.39999961853</ele>
        <time>2022-08-18T07:56:57.000Z</time>
      </trkpt>
      <trkpt lat="47.32987" lon="-2.3793">
        <ele>25</ele>
        <time>2022-08-18T07:56:58.000Z</time>
      </trkpt>
      <trkpt lat="47.32991" lon="-2.37924">
        <ele>24.60000038147</ele>
        <time>2022-08-18T07:56:59.000Z</time>
      </trkpt>
      <trkpt lat="47.32995" lon="-2.37916">
        <ele>24.60000038147</ele>
        <time>2022-08-18T07:57:00.000Z</time>
      </trkpt>
      <trkpt lat="47.33015" lon="-2.3788">
        <ele>24.60000038147</ele>
        <time>2022-08-18T07:57:05.000Z</time>
      </trkpt>
      <trkpt lat="47.33018" lon="-2.37872">
        <ele>24.60000038147</ele>
        <time>2022-08-18T07:57:06.000Z</time>
      </trkpt>
      <trkpt lat="47.33028" lon="-2.37849">
        <ele>24.60000038147</ele>
        <time>2022-08-18T07:57:09.000Z</time>
      </trkpt>
      <trkpt lat="47.33033" lon="-2.37843">
        <ele>24.60000038147</ele>
        <time>2022-08-18T07:57:10.000Z</time>
      </trkpt>
      <trkpt lat="47.33049" lon="-2.37826">
        <ele>24.60000038147</ele>
        <time>2022-08-18T07:57:13.000Z</time>
      </trkpt>
      <trkpt lat="47.3306" lon="-2.37816">
        <ele>24.200000762939</ele>
        <time>2022-08-18T07:57:15.000Z</time>
      </trkpt>
      <trkpt lat="47.33066" lon="-2.37811">
        <ele>23.799999237061</ele>
        <time>2022-08-18T07:57:16.000Z</time>
      </trkpt>
      <trkpt lat="47.33071" lon="-2.37806">
        <ele>23.39999961853</ele>
        <time>2022-08-18T07:57:17.000Z</time>
      </trkpt>
      <trkpt lat="47.33076" lon="-2.37801">
        <ele>23</ele>
        <time>2022-08-18T07:57:18.000Z</time>
      </trkpt>
      <trkpt lat="47.33082" lon="-2.37795">
        <ele>22.60000038147</ele>
        <time>2022-08-18T07:57:19.000Z</time>
      </trkpt>
      <trkpt lat="47.33086" lon="-2.37789">
        <ele>22.60000038147</ele>
        <time>2022-08-18T07:57:20.000Z</time>
      </trkpt>
      <trkpt lat="47.33091" lon="-2.37785">
        <ele>22.60000038147</ele>
        <time>2022-08-18T07:57:21.000Z</time>
      </trkpt>
      <trkpt lat="47.33108" lon="-2.37764">
        <ele>22.60000038147</ele>
        <time>2022-08-18T07:57:25.000Z</time>
      </trkpt>
      <trkpt lat="47.33118" lon="-2.37755">
        <ele>22.200000762939</ele>
        <time>2022-08-18T07:57:27.000Z</time>
      </trkpt>
      <trkpt lat="47.33122" lon="-2.37749">
        <ele>21.799999237061</ele>
        <time>2022-08-18T07:57:28.000Z</time>
      </trkpt>
      <trkpt lat="47.33127" lon="-2.37744">
        <ele>21</ele>
        <time>2022-08-18T07:57:29.000Z</time>
      </trkpt>
      <trkpt lat="47.33133" lon="-2.37741">
        <ele>20.39999961853</ele>
        <time>2022-08-18T07:57:30.000Z</time>
      </trkpt>
      <trkpt lat="47.33153" lon="-2.37741">
        <ele>20.39999961853</ele>
        <time>2022-08-18T07:57:33.000Z</time>
      </trkpt>
      <trkpt lat="47.33166" lon="-2.3776">
        <ele>20.39999961853</ele>
        <time>2022-08-18T07:57:36.000Z</time>
      </trkpt>
      <trkpt lat="47.3317" lon="-2.37768">
        <ele>20.39999961853</ele>
        <time>2022-08-18T07:57:37.000Z</time>
      </trkpt>
      <trkpt lat="47.3319" lon="-2.378">
        <ele>20.39999961853</ele>
        <time>2022-08-18T07:57:42.000Z</time>
      </trkpt>
      <trkpt lat="47.33218" lon="-2.37844">
        <ele>20.39999961853</ele>
        <time>2022-08-18T07:57:49.000Z</time>
      </trkpt>
      <trkpt lat="47.33222" lon="-2.3785">
        <ele>21</ele>
        <time>2022-08-18T07:57:50.000Z</time>
      </trkpt>
      <trkpt lat="47.33226" lon="-2.37855">
        <ele>21.39999961853</ele>
        <time>2022-08-18T07:57:51.000Z</time>
      </trkpt>
      <trkpt lat="47.3323" lon="-2.3786">
        <ele>21.799999237061</ele>
        <time>2022-08-18T07:57:52.000Z</time>
      </trkpt>
      <trkpt lat="47.33234" lon="-2.37865">
        <ele>22.60000038147</ele>
        <time>2022-08-18T07:57:53.000Z</time>
      </trkpt>
      <trkpt lat="47.33238" lon="-2.37867">
        <ele>22.60000038147</ele>
        <time>2022-08-18T07:57:54.000Z</time>
      </trkpt>
      <trkpt lat="47.33259" lon="-2.37879">
        <ele>22.60000038147</ele>
        <time>2022-08-18T07:57:59.000Z</time>
      </trkpt>
      <trkpt lat="47.33267" lon="-2.37877">
        <ele>23</ele>
        <time>2022-08-18T07:58:01.000Z</time>
      </trkpt>
      <trkpt lat="47.33271" lon="-2.37875">
        <ele>23.60000038147</ele>
        <time>2022-08-18T07:58:02.000Z</time>
      </trkpt>
      <trkpt lat="47.33274" lon="-2.37873">
        <ele>24</ele>
        <time>2022-08-18T07:58:03.000Z</time>
      </trkpt>
      <trkpt lat="47.33277" lon="-2.37872">
        <ele>24.39999961853</ele>
        <time>2022-08-18T07:58:04.000Z</time>
      </trkpt>
      <trkpt lat="47.33282" lon="-2.37871">
        <ele>24.799999237061</ele>
        <time>2022-08-18T07:58:05.000Z</time>
      </trkpt>
      <trkpt lat="47.33289" lon="-2.37869">
        <ele>25.39999961853</ele>
        <time>2022-08-18T07:58:07.000Z</time>
      </trkpt>
      <trkpt lat="47.33292" lon="-2.37869">
        <ele>25.799999237061</ele>
        <time>2022-08-18T07:58:08.000Z</time>
      </trkpt>
      <trkpt lat="47.33296" lon="-2.37868">
        <ele>26.200000762939</ele>
        <time>2022-08-18T07:58:09.000Z</time>
      </trkpt>
      <trkpt lat="47.33299" lon="-2.37867">
        <ele>26.60000038147</ele>
        <time>2022-08-18T07:58:10.000Z</time>
      </trkpt>
      <trkpt lat="47.33303" lon="-2.37865">
        <ele>27</ele>
        <time>2022-08-18T07:58:11.000Z</time>
      </trkpt>
      <trkpt lat="47.33315" lon="-2.37862">
        <ele>27</ele>
        <time>2022-08-18T07:58:14.000Z</time>
      </trkpt>
      <trkpt lat="47.33327" lon="-2.37856">
        <ele>27.60000038147</ele>
        <time>2022-08-18T07:58:17.000Z</time>
      </trkpt>
      <trkpt lat="47.33331" lon="-2.37855">
        <ele>28.39999961853</ele>
        <time>2022-08-18T07:58:18.000Z</time>
      </trkpt>
      <trkpt lat="47.33335" lon="-2.37853">
        <ele>28.799999237061</ele>
        <time>2022-08-18T07:58:19.000Z</time>
      </trkpt>
      <trkpt lat="47.33338" lon="-2.37853">
        <ele>29.200000762939</ele>
        <time>2022-08-18T07:58:20.000Z</time>
      </trkpt>
      <trkpt lat="47.33346" lon="-2.37854">
        <ele>29.200000762939</ele>
        <time>2022-08-18T07:58:23.000Z</time>
      </trkpt>
      <trkpt lat="47.33359" lon="-2.37856">
        <ele>29.200000762939</ele>
        <time>2022-08-18T07:58:28.000Z</time>
      </trkpt>
      <trkpt lat="47.33363" lon="-2.37851">
        <ele>29.200000762939</ele>
        <time>2022-08-18T07:58:30.000Z</time>
      </trkpt>
      <trkpt lat="47.33371" lon="-2.37831">
        <ele>29.200000762939</ele>
        <time>2022-08-18T07:58:35.000Z</time>
      </trkpt>
      <trkpt lat="47.33377" lon="-2.37818">
        <ele>29.60000038147</ele>
        <time>2022-08-18T07:58:38.000Z</time>
      </trkpt>
      <trkpt lat="47.33378" lon="-2.37814">
        <ele>30.200000762939</ele>
        <time>2022-08-18T07:58:39.000Z</time>
      </trkpt>
      <trkpt lat="47.33379" lon="-2.3781">
        <ele>30.60000038147</ele>
        <time>2022-08-18T07:58:40.000Z</time>
      </trkpt>
      <trkpt lat="47.33381" lon="-2.37805">
        <ele>31</ele>
        <time>2022-08-18T07:58:41.000Z</time>
      </trkpt>
      <trkpt lat="47.33382" lon="-2.37801">
        <ele>31.39999961853</ele>
        <time>2022-08-18T07:58:42.000Z</time>
      </trkpt>
      <trkpt lat="47.33386" lon="-2.3777">
        <ele>31.39999961853</ele>
        <time>2022-08-18T07:58:48.000Z</time>
      </trkpt>
      <trkpt lat="47.33386" lon="-2.37732">
        <ele>31.39999961853</ele>
        <time>2022-08-18T07:58:55.000Z</time>
      </trkpt>
      <trkpt lat="47.33387" lon="-2.37701">
        <ele>31.39999961853</ele>
        <time>2022-08-18T07:59:00.000Z</time>
      </trkpt>
      <trkpt lat="47.33387" lon="-2.37693">
        <ele>31.39999961853</ele>
        <time>2022-08-18T07:59:01.000Z</time>
      </trkpt>
      <trkpt lat="47.33391" lon="-2.37658">
        <ele>31.39999961853</ele>
        <time>2022-08-18T07:59:06.000Z</time>
      </trkpt>
      <trkpt lat="47.33393" lon="-2.37652">
        <ele>31.39999961853</ele>
        <time>2022-08-18T07:59:07.000Z</time>
      </trkpt>
      <trkpt lat="47.33407" lon="-2.37631">
        <ele>31.39999961853</ele>
        <time>2022-08-18T07:59:11.000Z</time>
      </trkpt>
      <trkpt lat="47.33411" lon="-2.37627">
        <ele>31.39999961853</ele>
        <time>2022-08-18T07:59:12.000Z</time>
      </trkpt>
      <trkpt lat="47.3344" lon="-2.37602">
        <ele>31.39999961853</ele>
        <time>2022-08-18T07:59:19.000Z</time>
      </trkpt>
      <trkpt lat="47.33451" lon="-2.37591">
        <ele>31.39999961853</ele>
        <time>2022-08-18T07:59:22.000Z</time>
      </trkpt>
      <trkpt lat="47.33464" lon="-2.37579">
        <ele>31.39999961853</ele>
        <time>2022-08-18T07:59:25.000Z</time>
      </trkpt>
      <trkpt lat="47.33494" lon="-2.37542">
        <ele>31.39999961853</ele>
        <time>2022-08-18T07:59:32.000Z</time>
      </trkpt>
      <trkpt lat="47.33511" lon="-2.37512">
        <ele>31.39999961853</ele>
        <time>2022-08-18T07:59:37.000Z</time>
      </trkpt>
      <trkpt lat="47.33522" lon="-2.37494">
        <ele>31.39999961853</ele>
        <time>2022-08-18T07:59:40.000Z</time>
      </trkpt>
      <trkpt lat="47.33531" lon="-2.37473">
        <ele>31.39999961853</ele>
        <time>2022-08-18T07:59:43.000Z</time>
      </trkpt>
      <trkpt lat="47.33533" lon="-2.37465">
        <ele>31</ele>
        <time>2022-08-18T07:59:44.000Z</time>
      </trkpt>
      <trkpt lat="47.33534" lon="-2.37457">
        <ele>30.60000038147</ele>
        <time>2022-08-18T07:59:45.000Z</time>
      </trkpt>
      <trkpt lat="47.33535" lon="-2.37449">
        <ele>30.200000762939</ele>
        <time>2022-08-18T07:59:46.000Z</time>
      </trkpt>
      <trkpt lat="47.33536" lon="-2.3744">
        <ele>29.799999237061</ele>
        <time>2022-08-18T07:59:47.000Z</time>
      </trkpt>
      <trkpt lat="47.33536" lon="-2.37432">
        <ele>29.39999961853</ele>
        <time>2022-08-18T07:59:48.000Z</time>
      </trkpt>
      <trkpt lat="47.33537" lon="-2.37386">
        <ele>29.39999961853</ele>
        <time>2022-08-18T07:59:54.000Z</time>
      </trkpt>
      <trkpt lat="47.33538" lon="-2.3737">
        <ele>29</ele>
        <time>2022-08-18T07:59:57.000Z</time>
      </trkpt>
      <trkpt lat="47.33538" lon="-2.37367">
        <ele>28.60000038147</ele>
        <time>2022-08-18T07:59:58.000Z</time>
      </trkpt>
      <trkpt lat="47.33538" lon="-2.37364">
        <ele>28.200000762939</ele>
        <time>2022-08-18T07:59:59.000Z</time>
      </trkpt>
      <trkpt lat="47.33537" lon="-2.37362">
        <ele>27.60000038147</ele>
        <time>2022-08-18T08:00:00.000Z</time>
      </trkpt>
      <trkpt lat="47.33537" lon="-2.3736">
        <ele>27.200000762939</ele>
        <time>2022-08-18T08:00:01.000Z</time>
      </trkpt>
      <trkpt lat="47.33537" lon="-2.37358">
        <ele>27.200000762939</ele>
        <time>2022-08-18T08:00:04.000Z</time>
      </trkpt>
      <trkpt lat="47.33537" lon="-2.37359">
        <ele>27.200000762939</ele>
        <time>2022-08-18T08:00:05.000Z</time>
      </trkpt>
      <trkpt lat="47.33536" lon="-2.37355">
        <ele>27.200000762939</ele>
        <time>2022-08-18T08:00:16.000Z</time>
      </trkpt>
      <trkpt lat="47.33534" lon="-2.37351">
        <ele>27.200000762939</ele>
        <time>2022-08-18T08:00:17.000Z</time>
      </trkpt>
      <trkpt lat="47.33527" lon="-2.37329">
        <ele>27.200000762939</ele>
        <time>2022-08-18T08:00:21.000Z</time>
      </trkpt>
      <trkpt lat="47.3352" lon="-2.37311">
        <ele>26.799999237061</ele>
        <time>2022-08-18T08:00:24.000Z</time>
      </trkpt>
      <trkpt lat="47.33518" lon="-2.37305">
        <ele>26.39999961853</ele>
        <time>2022-08-18T08:00:25.000Z</time>
      </trkpt>
      <trkpt lat="47.33516" lon="-2.37299">
        <ele>26</ele>
        <time>2022-08-18T08:00:26.000Z</time>
      </trkpt>
      <trkpt lat="47.33514" lon="-2.37292">
        <ele>25.60000038147</ele>
        <time>2022-08-18T08:00:27.000Z</time>
      </trkpt>
      <trkpt lat="47.33513" lon="-2.37284">
        <ele>25.200000762939</ele>
        <time>2022-08-18T08:00:28.000Z</time>
      </trkpt>
      <trkpt lat="47.335" lon="-2.37239">
        <ele>24.799999237061</ele>
        <time>2022-08-18T08:00:34.000Z</time>
      </trkpt>
      <trkpt lat="47.33497" lon="-2.3723">
        <ele>24.39999961853</ele>
        <time>2022-08-18T08:00:35.000Z</time>
      </trkpt>
      <trkpt lat="47.33493" lon="-2.37222">
        <ele>24</ele>
        <time>2022-08-18T08:00:36.000Z</time>
      </trkpt>
      <trkpt lat="47.3349" lon="-2.37213">
        <ele>23.60000038147</ele>
        <time>2022-08-18T08:00:37.000Z</time>
      </trkpt>
      <trkpt lat="47.33487" lon="-2.37204">
        <ele>23.200000762939</ele>
        <time>2022-08-18T08:00:38.000Z</time>
      </trkpt>
      <trkpt lat="47.33485" lon="-2.37194">
        <ele>23.200000762939</ele>
        <time>2022-08-18T08:00:39.000Z</time>
      </trkpt>
      <trkpt lat="47.33484" lon="-2.37185">
        <ele>23.200000762939</ele>
        <time>2022-08-18T08:00:40.000Z</time>
      </trkpt>
      <trkpt lat="47.33483" lon="-2.37176">
        <ele>22.799999237061</ele>
        <time>2022-08-18T08:00:41.000Z</time>
      </trkpt>
      <trkpt lat="47.33482" lon="-2.37166">
        <ele>22.39999961853</ele>
        <time>2022-08-18T08:00:42.000Z</time>
      </trkpt>
      <trkpt lat="47.3348" lon="-2.37157">
        <ele>22</ele>
        <time>2022-08-18T08:00:43.000Z</time>
      </trkpt>
      <trkpt lat="47.33479" lon="-2.37147">
        <ele>21.60000038147</ele>
        <time>2022-08-18T08:00:44.000Z</time>
      </trkpt>
      <trkpt lat="47.33477" lon="-2.37138">
        <ele>21.200000762939</ele>
        <time>2022-08-18T08:00:45.000Z</time>
      </trkpt>
      <trkpt lat="47.33471" lon="-2.37098">
        <ele>20.60000038147</ele>
        <time>2022-08-18T08:00:49.000Z</time>
      </trkpt>
      <trkpt lat="47.3347" lon="-2.37089">
        <ele>20.200000762939</ele>
        <time>2022-08-18T08:00:50.000Z</time>
      </trkpt>
      <trkpt lat="47.33469" lon="-2.3708">
        <ele>19.799999237061</ele>
        <time>2022-08-18T08:00:51.000Z</time>
      </trkpt>
      <trkpt lat="47.33468" lon="-2.37072">
        <ele>19.200000762939</ele>
        <time>2022-08-18T08:00:52.000Z</time>
      </trkpt>
      <trkpt lat="47.33468" lon="-2.37063">
        <ele>18.799999237061</ele>
        <time>2022-08-18T08:00:53.000Z</time>
      </trkpt>
      <trkpt lat="47.3347" lon="-2.37046">
        <ele>18.799999237061</ele>
        <time>2022-08-18T08:00:55.000Z</time>
      </trkpt>
      <trkpt lat="47.33471" lon="-2.37038">
        <ele>18.799999237061</ele>
        <time>2022-08-18T08:00:56.000Z</time>
      </trkpt>
      <trkpt lat="47.33474" lon="-2.37024">
        <ele>18.799999237061</ele>
        <time>2022-08-18T08:00:58.000Z</time>
      </trkpt>
      <trkpt lat="47.33475" lon="-2.37017">
        <ele>18.799999237061</ele>
        <time>2022-08-18T08:00:59.000Z</time>
      </trkpt>
      <trkpt lat="47.33476" lon="-2.37006">
        <ele>18.39999961853</ele>
        <time>2022-08-18T08:01:01.000Z</time>
      </trkpt>
      <trkpt lat="47.33475" lon="-2.37003">
        <ele>18</ele>
        <time>2022-08-18T08:01:02.000Z</time>
      </trkpt>
      <trkpt lat="47.33475" lon="-2.37001">
        <ele>17.60000038147</ele>
        <time>2022-08-18T08:01:03.000Z</time>
      </trkpt>
      <trkpt lat="47.33475" lon="-2.37001">
        <ele>17.200000762939</ele>
        <time>2022-08-18T08:01:04.000Z</time>
      </trkpt>
      <trkpt lat="47.33472" lon="-2.36994">
        <ele>16.799999237061</ele>
        <time>2022-08-18T08:03:24.000Z</time>
      </trkpt>
      <trkpt lat="47.33469" lon="-2.36991">
        <ele>16.799999237061</ele>
        <time>2022-08-18T08:03:25.000Z</time>
      </trkpt>
      <trkpt lat="47.33461" lon="-2.36974">
        <ele>16.799999237061</ele>
        <time>2022-08-18T08:03:29.000Z</time>
      </trkpt>
      <trkpt lat="47.33454" lon="-2.3696">
        <ele>16.799999237061</ele>
        <time>2022-08-18T08:03:34.000Z</time>
      </trkpt>
      <trkpt lat="47.33454" lon="-2.36949">
        <ele>16.799999237061</ele>
        <time>2022-08-18T08:03:37.000Z</time>
      </trkpt>
      <trkpt lat="47.33454" lon="-2.36945">
        <ele>16.799999237061</ele>
        <time>2022-08-18T08:03:38.000Z</time>
      </trkpt>
      <trkpt lat="47.3345" lon="-2.36918">
        <ele>16.799999237061</ele>
        <time>2022-08-18T08:03:44.000Z</time>
      </trkpt>
      <trkpt lat="47.33447" lon="-2.36901">
        <ele>16.799999237061</ele>
        <time>2022-08-18T08:03:48.000Z</time>
      </trkpt>
      <trkpt lat="47.33447" lon="-2.36886">
        <ele>16.799999237061</ele>
        <time>2022-08-18T08:03:52.000Z</time>
      </trkpt>
      <trkpt lat="47.33453" lon="-2.36874">
        <ele>16.799999237061</ele>
        <time>2022-08-18T08:03:55.000Z</time>
      </trkpt>
      <trkpt lat="47.33457" lon="-2.36867">
        <ele>16.799999237061</ele>
        <time>2022-08-18T08:03:56.000Z</time>
      </trkpt>
      <trkpt lat="47.33461" lon="-2.36846">
        <ele>16.799999237061</ele>
        <time>2022-08-18T08:03:59.000Z</time>
      </trkpt>
      <trkpt lat="47.33463" lon="-2.36826">
        <ele>16.200000762939</ele>
        <time>2022-08-18T08:04:02.000Z</time>
      </trkpt>
      <trkpt lat="47.33463" lon="-2.36821">
        <ele>15.39999961853</ele>
        <time>2022-08-18T08:04:03.000Z</time>
      </trkpt>
      <trkpt lat="47.33463" lon="-2.36815">
        <ele>15</ele>
        <time>2022-08-18T08:04:04.000Z</time>
      </trkpt>
      <trkpt lat="47.33463" lon="-2.36809">
        <ele>14.60000038147</ele>
        <time>2022-08-18T08:04:05.000Z</time>
      </trkpt>
      <trkpt lat="47.33463" lon="-2.3679">
        <ele>14.60000038147</ele>
        <time>2022-08-18T08:04:08.000Z</time>
      </trkpt>
      <trkpt lat="47.33467" lon="-2.36775">
        <ele>14.60000038147</ele>
        <time>2022-08-18T08:04:11.000Z</time>
      </trkpt>
      <trkpt lat="47.33468" lon="-2.3677">
        <ele>14.60000038147</ele>
        <time>2022-08-18T08:04:12.000Z</time>
      </trkpt>
      <trkpt lat="47.33476" lon="-2.36754">
        <ele>14.60000038147</ele>
        <time>2022-08-18T08:04:15.000Z</time>
      </trkpt>
      <trkpt lat="47.3348" lon="-2.36743">
        <ele>14.60000038147</ele>
        <time>2022-08-18T08:04:17.000Z</time>
      </trkpt>
      <trkpt lat="47.33487" lon="-2.36722">
        <ele>14.60000038147</ele>
        <time>2022-08-18T08:04:21.000Z</time>
      </trkpt>
      <trkpt lat="47.33495" lon="-2.36706">
        <ele>14.60000038147</ele>
        <time>2022-08-18T08:04:25.000Z</time>
      </trkpt>
      <trkpt lat="47.33505" lon="-2.36687">
        <ele>14.60000038147</ele>
        <time>2022-08-18T08:04:31.000Z</time>
      </trkpt>
      <trkpt lat="47.33514" lon="-2.36673">
        <ele>14.60000038147</ele>
        <time>2022-08-18T08:04:35.000Z</time>
      </trkpt>
      <trkpt lat="47.33521" lon="-2.36664">
        <ele>14.60000038147</ele>
        <time>2022-08-18T08:04:38.000Z</time>
      </trkpt>
      <trkpt lat="47.33524" lon="-2.36662">
        <ele>14.60000038147</ele>
        <time>2022-08-18T08:04:39.000Z</time>
      </trkpt>
      <trkpt lat="47.33533" lon="-2.36652">
        <ele>14.60000038147</ele>
        <time>2022-08-18T08:04:44.000Z</time>
      </trkpt>
      <trkpt lat="47.33535" lon="-2.36649">
        <ele>14.60000038147</ele>
        <time>2022-08-18T08:04:45.000Z</time>
      </trkpt>
      <trkpt lat="47.33538" lon="-2.36635">
        <ele>14.60000038147</ele>
        <time>2022-08-18T08:04:49.000Z</time>
      </trkpt>
      <trkpt lat="47.33538" lon="-2.36633">
        <ele>14.60000038147</ele>
        <time>2022-08-18T08:04:51.000Z</time>
      </trkpt>
      <trkpt lat="47.33532" lon="-2.36624">
        <ele>16.200000762939</ele>
        <time>2022-08-18T08:05:10.000Z</time>
      </trkpt>
      <trkpt lat="47.33531" lon="-2.36622">
        <ele>16.60000038147</ele>
        <time>2022-08-18T08:05:11.000Z</time>
      </trkpt>
      <trkpt lat="47.33527" lon="-2.36617">
        <ele>17</ele>
        <time>2022-08-18T08:05:16.000Z</time>
      </trkpt>
      <trkpt lat="47.33525" lon="-2.36615">
        <ele>18.200000762939</ele>
        <time>2022-08-18T08:05:18.000Z</time>
      </trkpt>
      <trkpt lat="47.33523" lon="-2.36614">
        <ele>18.60000038147</ele>
        <time>2022-08-18T08:05:19.000Z</time>
      </trkpt>
      <trkpt lat="47.33515" lon="-2.36609">
        <ele>18.60000038147</ele>
        <time>2022-08-18T08:05:22.000Z</time>
      </trkpt>
      <trkpt lat="47.33493" lon="-2.36595">
        <ele>18.60000038147</ele>
        <time>2022-08-18T08:05:29.000Z</time>
      </trkpt>
      <trkpt lat="47.3349" lon="-2.36597">
        <ele>18.60000038147</ele>
        <time>2022-08-18T08:05:30.000Z</time>
      </trkpt>
      <trkpt lat="47.33482" lon="-2.36596">
        <ele>18.60000038147</ele>
        <time>2022-08-18T08:05:32.000Z</time>
      </trkpt>
      <trkpt lat="47.33474" lon="-2.36595">
        <ele>19</ele>
        <time>2022-08-18T08:05:34.000Z</time>
      </trkpt>
      <trkpt lat="47.33472" lon="-2.36591">
        <ele>19.39999961853</ele>
        <time>2022-08-18T08:05:35.000Z</time>
      </trkpt>
      <trkpt lat="47.3347" lon="-2.36587">
        <ele>19.799999237061</ele>
        <time>2022-08-18T08:05:36.000Z</time>
      </trkpt>
      <trkpt lat="47.33471" lon="-2.36582">
        <ele>20.200000762939</ele>
        <time>2022-08-18T08:05:37.000Z</time>
      </trkpt>
      <trkpt lat="47.33471" lon="-2.36577">
        <ele>20.60000038147</ele>
        <time>2022-08-18T08:05:38.000Z</time>
      </trkpt>
      <trkpt lat="47.33471" lon="-2.36571">
        <ele>20.60000038147</ele>
        <time>2022-08-18T08:05:39.000Z</time>
      </trkpt>
      <trkpt lat="47.33472" lon="-2.36546">
        <ele>20.60000038147</ele>
        <time>2022-08-18T08:05:44.000Z</time>
      </trkpt>
      <trkpt lat="47.33473" lon="-2.36517">
        <ele>20.60000038147</ele>
        <time>2022-08-18T08:05:50.000Z</time>
      </trkpt>
      <trkpt lat="47.33473" lon="-2.36489">
        <ele>20.60000038147</ele>
        <time>2022-08-18T08:05:55.000Z</time>
      </trkpt>
      <trkpt lat="47.33472" lon="-2.36451">
        <ele>20.60000038147</ele>
        <time>2022-08-18T08:06:01.000Z</time>
      </trkpt>
      <trkpt lat="47.33472" lon="-2.36435">
        <ele>20.60000038147</ele>
        <time>2022-08-18T08:06:05.000Z</time>
      </trkpt>
      <trkpt lat="47.33471" lon="-2.36432">
        <ele>20.60000038147</ele>
        <time>2022-08-18T08:06:06.000Z</time>
      </trkpt>
      <trkpt lat="47.33464" lon="-2.36427">
        <ele>20.60000038147</ele>
        <time>2022-08-18T08:06:09.000Z</time>
      </trkpt>
      <trkpt lat="47.3346" lon="-2.36423">
        <ele>21</ele>
        <time>2022-08-18T08:06:11.000Z</time>
      </trkpt>
      <trkpt lat="47.33457" lon="-2.3642">
        <ele>21.39999961853</ele>
        <time>2022-08-18T08:06:12.000Z</time>
      </trkpt>
      <trkpt lat="47.33455" lon="-2.36417">
        <ele>22</ele>
        <time>2022-08-18T08:06:13.000Z</time>
      </trkpt>
      <trkpt lat="47.33453" lon="-2.36413">
        <ele>22.39999961853</ele>
        <time>2022-08-18T08:06:14.000Z</time>
      </trkpt>
      <trkpt lat="47.33451" lon="-2.3641">
        <ele>22.799999237061</ele>
        <time>2022-08-18T08:06:15.000Z</time>
      </trkpt>
      <trkpt lat="47.33447" lon="-2.36398">
        <ele>22.799999237061</ele>
        <time>2022-08-18T08:06:18.000Z</time>
      </trkpt>
      <trkpt lat="47.33433" lon="-2.36363">
        <ele>22.799999237061</ele>
        <time>2022-08-18T08:06:25.000Z</time>
      </trkpt>
      <trkpt lat="47.33429" lon="-2.3635">
        <ele>23.200000762939</ele>
        <time>2022-08-18T08:06:27.000Z</time>
      </trkpt>
      <trkpt lat="47.33427" lon="-2.36345">
        <ele>23.60000038147</ele>
        <time>2022-08-18T08:06:28.000Z</time>
      </trkpt>
      <trkpt lat="47.33425" lon="-2.3634">
        <ele>24</ele>
        <time>2022-08-18T08:06:29.000Z</time>
      </trkpt>
      <trkpt lat="47.33423" lon="-2.36335">
        <ele>24.39999961853</ele>
        <time>2022-08-18T08:06:30.000Z</time>
      </trkpt>
      <trkpt lat="47.33421" lon="-2.36329">
        <ele>24.799999237061</ele>
        <time>2022-08-18T08:06:31.000Z</time>
      </trkpt>
      <trkpt lat="47.33415" lon="-2.36296">
        <ele>24.799999237061</ele>
        <time>2022-08-18T08:06:36.000Z</time>
      </trkpt>
      <trkpt lat="47.33412" lon="-2.36281">
        <ele>24.799999237061</ele>
        <time>2022-08-18T08:06:38.000Z</time>
      </trkpt>
      <trkpt lat="47.33409" lon="-2.36249">
        <ele>24.799999237061</ele>
        <time>2022-08-18T08:06:42.000Z</time>
      </trkpt>
      <trkpt lat="47.33409" lon="-2.36242">
        <ele>25.200000762939</ele>
        <time>2022-08-18T08:06:43.000Z</time>
      </trkpt>
      <trkpt lat="47.33409" lon="-2.36234">
        <ele>25.60000038147</ele>
        <time>2022-08-18T08:06:44.000Z</time>
      </trkpt>
      <trkpt lat="47.3341" lon="-2.36227">
        <ele>26</ele>
        <time>2022-08-18T08:06:45.000Z</time>
      </trkpt>
      <trkpt lat="47.33411" lon="-2.3622">
        <ele>26.39999961853</ele>
        <time>2022-08-18T08:06:46.000Z</time>
      </trkpt>
      <trkpt lat="47.33412" lon="-2.36214">
        <ele>26.799999237061</ele>
        <time>2022-08-18T08:06:47.000Z</time>
      </trkpt>
      <trkpt lat="47.33414" lon="-2.36201">
        <ele>26.799999237061</ele>
        <time>2022-08-18T08:06:49.000Z</time>
      </trkpt>
      <trkpt lat="47.33412" lon="-2.36182">
        <ele>26.799999237061</ele>
        <time>2022-08-18T08:06:52.000Z</time>
      </trkpt>
      <trkpt lat="47.33411" lon="-2.36177">
        <ele>26.799999237061</ele>
        <time>2022-08-18T08:06:53.000Z</time>
      </trkpt>
      <trkpt lat="47.334" lon="-2.36161">
        <ele>26.799999237061</ele>
        <time>2022-08-18T08:06:57.000Z</time>
      </trkpt>
      <trkpt lat="47.33388" lon="-2.36167">
        <ele>26.799999237061</ele>
        <time>2022-08-18T08:07:00.000Z</time>
      </trkpt>
      <trkpt lat="47.3338" lon="-2.36173">
        <ele>26.799999237061</ele>
        <time>2022-08-18T08:07:02.000Z</time>
      </trkpt>
      <trkpt lat="47.33364" lon="-2.36185">
        <ele>26.799999237061</ele>
        <time>2022-08-18T08:07:06.000Z</time>
      </trkpt>
      <trkpt lat="47.33335" lon="-2.36205">
        <ele>26.799999237061</ele>
        <time>2022-08-18T08:07:13.000Z</time>
      </trkpt>
      <trkpt lat="47.33327" lon="-2.36211">
        <ele>26.799999237061</ele>
        <time>2022-08-18T08:07:15.000Z</time>
      </trkpt>
      <trkpt lat="47.33314" lon="-2.36221">
        <ele>26.799999237061</ele>
        <time>2022-08-18T08:07:18.000Z</time>
      </trkpt>
      <trkpt lat="47.3331" lon="-2.36218">
        <ele>26.799999237061</ele>
        <time>2022-08-18T08:07:19.000Z</time>
      </trkpt>
      <trkpt lat="47.33307" lon="-2.36198">
        <ele>26.799999237061</ele>
        <time>2022-08-18T08:07:22.000Z</time>
      </trkpt>
      <trkpt lat="47.33309" lon="-2.36173">
        <ele>26.799999237061</ele>
        <time>2022-08-18T08:07:26.000Z</time>
      </trkpt>
      <trkpt lat="47.33308" lon="-2.36126">
        <ele>26.799999237061</ele>
        <time>2022-08-18T08:07:33.000Z</time>
      </trkpt>
      <trkpt lat="47.33308" lon="-2.36104">
        <ele>27.200000762939</ele>
        <time>2022-08-18T08:07:36.000Z</time>
      </trkpt>
      <trkpt lat="47.33308" lon="-2.36096">
        <ele>27.799999237061</ele>
        <time>2022-08-18T08:07:37.000Z</time>
      </trkpt>
      <trkpt lat="47.33308" lon="-2.36089">
        <ele>28.200000762939</ele>
        <time>2022-08-18T08:07:38.000Z</time>
      </trkpt>
      <trkpt lat="47.33308" lon="-2.36082">
        <ele>28.60000038147</ele>
        <time>2022-08-18T08:07:39.000Z</time>
      </trkpt>
      <trkpt lat="47.33309" lon="-2.36075">
        <ele>29</ele>
        <time>2022-08-18T08:07:40.000Z</time>
      </trkpt>
      <trkpt lat="47.3331" lon="-2.36035">
        <ele>29</ele>
        <time>2022-08-18T08:07:45.000Z</time>
      </trkpt>
      <trkpt lat="47.33314" lon="-2.35984">
        <ele>29</ele>
        <time>2022-08-18T08:07:51.000Z</time>
      </trkpt>
      <trkpt lat="47.33315" lon="-2.35976">
        <ele>29</ele>
        <time>2022-08-18T08:07:52.000Z</time>
      </trkpt>
      <trkpt lat="47.33319" lon="-2.35951">
        <ele>29</ele>
        <time>2022-08-18T08:07:55.000Z</time>
      </trkpt>
      <trkpt lat="47.33313" lon="-2.3592">
        <ele>29</ele>
        <time>2022-08-18T08:07:59.000Z</time>
      </trkpt>
      <trkpt lat="47.33308" lon="-2.35906">
        <ele>29</ele>
        <time>2022-08-18T08:08:01.000Z</time>
      </trkpt>
      <trkpt lat="47.33301" lon="-2.35893">
        <ele>29</ele>
        <time>2022-08-18T08:08:03.000Z</time>
      </trkpt>
      <trkpt lat="47.33296" lon="-2.35887">
        <ele>29</ele>
        <time>2022-08-18T08:08:04.000Z</time>
      </trkpt>
      <trkpt lat="47.33272" lon="-2.35872">
        <ele>29</ele>
        <time>2022-08-18T08:08:08.000Z</time>
      </trkpt>
      <trkpt lat="47.33261" lon="-2.35861">
        <ele>28.60000038147</ele>
        <time>2022-08-18T08:08:10.000Z</time>
      </trkpt>
      <trkpt lat="47.33256" lon="-2.35854">
        <ele>27.60000038147</ele>
        <time>2022-08-18T08:08:11.000Z</time>
      </trkpt>
      <trkpt lat="47.33251" lon="-2.35847">
        <ele>27.200000762939</ele>
        <time>2022-08-18T08:08:12.000Z</time>
      </trkpt>
      <trkpt lat="47.33245" lon="-2.3584">
        <ele>26.799999237061</ele>
        <time>2022-08-18T08:08:13.000Z</time>
      </trkpt>
      <trkpt lat="47.33238" lon="-2.35835">
        <ele>26.799999237061</ele>
        <time>2022-08-18T08:08:14.000Z</time>
      </trkpt>
      <trkpt lat="47.3323" lon="-2.35831">
        <ele>26.39999961853</ele>
        <time>2022-08-18T08:08:15.000Z</time>
      </trkpt>
      <trkpt lat="47.33222" lon="-2.35827">
        <ele>25.799999237061</ele>
        <time>2022-08-18T08:08:16.000Z</time>
      </trkpt>
      <trkpt lat="47.33214" lon="-2.35824">
        <ele>25.39999961853</ele>
        <time>2022-08-18T08:08:17.000Z</time>
      </trkpt>
      <trkpt lat="47.33206" lon="-2.35821">
        <ele>24.799999237061</ele>
        <time>2022-08-18T08:08:18.000Z</time>
      </trkpt>
      <trkpt lat="47.33198" lon="-2.35819">
        <ele>24.39999961853</ele>
        <time>2022-08-18T08:08:19.000Z</time>
      </trkpt>
      <trkpt lat="47.33181" lon="-2.35816">
        <ele>23.799999237061</ele>
        <time>2022-08-18T08:08:21.000Z</time>
      </trkpt>
      <trkpt lat="47.33173" lon="-2.35814">
        <ele>23.39999961853</ele>
        <time>2022-08-18T08:08:22.000Z</time>
      </trkpt>
      <trkpt lat="47.33165" lon="-2.35813">
        <ele>23</ele>
        <time>2022-08-18T08:08:23.000Z</time>
      </trkpt>
      <trkpt lat="47.33157" lon="-2.35811">
        <ele>22.39999961853</ele>
        <time>2022-08-18T08:08:24.000Z</time>
      </trkpt>
      <trkpt lat="47.3315" lon="-2.3581">
        <ele>22</ele>
        <time>2022-08-18T08:08:25.000Z</time>
      </trkpt>
      <trkpt lat="47.33144" lon="-2.35809">
        <ele>22</ele>
        <time>2022-08-18T08:08:26.000Z</time>
      </trkpt>
      <trkpt lat="47.33101" lon="-2.35809">
        <ele>22</ele>
        <time>2022-08-18T08:08:32.000Z</time>
      </trkpt>
      <trkpt lat="47.33087" lon="-2.35811">
        <ele>21.60000038147</ele>
        <time>2022-08-18T08:08:34.000Z</time>
      </trkpt>
      <trkpt lat="47.33079" lon="-2.35812">
        <ele>20.799999237061</ele>
        <time>2022-08-18T08:08:35.000Z</time>
      </trkpt>
      <trkpt lat="47.33072" lon="-2.35812">
        <ele>20.200000762939</ele>
        <time>2022-08-18T08:08:36.000Z</time>
      </trkpt>
      <trkpt lat="47.33065" lon="-2.35813">
        <ele>19.799999237061</ele>
        <time>2022-08-18T08:08:37.000Z</time>
      </trkpt>
      <trkpt lat="47.33037" lon="-2.35809">
        <ele>19.799999237061</ele>
        <time>2022-08-18T08:08:41.000Z</time>
      </trkpt>
      <trkpt lat="47.3303" lon="-2.35803">
        <ele>19.799999237061</ele>
        <time>2022-08-18T08:08:42.000Z</time>
      </trkpt>
      <trkpt lat="47.33019" lon="-2.3579">
        <ele>19.39999961853</ele>
        <time>2022-08-18T08:08:44.000Z</time>
      </trkpt>
      <trkpt lat="47.33015" lon="-2.35781">
        <ele>19</ele>
        <time>2022-08-18T08:08:45.000Z</time>
      </trkpt>
      <trkpt lat="47.33012" lon="-2.35772">
        <ele>18.60000038147</ele>
        <time>2022-08-18T08:08:46.000Z</time>
      </trkpt>
      <trkpt lat="47.3301" lon="-2.35762">
        <ele>18.200000762939</ele>
        <time>2022-08-18T08:08:47.000Z</time>
      </trkpt>
      <trkpt lat="47.33008" lon="-2.35752">
        <ele>17.799999237061</ele>
        <time>2022-08-18T08:08:48.000Z</time>
      </trkpt>
      <trkpt lat="47.33007" lon="-2.3574">
        <ele>17.799999237061</ele>
        <time>2022-08-18T08:08:49.000Z</time>
      </trkpt>
      <trkpt lat="47.3301" lon="-2.35688">
        <ele>17.799999237061</ele>
        <time>2022-08-18T08:08:54.000Z</time>
      </trkpt>
      <trkpt lat="47.33014" lon="-2.35641">
        <ele>17.799999237061</ele>
        <time>2022-08-18T08:08:59.000Z</time>
      </trkpt>
      <trkpt lat="47.33014" lon="-2.35611">
        <ele>17.799999237061</ele>
        <time>2022-08-18T08:09:04.000Z</time>
      </trkpt>
      <trkpt lat="47.33016" lon="-2.35582">
        <ele>17.799999237061</ele>
        <time>2022-08-18T08:09:09.000Z</time>
      </trkpt>
      <trkpt lat="47.33018" lon="-2.35562">
        <ele>18.200000762939</ele>
        <time>2022-08-18T08:09:12.000Z</time>
      </trkpt>
      <trkpt lat="47.33018" lon="-2.35556">
        <ele>18.60000038147</ele>
        <time>2022-08-18T08:09:13.000Z</time>
      </trkpt>
      <trkpt lat="47.33018" lon="-2.3555">
        <ele>19</ele>
        <time>2022-08-18T08:09:14.000Z</time>
      </trkpt>
      <trkpt lat="47.33018" lon="-2.35543">
        <ele>19.39999961853</ele>
        <time>2022-08-18T08:09:15.000Z</time>
      </trkpt>
      <trkpt lat="47.33018" lon="-2.35536">
        <ele>19.799999237061</ele>
        <time>2022-08-18T08:09:16.000Z</time>
      </trkpt>
      <trkpt lat="47.3302" lon="-2.35522">
        <ele>19.799999237061</ele>
        <time>2022-08-18T08:09:18.000Z</time>
      </trkpt>
      <trkpt lat="47.33024" lon="-2.35499">
        <ele>19.799999237061</ele>
        <time>2022-08-18T08:09:21.000Z</time>
      </trkpt>
      <trkpt lat="47.33028" lon="-2.35458">
        <ele>19.799999237061</ele>
        <time>2022-08-18T08:09:27.000Z</time>
      </trkpt>
      <trkpt lat="47.33027" lon="-2.35447">
        <ele>20.200000762939</ele>
        <time>2022-08-18T08:09:29.000Z</time>
      </trkpt>
      <trkpt lat="47.33027" lon="-2.35441">
        <ele>20.60000038147</ele>
        <time>2022-08-18T08:09:30.000Z</time>
      </trkpt>
      <trkpt lat="47.33028" lon="-2.35435">
        <ele>21</ele>
        <time>2022-08-18T08:09:31.000Z</time>
      </trkpt>
      <trkpt lat="47.33028" lon="-2.3543">
        <ele>21.39999961853</ele>
        <time>2022-08-18T08:09:32.000Z</time>
      </trkpt>
      <trkpt lat="47.33029" lon="-2.35423">
        <ele>21.799999237061</ele>
        <time>2022-08-18T08:09:33.000Z</time>
      </trkpt>
      <trkpt lat="47.33027" lon="-2.35393">
        <ele>21.799999237061</ele>
        <time>2022-08-18T08:09:38.000Z</time>
      </trkpt>
      <trkpt lat="47.33024" lon="-2.35368">
        <ele>21.799999237061</ele>
        <time>2022-08-18T08:09:42.000Z</time>
      </trkpt>
      <trkpt lat="47.33024" lon="-2.35362">
        <ele>21.799999237061</ele>
        <time>2022-08-18T08:09:43.000Z</time>
      </trkpt>
      <trkpt lat="47.33021" lon="-2.35332">
        <ele>22.200000762939</ele>
        <time>2022-08-18T08:09:48.000Z</time>
      </trkpt>
      <trkpt lat="47.33021" lon="-2.35326">
        <ele>22.60000038147</ele>
        <time>2022-08-18T08:09:49.000Z</time>
      </trkpt>
      <trkpt lat="47.33021" lon="-2.35319">
        <ele>23.60000038147</ele>
        <time>2022-08-18T08:09:50.000Z</time>
      </trkpt>
      <trkpt lat="47.33021" lon="-2.35313">
        <ele>24</ele>
        <time>2022-08-18T08:09:51.000Z</time>
      </trkpt>
      <trkpt lat="47.3302" lon="-2.35298">
        <ele>24</ele>
        <time>2022-08-18T08:09:53.000Z</time>
      </trkpt>
      <trkpt lat="47.33022" lon="-2.35259">
        <ele>24</ele>
        <time>2022-08-18T08:09:59.000Z</time>
      </trkpt>
      <trkpt lat="47.33022" lon="-2.35231">
        <ele>24</ele>
        <time>2022-08-18T08:10:03.000Z</time>
      </trkpt>
      <trkpt lat="47.33024" lon="-2.35224">
        <ele>24</ele>
        <time>2022-08-18T08:10:04.000Z</time>
      </trkpt>
      <trkpt lat="47.33029" lon="-2.3521">
        <ele>24</ele>
        <time>2022-08-18T08:10:06.000Z</time>
      </trkpt>
      <trkpt lat="47.33034" lon="-2.35196">
        <ele>24</ele>
        <time>2022-08-18T08:10:08.000Z</time>
      </trkpt>
      <trkpt lat="47.3304" lon="-2.35184">
        <ele>24</ele>
        <time>2022-08-18T08:10:10.000Z</time>
      </trkpt>
      <trkpt lat="47.3305" lon="-2.35158">
        <ele>24</ele>
        <time>2022-08-18T08:10:14.000Z</time>
      </trkpt>
      <trkpt lat="47.3306" lon="-2.35142">
        <ele>24</ele>
        <time>2022-08-18T08:10:17.000Z</time>
      </trkpt>
      <trkpt lat="47.33063" lon="-2.35136">
        <ele>24</ele>
        <time>2022-08-18T08:10:18.000Z</time>
      </trkpt>
      <trkpt lat="47.3307" lon="-2.35125">
        <ele>24</ele>
        <time>2022-08-18T08:10:20.000Z</time>
      </trkpt>
      <trkpt lat="47.3308" lon="-2.35108">
        <ele>24</ele>
        <time>2022-08-18T08:10:23.000Z</time>
      </trkpt>
      <trkpt lat="47.33088" lon="-2.35099">
        <ele>24</ele>
        <time>2022-08-18T08:10:25.000Z</time>
      </trkpt>
      <trkpt lat="47.33091" lon="-2.35095">
        <ele>24</ele>
        <time>2022-08-18T08:10:26.000Z</time>
      </trkpt>
      <trkpt lat="47.33095" lon="-2.3509">
        <ele>24</ele>
        <time>2022-08-18T08:10:27.000Z</time>
      </trkpt>
      <trkpt lat="47.33107" lon="-2.35068">
        <ele>24</ele>
        <time>2022-08-18T08:10:31.000Z</time>
      </trkpt>
      <trkpt lat="47.33112" lon="-2.35059">
        <ele>24</ele>
        <time>2022-08-18T08:10:33.000Z</time>
      </trkpt>
      <trkpt lat="47.33115" lon="-2.35055">
        <ele>23.60000038147</ele>
        <time>2022-08-18T08:10:34.000Z</time>
      </trkpt>
      <trkpt lat="47.33118" lon="-2.3505">
        <ele>23</ele>
        <time>2022-08-18T08:10:35.000Z</time>
      </trkpt>
      <trkpt lat="47.33121" lon="-2.35046">
        <ele>22.60000038147</ele>
        <time>2022-08-18T08:10:36.000Z</time>
      </trkpt>
      <trkpt lat="47.33124" lon="-2.35041">
        <ele>22.200000762939</ele>
        <time>2022-08-18T08:10:37.000Z</time>
      </trkpt>
      <trkpt lat="47.33127" lon="-2.35037">
        <ele>21.799999237061</ele>
        <time>2022-08-18T08:10:38.000Z</time>
      </trkpt>
      <trkpt lat="47.33129" lon="-2.35031">
        <ele>21.799999237061</ele>
        <time>2022-08-18T08:10:39.000Z</time>
      </trkpt>
      <trkpt lat="47.33132" lon="-2.35026">
        <ele>21.799999237061</ele>
        <time>2022-08-18T08:10:40.000Z</time>
      </trkpt>
      <trkpt lat="47.33141" lon="-2.35011">
        <ele>21.799999237061</ele>
        <time>2022-08-18T08:10:44.000Z</time>
      </trkpt>
      <trkpt lat="47.33141" lon="-2.35011">
        <ele>21.799999237061</ele>
        <time>2022-08-18T08:10:46.000Z</time>
      </trkpt>
      <trkpt lat="47.33147" lon="-2.35008">
        <ele>21.799999237061</ele>
        <time>2022-08-18T08:11:31.000Z</time>
      </trkpt>
      <trkpt lat="47.33148" lon="-2.35008">
        <ele>21.799999237061</ele>
        <time>2022-08-18T08:11:32.000Z</time>
      </trkpt>
      <trkpt lat="47.33153" lon="-2.35012">
        <ele>21.799999237061</ele>
        <time>2022-08-18T08:11:35.000Z</time>
      </trkpt>
      <trkpt lat="47.33154" lon="-2.35013">
        <ele>21.799999237061</ele>
        <time>2022-08-18T08:11:36.000Z</time>
      </trkpt>
      <trkpt lat="47.33156" lon="-2.35014">
        <ele>21.799999237061</ele>
        <time>2022-08-18T08:11:39.000Z</time>
      </trkpt>
      <trkpt lat="47.33161" lon="-2.35017">
        <ele>21.799999237061</ele>
        <time>2022-08-18T08:11:42.000Z</time>
      </trkpt>
      <trkpt lat="47.33163" lon="-2.35018">
        <ele>21.799999237061</ele>
        <time>2022-08-18T08:11:43.000Z</time>
      </trkpt>
      <trkpt lat="47.33167" lon="-2.35014">
        <ele>21.799999237061</ele>
        <time>2022-08-18T08:11:45.000Z</time>
      </trkpt>
      <trkpt lat="47.33171" lon="-2.35008">
        <ele>21.799999237061</ele>
        <time>2022-08-18T08:11:47.000Z</time>
      </trkpt>
      <trkpt lat="47.33178" lon="-2.35001">
        <ele>21.799999237061</ele>
        <time>2022-08-18T08:11:49.000Z</time>
      </trkpt>
      <trkpt lat="47.33197" lon="-2.34979">
        <ele>21.799999237061</ele>
        <time>2022-08-18T08:11:55.000Z</time>
      </trkpt>
      <trkpt lat="47.33218" lon="-2.34961">
        <ele>21.799999237061</ele>
        <time>2022-08-18T08:12:01.000Z</time>
      </trkpt>
      <trkpt lat="47.3323" lon="-2.34955">
        <ele>21.799999237061</ele>
        <time>2022-08-18T08:12:04.000Z</time>
      </trkpt>
      <trkpt lat="47.33235" lon="-2.34954">
        <ele>21.799999237061</ele>
        <time>2022-08-18T08:12:05.000Z</time>
      </trkpt>
      <trkpt lat="47.33246" lon="-2.34949">
        <ele>21.799999237061</ele>
        <time>2022-08-18T08:12:08.000Z</time>
      </trkpt>
      <trkpt lat="47.3325" lon="-2.34948">
        <ele>21.799999237061</ele>
        <time>2022-08-18T08:12:09.000Z</time>
      </trkpt>
      <trkpt lat="47.33273" lon="-2.34942">
        <ele>21.799999237061</ele>
        <time>2022-08-18T08:12:14.000Z</time>
      </trkpt>
      <trkpt lat="47.33289" lon="-2.34939">
        <ele>21.799999237061</ele>
        <time>2022-08-18T08:12:18.000Z</time>
      </trkpt>
      <trkpt lat="47.33298" lon="-2.34939">
        <ele>21.799999237061</ele>
        <time>2022-08-18T08:12:20.000Z</time>
      </trkpt>
      <trkpt lat="47.33301" lon="-2.34939">
        <ele>21.799999237061</ele>
        <time>2022-08-18T08:12:21.000Z</time>
      </trkpt>
      <trkpt lat="47.33311" lon="-2.34934">
        <ele>21.799999237061</ele>
        <time>2022-08-18T08:12:24.000Z</time>
      </trkpt>
      <trkpt lat="47.33321" lon="-2.34937">
        <ele>21.799999237061</ele>
        <time>2022-08-18T08:12:28.000Z</time>
      </trkpt>
      <trkpt lat="47.33326" lon="-2.34939">
        <ele>21.799999237061</ele>
        <time>2022-08-18T08:12:30.000Z</time>
      </trkpt>
      <trkpt lat="47.33338" lon="-2.34939">
        <ele>21.799999237061</ele>
        <time>2022-08-18T08:12:34.000Z</time>
      </trkpt>
      <trkpt lat="47.33357" lon="-2.34935">
        <ele>21.799999237061</ele>
        <time>2022-08-18T08:12:38.000Z</time>
      </trkpt>
      <trkpt lat="47.33361" lon="-2.34935">
        <ele>21.799999237061</ele>
        <time>2022-08-18T08:12:39.000Z</time>
      </trkpt>
      <trkpt lat="47.33365" lon="-2.34935">
        <ele>22.200000762939</ele>
        <time>2022-08-18T08:12:40.000Z</time>
      </trkpt>
      <trkpt lat="47.3337" lon="-2.34936">
        <ele>23</ele>
        <time>2022-08-18T08:12:41.000Z</time>
      </trkpt>
      <trkpt lat="47.33374" lon="-2.34936">
        <ele>23.39999961853</ele>
        <time>2022-08-18T08:12:42.000Z</time>
      </trkpt>
      <trkpt lat="47.33378" lon="-2.34936">
        <ele>23.799999237061</ele>
        <time>2022-08-18T08:12:43.000Z</time>
      </trkpt>
      <trkpt lat="47.33383" lon="-2.34936">
        <ele>23.799999237061</ele>
        <time>2022-08-18T08:12:44.000Z</time>
      </trkpt>
      <trkpt lat="47.334" lon="-2.34929">
        <ele>23.799999237061</ele>
        <time>2022-08-18T08:12:49.000Z</time>
      </trkpt>
      <trkpt lat="47.33418" lon="-2.34916">
        <ele>23.799999237061</ele>
        <time>2022-08-18T08:12:54.000Z</time>
      </trkpt>
      <trkpt lat="47.33437" lon="-2.34905">
        <ele>23.799999237061</ele>
        <time>2022-08-18T08:12:59.000Z</time>
      </trkpt>
      <trkpt lat="47.33462" lon="-2.34895">
        <ele>23.799999237061</ele>
        <time>2022-08-18T08:13:05.000Z</time>
      </trkpt>
      <trkpt lat="47.33479" lon="-2.34889">
        <ele>23.799999237061</ele>
        <time>2022-08-18T08:13:09.000Z</time>
      </trkpt>
      <trkpt lat="47.33492" lon="-2.34891">
        <ele>23.799999237061</ele>
        <time>2022-08-18T08:13:12.000Z</time>
      </trkpt>
      <trkpt lat="47.33499" lon="-2.34894">
        <ele>23.799999237061</ele>
        <time>2022-08-18T08:13:14.000Z</time>
      </trkpt>
      <trkpt lat="47.33508" lon="-2.349">
        <ele>23.799999237061</ele>
        <time>2022-08-18T08:13:16.000Z</time>
      </trkpt>
      <trkpt lat="47.33516" lon="-2.34906">
        <ele>23.799999237061</ele>
        <time>2022-08-18T08:13:18.000Z</time>
      </trkpt>
      <trkpt lat="47.33524" lon="-2.34911">
        <ele>23.799999237061</ele>
        <time>2022-08-18T08:13:20.000Z</time>
      </trkpt>
      <trkpt lat="47.33537" lon="-2.34915">
        <ele>23.799999237061</ele>
        <time>2022-08-18T08:13:23.000Z</time>
      </trkpt>
      <trkpt lat="47.33543" lon="-2.34917">
        <ele>23.799999237061</ele>
        <time>2022-08-18T08:13:24.000Z</time>
      </trkpt>
      <trkpt lat="47.33562" lon="-2.34924">
        <ele>23.799999237061</ele>
        <time>2022-08-18T08:13:28.000Z</time>
      </trkpt>
      <trkpt lat="47.33577" lon="-2.34928">
        <ele>23.799999237061</ele>
        <time>2022-08-18T08:13:32.000Z</time>
      </trkpt>
      <trkpt lat="47.3358" lon="-2.3493">
        <ele>23.799999237061</ele>
        <time>2022-08-18T08:13:33.000Z</time>
      </trkpt>
      <trkpt lat="47.33596" lon="-2.3494">
        <ele>23.799999237061</ele>
        <time>2022-08-18T08:13:37.000Z</time>
      </trkpt>
      <trkpt lat="47.33619" lon="-2.34953">
        <ele>23.799999237061</ele>
        <time>2022-08-18T08:13:42.000Z</time>
      </trkpt>
      <trkpt lat="47.33625" lon="-2.34952">
        <ele>23.39999961853</ele>
        <time>2022-08-18T08:13:43.000Z</time>
      </trkpt>
      <trkpt lat="47.33632" lon="-2.34952">
        <ele>23</ele>
        <time>2022-08-18T08:13:44.000Z</time>
      </trkpt>
      <trkpt lat="47.33639" lon="-2.34953">
        <ele>22.60000038147</ele>
        <time>2022-08-18T08:13:45.000Z</time>
      </trkpt>
      <trkpt lat="47.33645" lon="-2.34955">
        <ele>22.200000762939</ele>
        <time>2022-08-18T08:13:46.000Z</time>
      </trkpt>
      <trkpt lat="47.33651" lon="-2.34959">
        <ele>21.799999237061</ele>
        <time>2022-08-18T08:13:47.000Z</time>
      </trkpt>
      <trkpt lat="47.33656" lon="-2.34965">
        <ele>21.799999237061</ele>
        <time>2022-08-18T08:13:48.000Z</time>
      </trkpt>
      <trkpt lat="47.3367" lon="-2.34978">
        <ele>21.799999237061</ele>
        <time>2022-08-18T08:13:50.000Z</time>
      </trkpt>
      <trkpt lat="47.33689" lon="-2.34997">
        <ele>21.799999237061</ele>
        <time>2022-08-18T08:13:53.000Z</time>
      </trkpt>
      <trkpt lat="47.33694" lon="-2.34999">
        <ele>21.799999237061</ele>
        <time>2022-08-18T08:13:54.000Z</time>
      </trkpt>
      <trkpt lat="47.33712" lon="-2.34993">
        <ele>21.799999237061</ele>
        <time>2022-08-18T08:13:57.000Z</time>
      </trkpt>
      <trkpt lat="47.33724" lon="-2.34982">
        <ele>21.799999237061</ele>
        <time>2022-08-18T08:13:59.000Z</time>
      </trkpt>
      <trkpt lat="47.33743" lon="-2.34969">
        <ele>21.799999237061</ele>
        <time>2022-08-18T08:14:02.000Z</time>
      </trkpt>
      <trkpt lat="47.33759" lon="-2.34956">
        <ele>21.799999237061</ele>
        <time>2022-08-18T08:14:05.000Z</time>
      </trkpt>
      <trkpt lat="47.33769" lon="-2.34945">
        <ele>21.799999237061</ele>
        <time>2022-08-18T08:14:07.000Z</time>
      </trkpt>
      <trkpt lat="47.33774" lon="-2.34938">
        <ele>21.39999961853</ele>
        <time>2022-08-18T08:14:08.000Z</time>
      </trkpt>
      <trkpt lat="47.33778" lon="-2.34932">
        <ele>21</ele>
        <time>2022-08-18T08:14:09.000Z</time>
      </trkpt>
      <trkpt lat="47.33782" lon="-2.34926">
        <ele>20.60000038147</ele>
        <time>2022-08-18T08:14:10.000Z</time>
      </trkpt>
      <trkpt lat="47.33786" lon="-2.3492">
        <ele>20.200000762939</ele>
        <time>2022-08-18T08:14:11.000Z</time>
      </trkpt>
      <trkpt lat="47.3379" lon="-2.34915">
        <ele>19.799999237061</ele>
        <time>2022-08-18T08:14:12.000Z</time>
      </trkpt>
      <trkpt lat="47.33797" lon="-2.34906">
        <ele>19.799999237061</ele>
        <time>2022-08-18T08:14:15.000Z</time>
      </trkpt>
      <trkpt lat="47.33798" lon="-2.34904">
        <ele>19.799999237061</ele>
        <time>2022-08-18T08:14:16.000Z</time>
      </trkpt>
      <trkpt lat="47.33799" lon="-2.349">
        <ele>19.799999237061</ele>
        <time>2022-08-18T08:14:19.000Z</time>
      </trkpt>
      <trkpt lat="47.33799" lon="-2.34899">
        <ele>19.799999237061</ele>
        <time>2022-08-18T08:14:20.000Z</time>
      </trkpt>
      <trkpt lat="47.33804" lon="-2.34892">
        <ele>19.799999237061</ele>
        <time>2022-08-18T08:14:24.000Z</time>
      </trkpt>
      <trkpt lat="47.3381" lon="-2.34879">
        <ele>19.799999237061</ele>
        <time>2022-08-18T08:14:29.000Z</time>
      </trkpt>
      <trkpt lat="47.33818" lon="-2.34866">
        <ele>19.799999237061</ele>
        <time>2022-08-18T08:14:33.000Z</time>
      </trkpt>
      <trkpt lat="47.33827" lon="-2.34859">
        <ele>19.799999237061</ele>
        <time>2022-08-18T08:14:35.000Z</time>
      </trkpt>
      <trkpt lat="47.33843" lon="-2.34846">
        <ele>19.799999237061</ele>
        <time>2022-08-18T08:14:39.000Z</time>
      </trkpt>
      <trkpt lat="47.33849" lon="-2.34835">
        <ele>19.799999237061</ele>
        <time>2022-08-18T08:14:42.000Z</time>
      </trkpt>
      <trkpt lat="47.3385" lon="-2.34831">
        <ele>19.799999237061</ele>
        <time>2022-08-18T08:14:43.000Z</time>
      </trkpt>
      <trkpt lat="47.33858" lon="-2.34805">
        <ele>19.799999237061</ele>
        <time>2022-08-18T08:14:48.000Z</time>
      </trkpt>
      <trkpt lat="47.3386" lon="-2.34779">
        <ele>19.799999237061</ele>
        <time>2022-08-18T08:14:53.000Z</time>
      </trkpt>
      <trkpt lat="47.33865" lon="-2.3475">
        <ele>19.799999237061</ele>
        <time>2022-08-18T08:14:58.000Z</time>
      </trkpt>
      <trkpt lat="47.33867" lon="-2.34746">
        <ele>19.799999237061</ele>
        <time>2022-08-18T08:14:59.000Z</time>
      </trkpt>
      <trkpt lat="47.3387" lon="-2.34739">
        <ele>19.799999237061</ele>
        <time>2022-08-18T08:15:01.000Z</time>
      </trkpt>
      <trkpt lat="47.33872" lon="-2.34733">
        <ele>19.799999237061</ele>
        <time>2022-08-18T08:15:03.000Z</time>
      </trkpt>
      <trkpt lat="47.33876" lon="-2.34716">
        <ele>19.799999237061</ele>
        <time>2022-08-18T08:15:06.000Z</time>
      </trkpt>
      <trkpt lat="47.33878" lon="-2.3468">
        <ele>19.799999237061</ele>
        <time>2022-08-18T08:15:11.000Z</time>
      </trkpt>
      <trkpt lat="47.33879" lon="-2.34675">
        <ele>19.799999237061</ele>
        <time>2022-08-18T08:15:12.000Z</time>
      </trkpt>
      <trkpt lat="47.33881" lon="-2.34663">
        <ele>20.200000762939</ele>
        <time>2022-08-18T08:15:14.000Z</time>
      </trkpt>
      <trkpt lat="47.33881" lon="-2.34657">
        <ele>20.60000038147</ele>
        <time>2022-08-18T08:15:15.000Z</time>
      </trkpt>
      <trkpt lat="47.33881" lon="-2.3465">
        <ele>21</ele>
        <time>2022-08-18T08:15:16.000Z</time>
      </trkpt>
      <trkpt lat="47.33881" lon="-2.34644">
        <ele>21.39999961853</ele>
        <time>2022-08-18T08:15:17.000Z</time>
      </trkpt>
      <trkpt lat="47.33881" lon="-2.34638">
        <ele>21.799999237061</ele>
        <time>2022-08-18T08:15:18.000Z</time>
      </trkpt>
      <trkpt lat="47.33883" lon="-2.34616">
        <ele>21.799999237061</ele>
        <time>2022-08-18T08:15:22.000Z</time>
      </trkpt>
      <trkpt lat="47.33892" lon="-2.34604">
        <ele>21.799999237061</ele>
        <time>2022-08-18T08:15:25.000Z</time>
      </trkpt>
      <trkpt lat="47.33907" lon="-2.34601">
        <ele>21.799999237061</ele>
        <time>2022-08-18T08:15:29.000Z</time>
      </trkpt>
      <trkpt lat="47.33923" lon="-2.34597">
        <ele>21.799999237061</ele>
        <time>2022-08-18T08:15:33.000Z</time>
      </trkpt>
      <trkpt lat="47.33928" lon="-2.34596">
        <ele>21.799999237061</ele>
        <time>2022-08-18T08:15:34.000Z</time>
      </trkpt>
      <trkpt lat="47.33946" lon="-2.34595">
        <ele>21.799999237061</ele>
        <time>2022-08-18T08:15:38.000Z</time>
      </trkpt>
      <trkpt lat="47.33954" lon="-2.34595">
        <ele>21.799999237061</ele>
        <time>2022-08-18T08:15:40.000Z</time>
      </trkpt>
      <trkpt lat="47.33978" lon="-2.34596">
        <ele>21.799999237061</ele>
        <time>2022-08-18T08:15:46.000Z</time>
      </trkpt>
      <trkpt lat="47.33999" lon="-2.34599">
        <ele>21.799999237061</ele>
        <time>2022-08-18T08:15:51.000Z</time>
      </trkpt>
      <trkpt lat="47.34019" lon="-2.34592">
        <ele>21.799999237061</ele>
        <time>2022-08-18T08:15:55.000Z</time>
      </trkpt>
      <trkpt lat="47.34036" lon="-2.34584">
        <ele>21.799999237061</ele>
        <time>2022-08-18T08:15:58.000Z</time>
      </trkpt>
      <trkpt lat="47.34059" lon="-2.34573">
        <ele>21.799999237061</ele>
        <time>2022-08-18T08:16:03.000Z</time>
      </trkpt>
      <trkpt lat="47.34087" lon="-2.34552">
        <ele>21.799999237061</ele>
        <time>2022-08-18T08:16:09.000Z</time>
      </trkpt>
      <trkpt lat="47.3411" lon="-2.34537">
        <ele>21.799999237061</ele>
        <time>2022-08-18T08:16:14.000Z</time>
      </trkpt>
      <trkpt lat="47.34135" lon="-2.34524">
        <ele>21.799999237061</ele>
        <time>2022-08-18T08:16:20.000Z</time>
      </trkpt>
      <trkpt lat="47.3414" lon="-2.34522">
        <ele>21.799999237061</ele>
        <time>2022-08-18T08:16:21.000Z</time>
      </trkpt>
      <trkpt lat="47.34161" lon="-2.34513">
        <ele>21.799999237061</ele>
        <time>2022-08-18T08:16:26.000Z</time>
      </trkpt>
      <trkpt lat="47.34171" lon="-2.34511">
        <ele>21.799999237061</ele>
        <time>2022-08-18T08:16:28.000Z</time>
      </trkpt>
      <trkpt lat="47.34186" lon="-2.34505">
        <ele>21.39999961853</ele>
        <time>2022-08-18T08:16:31.000Z</time>
      </trkpt>
      <trkpt lat="47.34191" lon="-2.34503">
        <ele>21</ele>
        <time>2022-08-18T08:16:32.000Z</time>
      </trkpt>
      <trkpt lat="47.34195" lon="-2.345">
        <ele>20.60000038147</ele>
        <time>2022-08-18T08:16:33.000Z</time>
      </trkpt>
      <trkpt lat="47.342" lon="-2.34498">
        <ele>20.200000762939</ele>
        <time>2022-08-18T08:16:34.000Z</time>
      </trkpt>
      <trkpt lat="47.34205" lon="-2.34496">
        <ele>19.60000038147</ele>
        <time>2022-08-18T08:16:35.000Z</time>
      </trkpt>
      <trkpt lat="47.34211" lon="-2.34494">
        <ele>19.60000038147</ele>
        <time>2022-08-18T08:16:36.000Z</time>
      </trkpt>
      <trkpt lat="47.34215" lon="-2.34491">
        <ele>19.60000038147</ele>
        <time>2022-08-18T08:16:37.000Z</time>
      </trkpt>
      <trkpt lat="47.34233" lon="-2.34481">
        <ele>19.60000038147</ele>
        <time>2022-08-18T08:16:41.000Z</time>
      </trkpt>
      <trkpt lat="47.34242" lon="-2.34476">
        <ele>19.60000038147</ele>
        <time>2022-08-18T08:16:43.000Z</time>
      </trkpt>
      <trkpt lat="47.34257" lon="-2.34471">
        <ele>19.60000038147</ele>
        <time>2022-08-18T08:16:46.000Z</time>
      </trkpt>
      <trkpt lat="47.34275" lon="-2.34467">
        <ele>19.60000038147</ele>
        <time>2022-08-18T08:16:50.000Z</time>
      </trkpt>
      <trkpt lat="47.34285" lon="-2.34467">
        <ele>19.60000038147</ele>
        <time>2022-08-18T08:16:52.000Z</time>
      </trkpt>
      <trkpt lat="47.34302" lon="-2.34467">
        <ele>19.60000038147</ele>
        <time>2022-08-18T08:16:55.000Z</time>
      </trkpt>
      <trkpt lat="47.34318" lon="-2.34463">
        <ele>19.60000038147</ele>
        <time>2022-08-18T08:16:58.000Z</time>
      </trkpt>
      <trkpt lat="47.34347" lon="-2.34449">
        <ele>19.60000038147</ele>
        <time>2022-08-18T08:17:03.000Z</time>
      </trkpt>
      <trkpt lat="47.34382" lon="-2.3443">
        <ele>19.60000038147</ele>
        <time>2022-08-18T08:17:09.000Z</time>
      </trkpt>
      <trkpt lat="47.34418" lon="-2.34413">
        <ele>19.60000038147</ele>
        <time>2022-08-18T08:17:15.000Z</time>
      </trkpt>
      <trkpt lat="47.34447" lon="-2.34401">
        <ele>19.60000038147</ele>
        <time>2022-08-18T08:17:20.000Z</time>
      </trkpt>
      <trkpt lat="47.34472" lon="-2.34391">
        <ele>19.60000038147</ele>
        <time>2022-08-18T08:17:25.000Z</time>
      </trkpt>
      <trkpt lat="47.34489" lon="-2.34378">
        <ele>19.60000038147</ele>
        <time>2022-08-18T08:17:30.000Z</time>
      </trkpt>
      <trkpt lat="47.34495" lon="-2.34371">
        <ele>19.60000038147</ele>
        <time>2022-08-18T08:17:32.000Z</time>
      </trkpt>
      <trkpt lat="47.34505" lon="-2.34355">
        <ele>19.60000038147</ele>
        <time>2022-08-18T08:17:35.000Z</time>
      </trkpt>
      <trkpt lat="47.34522" lon="-2.34341">
        <ele>19.60000038147</ele>
        <time>2022-08-18T08:17:39.000Z</time>
      </trkpt>
      <trkpt lat="47.34527" lon="-2.34337">
        <ele>19.200000762939</ele>
        <time>2022-08-18T08:17:40.000Z</time>
      </trkpt>
      <trkpt lat="47.34531" lon="-2.34334">
        <ele>18.799999237061</ele>
        <time>2022-08-18T08:17:41.000Z</time>
      </trkpt>
      <trkpt lat="47.34535" lon="-2.3433">
        <ele>18.39999961853</ele>
        <time>2022-08-18T08:17:42.000Z</time>
      </trkpt>
      <trkpt lat="47.34539" lon="-2.34327">
        <ele>18</ele>
        <time>2022-08-18T08:17:43.000Z</time>
      </trkpt>
      <trkpt lat="47.34543" lon="-2.34324">
        <ele>17.60000038147</ele>
        <time>2022-08-18T08:17:44.000Z</time>
      </trkpt>
      <trkpt lat="47.34553" lon="-2.34314">
        <ele>17.60000038147</ele>
        <time>2022-08-18T08:17:47.000Z</time>
      </trkpt>
      <trkpt lat="47.34557" lon="-2.3431">
        <ele>17.60000038147</ele>
        <time>2022-08-18T08:17:48.000Z</time>
      </trkpt>
      <trkpt lat="47.34561" lon="-2.34307">
        <ele>17.60000038147</ele>
        <time>2022-08-18T08:17:49.000Z</time>
      </trkpt>
      <trkpt lat="47.34578" lon="-2.34299">
        <ele>17.60000038147</ele>
        <time>2022-08-18T08:17:52.000Z</time>
      </trkpt>
      <trkpt lat="47.34585" lon="-2.34297">
        <ele>17.60000038147</ele>
        <time>2022-08-18T08:17:53.000Z</time>
      </trkpt>
      <trkpt lat="47.34591" lon="-2.34296">
        <ele>17.60000038147</ele>
        <time>2022-08-18T08:17:54.000Z</time>
      </trkpt>
      <trkpt lat="47.34603" lon="-2.34295">
        <ele>17.200000762939</ele>
        <time>2022-08-18T08:17:56.000Z</time>
      </trkpt>
      <trkpt lat="47.34608" lon="-2.34295">
        <ele>16.799999237061</ele>
        <time>2022-08-18T08:17:57.000Z</time>
      </trkpt>
      <trkpt lat="47.34613" lon="-2.34296">
        <ele>16.39999961853</ele>
        <time>2022-08-18T08:17:58.000Z</time>
      </trkpt>
      <trkpt lat="47.34618" lon="-2.34296">
        <ele>16</ele>
        <time>2022-08-18T08:17:59.000Z</time>
      </trkpt>
      <trkpt lat="47.34623" lon="-2.34294">
        <ele>15.60000038147</ele>
        <time>2022-08-18T08:18:00.000Z</time>
      </trkpt>
      <trkpt lat="47.34631" lon="-2.34288">
        <ele>15.60000038147</ele>
        <time>2022-08-18T08:18:02.000Z</time>
      </trkpt>
      <trkpt lat="47.34634" lon="-2.34283">
        <ele>14.800000190735</ele>
        <time>2022-08-18T08:18:03.000Z</time>
      </trkpt>
      <trkpt lat="47.34638" lon="-2.34278">
        <ele>14.39999961853</ele>
        <time>2022-08-18T08:18:04.000Z</time>
      </trkpt>
      <trkpt lat="47.34642" lon="-2.34273">
        <ele>13.800000190735</ele>
        <time>2022-08-18T08:18:05.000Z</time>
      </trkpt>
      <trkpt lat="47.34646" lon="-2.3427">
        <ele>13.39999961853</ele>
        <time>2022-08-18T08:18:06.000Z</time>
      </trkpt>
      <trkpt lat="47.34669" lon="-2.34266">
        <ele>13.39999961853</ele>
        <time>2022-08-18T08:18:10.000Z</time>
      </trkpt>
      <trkpt lat="47.34675" lon="-2.34265">
        <ele>13.39999961853</ele>
        <time>2022-08-18T08:18:11.000Z</time>
      </trkpt>
      <trkpt lat="47.34711" lon="-2.34258">
        <ele>13.39999961853</ele>
        <time>2022-08-18T08:18:17.000Z</time>
      </trkpt>
      <trkpt lat="47.34745" lon="-2.3425">
        <ele>13.39999961853</ele>
        <time>2022-08-18T08:18:23.000Z</time>
      </trkpt>
      <trkpt lat="47.34777" lon="-2.34242">
        <ele>13.39999961853</ele>
        <time>2022-08-18T08:18:29.000Z</time>
      </trkpt>
      <trkpt lat="47.34809" lon="-2.34234">
        <ele>14</ele>
        <time>2022-08-18T08:18:35.000Z</time>
      </trkpt>
      <trkpt lat="47.34813" lon="-2.34233">
        <ele>14.39999961853</ele>
        <time>2022-08-18T08:18:36.000Z</time>
      </trkpt>
      <trkpt lat="47.34818" lon="-2.34232">
        <ele>14.800000190735</ele>
        <time>2022-08-18T08:18:37.000Z</time>
      </trkpt>
      <trkpt lat="47.34822" lon="-2.34231">
        <ele>15.199999809265</ele>
        <time>2022-08-18T08:18:38.000Z</time>
      </trkpt>
      <trkpt lat="47.34826" lon="-2.3423">
        <ele>15.60000038147</ele>
        <time>2022-08-18T08:18:39.000Z</time>
      </trkpt>
      <trkpt lat="47.34831" lon="-2.34231">
        <ele>15.60000038147</ele>
        <time>2022-08-18T08:18:40.000Z</time>
      </trkpt>
      <trkpt lat="47.34844" lon="-2.34231">
        <ele>16</ele>
        <time>2022-08-18T08:18:44.000Z</time>
      </trkpt>
      <trkpt lat="47.34847" lon="-2.34233">
        <ele>16.39999961853</ele>
        <time>2022-08-18T08:18:45.000Z</time>
      </trkpt>
      <trkpt lat="47.3485" lon="-2.34235">
        <ele>16.799999237061</ele>
        <time>2022-08-18T08:18:46.000Z</time>
      </trkpt>
      <trkpt lat="47.34852" lon="-2.34236">
        <ele>17.200000762939</ele>
        <time>2022-08-18T08:18:47.000Z</time>
      </trkpt>
      <trkpt lat="47.34854" lon="-2.34238">
        <ele>17.60000038147</ele>
        <time>2022-08-18T08:18:48.000Z</time>
      </trkpt>
      <trkpt lat="47.34856" lon="-2.34238">
        <ele>17.60000038147</ele>
        <time>2022-08-18T08:18:49.000Z</time>
      </trkpt>
      <trkpt lat="47.3486" lon="-2.34238">
        <ele>18.39999961853</ele>
        <time>2022-08-18T08:18:51.000Z</time>
      </trkpt>
      <trkpt lat="47.34861" lon="-2.34237">
        <ele>18.799999237061</ele>
        <time>2022-08-18T08:18:52.000Z</time>
      </trkpt>
      <trkpt lat="47.34863" lon="-2.34236">
        <ele>19.39999961853</ele>
        <time>2022-08-18T08:18:53.000Z</time>
      </trkpt>
      <trkpt lat="47.34864" lon="-2.34235">
        <ele>19.799999237061</ele>
        <time>2022-08-18T08:18:54.000Z</time>
      </trkpt>
      <trkpt lat="47.34867" lon="-2.3423">
        <ele>19.799999237061</ele>
        <time>2022-08-18T08:18:57.000Z</time>
      </trkpt>
      <trkpt lat="47.34869" lon="-2.34227">
        <ele>19.799999237061</ele>
        <time>2022-08-18T08:18:59.000Z</time>
      </trkpt>
      <trkpt lat="47.34871" lon="-2.34223">
        <ele>20.200000762939</ele>
        <time>2022-08-18T08:19:01.000Z</time>
      </trkpt>
      <trkpt lat="47.34872" lon="-2.34221">
        <ele>20.60000038147</ele>
        <time>2022-08-18T08:19:02.000Z</time>
      </trkpt>
      <trkpt lat="47.34872" lon="-2.34219">
        <ele>21</ele>
        <time>2022-08-18T08:19:03.000Z</time>
      </trkpt>
      <trkpt lat="47.34872" lon="-2.34217">
        <ele>21.39999961853</ele>
        <time>2022-08-18T08:19:04.000Z</time>
      </trkpt>
      <trkpt lat="47.34872" lon="-2.34214">
        <ele>22</ele>
        <time>2022-08-18T08:19:05.000Z</time>
      </trkpt>
      <trkpt lat="47.34872" lon="-2.34212">
        <ele>22</ele>
        <time>2022-08-18T08:19:06.000Z</time>
      </trkpt>
      <trkpt lat="47.34873" lon="-2.34207">
        <ele>22</ele>
        <time>2022-08-18T08:19:09.000Z</time>
      </trkpt>
      <trkpt lat="47.34873" lon="-2.34203">
        <ele>22</ele>
        <time>2022-08-18T08:19:11.000Z</time>
      </trkpt>
      <trkpt lat="47.34878" lon="-2.34197">
        <ele>22</ele>
        <time>2022-08-18T08:19:15.000Z</time>
      </trkpt>
      <trkpt lat="47.34882" lon="-2.34199">
        <ele>22.39999961853</ele>
        <time>2022-08-18T08:19:18.000Z</time>
      </trkpt>
      <trkpt lat="47.34883" lon="-2.34201">
        <ele>22.799999237061</ele>
        <time>2022-08-18T08:19:19.000Z</time>
      </trkpt>
      <trkpt lat="47.34883" lon="-2.34202">
        <ele>23.200000762939</ele>
        <time>2022-08-18T08:19:20.000Z</time>
      </trkpt>
      <trkpt lat="47.34883" lon="-2.34203">
        <ele>23.60000038147</ele>
        <time>2022-08-18T08:19:21.000Z</time>
      </trkpt>
      <trkpt lat="47.34883" lon="-2.34202">
        <ele>24</ele>
        <time>2022-08-18T08:19:22.000Z</time>
      </trkpt>
      <trkpt lat="47.34885" lon="-2.34205">
        <ele>24</ele>
        <time>2022-08-18T08:28:05.000Z</time>
      </trkpt>
      <trkpt lat="47.34885" lon="-2.34206">
        <ele>24</ele>
        <time>2022-08-18T08:28:06.000Z</time>
      </trkpt>
      <trkpt lat="47.3489" lon="-2.34204">
        <ele>24</ele>
        <time>2022-08-18T08:28:22.000Z</time>
      </trkpt>
      <trkpt lat="47.34892" lon="-2.34204">
        <ele>24</ele>
        <time>2022-08-18T08:28:23.000Z</time>
      </trkpt>
      <trkpt lat="47.34904" lon="-2.34207">
        <ele>24</ele>
        <time>2022-08-18T08:28:27.000Z</time>
      </trkpt>
      <trkpt lat="47.34912" lon="-2.34208">
        <ele>24</ele>
        <time>2022-08-18T08:28:29.000Z</time>
      </trkpt>
      <trkpt lat="47.34921" lon="-2.34209">
        <ele>24</ele>
        <time>2022-08-18T08:28:31.000Z</time>
      </trkpt>
      <trkpt lat="47.34927" lon="-2.34208">
        <ele>24</ele>
        <time>2022-08-18T08:28:32.000Z</time>
      </trkpt>
      <trkpt lat="47.34942" lon="-2.34201">
        <ele>23.60000038147</ele>
        <time>2022-08-18T08:28:35.000Z</time>
      </trkpt>
      <trkpt lat="47.34947" lon="-2.34199">
        <ele>23</ele>
        <time>2022-08-18T08:28:36.000Z</time>
      </trkpt>
      <trkpt lat="47.34952" lon="-2.34196">
        <ele>22.60000038147</ele>
        <time>2022-08-18T08:28:37.000Z</time>
      </trkpt>
      <trkpt lat="47.34958" lon="-2.34194">
        <ele>22.200000762939</ele>
        <time>2022-08-18T08:28:38.000Z</time>
      </trkpt>
      <trkpt lat="47.34963" lon="-2.34192">
        <ele>21.799999237061</ele>
        <time>2022-08-18T08:28:39.000Z</time>
      </trkpt>
      <trkpt lat="47.34968" lon="-2.34192">
        <ele>21.39999961853</ele>
        <time>2022-08-18T08:28:41.000Z</time>
      </trkpt>
      <trkpt lat="47.34968" lon="-2.34193">
        <ele>21</ele>
        <time>2022-08-18T08:28:42.000Z</time>
      </trkpt>
      <trkpt lat="47.34969" lon="-2.34195">
        <ele>20.60000038147</ele>
        <time>2022-08-18T08:28:43.000Z</time>
      </trkpt>
      <trkpt lat="47.3497" lon="-2.34196">
        <ele>20.200000762939</ele>
        <time>2022-08-18T08:28:44.000Z</time>
      </trkpt>
      <trkpt lat="47.34971" lon="-2.34198">
        <ele>19.799999237061</ele>
        <time>2022-08-18T08:28:45.000Z</time>
      </trkpt>
      <trkpt lat="47.34978" lon="-2.34209">
        <ele>19.799999237061</ele>
        <time>2022-08-18T08:28:49.000Z</time>
      </trkpt>
      <trkpt lat="47.34979" lon="-2.34215">
        <ele>19.39999961853</ele>
        <time>2022-08-18T08:28:50.000Z</time>
      </trkpt>
      <trkpt lat="47.3498" lon="-2.34221">
        <ele>18.799999237061</ele>
        <time>2022-08-18T08:28:51.000Z</time>
      </trkpt>
      <trkpt lat="47.34981" lon="-2.34227">
        <ele>18.39999961853</ele>
        <time>2022-08-18T08:28:52.000Z</time>
      </trkpt>
      <trkpt lat="47.34983" lon="-2.34233">
        <ele>18</ele>
        <time>2022-08-18T08:28:53.000Z</time>
      </trkpt>
      <trkpt lat="47.34984" lon="-2.34241">
        <ele>17.60000038147</ele>
        <time>2022-08-18T08:28:54.000Z</time>
      </trkpt>
      <trkpt lat="47.34987" lon="-2.34248">
        <ele>17.60000038147</ele>
        <time>2022-08-18T08:28:55.000Z</time>
      </trkpt>
      <trkpt lat="47.34993" lon="-2.34264">
        <ele>17.200000762939</ele>
        <time>2022-08-18T08:28:57.000Z</time>
      </trkpt>
      <trkpt lat="47.34996" lon="-2.34272">
        <ele>16.799999237061</ele>
        <time>2022-08-18T08:28:58.000Z</time>
      </trkpt>
      <trkpt lat="47.34999" lon="-2.34279">
        <ele>16.200000762939</ele>
        <time>2022-08-18T08:28:59.000Z</time>
      </trkpt>
      <trkpt lat="47.35002" lon="-2.34287">
        <ele>15.800000190735</ele>
        <time>2022-08-18T08:29:00.000Z</time>
      </trkpt>
      <trkpt lat="47.35005" lon="-2.34294">
        <ele>15.39999961853</ele>
        <time>2022-08-18T08:29:01.000Z</time>
      </trkpt>
      <trkpt lat="47.35008" lon="-2.34301">
        <ele>15</ele>
        <time>2022-08-18T08:29:02.000Z</time>
      </trkpt>
      <trkpt lat="47.35011" lon="-2.34309">
        <ele>14.60000038147</ele>
        <time>2022-08-18T08:29:03.000Z</time>
      </trkpt>
      <trkpt lat="47.35013" lon="-2.34317">
        <ele>14.199999809265</ele>
        <time>2022-08-18T08:29:04.000Z</time>
      </trkpt>
      <trkpt lat="47.35017" lon="-2.34326">
        <ele>13.800000190735</ele>
        <time>2022-08-18T08:29:05.000Z</time>
      </trkpt>
      <trkpt lat="47.3502" lon="-2.34334">
        <ele>13.39999961853</ele>
        <time>2022-08-18T08:29:06.000Z</time>
      </trkpt>
      <trkpt lat="47.35022" lon="-2.34341">
        <ele>13</ele>
        <time>2022-08-18T08:29:07.000Z</time>
      </trkpt>
      <trkpt lat="47.35024" lon="-2.34346">
        <ele>12.39999961853</ele>
        <time>2022-08-18T08:29:08.000Z</time>
      </trkpt>
      <trkpt lat="47.35024" lon="-2.3435">
        <ele>11.60000038147</ele>
        <time>2022-08-18T08:29:09.000Z</time>
      </trkpt>
      <trkpt lat="47.35025" lon="-2.34355">
        <ele>11.199999809265</ele>
        <time>2022-08-18T08:29:10.000Z</time>
      </trkpt>
      <trkpt lat="47.35028" lon="-2.34359">
        <ele>11.199999809265</ele>
        <time>2022-08-18T08:29:11.000Z</time>
      </trkpt>
      <trkpt lat="47.3503" lon="-2.34365">
        <ele>11.199999809265</ele>
        <time>2022-08-18T08:29:12.000Z</time>
      </trkpt>
      <trkpt lat="47.35036" lon="-2.34378">
        <ele>10.60000038147</ele>
        <time>2022-08-18T08:29:14.000Z</time>
      </trkpt>
      <trkpt lat="47.35038" lon="-2.34385">
        <ele>10.199999809265</ele>
        <time>2022-08-18T08:29:15.000Z</time>
      </trkpt>
      <trkpt lat="47.35042" lon="-2.34391">
        <ele>9.8000001907349</ele>
        <time>2022-08-18T08:29:16.000Z</time>
      </trkpt>
      <trkpt lat="47.35045" lon="-2.34396">
        <ele>9.3999996185303</ele>
        <time>2022-08-18T08:29:17.000Z</time>
      </trkpt>
      <trkpt lat="47.35047" lon="-2.34401">
        <ele>8.8000001907349</ele>
        <time>2022-08-18T08:29:18.000Z</time>
      </trkpt>
      <trkpt lat="47.35049" lon="-2.34405">
        <ele>8.3999996185303</ele>
        <time>2022-08-18T08:29:19.000Z</time>
      </trkpt>
      <trkpt lat="47.3505" lon="-2.34409">
        <ele>8</ele>
        <time>2022-08-18T08:29:20.000Z</time>
      </trkpt>
      <trkpt lat="47.35051" lon="-2.34411">
        <ele>7.5999999046326</ele>
        <time>2022-08-18T08:29:21.000Z</time>
      </trkpt>
      <trkpt lat="47.35053" lon="-2.34412">
        <ele>7</ele>
        <time>2022-08-18T08:29:22.000Z</time>
      </trkpt>
      <trkpt lat="47.35054" lon="-2.34413">
        <ele>6.5999999046326</ele>
        <time>2022-08-18T08:29:23.000Z</time>
      </trkpt>
      <trkpt lat="47.35055" lon="-2.34416">
        <ele>6.5999999046326</ele>
        <time>2022-08-18T08:29:25.000Z</time>
      </trkpt>
      <trkpt lat="47.35055" lon="-2.34416">
        <ele>6.5999999046326</ele>
        <time>2022-08-18T08:29:26.000Z</time>
      </trkpt>
      <trkpt lat="47.3505" lon="-2.34409">
        <ele>6.5999999046326</ele>
        <time>2022-08-18T08:29:50.000Z</time>
      </trkpt>
      <trkpt lat="47.35047" lon="-2.34405">
        <ele>6.5999999046326</ele>
        <time>2022-08-18T08:29:52.000Z</time>
      </trkpt>
      <trkpt lat="47.35038" lon="-2.34396">
        <ele>6.5999999046326</ele>
        <time>2022-08-18T08:29:56.000Z</time>
      </trkpt>
      <trkpt lat="47.35035" lon="-2.34391">
        <ele>6.5999999046326</ele>
        <time>2022-08-18T08:29:58.000Z</time>
      </trkpt>
      <trkpt lat="47.35032" lon="-2.34388">
        <ele>7</ele>
        <time>2022-08-18T08:29:59.000Z</time>
      </trkpt>
      <trkpt lat="47.3503" lon="-2.34385">
        <ele>7.4000000953674</ele>
        <time>2022-08-18T08:30:00.000Z</time>
      </trkpt>
      <trkpt lat="47.35029" lon="-2.34384">
        <ele>7.8000001907349</ele>
        <time>2022-08-18T08:30:01.000Z</time>
      </trkpt>
      <trkpt lat="47.35027" lon="-2.34382">
        <ele>8.3999996185303</ele>
        <time>2022-08-18T08:30:02.000Z</time>
      </trkpt>
      <trkpt lat="47.35026" lon="-2.34379">
        <ele>8.8000001907349</ele>
        <time>2022-08-18T08:30:03.000Z</time>
      </trkpt>
      <trkpt lat="47.3502" lon="-2.34368">
        <ele>8.8000001907349</ele>
        <time>2022-08-18T08:30:07.000Z</time>
      </trkpt>
      <trkpt lat="47.35012" lon="-2.34349">
        <ele>8.8000001907349</ele>
        <time>2022-08-18T08:30:12.000Z</time>
      </trkpt>
      <trkpt lat="47.35009" lon="-2.34345">
        <ele>9.1999998092651</ele>
        <time>2022-08-18T08:30:13.000Z</time>
      </trkpt>
      <trkpt lat="47.35007" lon="-2.34342">
        <ele>9.6000003814697</ele>
        <time>2022-08-18T08:30:14.000Z</time>
      </trkpt>
      <trkpt lat="47.35006" lon="-2.34337">
        <ele>10</ele>
        <time>2022-08-18T08:30:15.000Z</time>
      </trkpt>
      <trkpt lat="47.35005" lon="-2.34333">
        <ele>10.39999961853</ele>
        <time>2022-08-18T08:30:16.000Z</time>
      </trkpt>
      <trkpt lat="47.35003" lon="-2.34329">
        <ele>10.800000190735</ele>
        <time>2022-08-18T08:30:17.000Z</time>
      </trkpt>
      <trkpt lat="47.35003" lon="-2.34318">
        <ele>10.800000190735</ele>
        <time>2022-08-18T08:30:20.000Z</time>
      </trkpt>
      <trkpt lat="47.34998" lon="-2.34302">
        <ele>11.199999809265</ele>
        <time>2022-08-18T08:30:24.000Z</time>
      </trkpt>
      <trkpt lat="47.34996" lon="-2.34297">
        <ele>11.60000038147</ele>
        <time>2022-08-18T08:30:25.000Z</time>
      </trkpt>
      <trkpt lat="47.34995" lon="-2.34294">
        <ele>12</ele>
        <time>2022-08-18T08:30:26.000Z</time>
      </trkpt>
      <trkpt lat="47.34994" lon="-2.3429">
        <ele>12.39999961853</ele>
        <time>2022-08-18T08:30:27.000Z</time>
      </trkpt>
      <trkpt lat="47.34993" lon="-2.34286">
        <ele>12.800000190735</ele>
        <time>2022-08-18T08:30:28.000Z</time>
      </trkpt>
      <trkpt lat="47.3499" lon="-2.34274">
        <ele>12.800000190735</ele>
        <time>2022-08-18T08:30:31.000Z</time>
      </trkpt>
      <trkpt lat="47.34985" lon="-2.34263">
        <ele>13.39999961853</ele>
        <time>2022-08-18T08:30:34.000Z</time>
      </trkpt>
      <trkpt lat="47.34983" lon="-2.34259">
        <ele>13.800000190735</ele>
        <time>2022-08-18T08:30:35.000Z</time>
      </trkpt>
      <trkpt lat="47.34982" lon="-2.34256">
        <ele>14.199999809265</ele>
        <time>2022-08-18T08:30:36.000Z</time>
      </trkpt>
      <trkpt lat="47.34981" lon="-2.34252">
        <ele>14.60000038147</ele>
        <time>2022-08-18T08:30:37.000Z</time>
      </trkpt>
      <trkpt lat="47.3498" lon="-2.34248">
        <ele>15</ele>
        <time>2022-08-18T08:30:38.000Z</time>
      </trkpt>
      <trkpt lat="47.34977" lon="-2.34217">
        <ele>15</ele>
        <time>2022-08-18T08:30:45.000Z</time>
      </trkpt>
      <trkpt lat="47.34975" lon="-2.3421">
        <ele>15.39999961853</ele>
        <time>2022-08-18T08:30:47.000Z</time>
      </trkpt>
      <trkpt lat="47.34973" lon="-2.34207">
        <ele>16.200000762939</ele>
        <time>2022-08-18T08:30:48.000Z</time>
      </trkpt>
      <trkpt lat="47.34972" lon="-2.34204">
        <ele>16.60000038147</ele>
        <time>2022-08-18T08:30:49.000Z</time>
      </trkpt>
      <trkpt lat="47.34972" lon="-2.34199">
        <ele>17.200000762939</ele>
        <time>2022-08-18T08:30:50.000Z</time>
      </trkpt>
      <trkpt lat="47.34972" lon="-2.34196">
        <ele>17.200000762939</ele>
        <time>2022-08-18T08:30:51.000Z</time>
      </trkpt>
      <trkpt lat="47.3498" lon="-2.34178">
        <ele>17.200000762939</ele>
        <time>2022-08-18T08:30:55.000Z</time>
      </trkpt>
      <trkpt lat="47.34987" lon="-2.3416">
        <ele>17.200000762939</ele>
        <time>2022-08-18T08:30:58.000Z</time>
      </trkpt>
      <trkpt lat="47.3499" lon="-2.34155">
        <ele>17.200000762939</ele>
        <time>2022-08-18T08:30:59.000Z</time>
      </trkpt>
      <trkpt lat="47.35008" lon="-2.34137">
        <ele>17.200000762939</ele>
        <time>2022-08-18T08:31:03.000Z</time>
      </trkpt>
      <trkpt lat="47.35011" lon="-2.34133">
        <ele>16.799999237061</ele>
        <time>2022-08-18T08:31:04.000Z</time>
      </trkpt>
      <trkpt lat="47.35014" lon="-2.34131">
        <ele>16.39999961853</ele>
        <time>2022-08-18T08:31:05.000Z</time>
      </trkpt>
      <trkpt lat="47.35017" lon="-2.3413">
        <ele>15.800000190735</ele>
        <time>2022-08-18T08:31:06.000Z</time>
      </trkpt>
      <trkpt lat="47.3502" lon="-2.34129">
        <ele>15.39999961853</ele>
        <time>2022-08-18T08:31:07.000Z</time>
      </trkpt>
      <trkpt lat="47.35023" lon="-2.3413">
        <ele>15</ele>
        <time>2022-08-18T08:31:08.000Z</time>
      </trkpt>
      <trkpt lat="47.35036" lon="-2.34129">
        <ele>15</ele>
        <time>2022-08-18T08:31:12.000Z</time>
      </trkpt>
      <trkpt lat="47.35049" lon="-2.34127">
        <ele>15</ele>
        <time>2022-08-18T08:31:15.000Z</time>
      </trkpt>
      <trkpt lat="47.35063" lon="-2.34124">
        <ele>15</ele>
        <time>2022-08-18T08:31:18.000Z</time>
      </trkpt>
      <trkpt lat="47.35088" lon="-2.34123">
        <ele>15</ele>
        <time>2022-08-18T08:31:23.000Z</time>
      </trkpt>
      <trkpt lat="47.35108" lon="-2.34119">
        <ele>15</ele>
        <time>2022-08-18T08:31:27.000Z</time>
      </trkpt>
      <trkpt lat="47.35117" lon="-2.34114">
        <ele>15</ele>
        <time>2022-08-18T08:31:29.000Z</time>
      </trkpt>
      <trkpt lat="47.35122" lon="-2.34113">
        <ele>15</ele>
        <time>2022-08-18T08:31:30.000Z</time>
      </trkpt>
      <trkpt lat="47.3514" lon="-2.34103">
        <ele>15</ele>
        <time>2022-08-18T08:31:34.000Z</time>
      </trkpt>
      <trkpt lat="47.35146" lon="-2.34102">
        <ele>15</ele>
        <time>2022-08-18T08:31:35.000Z</time>
      </trkpt>
      <trkpt lat="47.35161" lon="-2.34098">
        <ele>15</ele>
        <time>2022-08-18T08:31:38.000Z</time>
      </trkpt>
      <trkpt lat="47.35172" lon="-2.3409">
        <ele>14.60000038147</ele>
        <time>2022-08-18T08:31:41.000Z</time>
      </trkpt>
      <trkpt lat="47.35173" lon="-2.34085">
        <ele>14.199999809265</ele>
        <time>2022-08-18T08:31:42.000Z</time>
      </trkpt>
      <trkpt lat="47.35174" lon="-2.34078">
        <ele>13.800000190735</ele>
        <time>2022-08-18T08:31:43.000Z</time>
      </trkpt>
      <trkpt lat="47.35176" lon="-2.3407">
        <ele>13.39999961853</ele>
        <time>2022-08-18T08:31:44.000Z</time>
      </trkpt>
      <trkpt lat="47.35179" lon="-2.34062">
        <ele>13</ele>
        <time>2022-08-18T08:31:45.000Z</time>
      </trkpt>
      <trkpt lat="47.35182" lon="-2.34053">
        <ele>13</ele>
        <time>2022-08-18T08:31:46.000Z</time>
      </trkpt>
      <trkpt lat="47.35184" lon="-2.34044">
        <ele>12.60000038147</ele>
        <time>2022-08-18T08:31:47.000Z</time>
      </trkpt>
      <trkpt lat="47.35188" lon="-2.34036">
        <ele>12</ele>
        <time>2022-08-18T08:31:48.000Z</time>
      </trkpt>
      <trkpt lat="47.35191" lon="-2.34027">
        <ele>11.60000038147</ele>
        <time>2022-08-18T08:31:49.000Z</time>
      </trkpt>
      <trkpt lat="47.35195" lon="-2.3402">
        <ele>11</ele>
        <time>2022-08-18T08:31:50.000Z</time>
      </trkpt>
      <trkpt lat="47.352" lon="-2.34013">
        <ele>10.60000038147</ele>
        <time>2022-08-18T08:31:51.000Z</time>
      </trkpt>
      <trkpt lat="47.35206" lon="-2.34008">
        <ele>10.199999809265</ele>
        <time>2022-08-18T08:31:52.000Z</time>
      </trkpt>
      <trkpt lat="47.35212" lon="-2.34003">
        <ele>9.8000001907349</ele>
        <time>2022-08-18T08:31:53.000Z</time>
      </trkpt>
      <trkpt lat="47.35218" lon="-2.34">
        <ele>9.3999996185303</ele>
        <time>2022-08-18T08:31:54.000Z</time>
      </trkpt>
      <trkpt lat="47.35225" lon="-2.33997">
        <ele>9</ele>
        <time>2022-08-18T08:31:55.000Z</time>
      </trkpt>
      <trkpt lat="47.35231" lon="-2.33994">
        <ele>8.6000003814697</ele>
        <time>2022-08-18T08:31:56.000Z</time>
      </trkpt>
      <trkpt lat="47.35237" lon="-2.33991">
        <ele>8.6000003814697</ele>
        <time>2022-08-18T08:31:57.000Z</time>
      </trkpt>
      <trkpt lat="47.35254" lon="-2.33982">
        <ele>8</ele>
        <time>2022-08-18T08:32:00.000Z</time>
      </trkpt>
      <trkpt lat="47.35255" lon="-2.33977">
        <ele>7.5999999046326</ele>
        <time>2022-08-18T08:32:01.000Z</time>
      </trkpt>
      <trkpt lat="47.35256" lon="-2.33973">
        <ele>6.5999999046326</ele>
        <time>2022-08-18T08:32:02.000Z</time>
      </trkpt>
      <trkpt lat="47.35258" lon="-2.33971">
        <ele>6.1999998092651</ele>
        <time>2022-08-18T08:32:03.000Z</time>
      </trkpt>
      <trkpt lat="47.3526" lon="-2.3397">
        <ele>6.1999998092651</ele>
        <time>2022-08-18T08:32:04.000Z</time>
      </trkpt>
      <trkpt lat="47.35263" lon="-2.33971">
        <ele>6.1999998092651</ele>
        <time>2022-08-18T08:32:06.000Z</time>
      </trkpt>
      <trkpt lat="47.35263" lon="-2.33971">
        <ele>6.1999998092651</ele>
        <time>2022-08-18T08:32:07.000Z</time>
      </trkpt>
      <trkpt lat="47.35266" lon="-2.33969">
        <ele>6.1999998092651</ele>
        <time>2022-08-18T08:32:18.000Z</time>
      </trkpt>
      <trkpt lat="47.35279" lon="-2.33964">
        <ele>6.1999998092651</ele>
        <time>2022-08-18T08:32:22.000Z</time>
      </trkpt>
      <trkpt lat="47.35302" lon="-2.33968">
        <ele>6.1999998092651</ele>
        <time>2022-08-18T08:32:27.000Z</time>
      </trkpt>
      <trkpt lat="47.35331" lon="-2.33972">
        <ele>6.1999998092651</ele>
        <time>2022-08-18T08:32:33.000Z</time>
      </trkpt>
      <trkpt lat="47.35369" lon="-2.33978">
        <ele>6.1999998092651</ele>
        <time>2022-08-18T08:32:41.000Z</time>
      </trkpt>
      <trkpt lat="47.35379" lon="-2.3398">
        <ele>6.1999998092651</ele>
        <time>2022-08-18T08:32:43.000Z</time>
      </trkpt>
      <trkpt lat="47.35399" lon="-2.33983">
        <ele>6.1999998092651</ele>
        <time>2022-08-18T08:32:47.000Z</time>
      </trkpt>
      <trkpt lat="47.3542" lon="-2.33988">
        <ele>6.5999999046326</ele>
        <time>2022-08-18T08:32:52.000Z</time>
      </trkpt>
      <trkpt lat="47.35425" lon="-2.3399">
        <ele>7</ele>
        <time>2022-08-18T08:32:53.000Z</time>
      </trkpt>
      <trkpt lat="47.35429" lon="-2.33992">
        <ele>7.4000000953674</ele>
        <time>2022-08-18T08:32:54.000Z</time>
      </trkpt>
      <trkpt lat="47.35433" lon="-2.33996">
        <ele>7.8000001907349</ele>
        <time>2022-08-18T08:32:55.000Z</time>
      </trkpt>
      <trkpt lat="47.35437" lon="-2.34">
        <ele>8.1999998092651</ele>
        <time>2022-08-18T08:32:56.000Z</time>
      </trkpt>
      <trkpt lat="47.35443" lon="-2.34011">
        <ele>8.1999998092651</ele>
        <time>2022-08-18T08:32:58.000Z</time>
      </trkpt>
      <trkpt lat="47.35469" lon="-2.34053">
        <ele>8.1999998092651</ele>
        <time>2022-08-18T08:33:05.000Z</time>
      </trkpt>
      <trkpt lat="47.3548" lon="-2.3408">
        <ele>8.1999998092651</ele>
        <time>2022-08-18T08:33:09.000Z</time>
      </trkpt>
      <trkpt lat="47.35481" lon="-2.34087">
        <ele>8.1999998092651</ele>
        <time>2022-08-18T08:33:10.000Z</time>
      </trkpt>
      <trkpt lat="47.3549" lon="-2.34129">
        <ele>8.1999998092651</ele>
        <time>2022-08-18T08:33:16.000Z</time>
      </trkpt>
      <trkpt lat="47.355" lon="-2.34144">
        <ele>8.1999998092651</ele>
        <time>2022-08-18T08:33:19.000Z</time>
      </trkpt>
      <trkpt lat="47.35508" lon="-2.34151">
        <ele>8.1999998092651</ele>
        <time>2022-08-18T08:33:21.000Z</time>
      </trkpt>
      <trkpt lat="47.35518" lon="-2.34157">
        <ele>8.6000003814697</ele>
        <time>2022-08-18T08:33:23.000Z</time>
      </trkpt>
      <trkpt lat="47.35522" lon="-2.3416">
        <ele>9</ele>
        <time>2022-08-18T08:33:24.000Z</time>
      </trkpt>
      <trkpt lat="47.35527" lon="-2.34162">
        <ele>9.3999996185303</ele>
        <time>2022-08-18T08:33:25.000Z</time>
      </trkpt>
      <trkpt lat="47.35532" lon="-2.34165">
        <ele>9.8000001907349</ele>
        <time>2022-08-18T08:33:26.000Z</time>
      </trkpt>
      <trkpt lat="47.35537" lon="-2.34167">
        <ele>10.39999961853</ele>
        <time>2022-08-18T08:33:27.000Z</time>
      </trkpt>
      <trkpt lat="47.35542" lon="-2.34169">
        <ele>10.39999961853</ele>
        <time>2022-08-18T08:33:28.000Z</time>
      </trkpt>
      <trkpt lat="47.35563" lon="-2.34184">
        <ele>10.39999961853</ele>
        <time>2022-08-18T08:33:34.000Z</time>
      </trkpt>
      <trkpt lat="47.35566" lon="-2.34191">
        <ele>10.39999961853</ele>
        <time>2022-08-18T08:33:38.000Z</time>
      </trkpt>
      <trkpt lat="47.35563" lon="-2.34206">
        <ele>10.39999961853</ele>
        <time>2022-08-18T08:33:43.000Z</time>
      </trkpt>
      <trkpt lat="47.35563" lon="-2.34209">
        <ele>10.39999961853</ele>
        <time>2022-08-18T08:33:44.000Z</time>
      </trkpt>
      <trkpt lat="47.35563" lon="-2.34211">
        <ele>10.39999961853</ele>
        <time>2022-08-18T08:33:46.000Z</time>
      </trkpt>
      <trkpt lat="47.35561" lon="-2.34219">
        <ele>10.39999961853</ele>
        <time>2022-08-18T08:35:29.000Z</time>
      </trkpt>
      <trkpt lat="47.35563" lon="-2.34205">
        <ele>10.39999961853</ele>
        <time>2022-08-18T08:35:35.000Z</time>
      </trkpt>
      <trkpt lat="47.35562" lon="-2.34202">
        <ele>10.39999961853</ele>
        <time>2022-08-18T08:35:36.000Z</time>
      </trkpt>
      <trkpt lat="47.35561" lon="-2.34192">
        <ele>10.39999961853</ele>
        <time>2022-08-18T08:35:39.000Z</time>
      </trkpt>
      <trkpt lat="47.35561" lon="-2.34189">
        <ele>10.39999961853</ele>
        <time>2022-08-18T08:35:40.000Z</time>
      </trkpt>
      <trkpt lat="47.35559" lon="-2.34179">
        <ele>10.39999961853</ele>
        <time>2022-08-18T08:35:45.000Z</time>
      </trkpt>
      <trkpt lat="47.35559" lon="-2.34176">
        <ele>10.39999961853</ele>
        <time>2022-08-18T08:35:48.000Z</time>
      </trkpt>
      <trkpt lat="47.35561" lon="-2.34176">
        <ele>10.39999961853</ele>
        <time>2022-08-18T08:35:49.000Z</time>
      </trkpt>
      <trkpt lat="47.3556" lon="-2.34182">
        <ele>10.39999961853</ele>
        <time>2022-08-18T08:35:53.000Z</time>
      </trkpt>
      <trkpt lat="47.35553" lon="-2.3418">
        <ele>10.39999961853</ele>
        <time>2022-08-18T08:35:56.000Z</time>
      </trkpt>
      <trkpt lat="47.3555" lon="-2.34178">
        <ele>10.39999961853</ele>
        <time>2022-08-18T08:35:57.000Z</time>
      </trkpt>
      <trkpt lat="47.35538" lon="-2.34172">
        <ele>10.39999961853</ele>
        <time>2022-08-18T08:36:03.000Z</time>
      </trkpt>
      <trkpt lat="47.35524" lon="-2.34166">
        <ele>10.39999961853</ele>
        <time>2022-08-18T08:36:09.000Z</time>
      </trkpt>
      <trkpt lat="47.35509" lon="-2.34157">
        <ele>10.39999961853</ele>
        <time>2022-08-18T08:36:14.000Z</time>
      </trkpt>
      <trkpt lat="47.355" lon="-2.34153">
        <ele>10.39999961853</ele>
        <time>2022-08-18T08:36:19.000Z</time>
      </trkpt>
      <trkpt lat="47.35498" lon="-2.34151">
        <ele>10.39999961853</ele>
        <time>2022-08-18T08:36:21.000Z</time>
      </trkpt>
      <trkpt lat="47.355" lon="-2.34144">
        <ele>10.39999961853</ele>
        <time>2022-08-18T08:36:25.000Z</time>
      </trkpt>
      <trkpt lat="47.35506" lon="-2.34149">
        <ele>10.39999961853</ele>
        <time>2022-08-18T08:36:28.000Z</time>
      </trkpt>
      <trkpt lat="47.35512" lon="-2.34152">
        <ele>10.39999961853</ele>
        <time>2022-08-18T08:36:30.000Z</time>
      </trkpt>
      <trkpt lat="47.35521" lon="-2.34156">
        <ele>10.39999961853</ele>
        <time>2022-08-18T08:36:33.000Z</time>
      </trkpt>
      <trkpt lat="47.35537" lon="-2.34165">
        <ele>10.39999961853</ele>
        <time>2022-08-18T08:36:38.000Z</time>
      </trkpt>
      <trkpt lat="47.35557" lon="-2.34179">
        <ele>10.39999961853</ele>
        <time>2022-08-18T08:36:45.000Z</time>
      </trkpt>
      <trkpt lat="47.35563" lon="-2.342">
        <ele>10.39999961853</ele>
        <time>2022-08-18T08:36:50.000Z</time>
      </trkpt>
      <trkpt lat="47.35563" lon="-2.34238">
        <ele>10.39999961853</ele>
        <time>2022-08-18T08:36:57.000Z</time>
      </trkpt>
      <trkpt lat="47.35562" lon="-2.34265">
        <ele>10.39999961853</ele>
        <time>2022-08-18T08:37:03.000Z</time>
      </trkpt>
      <trkpt lat="47.35561" lon="-2.34292">
        <ele>10.39999961853</ele>
        <time>2022-08-18T08:37:10.000Z</time>
      </trkpt>
      <trkpt lat="47.35561" lon="-2.34307">
        <ele>10.39999961853</ele>
        <time>2022-08-18T08:37:15.000Z</time>
      </trkpt>
      <trkpt lat="47.35556" lon="-2.34329">
        <ele>10.39999961853</ele>
        <time>2022-08-18T08:37:21.000Z</time>
      </trkpt>
      <trkpt lat="47.35554" lon="-2.34353">
        <ele>10.39999961853</ele>
        <time>2022-08-18T08:37:28.000Z</time>
      </trkpt>
      <trkpt lat="47.35551" lon="-2.34369">
        <ele>10.39999961853</ele>
        <time>2022-08-18T08:37:33.000Z</time>
      </trkpt>
      <trkpt lat="47.35549" lon="-2.34373">
        <ele>10.39999961853</ele>
        <time>2022-08-18T08:37:35.000Z</time>
      </trkpt>
      <trkpt lat="47.35548" lon="-2.34385">
        <ele>10.39999961853</ele>
        <time>2022-08-18T08:37:40.000Z</time>
      </trkpt>
      <trkpt lat="47.35546" lon="-2.34396">
        <ele>10.39999961853</ele>
        <time>2022-08-18T08:37:43.000Z</time>
      </trkpt>
      <trkpt lat="47.35544" lon="-2.34404">
        <ele>10.39999961853</ele>
        <time>2022-08-18T08:37:45.000Z</time>
      </trkpt>
      <trkpt lat="47.35543" lon="-2.34413">
        <ele>10.39999961853</ele>
        <time>2022-08-18T08:37:49.000Z</time>
      </trkpt>
      <trkpt lat="47.35542" lon="-2.34416">
        <ele>10.39999961853</ele>
        <time>2022-08-18T08:37:51.000Z</time>
      </trkpt>
      <trkpt lat="47.35541" lon="-2.34415">
        <ele>10.39999961853</ele>
        <time>2022-08-18T08:37:53.000Z</time>
      </trkpt>
      <trkpt lat="47.3554" lon="-2.34417">
        <ele>10.39999961853</ele>
        <time>2022-08-18T08:38:40.000Z</time>
      </trkpt>
      <trkpt lat="47.35537" lon="-2.34437">
        <ele>10.39999961853</ele>
        <time>2022-08-18T08:38:44.000Z</time>
      </trkpt>
      <trkpt lat="47.35535" lon="-2.34443">
        <ele>9.8000001907349</ele>
        <time>2022-08-18T08:38:45.000Z</time>
      </trkpt>
      <trkpt lat="47.35534" lon="-2.3445">
        <ele>9.3999996185303</ele>
        <time>2022-08-18T08:38:46.000Z</time>
      </trkpt>
      <trkpt lat="47.35533" lon="-2.34457">
        <ele>9</ele>
        <time>2022-08-18T08:38:47.000Z</time>
      </trkpt>
      <trkpt lat="47.35533" lon="-2.34465">
        <ele>8.6000003814697</ele>
        <time>2022-08-18T08:38:48.000Z</time>
      </trkpt>
      <trkpt lat="47.35531" lon="-2.34473">
        <ele>8.1999998092651</ele>
        <time>2022-08-18T08:38:49.000Z</time>
      </trkpt>
      <trkpt lat="47.3553" lon="-2.34481">
        <ele>8.1999998092651</ele>
        <time>2022-08-18T08:38:50.000Z</time>
      </trkpt>
      <trkpt lat="47.35523" lon="-2.34532">
        <ele>8.1999998092651</ele>
        <time>2022-08-18T08:38:57.000Z</time>
      </trkpt>
      <trkpt lat="47.35514" lon="-2.34554">
        <ele>8.1999998092651</ele>
        <time>2022-08-18T08:39:01.000Z</time>
      </trkpt>
      <trkpt lat="47.35511" lon="-2.34559">
        <ele>8.1999998092651</ele>
        <time>2022-08-18T08:39:02.000Z</time>
      </trkpt>
      <trkpt lat="47.35504" lon="-2.34575">
        <ele>8.1999998092651</ele>
        <time>2022-08-18T08:39:06.000Z</time>
      </trkpt>
      <trkpt lat="47.35503" lon="-2.34578">
        <ele>8.1999998092651</ele>
        <time>2022-08-18T08:39:07.000Z</time>
      </trkpt>
      <trkpt lat="47.35498" lon="-2.34588">
        <ele>8.1999998092651</ele>
        <time>2022-08-18T08:39:12.000Z</time>
      </trkpt>
      <trkpt lat="47.35491" lon="-2.34603">
        <ele>8.1999998092651</ele>
        <time>2022-08-18T08:39:17.000Z</time>
      </trkpt>
      <trkpt lat="47.35483" lon="-2.3462">
        <ele>8.1999998092651</ele>
        <time>2022-08-18T08:39:23.000Z</time>
      </trkpt>
      <trkpt lat="47.35473" lon="-2.34645">
        <ele>8.1999998092651</ele>
        <time>2022-08-18T08:39:30.000Z</time>
      </trkpt>
      <trkpt lat="47.35462" lon="-2.34665">
        <ele>8.1999998092651</ele>
        <time>2022-08-18T08:39:37.000Z</time>
      </trkpt>
      <trkpt lat="47.35456" lon="-2.34684">
        <ele>8.1999998092651</ele>
        <time>2022-08-18T08:39:43.000Z</time>
      </trkpt>
      <trkpt lat="47.35446" lon="-2.3471">
        <ele>8.1999998092651</ele>
        <time>2022-08-18T08:39:50.000Z</time>
      </trkpt>
      <trkpt lat="47.35436" lon="-2.34724">
        <ele>8.1999998092651</ele>
        <time>2022-08-18T08:39:55.000Z</time>
      </trkpt>
      <trkpt lat="47.35434" lon="-2.34728">
        <ele>8.6000003814697</ele>
        <time>2022-08-18T08:39:56.000Z</time>
      </trkpt>
      <trkpt lat="47.35432" lon="-2.34732">
        <ele>9</ele>
        <time>2022-08-18T08:39:57.000Z</time>
      </trkpt>
      <trkpt lat="47.35429" lon="-2.34736">
        <ele>9.3999996185303</ele>
        <time>2022-08-18T08:39:58.000Z</time>
      </trkpt>
      <trkpt lat="47.35427" lon="-2.3474">
        <ele>9.8000001907349</ele>
        <time>2022-08-18T08:39:59.000Z</time>
      </trkpt>
      <trkpt lat="47.35425" lon="-2.34743">
        <ele>10.199999809265</ele>
        <time>2022-08-18T08:40:00.000Z</time>
      </trkpt>
      <trkpt lat="47.35406" lon="-2.34767">
        <ele>10.800000190735</ele>
        <time>2022-08-18T08:40:06.000Z</time>
      </trkpt>
      <trkpt lat="47.35403" lon="-2.34771">
        <ele>11.199999809265</ele>
        <time>2022-08-18T08:40:07.000Z</time>
      </trkpt>
      <trkpt lat="47.354" lon="-2.34775">
        <ele>11.60000038147</ele>
        <time>2022-08-18T08:40:08.000Z</time>
      </trkpt>
      <trkpt lat="47.35397" lon="-2.34779">
        <ele>12</ele>
        <time>2022-08-18T08:40:09.000Z</time>
      </trkpt>
      <trkpt lat="47.35394" lon="-2.34783">
        <ele>12.39999961853</ele>
        <time>2022-08-18T08:40:10.000Z</time>
      </trkpt>
      <trkpt lat="47.35388" lon="-2.34793">
        <ele>12.39999961853</ele>
        <time>2022-08-18T08:40:12.000Z</time>
      </trkpt>
      <trkpt lat="47.35385" lon="-2.34797">
        <ele>12.39999961853</ele>
        <time>2022-08-18T08:40:13.000Z</time>
      </trkpt>
      <trkpt lat="47.35382" lon="-2.34802">
        <ele>12.39999961853</ele>
        <time>2022-08-18T08:40:14.000Z</time>
      </trkpt>
      <trkpt lat="47.35372" lon="-2.34826">
        <ele>12.39999961853</ele>
        <time>2022-08-18T08:40:19.000Z</time>
      </trkpt>
      <trkpt lat="47.3537" lon="-2.34831">
        <ele>12.800000190735</ele>
        <time>2022-08-18T08:40:20.000Z</time>
      </trkpt>
      <trkpt lat="47.35368" lon="-2.34835">
        <ele>13.39999961853</ele>
        <time>2022-08-18T08:40:21.000Z</time>
      </trkpt>
      <trkpt lat="47.35366" lon="-2.3484">
        <ele>13.800000190735</ele>
        <time>2022-08-18T08:40:22.000Z</time>
      </trkpt>
      <trkpt lat="47.35364" lon="-2.34845">
        <ele>14.199999809265</ele>
        <time>2022-08-18T08:40:23.000Z</time>
      </trkpt>
      <trkpt lat="47.35361" lon="-2.34851">
        <ele>14.60000038147</ele>
        <time>2022-08-18T08:40:24.000Z</time>
      </trkpt>
      <trkpt lat="47.35357" lon="-2.34861">
        <ele>14.60000038147</ele>
        <time>2022-08-18T08:40:26.000Z</time>
      </trkpt>
      <trkpt lat="47.35338" lon="-2.34898">
        <ele>14.60000038147</ele>
        <time>2022-08-18T08:40:33.000Z</time>
      </trkpt>
      <trkpt lat="47.35334" lon="-2.34902">
        <ele>14.60000038147</ele>
        <time>2022-08-18T08:40:34.000Z</time>
      </trkpt>
      <trkpt lat="47.35317" lon="-2.34926">
        <ele>14.60000038147</ele>
        <time>2022-08-18T08:40:39.000Z</time>
      </trkpt>
      <trkpt lat="47.35307" lon="-2.3494">
        <ele>14.60000038147</ele>
        <time>2022-08-18T08:40:42.000Z</time>
      </trkpt>
      <trkpt lat="47.35296" lon="-2.34953">
        <ele>14.60000038147</ele>
        <time>2022-08-18T08:40:45.000Z</time>
      </trkpt>
      <trkpt lat="47.35267" lon="-2.34985">
        <ele>14.60000038147</ele>
        <time>2022-08-18T08:40:53.000Z</time>
      </trkpt>
      <trkpt lat="47.35261" lon="-2.34995">
        <ele>14.60000038147</ele>
        <time>2022-08-18T08:40:55.000Z</time>
      </trkpt>
      <trkpt lat="47.35256" lon="-2.35016">
        <ele>14.60000038147</ele>
        <time>2022-08-18T08:40:58.000Z</time>
      </trkpt>
      <trkpt lat="47.35255" lon="-2.35022">
        <ele>14.60000038147</ele>
        <time>2022-08-18T08:40:59.000Z</time>
      </trkpt>
      <trkpt lat="47.35252" lon="-2.35038">
        <ele>14.60000038147</ele>
        <time>2022-08-18T08:41:01.000Z</time>
      </trkpt>
      <trkpt lat="47.35243" lon="-2.35069">
        <ele>14.60000038147</ele>
        <time>2022-08-18T08:41:05.000Z</time>
      </trkpt>
      <trkpt lat="47.35218" lon="-2.35129">
        <ele>14.60000038147</ele>
        <time>2022-08-18T08:41:13.000Z</time>
      </trkpt>
      <trkpt lat="47.35193" lon="-2.35189">
        <ele>14.60000038147</ele>
        <time>2022-08-18T08:41:21.000Z</time>
      </trkpt>
      <trkpt lat="47.35173" lon="-2.35222">
        <ele>14.60000038147</ele>
        <time>2022-08-18T08:41:26.000Z</time>
      </trkpt>
      <trkpt lat="47.35164" lon="-2.35233">
        <ele>14.60000038147</ele>
        <time>2022-08-18T08:41:28.000Z</time>
      </trkpt>
      <trkpt lat="47.35128" lon="-2.35272">
        <ele>14.60000038147</ele>
        <time>2022-08-18T08:41:36.000Z</time>
      </trkpt>
      <trkpt lat="47.35109" lon="-2.35297">
        <ele>14.60000038147</ele>
        <time>2022-08-18T08:41:41.000Z</time>
      </trkpt>
      <trkpt lat="47.35106" lon="-2.35305">
        <ele>14.60000038147</ele>
        <time>2022-08-18T08:41:42.000Z</time>
      </trkpt>
      <trkpt lat="47.35101" lon="-2.35334">
        <ele>14.60000038147</ele>
        <time>2022-08-18T08:41:46.000Z</time>
      </trkpt>
      <trkpt lat="47.351" lon="-2.35341">
        <ele>15</ele>
        <time>2022-08-18T08:41:47.000Z</time>
      </trkpt>
      <trkpt lat="47.35099" lon="-2.35349">
        <ele>15.39999961853</ele>
        <time>2022-08-18T08:41:48.000Z</time>
      </trkpt>
      <trkpt lat="47.35097" lon="-2.35357">
        <ele>15.800000190735</ele>
        <time>2022-08-18T08:41:49.000Z</time>
      </trkpt>
      <trkpt lat="47.35095" lon="-2.35364">
        <ele>16.200000762939</ele>
        <time>2022-08-18T08:41:50.000Z</time>
      </trkpt>
      <trkpt lat="47.35093" lon="-2.3537">
        <ele>16.60000038147</ele>
        <time>2022-08-18T08:41:51.000Z</time>
      </trkpt>
      <trkpt lat="47.3509" lon="-2.35377">
        <ele>16.60000038147</ele>
        <time>2022-08-18T08:41:52.000Z</time>
      </trkpt>
      <trkpt lat="47.35083" lon="-2.35388">
        <ele>16.60000038147</ele>
        <time>2022-08-18T08:41:54.000Z</time>
      </trkpt>
      <trkpt lat="47.35076" lon="-2.35399">
        <ele>17</ele>
        <time>2022-08-18T08:41:56.000Z</time>
      </trkpt>
      <trkpt lat="47.35072" lon="-2.35404">
        <ele>17.39999961853</ele>
        <time>2022-08-18T08:41:57.000Z</time>
      </trkpt>
      <trkpt lat="47.35067" lon="-2.35411">
        <ele>17.799999237061</ele>
        <time>2022-08-18T08:41:58.000Z</time>
      </trkpt>
      <trkpt lat="47.35063" lon="-2.35416">
        <ele>18.200000762939</ele>
        <time>2022-08-18T08:41:59.000Z</time>
      </trkpt>
      <trkpt lat="47.35059" lon="-2.35422">
        <ele>18.799999237061</ele>
        <time>2022-08-18T08:42:00.000Z</time>
      </trkpt>
      <trkpt lat="47.35047" lon="-2.35441">
        <ele>18.799999237061</ele>
        <time>2022-08-18T08:42:03.000Z</time>
      </trkpt>
      <trkpt lat="47.35027" lon="-2.35485">
        <ele>18.799999237061</ele>
        <time>2022-08-18T08:42:09.000Z</time>
      </trkpt>
      <trkpt lat="47.3501" lon="-2.35533">
        <ele>18.799999237061</ele>
        <time>2022-08-18T08:42:15.000Z</time>
      </trkpt>
      <trkpt lat="47.34998" lon="-2.35573">
        <ele>18.799999237061</ele>
        <time>2022-08-18T08:42:20.000Z</time>
      </trkpt>
      <trkpt lat="47.34997" lon="-2.35581">
        <ele>18.799999237061</ele>
        <time>2022-08-18T08:42:21.000Z</time>
      </trkpt>
      <trkpt lat="47.35001" lon="-2.35623">
        <ele>18.799999237061</ele>
        <time>2022-08-18T08:42:26.000Z</time>
      </trkpt>
      <trkpt lat="47.35009" lon="-2.35662">
        <ele>18.799999237061</ele>
        <time>2022-08-18T08:42:31.000Z</time>
      </trkpt>
      <trkpt lat="47.35009" lon="-2.35685">
        <ele>18.799999237061</ele>
        <time>2022-08-18T08:42:34.000Z</time>
      </trkpt>
      <trkpt lat="47.35001" lon="-2.35695">
        <ele>18.200000762939</ele>
        <time>2022-08-18T08:42:36.000Z</time>
      </trkpt>
      <trkpt lat="47.34997" lon="-2.357">
        <ele>17.799999237061</ele>
        <time>2022-08-18T08:42:37.000Z</time>
      </trkpt>
      <trkpt lat="47.34992" lon="-2.35704">
        <ele>17.39999961853</ele>
        <time>2022-08-18T08:42:38.000Z</time>
      </trkpt>
      <trkpt lat="47.34987" lon="-2.35708">
        <ele>17</ele>
        <time>2022-08-18T08:42:39.000Z</time>
      </trkpt>
      <trkpt lat="47.34981" lon="-2.35712">
        <ele>16.60000038147</ele>
        <time>2022-08-18T08:42:40.000Z</time>
      </trkpt>
      <trkpt lat="47.3496" lon="-2.35728">
        <ele>16.60000038147</ele>
        <time>2022-08-18T08:42:44.000Z</time>
      </trkpt>
      <trkpt lat="47.34944" lon="-2.3574">
        <ele>16.60000038147</ele>
        <time>2022-08-18T08:42:47.000Z</time>
      </trkpt>
      <trkpt lat="47.34939" lon="-2.35744">
        <ele>16.200000762939</ele>
        <time>2022-08-18T08:42:48.000Z</time>
      </trkpt>
      <trkpt lat="47.34936" lon="-2.35746">
        <ele>15.800000190735</ele>
        <time>2022-08-18T08:42:49.000Z</time>
      </trkpt>
      <trkpt lat="47.34933" lon="-2.35748">
        <ele>15.39999961853</ele>
        <time>2022-08-18T08:42:50.000Z</time>
      </trkpt>
      <trkpt lat="47.3493" lon="-2.35749">
        <ele>15</ele>
        <time>2022-08-18T08:42:51.000Z</time>
      </trkpt>
      <trkpt lat="47.34927" lon="-2.35749">
        <ele>14.39999961853</ele>
        <time>2022-08-18T08:42:52.000Z</time>
      </trkpt>
      <trkpt lat="47.34924" lon="-2.35745">
        <ele>14.39999961853</ele>
        <time>2022-08-18T08:42:53.000Z</time>
      </trkpt>
      <trkpt lat="47.34918" lon="-2.35735">
        <ele>14.39999961853</ele>
        <time>2022-08-18T08:42:55.000Z</time>
      </trkpt>
      <trkpt lat="47.34909" lon="-2.35717">
        <ele>14.39999961853</ele>
        <time>2022-08-18T08:42:58.000Z</time>
      </trkpt>
      <trkpt lat="47.34906" lon="-2.3571">
        <ele>14.39999961853</ele>
        <time>2022-08-18T08:42:59.000Z</time>
      </trkpt>
      <trkpt lat="47.34889" lon="-2.35687">
        <ele>14.39999961853</ele>
        <time>2022-08-18T08:43:03.000Z</time>
      </trkpt>
      <trkpt lat="47.34884" lon="-2.35681">
        <ele>14.39999961853</ele>
        <time>2022-08-18T08:43:04.000Z</time>
      </trkpt>
      <trkpt lat="47.34863" lon="-2.35666">
        <ele>14.39999961853</ele>
        <time>2022-08-18T08:43:08.000Z</time>
      </trkpt>
      <trkpt lat="47.34842" lon="-2.35653">
        <ele>14.39999961853</ele>
        <time>2022-08-18T08:43:12.000Z</time>
      </trkpt>
      <trkpt lat="47.34837" lon="-2.3565">
        <ele>14.39999961853</ele>
        <time>2022-08-18T08:43:13.000Z</time>
      </trkpt>
      <trkpt lat="47.34802" lon="-2.35625">
        <ele>14.39999961853</ele>
        <time>2022-08-18T08:43:20.000Z</time>
      </trkpt>
      <trkpt lat="47.34772" lon="-2.35592">
        <ele>14.39999961853</ele>
        <time>2022-08-18T08:43:26.000Z</time>
      </trkpt>
      <trkpt lat="47.34756" lon="-2.35573">
        <ele>14</ele>
        <time>2022-08-18T08:43:29.000Z</time>
      </trkpt>
      <trkpt lat="47.34751" lon="-2.35566">
        <ele>13.60000038147</ele>
        <time>2022-08-18T08:43:30.000Z</time>
      </trkpt>
      <trkpt lat="47.34745" lon="-2.35559">
        <ele>13.199999809265</ele>
        <time>2022-08-18T08:43:31.000Z</time>
      </trkpt>
      <trkpt lat="47.3474" lon="-2.35552">
        <ele>12.800000190735</ele>
        <time>2022-08-18T08:43:32.000Z</time>
      </trkpt>
      <trkpt lat="47.34735" lon="-2.35544">
        <ele>12.39999961853</ele>
        <time>2022-08-18T08:43:33.000Z</time>
      </trkpt>
      <trkpt lat="47.34711" lon="-2.35506">
        <ele>12.39999961853</ele>
        <time>2022-08-18T08:43:38.000Z</time>
      </trkpt>
      <trkpt lat="47.34679" lon="-2.35454">
        <ele>12.39999961853</ele>
        <time>2022-08-18T08:43:46.000Z</time>
      </trkpt>
      <trkpt lat="47.34653" lon="-2.35419">
        <ele>12.39999961853</ele>
        <time>2022-08-18T08:43:53.000Z</time>
      </trkpt>
      <trkpt lat="47.3464" lon="-2.35402">
        <ele>12.39999961853</ele>
        <time>2022-08-18T08:43:58.000Z</time>
      </trkpt>
      <trkpt lat="47.34645" lon="-2.354">
        <ele>12.39999961853</ele>
        <time>2022-08-18T08:44:01.000Z</time>
      </trkpt>
      <trkpt lat="47.34648" lon="-2.35403">
        <ele>12.39999961853</ele>
        <time>2022-08-18T08:44:03.000Z</time>
      </trkpt>
      <trkpt lat="47.34652" lon="-2.35408">
        <ele>12.39999961853</ele>
        <time>2022-08-18T08:44:05.000Z</time>
      </trkpt>
      <trkpt lat="47.34661" lon="-2.35418">
        <ele>12.39999961853</ele>
        <time>2022-08-18T08:44:08.000Z</time>
      </trkpt>
      <trkpt lat="47.34667" lon="-2.35428">
        <ele>12.39999961853</ele>
        <time>2022-08-18T08:44:10.000Z</time>
      </trkpt>
      <trkpt lat="47.34696" lon="-2.35473">
        <ele>12.39999961853</ele>
        <time>2022-08-18T08:44:18.000Z</time>
      </trkpt>
      <trkpt lat="47.34732" lon="-2.35532">
        <ele>12.39999961853</ele>
        <time>2022-08-18T08:44:28.000Z</time>
      </trkpt>
      <trkpt lat="47.34759" lon="-2.3557">
        <ele>12.39999961853</ele>
        <time>2022-08-18T08:44:35.000Z</time>
      </trkpt>
      <trkpt lat="47.34788" lon="-2.35604">
        <ele>12.39999961853</ele>
        <time>2022-08-18T08:44:42.000Z</time>
      </trkpt>
      <trkpt lat="47.34814" lon="-2.35631">
        <ele>12.39999961853</ele>
        <time>2022-08-18T08:44:48.000Z</time>
      </trkpt>
      <trkpt lat="47.34818" lon="-2.35634">
        <ele>12.39999961853</ele>
        <time>2022-08-18T08:44:49.000Z</time>
      </trkpt>
      <trkpt lat="47.3483" lon="-2.35643">
        <ele>12.39999961853</ele>
        <time>2022-08-18T08:44:52.000Z</time>
      </trkpt>
      <trkpt lat="47.34844" lon="-2.3565">
        <ele>12.39999961853</ele>
        <time>2022-08-18T08:44:55.000Z</time>
      </trkpt>
      <trkpt lat="47.34852" lon="-2.35655">
        <ele>12.39999961853</ele>
        <time>2022-08-18T08:44:57.000Z</time>
      </trkpt>
      <trkpt lat="47.34856" lon="-2.35665">
        <ele>12.39999961853</ele>
        <time>2022-08-18T08:44:59.000Z</time>
      </trkpt>
      <trkpt lat="47.34851" lon="-2.35684">
        <ele>12.39999961853</ele>
        <time>2022-08-18T08:45:02.000Z</time>
      </trkpt>
      <trkpt lat="47.34849" lon="-2.3569">
        <ele>12.39999961853</ele>
        <time>2022-08-18T08:45:03.000Z</time>
      </trkpt>
      <trkpt lat="47.3484" lon="-2.3571">
        <ele>12.39999961853</ele>
        <time>2022-08-18T08:45:06.000Z</time>
      </trkpt>
      <trkpt lat="47.34829" lon="-2.35719">
        <ele>12.39999961853</ele>
        <time>2022-08-18T08:45:09.000Z</time>
      </trkpt>
      <trkpt lat="47.34813" lon="-2.35727">
        <ele>12.39999961853</ele>
        <time>2022-08-18T08:45:13.000Z</time>
      </trkpt>
      <trkpt lat="47.34804" lon="-2.35731">
        <ele>12.39999961853</ele>
        <time>2022-08-18T08:45:15.000Z</time>
      </trkpt>
      <trkpt lat="47.3479" lon="-2.35737">
        <ele>12.39999961853</ele>
        <time>2022-08-18T08:45:18.000Z</time>
      </trkpt>
      <trkpt lat="47.34786" lon="-2.35739">
        <ele>12.39999961853</ele>
        <time>2022-08-18T08:45:19.000Z</time>
      </trkpt>
      <trkpt lat="47.34769" lon="-2.35746">
        <ele>12.39999961853</ele>
        <time>2022-08-18T08:45:23.000Z</time>
      </trkpt>
      <trkpt lat="47.34753" lon="-2.35753">
        <ele>12.39999961853</ele>
        <time>2022-08-18T08:45:27.000Z</time>
      </trkpt>
      <trkpt lat="47.34749" lon="-2.35755">
        <ele>12.39999961853</ele>
        <time>2022-08-18T08:45:28.000Z</time>
      </trkpt>
      <trkpt lat="47.34735" lon="-2.35764">
        <ele>12.39999961853</ele>
        <time>2022-08-18T08:45:31.000Z</time>
      </trkpt>
      <trkpt lat="47.3473" lon="-2.35767">
        <ele>12.39999961853</ele>
        <time>2022-08-18T08:45:32.000Z</time>
      </trkpt>
      <trkpt lat="47.34706" lon="-2.35788">
        <ele>12.39999961853</ele>
        <time>2022-08-18T08:45:38.000Z</time>
      </trkpt>
      <trkpt lat="47.34691" lon="-2.35799">
        <ele>12.39999961853</ele>
        <time>2022-08-18T08:45:41.000Z</time>
      </trkpt>
      <trkpt lat="47.34686" lon="-2.35803">
        <ele>12.39999961853</ele>
        <time>2022-08-18T08:45:42.000Z</time>
      </trkpt>
      <trkpt lat="47.34657" lon="-2.35828">
        <ele>12.39999961853</ele>
        <time>2022-08-18T08:45:48.000Z</time>
      </trkpt>
      <trkpt lat="47.34648" lon="-2.35836">
        <ele>12.39999961853</ele>
        <time>2022-08-18T08:45:50.000Z</time>
      </trkpt>
      <trkpt lat="47.34632" lon="-2.35849">
        <ele>12.39999961853</ele>
        <time>2022-08-18T08:45:53.000Z</time>
      </trkpt>
      <trkpt lat="47.34622" lon="-2.35857">
        <ele>12.39999961853</ele>
        <time>2022-08-18T08:45:55.000Z</time>
      </trkpt>
      <trkpt lat="47.34608" lon="-2.35869">
        <ele>12.39999961853</ele>
        <time>2022-08-18T08:45:58.000Z</time>
      </trkpt>
      <trkpt lat="47.34578" lon="-2.35892">
        <ele>12.39999961853</ele>
        <time>2022-08-18T08:46:04.000Z</time>
      </trkpt>
      <trkpt lat="47.34558" lon="-2.35904">
        <ele>12.39999961853</ele>
        <time>2022-08-18T08:46:08.000Z</time>
      </trkpt>
      <trkpt lat="47.34554" lon="-2.35906">
        <ele>12.39999961853</ele>
        <time>2022-08-18T08:46:09.000Z</time>
      </trkpt>
      <trkpt lat="47.3453" lon="-2.35916">
        <ele>12.39999961853</ele>
        <time>2022-08-18T08:46:14.000Z</time>
      </trkpt>
      <trkpt lat="47.34501" lon="-2.35929">
        <ele>12.39999961853</ele>
        <time>2022-08-18T08:46:20.000Z</time>
      </trkpt>
      <trkpt lat="47.34485" lon="-2.35936">
        <ele>12.800000190735</ele>
        <time>2022-08-18T08:46:24.000Z</time>
      </trkpt>
      <trkpt lat="47.34481" lon="-2.35939">
        <ele>13.60000038147</ele>
        <time>2022-08-18T08:46:25.000Z</time>
      </trkpt>
      <trkpt lat="47.34477" lon="-2.35941">
        <ele>14</ele>
        <time>2022-08-18T08:46:26.000Z</time>
      </trkpt>
      <trkpt lat="47.34473" lon="-2.35943">
        <ele>14.39999961853</ele>
        <time>2022-08-18T08:46:27.000Z</time>
      </trkpt>
      <trkpt lat="47.3447" lon="-2.35946">
        <ele>14.39999961853</ele>
        <time>2022-08-18T08:46:28.000Z</time>
      </trkpt>
      <trkpt lat="47.34444" lon="-2.35967">
        <ele>14.39999961853</ele>
        <time>2022-08-18T08:46:35.000Z</time>
      </trkpt>
      <trkpt lat="47.3444" lon="-2.3597">
        <ele>14.800000190735</ele>
        <time>2022-08-18T08:46:36.000Z</time>
      </trkpt>
      <trkpt lat="47.34436" lon="-2.35973">
        <ele>15.199999809265</ele>
        <time>2022-08-18T08:46:37.000Z</time>
      </trkpt>
      <trkpt lat="47.34432" lon="-2.35976">
        <ele>15.60000038147</ele>
        <time>2022-08-18T08:46:38.000Z</time>
      </trkpt>
      <trkpt lat="47.34429" lon="-2.35979">
        <ele>16</ele>
        <time>2022-08-18T08:46:39.000Z</time>
      </trkpt>
      <trkpt lat="47.34425" lon="-2.35982">
        <ele>16.39999961853</ele>
        <time>2022-08-18T08:46:40.000Z</time>
      </trkpt>
      <trkpt lat="47.34422" lon="-2.35984">
        <ele>16.39999961853</ele>
        <time>2022-08-18T08:46:41.000Z</time>
      </trkpt>
      <trkpt lat="47.34409" lon="-2.35997">
        <ele>16.39999961853</ele>
        <time>2022-08-18T08:46:46.000Z</time>
      </trkpt>
      <trkpt lat="47.34408" lon="-2.36002">
        <ele>16.39999961853</ele>
        <time>2022-08-18T08:46:47.000Z</time>
      </trkpt>
      <trkpt lat="47.34411" lon="-2.36011">
        <ele>16.39999961853</ele>
        <time>2022-08-18T08:46:49.000Z</time>
      </trkpt>
      <trkpt lat="47.34415" lon="-2.36022">
        <ele>16.39999961853</ele>
        <time>2022-08-18T08:46:51.000Z</time>
      </trkpt>
      <trkpt lat="47.34421" lon="-2.3604">
        <ele>16.39999961853</ele>
        <time>2022-08-18T08:46:54.000Z</time>
      </trkpt>
      <trkpt lat="47.34426" lon="-2.3606">
        <ele>16.39999961853</ele>
        <time>2022-08-18T08:46:57.000Z</time>
      </trkpt>
      <trkpt lat="47.34432" lon="-2.3608">
        <ele>16.39999961853</ele>
        <time>2022-08-18T08:47:00.000Z</time>
      </trkpt>
      <trkpt lat="47.34452" lon="-2.36132">
        <ele>16.39999961853</ele>
        <time>2022-08-18T08:47:07.000Z</time>
      </trkpt>
      <trkpt lat="47.34462" lon="-2.36157">
        <ele>16.39999961853</ele>
        <time>2022-08-18T08:47:10.000Z</time>
      </trkpt>
      <trkpt lat="47.3447" lon="-2.36173">
        <ele>16.39999961853</ele>
        <time>2022-08-18T08:47:12.000Z</time>
      </trkpt>
      <trkpt lat="47.345" lon="-2.36227">
        <ele>16.39999961853</ele>
        <time>2022-08-18T08:47:19.000Z</time>
      </trkpt>
      <trkpt lat="47.34503" lon="-2.36235">
        <ele>16.39999961853</ele>
        <time>2022-08-18T08:47:20.000Z</time>
      </trkpt>
      <trkpt lat="47.34506" lon="-2.36245">
        <ele>16</ele>
        <time>2022-08-18T08:47:21.000Z</time>
      </trkpt>
      <trkpt lat="47.34509" lon="-2.36253">
        <ele>15.60000038147</ele>
        <time>2022-08-18T08:47:22.000Z</time>
      </trkpt>
      <trkpt lat="47.34511" lon="-2.36262">
        <ele>15.199999809265</ele>
        <time>2022-08-18T08:47:23.000Z</time>
      </trkpt>
      <trkpt lat="47.34514" lon="-2.3627">
        <ele>14.800000190735</ele>
        <time>2022-08-18T08:47:24.000Z</time>
      </trkpt>
      <trkpt lat="47.34516" lon="-2.36278">
        <ele>14.39999961853</ele>
        <time>2022-08-18T08:47:25.000Z</time>
      </trkpt>
      <trkpt lat="47.34529" lon="-2.36316">
        <ele>14.39999961853</ele>
        <time>2022-08-18T08:47:30.000Z</time>
      </trkpt>
      <trkpt lat="47.3455" lon="-2.36367">
        <ele>14.39999961853</ele>
        <time>2022-08-18T08:47:37.000Z</time>
      </trkpt>
      <trkpt lat="47.34554" lon="-2.36373">
        <ele>14.39999961853</ele>
        <time>2022-08-18T08:47:38.000Z</time>
      </trkpt>
      <trkpt lat="47.34564" lon="-2.36391">
        <ele>14.800000190735</ele>
        <time>2022-08-18T08:47:41.000Z</time>
      </trkpt>
      <trkpt lat="47.34567" lon="-2.36396">
        <ele>15.199999809265</ele>
        <time>2022-08-18T08:47:42.000Z</time>
      </trkpt>
      <trkpt lat="47.34571" lon="-2.36402">
        <ele>15.60000038147</ele>
        <time>2022-08-18T08:47:43.000Z</time>
      </trkpt>
      <trkpt lat="47.34574" lon="-2.36408">
        <ele>16</ele>
        <time>2022-08-18T08:47:44.000Z</time>
      </trkpt>
      <trkpt lat="47.34577" lon="-2.36413">
        <ele>16.39999961853</ele>
        <time>2022-08-18T08:47:45.000Z</time>
      </trkpt>
      <trkpt lat="47.34586" lon="-2.36427">
        <ele>16.39999961853</ele>
        <time>2022-08-18T08:47:48.000Z</time>
      </trkpt>
      <trkpt lat="47.34597" lon="-2.36436">
        <ele>16.39999961853</ele>
        <time>2022-08-18T08:47:51.000Z</time>
      </trkpt>
      <trkpt lat="47.34601" lon="-2.36436">
        <ele>16.39999961853</ele>
        <time>2022-08-18T08:47:52.000Z</time>
      </trkpt>
      <trkpt lat="47.3461" lon="-2.36434">
        <ele>16.799999237061</ele>
        <time>2022-08-18T08:47:54.000Z</time>
      </trkpt>
      <trkpt lat="47.34614" lon="-2.36431">
        <ele>17.200000762939</ele>
        <time>2022-08-18T08:47:55.000Z</time>
      </trkpt>
      <trkpt lat="47.34619" lon="-2.36429">
        <ele>17.60000038147</ele>
        <time>2022-08-18T08:47:56.000Z</time>
      </trkpt>
      <trkpt lat="47.34623" lon="-2.36427">
        <ele>18.200000762939</ele>
        <time>2022-08-18T08:47:57.000Z</time>
      </trkpt>
      <trkpt lat="47.34628" lon="-2.36425">
        <ele>18.60000038147</ele>
        <time>2022-08-18T08:47:58.000Z</time>
      </trkpt>
      <trkpt lat="47.34655" lon="-2.36413">
        <ele>18.60000038147</ele>
        <time>2022-08-18T08:48:04.000Z</time>
      </trkpt>
      <trkpt lat="47.34676" lon="-2.36403">
        <ele>19</ele>
        <time>2022-08-18T08:48:09.000Z</time>
      </trkpt>
      <trkpt lat="47.34681" lon="-2.36401">
        <ele>19.39999961853</ele>
        <time>2022-08-18T08:48:10.000Z</time>
      </trkpt>
      <trkpt lat="47.34685" lon="-2.36399">
        <ele>19.799999237061</ele>
        <time>2022-08-18T08:48:11.000Z</time>
      </trkpt>
      <trkpt lat="47.3469" lon="-2.36397">
        <ele>20.200000762939</ele>
        <time>2022-08-18T08:48:12.000Z</time>
      </trkpt>
      <trkpt lat="47.34694" lon="-2.36396">
        <ele>20.60000038147</ele>
        <time>2022-08-18T08:48:13.000Z</time>
      </trkpt>
      <trkpt lat="47.34698" lon="-2.36394">
        <ele>20.60000038147</ele>
        <time>2022-08-18T08:48:14.000Z</time>
      </trkpt>
      <trkpt lat="47.34718" lon="-2.36385">
        <ele>20.60000038147</ele>
        <time>2022-08-18T08:48:19.000Z</time>
      </trkpt>
      <trkpt lat="47.34748" lon="-2.36368">
        <ele>20.60000038147</ele>
        <time>2022-08-18T08:48:25.000Z</time>
      </trkpt>
      <trkpt lat="47.34772" lon="-2.36353">
        <ele>20.60000038147</ele>
        <time>2022-08-18T08:48:30.000Z</time>
      </trkpt>
      <trkpt lat="47.34802" lon="-2.36332">
        <ele>20.60000038147</ele>
        <time>2022-08-18T08:48:36.000Z</time>
      </trkpt>
      <trkpt lat="47.34819" lon="-2.3632">
        <ele>20.60000038147</ele>
        <time>2022-08-18T08:48:40.000Z</time>
      </trkpt>
      <trkpt lat="47.34829" lon="-2.3632">
        <ele>20.60000038147</ele>
        <time>2022-08-18T08:48:42.000Z</time>
      </trkpt>
      <trkpt lat="47.34837" lon="-2.36325">
        <ele>20.60000038147</ele>
        <time>2022-08-18T08:48:44.000Z</time>
      </trkpt>
      <trkpt lat="47.34847" lon="-2.3633">
        <ele>20.60000038147</ele>
        <time>2022-08-18T08:48:46.000Z</time>
      </trkpt>
      <trkpt lat="47.34852" lon="-2.36332">
        <ele>20.60000038147</ele>
        <time>2022-08-18T08:48:47.000Z</time>
      </trkpt>
      <trkpt lat="47.34881" lon="-2.36351">
        <ele>20.60000038147</ele>
        <time>2022-08-18T08:48:53.000Z</time>
      </trkpt>
      <trkpt lat="47.34913" lon="-2.36371">
        <ele>20.60000038147</ele>
        <time>2022-08-18T08:48:59.000Z</time>
      </trkpt>
      <trkpt lat="47.34958" lon="-2.36398">
        <ele>20.200000762939</ele>
        <time>2022-08-18T08:49:06.000Z</time>
      </trkpt>
      <trkpt lat="47.34965" lon="-2.36403">
        <ele>19.60000038147</ele>
        <time>2022-08-18T08:49:07.000Z</time>
      </trkpt>
      <trkpt lat="47.34972" lon="-2.36407">
        <ele>19.200000762939</ele>
        <time>2022-08-18T08:49:08.000Z</time>
      </trkpt>
      <trkpt lat="47.34978" lon="-2.36411">
        <ele>18.799999237061</ele>
        <time>2022-08-18T08:49:09.000Z</time>
      </trkpt>
      <trkpt lat="47.34985" lon="-2.36415">
        <ele>18.39999961853</ele>
        <time>2022-08-18T08:49:10.000Z</time>
      </trkpt>
      <trkpt lat="47.34992" lon="-2.3642">
        <ele>18.39999961853</ele>
        <time>2022-08-18T08:49:11.000Z</time>
      </trkpt>
      <trkpt lat="47.34999" lon="-2.3643">
        <ele>17.60000038147</ele>
        <time>2022-08-18T08:49:13.000Z</time>
      </trkpt>
      <trkpt lat="47.35003" lon="-2.36438">
        <ele>17.200000762939</ele>
        <time>2022-08-18T08:49:14.000Z</time>
      </trkpt>
      <trkpt lat="47.35007" lon="-2.36448">
        <ele>16.60000038147</ele>
        <time>2022-08-18T08:49:15.000Z</time>
      </trkpt>
      <trkpt lat="47.35009" lon="-2.36457">
        <ele>16.200000762939</ele>
        <time>2022-08-18T08:49:16.000Z</time>
      </trkpt>
      <trkpt lat="47.35012" lon="-2.36467">
        <ele>16.200000762939</ele>
        <time>2022-08-18T08:49:17.000Z</time>
      </trkpt>
      <trkpt lat="47.35022" lon="-2.36492">
        <ele>16.200000762939</ele>
        <time>2022-08-18T08:49:20.000Z</time>
      </trkpt>
      <trkpt lat="47.35044" lon="-2.36525">
        <ele>16.200000762939</ele>
        <time>2022-08-18T08:49:25.000Z</time>
      </trkpt>
      <trkpt lat="47.35066" lon="-2.36571">
        <ele>16.200000762939</ele>
        <time>2022-08-18T08:49:31.000Z</time>
      </trkpt>
      <trkpt lat="47.35083" lon="-2.3662">
        <ele>17</ele>
        <time>2022-08-18T08:49:37.000Z</time>
      </trkpt>
      <trkpt lat="47.35086" lon="-2.36628">
        <ele>17.39999961853</ele>
        <time>2022-08-18T08:49:38.000Z</time>
      </trkpt>
      <trkpt lat="47.35089" lon="-2.36636">
        <ele>17.799999237061</ele>
        <time>2022-08-18T08:49:39.000Z</time>
      </trkpt>
      <trkpt lat="47.35092" lon="-2.36644">
        <ele>18.200000762939</ele>
        <time>2022-08-18T08:49:40.000Z</time>
      </trkpt>
      <trkpt lat="47.351" lon="-2.36667">
        <ele>18.200000762939</ele>
        <time>2022-08-18T08:49:43.000Z</time>
      </trkpt>
      <trkpt lat="47.35114" lon="-2.36713">
        <ele>18.200000762939</ele>
        <time>2022-08-18T08:49:49.000Z</time>
      </trkpt>
      <trkpt lat="47.3512" lon="-2.36737">
        <ele>18.799999237061</ele>
        <time>2022-08-18T08:49:52.000Z</time>
      </trkpt>
      <trkpt lat="47.35122" lon="-2.36745">
        <ele>19.200000762939</ele>
        <time>2022-08-18T08:49:53.000Z</time>
      </trkpt>
      <trkpt lat="47.35124" lon="-2.36753">
        <ele>19.60000038147</ele>
        <time>2022-08-18T08:49:54.000Z</time>
      </trkpt>
      <trkpt lat="47.35127" lon="-2.36761">
        <ele>20</ele>
        <time>2022-08-18T08:49:55.000Z</time>
      </trkpt>
      <trkpt lat="47.35129" lon="-2.36769">
        <ele>20.39999961853</ele>
        <time>2022-08-18T08:49:56.000Z</time>
      </trkpt>
      <trkpt lat="47.35138" lon="-2.36812">
        <ele>20.39999961853</ele>
        <time>2022-08-18T08:50:01.000Z</time>
      </trkpt>
      <trkpt lat="47.35143" lon="-2.36839">
        <ele>20.39999961853</ele>
        <time>2022-08-18T08:50:04.000Z</time>
      </trkpt>
      <trkpt lat="47.35148" lon="-2.36865">
        <ele>20.39999961853</ele>
        <time>2022-08-18T08:50:07.000Z</time>
      </trkpt>
      <trkpt lat="47.3515" lon="-2.36874">
        <ele>20.39999961853</ele>
        <time>2022-08-18T08:50:08.000Z</time>
      </trkpt>
      <trkpt lat="47.35157" lon="-2.369">
        <ele>20.39999961853</ele>
        <time>2022-08-18T08:50:11.000Z</time>
      </trkpt>
      <trkpt lat="47.3516" lon="-2.36908">
        <ele>20.39999961853</ele>
        <time>2022-08-18T08:50:12.000Z</time>
      </trkpt>
      <trkpt lat="47.35172" lon="-2.36937">
        <ele>20.39999961853</ele>
        <time>2022-08-18T08:50:16.000Z</time>
      </trkpt>
      <trkpt lat="47.35179" lon="-2.36951">
        <ele>20.39999961853</ele>
        <time>2022-08-18T08:50:18.000Z</time>
      </trkpt>
      <trkpt lat="47.35196" lon="-2.36986">
        <ele>20.39999961853</ele>
        <time>2022-08-18T08:50:23.000Z</time>
      </trkpt>
      <trkpt lat="47.35213" lon="-2.37031">
        <ele>20.39999961853</ele>
        <time>2022-08-18T08:50:29.000Z</time>
      </trkpt>
      <trkpt lat="47.35217" lon="-2.37048">
        <ele>20.39999961853</ele>
        <time>2022-08-18T08:50:31.000Z</time>
      </trkpt>
      <trkpt lat="47.35224" lon="-2.37083">
        <ele>20.39999961853</ele>
        <time>2022-08-18T08:50:35.000Z</time>
      </trkpt>
      <trkpt lat="47.35234" lon="-2.37136">
        <ele>20.39999961853</ele>
        <time>2022-08-18T08:50:41.000Z</time>
      </trkpt>
      <trkpt lat="47.3524" lon="-2.37159">
        <ele>20.39999961853</ele>
        <time>2022-08-18T08:50:44.000Z</time>
      </trkpt>
      <trkpt lat="47.35246" lon="-2.37173">
        <ele>20.39999961853</ele>
        <time>2022-08-18T08:50:46.000Z</time>
      </trkpt>
      <trkpt lat="47.3525" lon="-2.3718">
        <ele>20.39999961853</ele>
        <time>2022-08-18T08:50:47.000Z</time>
      </trkpt>
      <trkpt lat="47.35262" lon="-2.37199">
        <ele>20.39999961853</ele>
        <time>2022-08-18T08:50:50.000Z</time>
      </trkpt>
      <trkpt lat="47.35276" lon="-2.37216">
        <ele>20.39999961853</ele>
        <time>2022-08-18T08:50:54.000Z</time>
      </trkpt>
      <trkpt lat="47.35281" lon="-2.37234">
        <ele>20.39999961853</ele>
        <time>2022-08-18T08:50:57.000Z</time>
      </trkpt>
      <trkpt lat="47.35281" lon="-2.37241">
        <ele>20.39999961853</ele>
        <time>2022-08-18T08:50:58.000Z</time>
      </trkpt>
      <trkpt lat="47.35282" lon="-2.37284">
        <ele>20.39999961853</ele>
        <time>2022-08-18T08:51:04.000Z</time>
      </trkpt>
      <trkpt lat="47.35283" lon="-2.37345">
        <ele>20.39999961853</ele>
        <time>2022-08-18T08:51:12.000Z</time>
      </trkpt>
      <trkpt lat="47.35284" lon="-2.37397">
        <ele>20.39999961853</ele>
        <time>2022-08-18T08:51:18.000Z</time>
      </trkpt>
      <trkpt lat="47.35285" lon="-2.37414">
        <ele>20.39999961853</ele>
        <time>2022-08-18T08:51:20.000Z</time>
      </trkpt>
      <trkpt lat="47.35287" lon="-2.37441">
        <ele>20.39999961853</ele>
        <time>2022-08-18T08:51:23.000Z</time>
      </trkpt>
      <trkpt lat="47.35294" lon="-2.37491">
        <ele>20</ele>
        <time>2022-08-18T08:51:28.000Z</time>
      </trkpt>
      <trkpt lat="47.35295" lon="-2.37501">
        <ele>19.39999961853</ele>
        <time>2022-08-18T08:51:29.000Z</time>
      </trkpt>
      <trkpt lat="47.35297" lon="-2.37511">
        <ele>19</ele>
        <time>2022-08-18T08:51:30.000Z</time>
      </trkpt>
      <trkpt lat="47.35299" lon="-2.37521">
        <ele>18.60000038147</ele>
        <time>2022-08-18T08:51:31.000Z</time>
      </trkpt>
      <trkpt lat="47.35301" lon="-2.37531">
        <ele>18.200000762939</ele>
        <time>2022-08-18T08:51:32.000Z</time>
      </trkpt>
      <trkpt lat="47.35312" lon="-2.37579">
        <ele>18.200000762939</ele>
        <time>2022-08-18T08:51:37.000Z</time>
      </trkpt>
      <trkpt lat="47.35328" lon="-2.37645">
        <ele>18.200000762939</ele>
        <time>2022-08-18T08:51:44.000Z</time>
      </trkpt>
      <trkpt lat="47.35342" lon="-2.377">
        <ele>18.200000762939</ele>
        <time>2022-08-18T08:51:50.000Z</time>
      </trkpt>
      <trkpt lat="47.35347" lon="-2.37719">
        <ele>17.799999237061</ele>
        <time>2022-08-18T08:51:52.000Z</time>
      </trkpt>
      <trkpt lat="47.3535" lon="-2.37728">
        <ele>17.39999961853</ele>
        <time>2022-08-18T08:51:53.000Z</time>
      </trkpt>
      <trkpt lat="47.35352" lon="-2.37737">
        <ele>16.799999237061</ele>
        <time>2022-08-18T08:51:54.000Z</time>
      </trkpt>
      <trkpt lat="47.35354" lon="-2.37747">
        <ele>16.39999961853</ele>
        <time>2022-08-18T08:51:55.000Z</time>
      </trkpt>
      <trkpt lat="47.35356" lon="-2.37756">
        <ele>16</ele>
        <time>2022-08-18T08:51:56.000Z</time>
      </trkpt>
      <trkpt lat="47.3536" lon="-2.37773">
        <ele>16</ele>
        <time>2022-08-18T08:51:58.000Z</time>
      </trkpt>
      <trkpt lat="47.35357" lon="-2.37784">
        <ele>16</ele>
        <time>2022-08-18T08:51:59.000Z</time>
      </trkpt>
      <trkpt lat="47.35342" lon="-2.37794">
        <ele>16</ele>
        <time>2022-08-18T08:52:02.000Z</time>
      </trkpt>
      <trkpt lat="47.35335" lon="-2.37795">
        <ele>16</ele>
        <time>2022-08-18T08:52:03.000Z</time>
      </trkpt>
      <trkpt lat="47.35303" lon="-2.37806">
        <ele>16</ele>
        <time>2022-08-18T08:52:08.000Z</time>
      </trkpt>
      <trkpt lat="47.35273" lon="-2.37819">
        <ele>15.60000038147</ele>
        <time>2022-08-18T08:52:13.000Z</time>
      </trkpt>
      <trkpt lat="47.35268" lon="-2.37823">
        <ele>15.199999809265</ele>
        <time>2022-08-18T08:52:14.000Z</time>
      </trkpt>
      <trkpt lat="47.35262" lon="-2.37827">
        <ele>14.800000190735</ele>
        <time>2022-08-18T08:52:15.000Z</time>
      </trkpt>
      <trkpt lat="47.35256" lon="-2.37832">
        <ele>14.39999961853</ele>
        <time>2022-08-18T08:52:16.000Z</time>
      </trkpt>
      <trkpt lat="47.35251" lon="-2.37837">
        <ele>14</ele>
        <time>2022-08-18T08:52:17.000Z</time>
      </trkpt>
      <trkpt lat="47.35242" lon="-2.37847">
        <ele>14</ele>
        <time>2022-08-18T08:52:19.000Z</time>
      </trkpt>
      <trkpt lat="47.35237" lon="-2.37852">
        <ele>14</ele>
        <time>2022-08-18T08:52:20.000Z</time>
      </trkpt>
      <trkpt lat="47.35218" lon="-2.37865">
        <ele>14</ele>
        <time>2022-08-18T08:52:24.000Z</time>
      </trkpt>
      <trkpt lat="47.35198" lon="-2.3788">
        <ele>14</ele>
        <time>2022-08-18T08:52:29.000Z</time>
      </trkpt>
      <trkpt lat="47.35183" lon="-2.37894">
        <ele>14</ele>
        <time>2022-08-18T08:52:33.000Z</time>
      </trkpt>
      <trkpt lat="47.35174" lon="-2.379">
        <ele>14</ele>
        <time>2022-08-18T08:52:35.000Z</time>
      </trkpt>
      <trkpt lat="47.35164" lon="-2.37906">
        <ele>14</ele>
        <time>2022-08-18T08:52:37.000Z</time>
      </trkpt>
      <trkpt lat="47.35144" lon="-2.37922">
        <ele>14</ele>
        <time>2022-08-18T08:52:41.000Z</time>
      </trkpt>
      <trkpt lat="47.35129" lon="-2.37933">
        <ele>14</ele>
        <time>2022-08-18T08:52:44.000Z</time>
      </trkpt>
      <trkpt lat="47.35113" lon="-2.37946">
        <ele>14</ele>
        <time>2022-08-18T08:52:47.000Z</time>
      </trkpt>
      <trkpt lat="47.35075" lon="-2.37977">
        <ele>14</ele>
        <time>2022-08-18T08:52:54.000Z</time>
      </trkpt>
      <trkpt lat="47.35049" lon="-2.37997">
        <ele>14</ele>
        <time>2022-08-18T08:52:59.000Z</time>
      </trkpt>
      <trkpt lat="47.35044" lon="-2.38001">
        <ele>14</ele>
        <time>2022-08-18T08:53:00.000Z</time>
      </trkpt>
      <trkpt lat="47.35039" lon="-2.38005">
        <ele>14</ele>
        <time>2022-08-18T08:53:01.000Z</time>
      </trkpt>
      <trkpt lat="47.35018" lon="-2.38022">
        <ele>14</ele>
        <time>2022-08-18T08:53:05.000Z</time>
      </trkpt>
      <trkpt lat="47.35003" lon="-2.38034">
        <ele>14</ele>
        <time>2022-08-18T08:53:08.000Z</time>
      </trkpt>
      <trkpt lat="47.34989" lon="-2.38046">
        <ele>14</ele>
        <time>2022-08-18T08:53:11.000Z</time>
      </trkpt>
      <trkpt lat="47.3498" lon="-2.38052">
        <ele>14</ele>
        <time>2022-08-18T08:53:13.000Z</time>
      </trkpt>
      <trkpt lat="47.3497" lon="-2.38051">
        <ele>14</ele>
        <time>2022-08-18T08:53:15.000Z</time>
      </trkpt>
      <trkpt lat="47.3496" lon="-2.38033">
        <ele>14</ele>
        <time>2022-08-18T08:53:18.000Z</time>
      </trkpt>
      <trkpt lat="47.34941" lon="-2.38001">
        <ele>14</ele>
        <time>2022-08-18T08:53:23.000Z</time>
      </trkpt>
      <trkpt lat="47.34921" lon="-2.37982">
        <ele>14</ele>
        <time>2022-08-18T08:53:27.000Z</time>
      </trkpt>
      <trkpt lat="47.349" lon="-2.37965">
        <ele>14</ele>
        <time>2022-08-18T08:53:31.000Z</time>
      </trkpt>
      <trkpt lat="47.3487" lon="-2.37942">
        <ele>14</ele>
        <time>2022-08-18T08:53:37.000Z</time>
      </trkpt>
      <trkpt lat="47.34838" lon="-2.37918">
        <ele>14</ele>
        <time>2022-08-18T08:53:43.000Z</time>
      </trkpt>
      <trkpt lat="47.34803" lon="-2.3789">
        <ele>14</ele>
        <time>2022-08-18T08:53:50.000Z</time>
      </trkpt>
      <trkpt lat="47.34793" lon="-2.37884">
        <ele>14</ele>
        <time>2022-08-18T08:53:52.000Z</time>
      </trkpt>
      <trkpt lat="47.3478" lon="-2.37873">
        <ele>14</ele>
        <time>2022-08-18T08:53:55.000Z</time>
      </trkpt>
      <trkpt lat="47.34772" lon="-2.37867">
        <ele>14</ele>
        <time>2022-08-18T08:53:57.000Z</time>
      </trkpt>
      <trkpt lat="47.34759" lon="-2.37863">
        <ele>14</ele>
        <time>2022-08-18T08:54:00.000Z</time>
      </trkpt>
      <trkpt lat="47.34755" lon="-2.37865">
        <ele>14.39999961853</ele>
        <time>2022-08-18T08:54:01.000Z</time>
      </trkpt>
      <trkpt lat="47.34753" lon="-2.37869">
        <ele>14.800000190735</ele>
        <time>2022-08-18T08:54:02.000Z</time>
      </trkpt>
      <trkpt lat="47.34751" lon="-2.37875">
        <ele>15.199999809265</ele>
        <time>2022-08-18T08:54:03.000Z</time>
      </trkpt>
      <trkpt lat="47.34749" lon="-2.37882">
        <ele>15.60000038147</ele>
        <time>2022-08-18T08:54:04.000Z</time>
      </trkpt>
      <trkpt lat="47.34747" lon="-2.37889">
        <ele>16</ele>
        <time>2022-08-18T08:54:05.000Z</time>
      </trkpt>
      <trkpt lat="47.34744" lon="-2.37896">
        <ele>16</ele>
        <time>2022-08-18T08:54:06.000Z</time>
      </trkpt>
      <trkpt lat="47.34737" lon="-2.3791">
        <ele>16</ele>
        <time>2022-08-18T08:54:08.000Z</time>
      </trkpt>
      <trkpt lat="47.34715" lon="-2.37941">
        <ele>16</ele>
        <time>2022-08-18T08:54:13.000Z</time>
      </trkpt>
      <trkpt lat="47.34684" lon="-2.37977">
        <ele>16</ele>
        <time>2022-08-18T08:54:19.000Z</time>
      </trkpt>
      <trkpt lat="47.34656" lon="-2.37999">
        <ele>16</ele>
        <time>2022-08-18T08:54:24.000Z</time>
      </trkpt>
      <trkpt lat="47.3465" lon="-2.38004">
        <ele>16</ele>
        <time>2022-08-18T08:54:25.000Z</time>
      </trkpt>
      <trkpt lat="47.34634" lon="-2.38018">
        <ele>16</ele>
        <time>2022-08-18T08:54:28.000Z</time>
      </trkpt>
      <trkpt lat="47.34623" lon="-2.38029">
        <ele>16</ele>
        <time>2022-08-18T08:54:30.000Z</time>
      </trkpt>
      <trkpt lat="47.34618" lon="-2.38034">
        <ele>16</ele>
        <time>2022-08-18T08:54:31.000Z</time>
      </trkpt>
      <trkpt lat="47.34592" lon="-2.38056">
        <ele>16</ele>
        <time>2022-08-18T08:54:36.000Z</time>
      </trkpt>
      <trkpt lat="47.34565" lon="-2.38082">
        <ele>16</ele>
        <time>2022-08-18T08:54:42.000Z</time>
      </trkpt>
      <trkpt lat="47.3456" lon="-2.38085">
        <ele>16</ele>
        <time>2022-08-18T08:54:43.000Z</time>
      </trkpt>
      <trkpt lat="47.34549" lon="-2.38092">
        <ele>16</ele>
        <time>2022-08-18T08:54:45.000Z</time>
      </trkpt>
      <trkpt lat="47.34539" lon="-2.3811">
        <ele>16</ele>
        <time>2022-08-18T08:54:48.000Z</time>
      </trkpt>
      <trkpt lat="47.34536" lon="-2.38127">
        <ele>16</ele>
        <time>2022-08-18T08:54:50.000Z</time>
      </trkpt>
      <trkpt lat="47.34533" lon="-2.38153">
        <ele>16</ele>
        <time>2022-08-18T08:54:53.000Z</time>
      </trkpt>
      <trkpt lat="47.3453" lon="-2.38181">
        <ele>16.39999961853</ele>
        <time>2022-08-18T08:54:56.000Z</time>
      </trkpt>
      <trkpt lat="47.34529" lon="-2.38189">
        <ele>16.799999237061</ele>
        <time>2022-08-18T08:54:57.000Z</time>
      </trkpt>
      <trkpt lat="47.34529" lon="-2.38198">
        <ele>17.200000762939</ele>
        <time>2022-08-18T08:54:58.000Z</time>
      </trkpt>
      <trkpt lat="47.34528" lon="-2.38207">
        <ele>17.60000038147</ele>
        <time>2022-08-18T08:54:59.000Z</time>
      </trkpt>
      <trkpt lat="47.34527" lon="-2.38215">
        <ele>18</ele>
        <time>2022-08-18T08:55:00.000Z</time>
      </trkpt>
      <trkpt lat="47.34522" lon="-2.3825">
        <ele>18</ele>
        <time>2022-08-18T08:55:04.000Z</time>
      </trkpt>
      <trkpt lat="47.34519" lon="-2.38257">
        <ele>18</ele>
        <time>2022-08-18T08:55:05.000Z</time>
      </trkpt>
      <trkpt lat="47.34504" lon="-2.38274">
        <ele>18</ele>
        <time>2022-08-18T08:55:08.000Z</time>
      </trkpt>
      <trkpt lat="47.34499" lon="-2.38278">
        <ele>18</ele>
        <time>2022-08-18T08:55:09.000Z</time>
      </trkpt>
      <trkpt lat="47.34488" lon="-2.38285">
        <ele>18</ele>
        <time>2022-08-18T08:55:11.000Z</time>
      </trkpt>
      <trkpt lat="47.34471" lon="-2.38296">
        <ele>18</ele>
        <time>2022-08-18T08:55:14.000Z</time>
      </trkpt>
      <trkpt lat="47.34431" lon="-2.38323">
        <ele>18</ele>
        <time>2022-08-18T08:55:21.000Z</time>
      </trkpt>
      <trkpt lat="47.34425" lon="-2.38327">
        <ele>18.39999961853</ele>
        <time>2022-08-18T08:55:22.000Z</time>
      </trkpt>
      <trkpt lat="47.34419" lon="-2.3833">
        <ele>19</ele>
        <time>2022-08-18T08:55:23.000Z</time>
      </trkpt>
      <trkpt lat="47.34413" lon="-2.38334">
        <ele>19.39999961853</ele>
        <time>2022-08-18T08:55:24.000Z</time>
      </trkpt>
      <trkpt lat="47.34408" lon="-2.38338">
        <ele>19.799999237061</ele>
        <time>2022-08-18T08:55:25.000Z</time>
      </trkpt>
      <trkpt lat="47.34402" lon="-2.38342">
        <ele>20.200000762939</ele>
        <time>2022-08-18T08:55:26.000Z</time>
      </trkpt>
      <trkpt lat="47.34397" lon="-2.38346">
        <ele>20.200000762939</ele>
        <time>2022-08-18T08:55:27.000Z</time>
      </trkpt>
      <trkpt lat="47.34361" lon="-2.38376">
        <ele>20.200000762939</ele>
        <time>2022-08-18T08:55:33.000Z</time>
      </trkpt>
      <trkpt lat="47.34345" lon="-2.38396">
        <ele>20.200000762939</ele>
        <time>2022-08-18T08:55:36.000Z</time>
      </trkpt>
      <trkpt lat="47.34337" lon="-2.38412">
        <ele>20.200000762939</ele>
        <time>2022-08-18T08:55:38.000Z</time>
      </trkpt>
      <trkpt lat="47.34326" lon="-2.38439">
        <ele>19.60000038147</ele>
        <time>2022-08-18T08:55:41.000Z</time>
      </trkpt>
      <trkpt lat="47.34323" lon="-2.38448">
        <ele>19.200000762939</ele>
        <time>2022-08-18T08:55:42.000Z</time>
      </trkpt>
      <trkpt lat="47.3432" lon="-2.38457">
        <ele>18.799999237061</ele>
        <time>2022-08-18T08:55:43.000Z</time>
      </trkpt>
      <trkpt lat="47.34317" lon="-2.38466">
        <ele>18.39999961853</ele>
        <time>2022-08-18T08:55:44.000Z</time>
      </trkpt>
      <trkpt lat="47.34315" lon="-2.38475">
        <ele>18</ele>
        <time>2022-08-18T08:55:45.000Z</time>
      </trkpt>
      <trkpt lat="47.34308" lon="-2.38489">
        <ele>18</ele>
        <time>2022-08-18T08:55:47.000Z</time>
      </trkpt>
      <trkpt lat="47.34303" lon="-2.38494">
        <ele>18</ele>
        <time>2022-08-18T08:55:48.000Z</time>
      </trkpt>
      <trkpt lat="47.34285" lon="-2.38503">
        <ele>18</ele>
        <time>2022-08-18T08:55:51.000Z</time>
      </trkpt>
      <trkpt lat="47.34279" lon="-2.38504">
        <ele>18</ele>
        <time>2022-08-18T08:55:52.000Z</time>
      </trkpt>
      <trkpt lat="47.34258" lon="-2.38509">
        <ele>18</ele>
        <time>2022-08-18T08:55:56.000Z</time>
      </trkpt>
      <trkpt lat="47.34243" lon="-2.38512">
        <ele>18.39999961853</ele>
        <time>2022-08-18T08:55:59.000Z</time>
      </trkpt>
      <trkpt lat="47.34238" lon="-2.38512">
        <ele>18.799999237061</ele>
        <time>2022-08-18T08:56:00.000Z</time>
      </trkpt>
      <trkpt lat="47.34233" lon="-2.38512">
        <ele>19.39999961853</ele>
        <time>2022-08-18T08:56:01.000Z</time>
      </trkpt>
      <trkpt lat="47.34229" lon="-2.38513">
        <ele>19.799999237061</ele>
        <time>2022-08-18T08:56:02.000Z</time>
      </trkpt>
      <trkpt lat="47.34223" lon="-2.38514">
        <ele>20.200000762939</ele>
        <time>2022-08-18T08:56:03.000Z</time>
      </trkpt>
      <trkpt lat="47.34212" lon="-2.38516">
        <ele>20.200000762939</ele>
        <time>2022-08-18T08:56:05.000Z</time>
      </trkpt>
      <trkpt lat="47.34183" lon="-2.38517">
        <ele>20.200000762939</ele>
        <time>2022-08-18T08:56:10.000Z</time>
      </trkpt>
      <trkpt lat="47.34169" lon="-2.38516">
        <ele>20.60000038147</ele>
        <time>2022-08-18T08:56:13.000Z</time>
      </trkpt>
      <trkpt lat="47.34164" lon="-2.38516">
        <ele>21</ele>
        <time>2022-08-18T08:56:14.000Z</time>
      </trkpt>
      <trkpt lat="47.34159" lon="-2.38516">
        <ele>21.39999961853</ele>
        <time>2022-08-18T08:56:15.000Z</time>
      </trkpt>
      <trkpt lat="47.34153" lon="-2.38515">
        <ele>21.799999237061</ele>
        <time>2022-08-18T08:56:16.000Z</time>
      </trkpt>
      <trkpt lat="47.34148" lon="-2.38516">
        <ele>22.200000762939</ele>
        <time>2022-08-18T08:56:17.000Z</time>
      </trkpt>
      <trkpt lat="47.34132" lon="-2.38521">
        <ele>22.200000762939</ele>
        <time>2022-08-18T08:56:20.000Z</time>
      </trkpt>
      <trkpt lat="47.34123" lon="-2.38526">
        <ele>22.200000762939</ele>
        <time>2022-08-18T08:56:22.000Z</time>
      </trkpt>
      <trkpt lat="47.34105" lon="-2.3854">
        <ele>22.200000762939</ele>
        <time>2022-08-18T08:56:26.000Z</time>
      </trkpt>
      <trkpt lat="47.34101" lon="-2.38544">
        <ele>22.799999237061</ele>
        <time>2022-08-18T08:56:27.000Z</time>
      </trkpt>
      <trkpt lat="47.34098" lon="-2.38549">
        <ele>23.200000762939</ele>
        <time>2022-08-18T08:56:28.000Z</time>
      </trkpt>
      <trkpt lat="47.34094" lon="-2.38554">
        <ele>23.60000038147</ele>
        <time>2022-08-18T08:56:29.000Z</time>
      </trkpt>
      <trkpt lat="47.34091" lon="-2.3856">
        <ele>24</ele>
        <time>2022-08-18T08:56:30.000Z</time>
      </trkpt>
      <trkpt lat="47.34088" lon="-2.38566">
        <ele>24.39999961853</ele>
        <time>2022-08-18T08:56:31.000Z</time>
      </trkpt>
      <trkpt lat="47.34086" lon="-2.38573">
        <ele>24.39999961853</ele>
        <time>2022-08-18T08:56:32.000Z</time>
      </trkpt>
      <trkpt lat="47.34083" lon="-2.38589">
        <ele>24.39999961853</ele>
        <time>2022-08-18T08:56:34.000Z</time>
      </trkpt>
      <trkpt lat="47.34081" lon="-2.38596">
        <ele>24.39999961853</ele>
        <time>2022-08-18T08:56:35.000Z</time>
      </trkpt>
      <trkpt lat="47.34075" lon="-2.3861">
        <ele>24.39999961853</ele>
        <time>2022-08-18T08:56:37.000Z</time>
      </trkpt>
      <trkpt lat="47.3406" lon="-2.38633">
        <ele>24.39999961853</ele>
        <time>2022-08-18T08:56:41.000Z</time>
      </trkpt>
      <trkpt lat="47.34056" lon="-2.38639">
        <ele>24.39999961853</ele>
        <time>2022-08-18T08:56:42.000Z</time>
      </trkpt>
      <trkpt lat="47.34036" lon="-2.38667">
        <ele>24.39999961853</ele>
        <time>2022-08-18T08:56:47.000Z</time>
      </trkpt>
      <trkpt lat="47.34031" lon="-2.38672">
        <ele>24.799999237061</ele>
        <time>2022-08-18T08:56:48.000Z</time>
      </trkpt>
      <trkpt lat="47.34026" lon="-2.38676">
        <ele>25.200000762939</ele>
        <time>2022-08-18T08:56:49.000Z</time>
      </trkpt>
      <trkpt lat="47.34021" lon="-2.3868">
        <ele>25.60000038147</ele>
        <time>2022-08-18T08:56:50.000Z</time>
      </trkpt>
      <trkpt lat="47.34016" lon="-2.38684">
        <ele>26</ele>
        <time>2022-08-18T08:56:51.000Z</time>
      </trkpt>
      <trkpt lat="47.34011" lon="-2.38688">
        <ele>26.39999961853</ele>
        <time>2022-08-18T08:56:52.000Z</time>
      </trkpt>
      <trkpt lat="47.33998" lon="-2.387">
        <ele>26.39999961853</ele>
        <time>2022-08-18T08:56:55.000Z</time>
      </trkpt>
      <trkpt lat="47.33982" lon="-2.3872">
        <ele>26.39999961853</ele>
        <time>2022-08-18T08:56:59.000Z</time>
      </trkpt>
      <trkpt lat="47.33978" lon="-2.38725">
        <ele>26.39999961853</ele>
        <time>2022-08-18T08:57:00.000Z</time>
      </trkpt>
      <trkpt lat="47.33966" lon="-2.38739">
        <ele>26.799999237061</ele>
        <time>2022-08-18T08:57:03.000Z</time>
      </trkpt>
      <trkpt lat="47.33962" lon="-2.38744">
        <ele>27.200000762939</ele>
        <time>2022-08-18T08:57:04.000Z</time>
      </trkpt>
      <trkpt lat="47.33958" lon="-2.38749">
        <ele>27.799999237061</ele>
        <time>2022-08-18T08:57:05.000Z</time>
      </trkpt>
      <trkpt lat="47.33954" lon="-2.38754">
        <ele>28.200000762939</ele>
        <time>2022-08-18T08:57:06.000Z</time>
      </trkpt>
      <trkpt lat="47.3395" lon="-2.38759">
        <ele>28.60000038147</ele>
        <time>2022-08-18T08:57:07.000Z</time>
      </trkpt>
      <trkpt lat="47.33946" lon="-2.38764">
        <ele>28.60000038147</ele>
        <time>2022-08-18T08:57:08.000Z</time>
      </trkpt>
      <trkpt lat="47.33915" lon="-2.38797">
        <ele>28.60000038147</ele>
        <time>2022-08-18T08:57:15.000Z</time>
      </trkpt>
      <trkpt lat="47.33883" lon="-2.3883">
        <ele>28.60000038147</ele>
        <time>2022-08-18T08:57:22.000Z</time>
      </trkpt>
      <trkpt lat="47.33874" lon="-2.38839">
        <ele>29</ele>
        <time>2022-08-18T08:57:24.000Z</time>
      </trkpt>
      <trkpt lat="47.3387" lon="-2.38844">
        <ele>29.39999961853</ele>
        <time>2022-08-18T08:57:25.000Z</time>
      </trkpt>
      <trkpt lat="47.33865" lon="-2.38849">
        <ele>29.799999237061</ele>
        <time>2022-08-18T08:57:26.000Z</time>
      </trkpt>
      <trkpt lat="47.3386" lon="-2.38853">
        <ele>30.39999961853</ele>
        <time>2022-08-18T08:57:27.000Z</time>
      </trkpt>
      <trkpt lat="47.33855" lon="-2.38857">
        <ele>30.799999237061</ele>
        <time>2022-08-18T08:57:28.000Z</time>
      </trkpt>
      <trkpt lat="47.33851" lon="-2.38862">
        <ele>30.799999237061</ele>
        <time>2022-08-18T08:57:29.000Z</time>
      </trkpt>
      <trkpt lat="47.33822" lon="-2.38888">
        <ele>30.799999237061</ele>
        <time>2022-08-18T08:57:35.000Z</time>
      </trkpt>
      <trkpt lat="47.338" lon="-2.38909">
        <ele>30.799999237061</ele>
        <time>2022-08-18T08:57:41.000Z</time>
      </trkpt>
      <trkpt lat="47.33783" lon="-2.3893">
        <ele>30.799999237061</ele>
        <time>2022-08-18T08:57:48.000Z</time>
      </trkpt>
      <trkpt lat="47.33781" lon="-2.38933">
        <ele>31.200000762939</ele>
        <time>2022-08-18T08:57:49.000Z</time>
      </trkpt>
      <trkpt lat="47.33779" lon="-2.38937">
        <ele>31.60000038147</ele>
        <time>2022-08-18T08:57:50.000Z</time>
      </trkpt>
      <trkpt lat="47.33777" lon="-2.38942">
        <ele>32</ele>
        <time>2022-08-18T08:57:51.000Z</time>
      </trkpt>
      <trkpt lat="47.33774" lon="-2.38946">
        <ele>32.400001525879</ele>
        <time>2022-08-18T08:57:52.000Z</time>
      </trkpt>
      <trkpt lat="47.33772" lon="-2.3895">
        <ele>32.799999237061</ele>
        <time>2022-08-18T08:57:53.000Z</time>
      </trkpt>
      <trkpt lat="47.33769" lon="-2.38954">
        <ele>32.799999237061</ele>
        <time>2022-08-18T08:57:54.000Z</time>
      </trkpt>
      <trkpt lat="47.33758" lon="-2.38972">
        <ele>32.799999237061</ele>
        <time>2022-08-18T08:57:58.000Z</time>
      </trkpt>
      <trkpt lat="47.33754" lon="-2.38982">
        <ele>32.799999237061</ele>
        <time>2022-08-18T08:58:00.000Z</time>
      </trkpt>
      <trkpt lat="47.33747" lon="-2.38999">
        <ele>32.799999237061</ele>
        <time>2022-08-18T08:58:03.000Z</time>
      </trkpt>
      <trkpt lat="47.33745" lon="-2.39013">
        <ele>32.799999237061</ele>
        <time>2022-08-18T08:58:05.000Z</time>
      </trkpt>
      <trkpt lat="47.3374" lon="-2.39055">
        <ele>32.799999237061</ele>
        <time>2022-08-18T08:58:11.000Z</time>
      </trkpt>
      <trkpt lat="47.33738" lon="-2.39104">
        <ele>32.799999237061</ele>
        <time>2022-08-18T08:58:17.000Z</time>
      </trkpt>
      <trkpt lat="47.33736" lon="-2.3913">
        <ele>32.799999237061</ele>
        <time>2022-08-18T08:58:20.000Z</time>
      </trkpt>
      <trkpt lat="47.33736" lon="-2.39158">
        <ele>32.799999237061</ele>
        <time>2022-08-18T08:58:23.000Z</time>
      </trkpt>
      <trkpt lat="47.33733" lon="-2.39212">
        <ele>32.799999237061</ele>
        <time>2022-08-18T08:58:29.000Z</time>
      </trkpt>
      <trkpt lat="47.3373" lon="-2.39266">
        <ele>32.799999237061</ele>
        <time>2022-08-18T08:58:36.000Z</time>
      </trkpt>
      <trkpt lat="47.33729" lon="-2.39274">
        <ele>32.799999237061</ele>
        <time>2022-08-18T08:58:37.000Z</time>
      </trkpt>
      <trkpt lat="47.33727" lon="-2.39287">
        <ele>32.799999237061</ele>
        <time>2022-08-18T08:58:39.000Z</time>
      </trkpt>
      <trkpt lat="47.33722" lon="-2.39298">
        <ele>32.799999237061</ele>
        <time>2022-08-18T08:58:41.000Z</time>
      </trkpt>
      <trkpt lat="47.33709" lon="-2.39304">
        <ele>32.799999237061</ele>
        <time>2022-08-18T08:58:44.000Z</time>
      </trkpt>
      <trkpt lat="47.33698" lon="-2.39301">
        <ele>32.799999237061</ele>
        <time>2022-08-18T08:58:46.000Z</time>
      </trkpt>
      <trkpt lat="47.33689" lon="-2.39299">
        <ele>32.799999237061</ele>
        <time>2022-08-18T08:58:48.000Z</time>
      </trkpt>
      <trkpt lat="47.33683" lon="-2.39298">
        <ele>33.200000762939</ele>
        <time>2022-08-18T08:58:49.000Z</time>
      </trkpt>
      <trkpt lat="47.33678" lon="-2.39297">
        <ele>33.599998474121</ele>
        <time>2022-08-18T08:58:50.000Z</time>
      </trkpt>
      <trkpt lat="47.33672" lon="-2.39297">
        <ele>34</ele>
        <time>2022-08-18T08:58:51.000Z</time>
      </trkpt>
      <trkpt lat="47.33666" lon="-2.39298">
        <ele>34.799999237061</ele>
        <time>2022-08-18T08:58:52.000Z</time>
      </trkpt>
      <trkpt lat="47.3366" lon="-2.393">
        <ele>34.799999237061</ele>
        <time>2022-08-18T08:58:53.000Z</time>
      </trkpt>
      <trkpt lat="47.33649" lon="-2.39308">
        <ele>34.799999237061</ele>
        <time>2022-08-18T08:58:55.000Z</time>
      </trkpt>
      <trkpt lat="47.33639" lon="-2.39318">
        <ele>34.799999237061</ele>
        <time>2022-08-18T08:58:57.000Z</time>
      </trkpt>
      <trkpt lat="47.33629" lon="-2.39328">
        <ele>34.799999237061</ele>
        <time>2022-08-18T08:58:59.000Z</time>
      </trkpt>
      <trkpt lat="47.33609" lon="-2.39343">
        <ele>34.799999237061</ele>
        <time>2022-08-18T08:59:03.000Z</time>
      </trkpt>
      <trkpt lat="47.33588" lon="-2.39354">
        <ele>34.799999237061</ele>
        <time>2022-08-18T08:59:07.000Z</time>
      </trkpt>
      <trkpt lat="47.33582" lon="-2.39356">
        <ele>34.799999237061</ele>
        <time>2022-08-18T08:59:08.000Z</time>
      </trkpt>
      <trkpt lat="47.3355" lon="-2.39369">
        <ele>35.200000762939</ele>
        <time>2022-08-18T08:59:14.000Z</time>
      </trkpt>
      <trkpt lat="47.33544" lon="-2.3937">
        <ele>35.599998474121</ele>
        <time>2022-08-18T08:59:15.000Z</time>
      </trkpt>
      <trkpt lat="47.33538" lon="-2.39372">
        <ele>36</ele>
        <time>2022-08-18T08:59:16.000Z</time>
      </trkpt>
      <trkpt lat="47.33532" lon="-2.39373">
        <ele>36.799999237061</ele>
        <time>2022-08-18T08:59:17.000Z</time>
      </trkpt>
      <trkpt lat="47.33492" lon="-2.39379">
        <ele>36.799999237061</ele>
        <time>2022-08-18T08:59:24.000Z</time>
      </trkpt>
      <trkpt lat="47.33486" lon="-2.3938">
        <ele>37.200000762939</ele>
        <time>2022-08-18T08:59:25.000Z</time>
      </trkpt>
      <trkpt lat="47.3348" lon="-2.39381">
        <ele>37.599998474121</ele>
        <time>2022-08-18T08:59:26.000Z</time>
      </trkpt>
      <trkpt lat="47.33475" lon="-2.39382">
        <ele>38</ele>
        <time>2022-08-18T08:59:27.000Z</time>
      </trkpt>
      <trkpt lat="47.33469" lon="-2.39384">
        <ele>38.400001525879</ele>
        <time>2022-08-18T08:59:28.000Z</time>
      </trkpt>
      <trkpt lat="47.33463" lon="-2.39385">
        <ele>38.799999237061</ele>
        <time>2022-08-18T08:59:29.000Z</time>
      </trkpt>
      <trkpt lat="47.33451" lon="-2.39388">
        <ele>38.799999237061</ele>
        <time>2022-08-18T08:59:31.000Z</time>
      </trkpt>
      <trkpt lat="47.33411" lon="-2.39403">
        <ele>38.799999237061</ele>
        <time>2022-08-18T08:59:38.000Z</time>
      </trkpt>
      <trkpt lat="47.33376" lon="-2.39417">
        <ele>38.799999237061</ele>
        <time>2022-08-18T08:59:44.000Z</time>
      </trkpt>
      <trkpt lat="47.33341" lon="-2.39427">
        <ele>38.799999237061</ele>
        <time>2022-08-18T08:59:50.000Z</time>
      </trkpt>
      <trkpt lat="47.3332" lon="-2.39432">
        <ele>39.200000762939</ele>
        <time>2022-08-18T08:59:54.000Z</time>
      </trkpt>
      <trkpt lat="47.33315" lon="-2.39434">
        <ele>39.599998474121</ele>
        <time>2022-08-18T08:59:55.000Z</time>
      </trkpt>
      <trkpt lat="47.3331" lon="-2.39435">
        <ele>40</ele>
        <time>2022-08-18T08:59:56.000Z</time>
      </trkpt>
      <trkpt lat="47.33306" lon="-2.39435">
        <ele>40.400001525879</ele>
        <time>2022-08-18T08:59:57.000Z</time>
      </trkpt>
      <trkpt lat="47.33302" lon="-2.39436">
        <ele>41</ele>
        <time>2022-08-18T08:59:58.000Z</time>
      </trkpt>
      <trkpt lat="47.33287" lon="-2.39439">
        <ele>41</ele>
        <time>2022-08-18T09:00:03.000Z</time>
      </trkpt>
      <trkpt lat="47.33276" lon="-2.39447">
        <ele>41</ele>
        <time>2022-08-18T09:00:10.000Z</time>
      </trkpt>
      <trkpt lat="47.33274" lon="-2.39449">
        <ele>41.400001525879</ele>
        <time>2022-08-18T09:00:12.000Z</time>
      </trkpt>
      <trkpt lat="47.33271" lon="-2.3945">
        <ele>41.799999237061</ele>
        <time>2022-08-18T09:00:13.000Z</time>
      </trkpt>
      <trkpt lat="47.33269" lon="-2.3945">
        <ele>42.200000762939</ele>
        <time>2022-08-18T09:00:14.000Z</time>
      </trkpt>
      <trkpt lat="47.33266" lon="-2.3945">
        <ele>42.599998474121</ele>
        <time>2022-08-18T09:00:15.000Z</time>
      </trkpt>
      <trkpt lat="47.33262" lon="-2.3945">
        <ele>43</ele>
        <time>2022-08-18T09:00:16.000Z</time>
      </trkpt>
      <trkpt lat="47.33244" lon="-2.39452">
        <ele>43</ele>
        <time>2022-08-18T09:00:20.000Z</time>
      </trkpt>
      <trkpt lat="47.33234" lon="-2.39454">
        <ele>43</ele>
        <time>2022-08-18T09:00:22.000Z</time>
      </trkpt>
      <trkpt lat="47.33214" lon="-2.39457">
        <ele>43</ele>
        <time>2022-08-18T09:00:26.000Z</time>
      </trkpt>
      <trkpt lat="47.33198" lon="-2.39461">
        <ele>43.400001525879</ele>
        <time>2022-08-18T09:00:29.000Z</time>
      </trkpt>
      <trkpt lat="47.33192" lon="-2.39462">
        <ele>43.799999237061</ele>
        <time>2022-08-18T09:00:30.000Z</time>
      </trkpt>
      <trkpt lat="47.33187" lon="-2.39463">
        <ele>44.599998474121</ele>
        <time>2022-08-18T09:00:31.000Z</time>
      </trkpt>
      <trkpt lat="47.33182" lon="-2.39464">
        <ele>45</ele>
        <time>2022-08-18T09:00:32.000Z</time>
      </trkpt>
      <trkpt lat="47.33144" lon="-2.39471">
        <ele>45</ele>
        <time>2022-08-18T09:00:39.000Z</time>
      </trkpt>
      <trkpt lat="47.33111" lon="-2.39478">
        <ele>45</ele>
        <time>2022-08-18T09:00:45.000Z</time>
      </trkpt>
      <trkpt lat="47.33106" lon="-2.39478">
        <ele>45</ele>
        <time>2022-08-18T09:00:46.000Z</time>
      </trkpt>
      <trkpt lat="47.33062" lon="-2.39485">
        <ele>45</ele>
        <time>2022-08-18T09:00:54.000Z</time>
      </trkpt>
      <trkpt lat="47.33051" lon="-2.39486">
        <ele>45.400001525879</ele>
        <time>2022-08-18T09:00:56.000Z</time>
      </trkpt>
      <trkpt lat="47.33046" lon="-2.39486">
        <ele>45.799999237061</ele>
        <time>2022-08-18T09:00:57.000Z</time>
      </trkpt>
      <trkpt lat="47.33041" lon="-2.39486">
        <ele>46.200000762939</ele>
        <time>2022-08-18T09:00:58.000Z</time>
      </trkpt>
      <trkpt lat="47.33036" lon="-2.39486">
        <ele>46.599998474121</ele>
        <time>2022-08-18T09:00:59.000Z</time>
      </trkpt>
      <trkpt lat="47.33031" lon="-2.39486">
        <ele>47</ele>
        <time>2022-08-18T09:01:00.000Z</time>
      </trkpt>
      <trkpt lat="47.33027" lon="-2.39485">
        <ele>47</ele>
        <time>2022-08-18T09:01:01.000Z</time>
      </trkpt>
      <trkpt lat="47.33001" lon="-2.39485">
        <ele>47</ele>
        <time>2022-08-18T09:01:06.000Z</time>
      </trkpt>
      <trkpt lat="47.32984" lon="-2.39495">
        <ele>47</ele>
        <time>2022-08-18T09:01:10.000Z</time>
      </trkpt>
      <trkpt lat="47.32979" lon="-2.39497">
        <ele>47</ele>
        <time>2022-08-18T09:01:11.000Z</time>
      </trkpt>
      <trkpt lat="47.32963" lon="-2.395">
        <ele>47</ele>
        <time>2022-08-18T09:01:14.000Z</time>
      </trkpt>
      <trkpt lat="47.32925" lon="-2.39506">
        <ele>47</ele>
        <time>2022-08-18T09:01:21.000Z</time>
      </trkpt>
      <trkpt lat="47.32879" lon="-2.39513">
        <ele>47</ele>
        <time>2022-08-18T09:01:29.000Z</time>
      </trkpt>
      <trkpt lat="47.32852" lon="-2.39518">
        <ele>47</ele>
        <time>2022-08-18T09:01:34.000Z</time>
      </trkpt>
      <trkpt lat="47.32836" lon="-2.39521">
        <ele>47</ele>
        <time>2022-08-18T09:01:37.000Z</time>
      </trkpt>
      <trkpt lat="47.32831" lon="-2.39527">
        <ele>47</ele>
        <time>2022-08-18T09:01:38.000Z</time>
      </trkpt>
      <trkpt lat="47.32821" lon="-2.39547">
        <ele>47</ele>
        <time>2022-08-18T09:01:41.000Z</time>
      </trkpt>
      <trkpt lat="47.32811" lon="-2.39559">
        <ele>47</ele>
        <time>2022-08-18T09:01:43.000Z</time>
      </trkpt>
      <trkpt lat="47.32793" lon="-2.39571">
        <ele>47</ele>
        <time>2022-08-18T09:01:46.000Z</time>
      </trkpt>
      <trkpt lat="47.32788" lon="-2.39575">
        <ele>47</ele>
        <time>2022-08-18T09:01:47.000Z</time>
      </trkpt>
      <trkpt lat="47.32754" lon="-2.39599">
        <ele>47</ele>
        <time>2022-08-18T09:01:53.000Z</time>
      </trkpt>
      <trkpt lat="47.32733" lon="-2.39616">
        <ele>47</ele>
        <time>2022-08-18T09:01:57.000Z</time>
      </trkpt>
      <trkpt lat="47.32728" lon="-2.39621">
        <ele>47</ele>
        <time>2022-08-18T09:01:58.000Z</time>
      </trkpt>
      <trkpt lat="47.32714" lon="-2.3964">
        <ele>47</ele>
        <time>2022-08-18T09:02:01.000Z</time>
      </trkpt>
      <trkpt lat="47.32709" lon="-2.39646">
        <ele>47</ele>
        <time>2022-08-18T09:02:02.000Z</time>
      </trkpt>
      <trkpt lat="47.32683" lon="-2.39688">
        <ele>47</ele>
        <time>2022-08-18T09:02:08.000Z</time>
      </trkpt>
      <trkpt lat="47.32663" lon="-2.39724">
        <ele>47</ele>
        <time>2022-08-18T09:02:13.000Z</time>
      </trkpt>
      <trkpt lat="47.32651" lon="-2.39746">
        <ele>47</ele>
        <time>2022-08-18T09:02:16.000Z</time>
      </trkpt>
      <trkpt lat="47.32644" lon="-2.39761">
        <ele>47</ele>
        <time>2022-08-18T09:02:18.000Z</time>
      </trkpt>
      <trkpt lat="47.32633" lon="-2.39781">
        <ele>47</ele>
        <time>2022-08-18T09:02:21.000Z</time>
      </trkpt>
      <trkpt lat="47.32628" lon="-2.39792">
        <ele>47</ele>
        <time>2022-08-18T09:02:23.000Z</time>
      </trkpt>
      <trkpt lat="47.32623" lon="-2.39802">
        <ele>47</ele>
        <time>2022-08-18T09:02:25.000Z</time>
      </trkpt>
      <trkpt lat="47.32615" lon="-2.3982">
        <ele>47</ele>
        <time>2022-08-18T09:02:29.000Z</time>
      </trkpt>
      <trkpt lat="47.32605" lon="-2.39841">
        <ele>47</ele>
        <time>2022-08-18T09:02:34.000Z</time>
      </trkpt>
      <trkpt lat="47.32592" lon="-2.39874">
        <ele>47</ele>
        <time>2022-08-18T09:02:41.000Z</time>
      </trkpt>
      <trkpt lat="47.32578" lon="-2.39909">
        <ele>47</ele>
        <time>2022-08-18T09:02:48.000Z</time>
      </trkpt>
      <trkpt lat="47.32561" lon="-2.39948">
        <ele>47</ele>
        <time>2022-08-18T09:02:56.000Z</time>
      </trkpt>
      <trkpt lat="47.32551" lon="-2.39961">
        <ele>47</ele>
        <time>2022-08-18T09:02:59.000Z</time>
      </trkpt>
      <trkpt lat="47.32542" lon="-2.39968">
        <ele>47</ele>
        <time>2022-08-18T09:03:01.000Z</time>
      </trkpt>
      <trkpt lat="47.32531" lon="-2.39979">
        <ele>47.400001525879</ele>
        <time>2022-08-18T09:03:04.000Z</time>
      </trkpt>
      <trkpt lat="47.32527" lon="-2.39983">
        <ele>47.799999237061</ele>
        <time>2022-08-18T09:03:05.000Z</time>
      </trkpt>
      <trkpt lat="47.32524" lon="-2.39987">
        <ele>48.200000762939</ele>
        <time>2022-08-18T09:03:06.000Z</time>
      </trkpt>
      <trkpt lat="47.3252" lon="-2.39991">
        <ele>48.599998474121</ele>
        <time>2022-08-18T09:03:07.000Z</time>
      </trkpt>
      <trkpt lat="47.32517" lon="-2.39995">
        <ele>49</ele>
        <time>2022-08-18T09:03:08.000Z</time>
      </trkpt>
      <trkpt lat="47.32501" lon="-2.40005">
        <ele>49</ele>
        <time>2022-08-18T09:03:12.000Z</time>
      </trkpt>
      <trkpt lat="47.32497" lon="-2.40007">
        <ele>49</ele>
        <time>2022-08-18T09:03:13.000Z</time>
      </trkpt>
      <trkpt lat="47.32478" lon="-2.40023">
        <ele>49</ele>
        <time>2022-08-18T09:03:18.000Z</time>
      </trkpt>
      <trkpt lat="47.32453" lon="-2.40043">
        <ele>49</ele>
        <time>2022-08-18T09:03:25.000Z</time>
      </trkpt>
      <trkpt lat="47.32431" lon="-2.40061">
        <ele>49</ele>
        <time>2022-08-18T09:03:32.000Z</time>
      </trkpt>
      <trkpt lat="47.32428" lon="-2.40064">
        <ele>49.400001525879</ele>
        <time>2022-08-18T09:03:33.000Z</time>
      </trkpt>
      <trkpt lat="47.32425" lon="-2.40066">
        <ele>50</ele>
        <time>2022-08-18T09:03:34.000Z</time>
      </trkpt>
      <trkpt lat="47.32421" lon="-2.40069">
        <ele>50.400001525879</ele>
        <time>2022-08-18T09:03:35.000Z</time>
      </trkpt>
      <trkpt lat="47.32418" lon="-2.40072">
        <ele>50.799999237061</ele>
        <time>2022-08-18T09:03:36.000Z</time>
      </trkpt>
      <trkpt lat="47.32415" lon="-2.40075">
        <ele>51.200000762939</ele>
        <time>2022-08-18T09:03:37.000Z</time>
      </trkpt>
      <trkpt lat="47.32409" lon="-2.40082">
        <ele>51.200000762939</ele>
        <time>2022-08-18T09:03:39.000Z</time>
      </trkpt>
      <trkpt lat="47.32401" lon="-2.40097">
        <ele>51.200000762939</ele>
        <time>2022-08-18T09:03:42.000Z</time>
      </trkpt>
      <trkpt lat="47.324" lon="-2.40103">
        <ele>51.200000762939</ele>
        <time>2022-08-18T09:03:43.000Z</time>
      </trkpt>
      <trkpt lat="47.324" lon="-2.4013">
        <ele>51.200000762939</ele>
        <time>2022-08-18T09:03:47.000Z</time>
      </trkpt>
      <trkpt lat="47.32401" lon="-2.40136">
        <ele>51.200000762939</ele>
        <time>2022-08-18T09:03:48.000Z</time>
      </trkpt>
      <trkpt lat="47.32406" lon="-2.40187">
        <ele>51.200000762939</ele>
        <time>2022-08-18T09:03:56.000Z</time>
      </trkpt>
      <trkpt lat="47.3241" lon="-2.40227">
        <ele>51.200000762939</ele>
        <time>2022-08-18T09:04:04.000Z</time>
      </trkpt>
      <trkpt lat="47.32411" lon="-2.40252">
        <ele>51.200000762939</ele>
        <time>2022-08-18T09:04:10.000Z</time>
      </trkpt>
      <trkpt lat="47.32407" lon="-2.40267">
        <ele>51.200000762939</ele>
        <time>2022-08-18T09:04:14.000Z</time>
      </trkpt>
      <trkpt lat="47.32404" lon="-2.4027">
        <ele>51.200000762939</ele>
        <time>2022-08-18T09:04:15.000Z</time>
      </trkpt>
      <trkpt lat="47.32394" lon="-2.40277">
        <ele>51.200000762939</ele>
        <time>2022-08-18T09:04:18.000Z</time>
      </trkpt>
      <trkpt lat="47.32389" lon="-2.40278">
        <ele>51.200000762939</ele>
        <time>2022-08-18T09:04:19.000Z</time>
      </trkpt>
      <trkpt lat="47.32385" lon="-2.40279">
        <ele>51.200000762939</ele>
        <time>2022-08-18T09:04:20.000Z</time>
      </trkpt>
      <trkpt lat="47.32355" lon="-2.40286">
        <ele>51.200000762939</ele>
        <time>2022-08-18T09:04:27.000Z</time>
      </trkpt>
      <trkpt lat="47.32325" lon="-2.40292">
        <ele>51.200000762939</ele>
        <time>2022-08-18T09:04:34.000Z</time>
      </trkpt>
      <trkpt lat="47.323" lon="-2.40297">
        <ele>51.200000762939</ele>
        <time>2022-08-18T09:04:40.000Z</time>
      </trkpt>
      <trkpt lat="47.3229" lon="-2.40304">
        <ele>51.200000762939</ele>
        <time>2022-08-18T09:04:44.000Z</time>
      </trkpt>
      <trkpt lat="47.32282" lon="-2.40323">
        <ele>51.200000762939</ele>
        <time>2022-08-18T09:04:48.000Z</time>
      </trkpt>
      <trkpt lat="47.32279" lon="-2.40355">
        <ele>51.200000762939</ele>
        <time>2022-08-18T09:04:53.000Z</time>
      </trkpt>
      <trkpt lat="47.3228" lon="-2.40384">
        <ele>51.200000762939</ele>
        <time>2022-08-18T09:04:57.000Z</time>
      </trkpt>
      <trkpt lat="47.32278" lon="-2.40397">
        <ele>51.200000762939</ele>
        <time>2022-08-18T09:04:59.000Z</time>
      </trkpt>
      <trkpt lat="47.32267" lon="-2.40411">
        <ele>51.200000762939</ele>
        <time>2022-08-18T09:05:02.000Z</time>
      </trkpt>
      <trkpt lat="47.32264" lon="-2.40416">
        <ele>51.200000762939</ele>
        <time>2022-08-18T09:05:03.000Z</time>
      </trkpt>
      <trkpt lat="47.32259" lon="-2.40431">
        <ele>51.200000762939</ele>
        <time>2022-08-18T09:05:05.000Z</time>
      </trkpt>
      <trkpt lat="47.32255" lon="-2.40449">
        <ele>51.200000762939</ele>
        <time>2022-08-18T09:05:07.000Z</time>
      </trkpt>
      <trkpt lat="47.32249" lon="-2.40486">
        <ele>51.200000762939</ele>
        <time>2022-08-18T09:05:11.000Z</time>
      </trkpt>
      <trkpt lat="47.32238" lon="-2.40551">
        <ele>51.200000762939</ele>
        <time>2022-08-18T09:05:18.000Z</time>
      </trkpt>
      <trkpt lat="47.3223" lon="-2.40613">
        <ele>51.200000762939</ele>
        <time>2022-08-18T09:05:25.000Z</time>
      </trkpt>
      <trkpt lat="47.32225" lon="-2.40666">
        <ele>50.799999237061</ele>
        <time>2022-08-18T09:05:31.000Z</time>
      </trkpt>
      <trkpt lat="47.32224" lon="-2.40675">
        <ele>50.400001525879</ele>
        <time>2022-08-18T09:05:32.000Z</time>
      </trkpt>
      <trkpt lat="47.32223" lon="-2.40685">
        <ele>50</ele>
        <time>2022-08-18T09:05:33.000Z</time>
      </trkpt>
      <trkpt lat="47.32222" lon="-2.40694">
        <ele>49.599998474121</ele>
        <time>2022-08-18T09:05:34.000Z</time>
      </trkpt>
      <trkpt lat="47.32221" lon="-2.40703">
        <ele>49.200000762939</ele>
        <time>2022-08-18T09:05:35.000Z</time>
      </trkpt>
      <trkpt lat="47.32217" lon="-2.40754">
        <ele>49.200000762939</ele>
        <time>2022-08-18T09:05:42.000Z</time>
      </trkpt>
      <trkpt lat="47.32214" lon="-2.40793">
        <ele>49.200000762939</ele>
        <time>2022-08-18T09:05:48.000Z</time>
      </trkpt>
      <trkpt lat="47.32212" lon="-2.40797">
        <ele>49.200000762939</ele>
        <time>2022-08-18T09:05:49.000Z</time>
      </trkpt>
      <trkpt lat="47.32207" lon="-2.40798">
        <ele>49.200000762939</ele>
        <time>2022-08-18T09:05:51.000Z</time>
      </trkpt>
      <trkpt lat="47.32204" lon="-2.40791">
        <ele>49.200000762939</ele>
        <time>2022-08-18T09:05:54.000Z</time>
      </trkpt>
      <trkpt lat="47.32204" lon="-2.40793">
        <ele>49.200000762939</ele>
        <time>2022-08-18T09:05:57.000Z</time>
      </trkpt>
      <trkpt lat="47.32208" lon="-2.40808">
        <ele>49.200000762939</ele>
        <time>2022-08-18T09:06:01.000Z</time>
      </trkpt>
      <trkpt lat="47.32208" lon="-2.40813">
        <ele>49.200000762939</ele>
        <time>2022-08-18T09:06:02.000Z</time>
      </trkpt>
      <trkpt lat="47.32204" lon="-2.40836">
        <ele>49.200000762939</ele>
        <time>2022-08-18T09:06:07.000Z</time>
      </trkpt>
      <trkpt lat="47.32199" lon="-2.40853">
        <ele>49.200000762939</ele>
        <time>2022-08-18T09:06:10.000Z</time>
      </trkpt>
      <trkpt lat="47.32199" lon="-2.40861">
        <ele>49.200000762939</ele>
        <time>2022-08-18T09:06:11.000Z</time>
      </trkpt>
      <trkpt lat="47.32202" lon="-2.40891">
        <ele>49.200000762939</ele>
        <time>2022-08-18T09:06:15.000Z</time>
      </trkpt>
      <trkpt lat="47.32204" lon="-2.40908">
        <ele>49.200000762939</ele>
        <time>2022-08-18T09:06:17.000Z</time>
      </trkpt>
      <trkpt lat="47.32206" lon="-2.40934">
        <ele>49.200000762939</ele>
        <time>2022-08-18T09:06:20.000Z</time>
      </trkpt>
      <trkpt lat="47.32202" lon="-2.40953">
        <ele>49.200000762939</ele>
        <time>2022-08-18T09:06:22.000Z</time>
      </trkpt>
      <trkpt lat="47.322" lon="-2.40972">
        <ele>49.200000762939</ele>
        <time>2022-08-18T09:06:24.000Z</time>
      </trkpt>
      <trkpt lat="47.32199" lon="-2.40981">
        <ele>48.599998474121</ele>
        <time>2022-08-18T09:06:25.000Z</time>
      </trkpt>
      <trkpt lat="47.32199" lon="-2.40991">
        <ele>48.200000762939</ele>
        <time>2022-08-18T09:06:26.000Z</time>
      </trkpt>
      <trkpt lat="47.32198" lon="-2.41">
        <ele>47.799999237061</ele>
        <time>2022-08-18T09:06:27.000Z</time>
      </trkpt>
      <trkpt lat="47.32196" lon="-2.4101">
        <ele>47.400001525879</ele>
        <time>2022-08-18T09:06:28.000Z</time>
      </trkpt>
      <trkpt lat="47.32194" lon="-2.41019">
        <ele>47</ele>
        <time>2022-08-18T09:06:29.000Z</time>
      </trkpt>
      <trkpt lat="47.32177" lon="-2.41073">
        <ele>47</ele>
        <time>2022-08-18T09:06:35.000Z</time>
      </trkpt>
      <trkpt lat="47.32162" lon="-2.41137">
        <ele>47</ele>
        <time>2022-08-18T09:06:42.000Z</time>
      </trkpt>
      <trkpt lat="47.32152" lon="-2.41198">
        <ele>46.599998474121</ele>
        <time>2022-08-18T09:06:49.000Z</time>
      </trkpt>
      <trkpt lat="47.3215" lon="-2.41207">
        <ele>46.200000762939</ele>
        <time>2022-08-18T09:06:50.000Z</time>
      </trkpt>
      <trkpt lat="47.32149" lon="-2.41216">
        <ele>45.599998474121</ele>
        <time>2022-08-18T09:06:51.000Z</time>
      </trkpt>
      <trkpt lat="47.32147" lon="-2.41224">
        <ele>45.200000762939</ele>
        <time>2022-08-18T09:06:52.000Z</time>
      </trkpt>
      <trkpt lat="47.32145" lon="-2.41232">
        <ele>44.799999237061</ele>
        <time>2022-08-18T09:06:53.000Z</time>
      </trkpt>
      <trkpt lat="47.32143" lon="-2.41241">
        <ele>44.799999237061</ele>
        <time>2022-08-18T09:06:54.000Z</time>
      </trkpt>
      <trkpt lat="47.32141" lon="-2.41264">
        <ele>44.799999237061</ele>
        <time>2022-08-18T09:06:57.000Z</time>
      </trkpt>
      <trkpt lat="47.3214" lon="-2.41287">
        <ele>44.799999237061</ele>
        <time>2022-08-18T09:07:00.000Z</time>
      </trkpt>
      <trkpt lat="47.32139" lon="-2.41294">
        <ele>44.799999237061</ele>
        <time>2022-08-18T09:07:01.000Z</time>
      </trkpt>
      <trkpt lat="47.3213" lon="-2.41305">
        <ele>44.799999237061</ele>
        <time>2022-08-18T09:07:04.000Z</time>
      </trkpt>
      <trkpt lat="47.32121" lon="-2.41308">
        <ele>44.799999237061</ele>
        <time>2022-08-18T09:07:06.000Z</time>
      </trkpt>
      <trkpt lat="47.32106" lon="-2.41314">
        <ele>44.799999237061</ele>
        <time>2022-08-18T09:07:09.000Z</time>
      </trkpt>
      <trkpt lat="47.32102" lon="-2.41319">
        <ele>44.799999237061</ele>
        <time>2022-08-18T09:07:10.000Z</time>
      </trkpt>
      <trkpt lat="47.3209" lon="-2.41342">
        <ele>44.799999237061</ele>
        <time>2022-08-18T09:07:14.000Z</time>
      </trkpt>
      <trkpt lat="47.32079" lon="-2.41355">
        <ele>44.799999237061</ele>
        <time>2022-08-18T09:07:17.000Z</time>
      </trkpt>
      <trkpt lat="47.32074" lon="-2.41358">
        <ele>44.799999237061</ele>
        <time>2022-08-18T09:07:18.000Z</time>
      </trkpt>
      <trkpt lat="47.32069" lon="-2.41362">
        <ele>44.799999237061</ele>
        <time>2022-08-18T09:07:19.000Z</time>
      </trkpt>
      <trkpt lat="47.32055" lon="-2.41372">
        <ele>44.799999237061</ele>
        <time>2022-08-18T09:07:22.000Z</time>
      </trkpt>
      <trkpt lat="47.32053" lon="-2.41375">
        <ele>44.799999237061</ele>
        <time>2022-08-18T09:07:24.000Z</time>
      </trkpt>
      <trkpt lat="47.3205" lon="-2.41383">
        <ele>44.799999237061</ele>
        <time>2022-08-18T09:07:28.000Z</time>
      </trkpt>
      <trkpt lat="47.32047" lon="-2.41385">
        <ele>44.799999237061</ele>
        <time>2022-08-18T09:07:29.000Z</time>
      </trkpt>
      <trkpt lat="47.32037" lon="-2.41388">
        <ele>44.799999237061</ele>
        <time>2022-08-18T09:07:32.000Z</time>
      </trkpt>
      <trkpt lat="47.32034" lon="-2.41388">
        <ele>44.799999237061</ele>
        <time>2022-08-18T09:07:33.000Z</time>
      </trkpt>
      <trkpt lat="47.32031" lon="-2.4139">
        <ele>44.799999237061</ele>
        <time>2022-08-18T09:07:34.000Z</time>
      </trkpt>
      <trkpt lat="47.32028" lon="-2.41392">
        <ele>44.400001525879</ele>
        <time>2022-08-18T09:07:35.000Z</time>
      </trkpt>
      <trkpt lat="47.32026" lon="-2.41394">
        <ele>44</ele>
        <time>2022-08-18T09:07:36.000Z</time>
      </trkpt>
      <trkpt lat="47.32024" lon="-2.41397">
        <ele>43.599998474121</ele>
        <time>2022-08-18T09:07:37.000Z</time>
      </trkpt>
      <trkpt lat="47.32023" lon="-2.41399">
        <ele>43.200000762939</ele>
        <time>2022-08-18T09:07:38.000Z</time>
      </trkpt>
      <trkpt lat="47.32021" lon="-2.41401">
        <ele>42.799999237061</ele>
        <time>2022-08-18T09:07:39.000Z</time>
      </trkpt>
      <trkpt lat="47.32019" lon="-2.41406">
        <ele>42.799999237061</ele>
        <time>2022-08-18T09:07:41.000Z</time>
      </trkpt>
      <trkpt lat="47.32017" lon="-2.41408">
        <ele>42.799999237061</ele>
        <time>2022-08-18T09:07:42.000Z</time>
      </trkpt>
      <trkpt lat="47.32016" lon="-2.41412">
        <ele>42.799999237061</ele>
        <time>2022-08-18T09:07:44.000Z</time>
      </trkpt>
      <trkpt lat="47.32015" lon="-2.41416">
        <ele>42.799999237061</ele>
        <time>2022-08-18T09:07:47.000Z</time>
      </trkpt>
      <trkpt lat="47.32016" lon="-2.41416">
        <ele>42.799999237061</ele>
        <time>2022-08-18T09:07:48.000Z</time>
      </trkpt>
      <trkpt lat="47.32016" lon="-2.41419">
        <ele>42.799999237061</ele>
        <time>2022-08-18T09:07:58.000Z</time>
      </trkpt>
      <trkpt lat="47.32017" lon="-2.41432">
        <ele>42.799999237061</ele>
        <time>2022-08-18T09:07:59.000Z</time>
      </trkpt>
      <trkpt lat="47.32017" lon="-2.41445">
        <ele>42.799999237061</ele>
        <time>2022-08-18T09:08:04.000Z</time>
      </trkpt>
      <trkpt lat="47.32016" lon="-2.41457">
        <ele>42.799999237061</ele>
        <time>2022-08-18T09:08:06.000Z</time>
      </trkpt>
      <trkpt lat="47.32021" lon="-2.41466">
        <ele>42.799999237061</ele>
        <time>2022-08-18T09:08:09.000Z</time>
      </trkpt>
      <trkpt lat="47.32031" lon="-2.41463">
        <ele>42.799999237061</ele>
        <time>2022-08-18T09:08:13.000Z</time>
      </trkpt>
      <trkpt lat="47.3205" lon="-2.41466">
        <ele>42.799999237061</ele>
        <time>2022-08-18T09:08:18.000Z</time>
      </trkpt>
      <trkpt lat="47.32059" lon="-2.41469">
        <ele>42.799999237061</ele>
        <time>2022-08-18T09:08:21.000Z</time>
      </trkpt>
      <trkpt lat="47.32062" lon="-2.41469">
        <ele>42.799999237061</ele>
        <time>2022-08-18T09:08:22.000Z</time>
      </trkpt>
      <trkpt lat="47.32072" lon="-2.41469">
        <ele>43.200000762939</ele>
        <time>2022-08-18T09:08:25.000Z</time>
      </trkpt>
      <trkpt lat="47.32075" lon="-2.41469">
        <ele>43.599998474121</ele>
        <time>2022-08-18T09:08:26.000Z</time>
      </trkpt>
      <trkpt lat="47.32079" lon="-2.4147">
        <ele>44</ele>
        <time>2022-08-18T09:08:27.000Z</time>
      </trkpt>
      <trkpt lat="47.32082" lon="-2.41469">
        <ele>44.599998474121</ele>
        <time>2022-08-18T09:08:28.000Z</time>
      </trkpt>
      <trkpt lat="47.32085" lon="-2.41469">
        <ele>45</ele>
        <time>2022-08-18T09:08:29.000Z</time>
      </trkpt>
      <trkpt lat="47.32107" lon="-2.41467">
        <ele>45</ele>
        <time>2022-08-18T09:08:36.000Z</time>
      </trkpt>
      <trkpt lat="47.32117" lon="-2.41468">
        <ele>45.400001525879</ele>
        <time>2022-08-18T09:08:39.000Z</time>
      </trkpt>
      <trkpt lat="47.32119" lon="-2.41469">
        <ele>45.799999237061</ele>
        <time>2022-08-18T09:08:40.000Z</time>
      </trkpt>
      <trkpt lat="47.32122" lon="-2.41469">
        <ele>46.200000762939</ele>
        <time>2022-08-18T09:08:41.000Z</time>
      </trkpt>
      <trkpt lat="47.32125" lon="-2.4147">
        <ele>46.599998474121</ele>
        <time>2022-08-18T09:08:42.000Z</time>
      </trkpt>
      <trkpt lat="47.32129" lon="-2.4147">
        <ele>47</ele>
        <time>2022-08-18T09:08:43.000Z</time>
      </trkpt>
      <trkpt lat="47.32143" lon="-2.41477">
        <ele>47</ele>
        <time>2022-08-18T09:08:48.000Z</time>
      </trkpt>
      <trkpt lat="47.32155" lon="-2.41475">
        <ele>47</ele>
        <time>2022-08-18T09:08:53.000Z</time>
      </trkpt>
      <trkpt lat="47.3216" lon="-2.41476">
        <ele>47.400001525879</ele>
        <time>2022-08-18T09:08:55.000Z</time>
      </trkpt>
      <trkpt lat="47.32162" lon="-2.41477">
        <ele>47.799999237061</ele>
        <time>2022-08-18T09:08:56.000Z</time>
      </trkpt>
      <trkpt lat="47.32165" lon="-2.41478">
        <ele>48.200000762939</ele>
        <time>2022-08-18T09:08:57.000Z</time>
      </trkpt>
      <trkpt lat="47.32167" lon="-2.41479">
        <ele>48.599998474121</ele>
        <time>2022-08-18T09:08:58.000Z</time>
      </trkpt>
      <trkpt lat="47.32169" lon="-2.4148">
        <ele>49</ele>
        <time>2022-08-18T09:08:59.000Z</time>
      </trkpt>
      <trkpt lat="47.3218" lon="-2.41484">
        <ele>49</ele>
        <time>2022-08-18T09:09:03.000Z</time>
      </trkpt>
      <trkpt lat="47.32194" lon="-2.41483">
        <ele>49</ele>
        <time>2022-08-18T09:09:08.000Z</time>
      </trkpt>
      <trkpt lat="47.32207" lon="-2.41486">
        <ele>49</ele>
        <time>2022-08-18T09:09:13.000Z</time>
      </trkpt>
      <trkpt lat="47.32219" lon="-2.41489">
        <ele>49</ele>
        <time>2022-08-18T09:09:17.000Z</time>
      </trkpt>
      <trkpt lat="47.32239" lon="-2.41493">
        <ele>49</ele>
        <time>2022-08-18T09:09:24.000Z</time>
      </trkpt>
      <trkpt lat="47.32255" lon="-2.41498">
        <ele>49</ele>
        <time>2022-08-18T09:09:30.000Z</time>
      </trkpt>
      <trkpt lat="47.32257" lon="-2.41504">
        <ele>49.400001525879</ele>
        <time>2022-08-18T09:09:33.000Z</time>
      </trkpt>
      <trkpt lat="47.32258" lon="-2.41506">
        <ele>49.799999237061</ele>
        <time>2022-08-18T09:09:34.000Z</time>
      </trkpt>
      <trkpt lat="47.32259" lon="-2.41508">
        <ele>50.200000762939</ele>
        <time>2022-08-18T09:09:35.000Z</time>
      </trkpt>
      <trkpt lat="47.32259" lon="-2.41508">
        <ele>51</ele>
        <time>2022-08-18T09:09:36.000Z</time>
      </trkpt>
      <trkpt lat="47.32259" lon="-2.41508">
        <ele>51</ele>
        <time>2022-08-18T09:09:37.000Z</time>
      </trkpt>
      <trkpt lat="47.32261" lon="-2.41512">
        <ele>51</ele>
        <time>2022-08-18T09:09:57.000Z</time>
      </trkpt>
      <trkpt lat="47.32267" lon="-2.41529">
        <ele>51</ele>
        <time>2022-08-18T09:10:02.000Z</time>
      </trkpt>
      <trkpt lat="47.32271" lon="-2.41547">
        <ele>51</ele>
        <time>2022-08-18T09:10:06.000Z</time>
      </trkpt>
      <trkpt lat="47.3228" lon="-2.41567">
        <ele>51</ele>
        <time>2022-08-18T09:10:10.000Z</time>
      </trkpt>
      <trkpt lat="47.32283" lon="-2.41573">
        <ele>51</ele>
        <time>2022-08-18T09:10:11.000Z</time>
      </trkpt>
      <trkpt lat="47.32286" lon="-2.41579">
        <ele>51</ele>
        <time>2022-08-18T09:10:12.000Z</time>
      </trkpt>
      <trkpt lat="47.3229" lon="-2.41598">
        <ele>51</ele>
        <time>2022-08-18T09:10:15.000Z</time>
      </trkpt>
      <trkpt lat="47.32293" lon="-2.41603">
        <ele>51</ele>
        <time>2022-08-18T09:10:16.000Z</time>
      </trkpt>
      <trkpt lat="47.32302" lon="-2.41617">
        <ele>51</ele>
        <time>2022-08-18T09:10:19.000Z</time>
      </trkpt>
      <trkpt lat="47.32304" lon="-2.41627">
        <ele>51</ele>
        <time>2022-08-18T09:10:21.000Z</time>
      </trkpt>
      <trkpt lat="47.32302" lon="-2.41632">
        <ele>51</ele>
        <time>2022-08-18T09:10:22.000Z</time>
      </trkpt>
      <trkpt lat="47.32297" lon="-2.41645">
        <ele>51</ele>
        <time>2022-08-18T09:10:25.000Z</time>
      </trkpt>
      <trkpt lat="47.32295" lon="-2.41655">
        <ele>51</ele>
        <time>2022-08-18T09:10:27.000Z</time>
      </trkpt>
      <trkpt lat="47.32297" lon="-2.41683">
        <ele>51</ele>
        <time>2022-08-18T09:10:32.000Z</time>
      </trkpt>
      <trkpt lat="47.32296" lon="-2.41712">
        <ele>51</ele>
        <time>2022-08-18T09:10:36.000Z</time>
      </trkpt>
      <trkpt lat="47.32294" lon="-2.41721">
        <ele>51</ele>
        <time>2022-08-18T09:10:37.000Z</time>
      </trkpt>
      <trkpt lat="47.32288" lon="-2.41736">
        <ele>50.599998474121</ele>
        <time>2022-08-18T09:10:39.000Z</time>
      </trkpt>
      <trkpt lat="47.32284" lon="-2.41743">
        <ele>50.200000762939</ele>
        <time>2022-08-18T09:10:40.000Z</time>
      </trkpt>
      <trkpt lat="47.32281" lon="-2.4175">
        <ele>49.799999237061</ele>
        <time>2022-08-18T09:10:41.000Z</time>
      </trkpt>
      <trkpt lat="47.3228" lon="-2.41758">
        <ele>49.400001525879</ele>
        <time>2022-08-18T09:10:42.000Z</time>
      </trkpt>
      <trkpt lat="47.3228" lon="-2.41766">
        <ele>49</ele>
        <time>2022-08-18T09:10:43.000Z</time>
      </trkpt>
      <trkpt lat="47.32273" lon="-2.41798">
        <ele>49</ele>
        <time>2022-08-18T09:10:47.000Z</time>
      </trkpt>
      <trkpt lat="47.32265" lon="-2.41812">
        <ele>49</ele>
        <time>2022-08-18T09:10:49.000Z</time>
      </trkpt>
      <trkpt lat="47.32253" lon="-2.4184">
        <ele>49</ele>
        <time>2022-08-18T09:10:53.000Z</time>
      </trkpt>
      <trkpt lat="47.32245" lon="-2.4186">
        <ele>49</ele>
        <time>2022-08-18T09:10:56.000Z</time>
      </trkpt>
      <trkpt lat="47.32245" lon="-2.41865">
        <ele>49</ele>
        <time>2022-08-18T09:10:57.000Z</time>
      </trkpt>
      <trkpt lat="47.32246" lon="-2.41868">
        <ele>48.599998474121</ele>
        <time>2022-08-18T09:10:58.000Z</time>
      </trkpt>
      <trkpt lat="47.32247" lon="-2.41871">
        <ele>48.200000762939</ele>
        <time>2022-08-18T09:10:59.000Z</time>
      </trkpt>
      <trkpt lat="47.32249" lon="-2.41876">
        <ele>47.799999237061</ele>
        <time>2022-08-18T09:11:00.000Z</time>
      </trkpt>
      <trkpt lat="47.32251" lon="-2.41881">
        <ele>47.400001525879</ele>
        <time>2022-08-18T09:11:01.000Z</time>
      </trkpt>
      <trkpt lat="47.32253" lon="-2.41885">
        <ele>47</ele>
        <time>2022-08-18T09:11:02.000Z</time>
      </trkpt>
      <trkpt lat="47.32264" lon="-2.41902">
        <ele>47</ele>
        <time>2022-08-18T09:11:06.000Z</time>
      </trkpt>
      <trkpt lat="47.3228" lon="-2.41931">
        <ele>47</ele>
        <time>2022-08-18T09:11:12.000Z</time>
      </trkpt>
      <trkpt lat="47.32284" lon="-2.41935">
        <ele>47</ele>
        <time>2022-08-18T09:11:13.000Z</time>
      </trkpt>
      <trkpt lat="47.32297" lon="-2.41958">
        <ele>47</ele>
        <time>2022-08-18T09:11:17.000Z</time>
      </trkpt>
      <trkpt lat="47.32301" lon="-2.41962">
        <ele>47</ele>
        <time>2022-08-18T09:11:18.000Z</time>
      </trkpt>
      <trkpt lat="47.32317" lon="-2.41978">
        <ele>47</ele>
        <time>2022-08-18T09:11:22.000Z</time>
      </trkpt>
      <trkpt lat="47.32325" lon="-2.41995">
        <ele>47</ele>
        <time>2022-08-18T09:11:25.000Z</time>
      </trkpt>
      <trkpt lat="47.32336" lon="-2.42005">
        <ele>47</ele>
        <time>2022-08-18T09:11:28.000Z</time>
      </trkpt>
      <trkpt lat="47.32339" lon="-2.42009">
        <ele>47</ele>
        <time>2022-08-18T09:11:29.000Z</time>
      </trkpt>
      <trkpt lat="47.32346" lon="-2.42017">
        <ele>47.400001525879</ele>
        <time>2022-08-18T09:11:31.000Z</time>
      </trkpt>
      <trkpt lat="47.3235" lon="-2.42022">
        <ele>47.799999237061</ele>
        <time>2022-08-18T09:11:32.000Z</time>
      </trkpt>
      <trkpt lat="47.32353" lon="-2.42025">
        <ele>48.200000762939</ele>
        <time>2022-08-18T09:11:33.000Z</time>
      </trkpt>
      <trkpt lat="47.32358" lon="-2.42029">
        <ele>48.599998474121</ele>
        <time>2022-08-18T09:11:34.000Z</time>
      </trkpt>
      <trkpt lat="47.32361" lon="-2.42033">
        <ele>49</ele>
        <time>2022-08-18T09:11:35.000Z</time>
      </trkpt>
      <trkpt lat="47.32375" lon="-2.42049">
        <ele>49</ele>
        <time>2022-08-18T09:11:39.000Z</time>
      </trkpt>
      <trkpt lat="47.32392" lon="-2.4207">
        <ele>49</ele>
        <time>2022-08-18T09:11:44.000Z</time>
      </trkpt>
      <trkpt lat="47.32396" lon="-2.42073">
        <ele>49</ele>
        <time>2022-08-18T09:11:45.000Z</time>
      </trkpt>
      <trkpt lat="47.32404" lon="-2.4208">
        <ele>49.400001525879</ele>
        <time>2022-08-18T09:11:47.000Z</time>
      </trkpt>
      <trkpt lat="47.32408" lon="-2.42083">
        <ele>49.799999237061</ele>
        <time>2022-08-18T09:11:48.000Z</time>
      </trkpt>
      <trkpt lat="47.32412" lon="-2.42087">
        <ele>50.200000762939</ele>
        <time>2022-08-18T09:11:49.000Z</time>
      </trkpt>
      <trkpt lat="47.32416" lon="-2.4209">
        <ele>50.799999237061</ele>
        <time>2022-08-18T09:11:50.000Z</time>
      </trkpt>
      <trkpt lat="47.32419" lon="-2.42094">
        <ele>51.200000762939</ele>
        <time>2022-08-18T09:11:51.000Z</time>
      </trkpt>
      <trkpt lat="47.3243" lon="-2.42106">
        <ele>51.200000762939</ele>
        <time>2022-08-18T09:11:55.000Z</time>
      </trkpt>
      <trkpt lat="47.32436" lon="-2.42118">
        <ele>51.200000762939</ele>
        <time>2022-08-18T09:12:00.000Z</time>
      </trkpt>
      <trkpt lat="47.32435" lon="-2.42119">
        <ele>51.200000762939</ele>
        <time>2022-08-18T09:12:01.000Z</time>
      </trkpt>
      <trkpt lat="47.3243" lon="-2.42136">
        <ele>51.200000762939</ele>
        <time>2022-08-18T09:12:06.000Z</time>
      </trkpt>
      <trkpt lat="47.32421" lon="-2.42156">
        <ele>51.200000762939</ele>
        <time>2022-08-18T09:12:10.000Z</time>
      </trkpt>
      <trkpt lat="47.32418" lon="-2.42162">
        <ele>51.200000762939</ele>
        <time>2022-08-18T09:12:11.000Z</time>
      </trkpt>
      <trkpt lat="47.3241" lon="-2.42173">
        <ele>51.200000762939</ele>
        <time>2022-08-18T09:12:13.000Z</time>
      </trkpt>
      <trkpt lat="47.32397" lon="-2.42188">
        <ele>51.200000762939</ele>
        <time>2022-08-18T09:12:16.000Z</time>
      </trkpt>
      <trkpt lat="47.32371" lon="-2.42217">
        <ele>51.200000762939</ele>
        <time>2022-08-18T09:12:22.000Z</time>
      </trkpt>
      <trkpt lat="47.32344" lon="-2.42256">
        <ele>51.200000762939</ele>
        <time>2022-08-18T09:12:29.000Z</time>
      </trkpt>
      <trkpt lat="47.3232" lon="-2.42298">
        <ele>51.200000762939</ele>
        <time>2022-08-18T09:12:36.000Z</time>
      </trkpt>
      <trkpt lat="47.32318" lon="-2.42305">
        <ele>51.200000762939</ele>
        <time>2022-08-18T09:12:37.000Z</time>
      </trkpt>
      <trkpt lat="47.32319" lon="-2.42322">
        <ele>51.200000762939</ele>
        <time>2022-08-18T09:12:39.000Z</time>
      </trkpt>
      <trkpt lat="47.32321" lon="-2.42338">
        <ele>51.200000762939</ele>
        <time>2022-08-18T09:12:41.000Z</time>
      </trkpt>
      <trkpt lat="47.32324" lon="-2.42372">
        <ele>51.200000762939</ele>
        <time>2022-08-18T09:12:45.000Z</time>
      </trkpt>
      <trkpt lat="47.32326" lon="-2.42404">
        <ele>50.799999237061</ele>
        <time>2022-08-18T09:12:49.000Z</time>
      </trkpt>
      <trkpt lat="47.32325" lon="-2.42412">
        <ele>50.400001525879</ele>
        <time>2022-08-18T09:12:50.000Z</time>
      </trkpt>
      <trkpt lat="47.32323" lon="-2.42419">
        <ele>50</ele>
        <time>2022-08-18T09:12:51.000Z</time>
      </trkpt>
      <trkpt lat="47.32319" lon="-2.42424">
        <ele>49.599998474121</ele>
        <time>2022-08-18T09:12:52.000Z</time>
      </trkpt>
      <trkpt lat="47.32315" lon="-2.42429">
        <ele>49</ele>
        <time>2022-08-18T09:12:53.000Z</time>
      </trkpt>
      <trkpt lat="47.32311" lon="-2.42434">
        <ele>49</ele>
        <time>2022-08-18T09:12:54.000Z</time>
      </trkpt>
      <trkpt lat="47.32308" lon="-2.42439">
        <ele>49</ele>
        <time>2022-08-18T09:12:55.000Z</time>
      </trkpt>
      <trkpt lat="47.32301" lon="-2.42452">
        <ele>49</ele>
        <time>2022-08-18T09:12:57.000Z</time>
      </trkpt>
      <trkpt lat="47.32297" lon="-2.42465">
        <ele>49</ele>
        <time>2022-08-18T09:12:59.000Z</time>
      </trkpt>
      <trkpt lat="47.32274" lon="-2.42518">
        <ele>48.599998474121</ele>
        <time>2022-08-18T09:13:07.000Z</time>
      </trkpt>
      <trkpt lat="47.32271" lon="-2.42526">
        <ele>48.200000762939</ele>
        <time>2022-08-18T09:13:08.000Z</time>
      </trkpt>
      <trkpt lat="47.32267" lon="-2.42534">
        <ele>47.599998474121</ele>
        <time>2022-08-18T09:13:09.000Z</time>
      </trkpt>
      <trkpt lat="47.32263" lon="-2.42542">
        <ele>47.200000762939</ele>
        <time>2022-08-18T09:13:10.000Z</time>
      </trkpt>
      <trkpt lat="47.32258" lon="-2.42551">
        <ele>46.599998474121</ele>
        <time>2022-08-18T09:13:11.000Z</time>
      </trkpt>
      <trkpt lat="47.32254" lon="-2.42561">
        <ele>46</ele>
        <time>2022-08-18T09:13:12.000Z</time>
      </trkpt>
      <trkpt lat="47.32249" lon="-2.4257">
        <ele>45.400001525879</ele>
        <time>2022-08-18T09:13:13.000Z</time>
      </trkpt>
      <trkpt lat="47.32245" lon="-2.4258">
        <ele>44.799999237061</ele>
        <time>2022-08-18T09:13:14.000Z</time>
      </trkpt>
      <trkpt lat="47.3224" lon="-2.42588">
        <ele>44.200000762939</ele>
        <time>2022-08-18T09:13:15.000Z</time>
      </trkpt>
      <trkpt lat="47.32235" lon="-2.42596">
        <ele>43.799999237061</ele>
        <time>2022-08-18T09:13:16.000Z</time>
      </trkpt>
      <trkpt lat="47.3223" lon="-2.42603">
        <ele>43.400001525879</ele>
        <time>2022-08-18T09:13:17.000Z</time>
      </trkpt>
      <trkpt lat="47.32225" lon="-2.42611">
        <ele>43</ele>
        <time>2022-08-18T09:13:18.000Z</time>
      </trkpt>
      <trkpt lat="47.3222" lon="-2.42618">
        <ele>42</ele>
        <time>2022-08-18T09:13:19.000Z</time>
      </trkpt>
      <trkpt lat="47.32214" lon="-2.42626">
        <ele>41.599998474121</ele>
        <time>2022-08-18T09:13:20.000Z</time>
      </trkpt>
      <trkpt lat="47.32208" lon="-2.42634">
        <ele>41.200000762939</ele>
        <time>2022-08-18T09:13:21.000Z</time>
      </trkpt>
      <trkpt lat="47.32203" lon="-2.42642">
        <ele>40.799999237061</ele>
        <time>2022-08-18T09:13:22.000Z</time>
      </trkpt>
      <trkpt lat="47.32197" lon="-2.42649">
        <ele>40.400001525879</ele>
        <time>2022-08-18T09:13:23.000Z</time>
      </trkpt>
      <trkpt lat="47.32184" lon="-2.42666">
        <ele>40.400001525879</ele>
        <time>2022-08-18T09:13:25.000Z</time>
      </trkpt>
      <trkpt lat="47.32178" lon="-2.42675">
        <ele>40</ele>
        <time>2022-08-18T09:13:26.000Z</time>
      </trkpt>
      <trkpt lat="47.32172" lon="-2.42684">
        <ele>39.400001525879</ele>
        <time>2022-08-18T09:13:27.000Z</time>
      </trkpt>
      <trkpt lat="47.32166" lon="-2.42693">
        <ele>39</ele>
        <time>2022-08-18T09:13:28.000Z</time>
      </trkpt>
      <trkpt lat="47.3216" lon="-2.42702">
        <ele>38.400001525879</ele>
        <time>2022-08-18T09:13:29.000Z</time>
      </trkpt>
      <trkpt lat="47.32154" lon="-2.42711">
        <ele>38</ele>
        <time>2022-08-18T09:13:30.000Z</time>
      </trkpt>
      <trkpt lat="47.32148" lon="-2.42719">
        <ele>37.599998474121</ele>
        <time>2022-08-18T09:13:31.000Z</time>
      </trkpt>
      <trkpt lat="47.32142" lon="-2.42728">
        <ele>37</ele>
        <time>2022-08-18T09:13:32.000Z</time>
      </trkpt>
      <trkpt lat="47.32135" lon="-2.42736">
        <ele>36.599998474121</ele>
        <time>2022-08-18T09:13:33.000Z</time>
      </trkpt>
      <trkpt lat="47.32129" lon="-2.42745">
        <ele>36.200000762939</ele>
        <time>2022-08-18T09:13:34.000Z</time>
      </trkpt>
      <trkpt lat="47.32122" lon="-2.42752">
        <ele>35.799999237061</ele>
        <time>2022-08-18T09:13:35.000Z</time>
      </trkpt>
      <trkpt lat="47.32107" lon="-2.42766">
        <ele>35.799999237061</ele>
        <time>2022-08-18T09:13:37.000Z</time>
      </trkpt>
      <trkpt lat="47.32099" lon="-2.4277">
        <ele>35.400001525879</ele>
        <time>2022-08-18T09:13:38.000Z</time>
      </trkpt>
      <trkpt lat="47.3209" lon="-2.42774">
        <ele>35</ele>
        <time>2022-08-18T09:13:39.000Z</time>
      </trkpt>
      <trkpt lat="47.32082" lon="-2.42778">
        <ele>34.400001525879</ele>
        <time>2022-08-18T09:13:40.000Z</time>
      </trkpt>
      <trkpt lat="47.32074" lon="-2.42782">
        <ele>34</ele>
        <time>2022-08-18T09:13:41.000Z</time>
      </trkpt>
      <trkpt lat="47.32065" lon="-2.42786">
        <ele>33.599998474121</ele>
        <time>2022-08-18T09:13:42.000Z</time>
      </trkpt>
      <trkpt lat="47.32057" lon="-2.4279">
        <ele>33.599998474121</ele>
        <time>2022-08-18T09:13:43.000Z</time>
      </trkpt>
      <trkpt lat="47.32043" lon="-2.42799">
        <ele>33.200000762939</ele>
        <time>2022-08-18T09:13:45.000Z</time>
      </trkpt>
      <trkpt lat="47.32037" lon="-2.42804">
        <ele>32.799999237061</ele>
        <time>2022-08-18T09:13:46.000Z</time>
      </trkpt>
      <trkpt lat="47.32031" lon="-2.42811">
        <ele>32.400001525879</ele>
        <time>2022-08-18T09:13:47.000Z</time>
      </trkpt>
      <trkpt lat="47.32027" lon="-2.42818">
        <ele>31.799999237061</ele>
        <time>2022-08-18T09:13:48.000Z</time>
      </trkpt>
      <trkpt lat="47.32023" lon="-2.42824">
        <ele>31.39999961853</ele>
        <time>2022-08-18T09:13:49.000Z</time>
      </trkpt>
      <trkpt lat="47.32017" lon="-2.42837">
        <ele>31.39999961853</ele>
        <time>2022-08-18T09:13:51.000Z</time>
      </trkpt>
      <trkpt lat="47.32007" lon="-2.42871">
        <ele>31</ele>
        <time>2022-08-18T09:13:55.000Z</time>
      </trkpt>
      <trkpt lat="47.32005" lon="-2.4288">
        <ele>30.60000038147</ele>
        <time>2022-08-18T09:13:56.000Z</time>
      </trkpt>
      <trkpt lat="47.32004" lon="-2.42889">
        <ele>30.200000762939</ele>
        <time>2022-08-18T09:13:57.000Z</time>
      </trkpt>
      <trkpt lat="47.32003" lon="-2.42898">
        <ele>29.799999237061</ele>
        <time>2022-08-18T09:13:58.000Z</time>
      </trkpt>
      <trkpt lat="47.32002" lon="-2.42906">
        <ele>29.39999961853</ele>
        <time>2022-08-18T09:13:59.000Z</time>
      </trkpt>
      <trkpt lat="47.32002" lon="-2.42914">
        <ele>29.39999961853</ele>
        <time>2022-08-18T09:14:00.000Z</time>
      </trkpt>
      <trkpt lat="47.31999" lon="-2.42945">
        <ele>29.799999237061</ele>
        <time>2022-08-18T09:14:04.000Z</time>
      </trkpt>
      <trkpt lat="47.31998" lon="-2.42953">
        <ele>30.39999961853</ele>
        <time>2022-08-18T09:14:05.000Z</time>
      </trkpt>
      <trkpt lat="47.31998" lon="-2.4296">
        <ele>30.799999237061</ele>
        <time>2022-08-18T09:14:06.000Z</time>
      </trkpt>
      <trkpt lat="47.31998" lon="-2.42967">
        <ele>31.200000762939</ele>
        <time>2022-08-18T09:14:07.000Z</time>
      </trkpt>
      <trkpt lat="47.31998" lon="-2.42974">
        <ele>31.60000038147</ele>
        <time>2022-08-18T09:14:08.000Z</time>
      </trkpt>
      <trkpt lat="47.31998" lon="-2.43014">
        <ele>31.60000038147</ele>
        <time>2022-08-18T09:14:13.000Z</time>
      </trkpt>
      <trkpt lat="47.32004" lon="-2.43051">
        <ele>31.200000762939</ele>
        <time>2022-08-18T09:14:17.000Z</time>
      </trkpt>
      <trkpt lat="47.32006" lon="-2.4306">
        <ele>30.799999237061</ele>
        <time>2022-08-18T09:14:18.000Z</time>
      </trkpt>
      <trkpt lat="47.32009" lon="-2.4307">
        <ele>30.39999961853</ele>
        <time>2022-08-18T09:14:19.000Z</time>
      </trkpt>
      <trkpt lat="47.32011" lon="-2.43079">
        <ele>30</ele>
        <time>2022-08-18T09:14:20.000Z</time>
      </trkpt>
      <trkpt lat="47.32013" lon="-2.43089">
        <ele>29.39999961853</ele>
        <time>2022-08-18T09:14:21.000Z</time>
      </trkpt>
      <trkpt lat="47.32021" lon="-2.43129">
        <ele>29</ele>
        <time>2022-08-18T09:14:25.000Z</time>
      </trkpt>
      <trkpt lat="47.32023" lon="-2.4314">
        <ele>28.60000038147</ele>
        <time>2022-08-18T09:14:26.000Z</time>
      </trkpt>
      <trkpt lat="47.32025" lon="-2.4315">
        <ele>28.200000762939</ele>
        <time>2022-08-18T09:14:27.000Z</time>
      </trkpt>
      <trkpt lat="47.32027" lon="-2.4316">
        <ele>27.799999237061</ele>
        <time>2022-08-18T09:14:28.000Z</time>
      </trkpt>
      <trkpt lat="47.3203" lon="-2.4317">
        <ele>27.39999961853</ele>
        <time>2022-08-18T09:14:29.000Z</time>
      </trkpt>
      <trkpt lat="47.32038" lon="-2.43205">
        <ele>27.39999961853</ele>
        <time>2022-08-18T09:14:33.000Z</time>
      </trkpt>
      <trkpt lat="47.32043" lon="-2.43228">
        <ele>27.39999961853</ele>
        <time>2022-08-18T09:14:37.000Z</time>
      </trkpt>
      <trkpt lat="47.32042" lon="-2.43232">
        <ele>27.39999961853</ele>
        <time>2022-08-18T09:14:38.000Z</time>
      </trkpt>
      <trkpt lat="47.32036" lon="-2.43239">
        <ele>27.39999961853</ele>
        <time>2022-08-18T09:14:40.000Z</time>
      </trkpt>
      <trkpt lat="47.32029" lon="-2.43246">
        <ele>27.39999961853</ele>
        <time>2022-08-18T09:14:42.000Z</time>
      </trkpt>
      <trkpt lat="47.32025" lon="-2.43249">
        <ele>27</ele>
        <time>2022-08-18T09:14:43.000Z</time>
      </trkpt>
      <trkpt lat="47.3202" lon="-2.43253">
        <ele>26.60000038147</ele>
        <time>2022-08-18T09:14:44.000Z</time>
      </trkpt>
      <trkpt lat="47.32015" lon="-2.43256">
        <ele>26.200000762939</ele>
        <time>2022-08-18T09:14:45.000Z</time>
      </trkpt>
      <trkpt lat="47.3201" lon="-2.43259">
        <ele>25.799999237061</ele>
        <time>2022-08-18T09:14:46.000Z</time>
      </trkpt>
      <trkpt lat="47.32005" lon="-2.43263">
        <ele>25.39999961853</ele>
        <time>2022-08-18T09:14:47.000Z</time>
      </trkpt>
      <trkpt lat="47.31988" lon="-2.43272">
        <ele>25.39999961853</ele>
        <time>2022-08-18T09:14:50.000Z</time>
      </trkpt>
      <trkpt lat="47.31983" lon="-2.43276">
        <ele>25</ele>
        <time>2022-08-18T09:14:51.000Z</time>
      </trkpt>
      <trkpt lat="47.3198" lon="-2.43281">
        <ele>24.60000038147</ele>
        <time>2022-08-18T09:14:52.000Z</time>
      </trkpt>
      <trkpt lat="47.31978" lon="-2.43288">
        <ele>24.200000762939</ele>
        <time>2022-08-18T09:14:53.000Z</time>
      </trkpt>
      <trkpt lat="47.31976" lon="-2.43296">
        <ele>23.799999237061</ele>
        <time>2022-08-18T09:14:54.000Z</time>
      </trkpt>
      <trkpt lat="47.31975" lon="-2.43305">
        <ele>23.39999961853</ele>
        <time>2022-08-18T09:14:55.000Z</time>
      </trkpt>
      <trkpt lat="47.31974" lon="-2.43322">
        <ele>23.39999961853</ele>
        <time>2022-08-18T09:14:57.000Z</time>
      </trkpt>
      <trkpt lat="47.31972" lon="-2.43341">
        <ele>22.799999237061</ele>
        <time>2022-08-18T09:14:59.000Z</time>
      </trkpt>
      <trkpt lat="47.3197" lon="-2.43351">
        <ele>22.39999961853</ele>
        <time>2022-08-18T09:15:00.000Z</time>
      </trkpt>
      <trkpt lat="47.31968" lon="-2.43361">
        <ele>22</ele>
        <time>2022-08-18T09:15:01.000Z</time>
      </trkpt>
      <trkpt lat="47.31965" lon="-2.43371">
        <ele>21.60000038147</ele>
        <time>2022-08-18T09:15:02.000Z</time>
      </trkpt>
      <trkpt lat="47.31962" lon="-2.43381">
        <ele>21.200000762939</ele>
        <time>2022-08-18T09:15:03.000Z</time>
      </trkpt>
      <trkpt lat="47.31952" lon="-2.43411">
        <ele>20.60000038147</ele>
        <time>2022-08-18T09:15:06.000Z</time>
      </trkpt>
      <trkpt lat="47.31948" lon="-2.43421">
        <ele>20.200000762939</ele>
        <time>2022-08-18T09:15:07.000Z</time>
      </trkpt>
      <trkpt lat="47.31944" lon="-2.43432">
        <ele>19.799999237061</ele>
        <time>2022-08-18T09:15:08.000Z</time>
      </trkpt>
      <trkpt lat="47.31941" lon="-2.43442">
        <ele>19.39999961853</ele>
        <time>2022-08-18T09:15:09.000Z</time>
      </trkpt>
      <trkpt lat="47.31937" lon="-2.43453">
        <ele>19</ele>
        <time>2022-08-18T09:15:10.000Z</time>
      </trkpt>
      <trkpt lat="47.31928" lon="-2.43487">
        <ele>18.60000038147</ele>
        <time>2022-08-18T09:15:13.000Z</time>
      </trkpt>
      <trkpt lat="47.31926" lon="-2.43498">
        <ele>18</ele>
        <time>2022-08-18T09:15:14.000Z</time>
      </trkpt>
      <trkpt lat="47.31925" lon="-2.4351">
        <ele>17.60000038147</ele>
        <time>2022-08-18T09:15:15.000Z</time>
      </trkpt>
      <trkpt lat="47.31924" lon="-2.43521">
        <ele>17.200000762939</ele>
        <time>2022-08-18T09:15:16.000Z</time>
      </trkpt>
      <trkpt lat="47.31925" lon="-2.43532">
        <ele>16.60000038147</ele>
        <time>2022-08-18T09:15:17.000Z</time>
      </trkpt>
      <trkpt lat="47.31925" lon="-2.43542">
        <ele>16.60000038147</ele>
        <time>2022-08-18T09:15:18.000Z</time>
      </trkpt>
      <trkpt lat="47.31927" lon="-2.43573">
        <ele>16.200000762939</ele>
        <time>2022-08-18T09:15:21.000Z</time>
      </trkpt>
      <trkpt lat="47.31927" lon="-2.43583">
        <ele>15.800000190735</ele>
        <time>2022-08-18T09:15:22.000Z</time>
      </trkpt>
      <trkpt lat="47.31924" lon="-2.43592">
        <ele>15</ele>
        <time>2022-08-18T09:15:23.000Z</time>
      </trkpt>
      <trkpt lat="47.31919" lon="-2.436">
        <ele>14.39999961853</ele>
        <time>2022-08-18T09:15:24.000Z</time>
      </trkpt>
      <trkpt lat="47.31907" lon="-2.43612">
        <ele>14</ele>
        <time>2022-08-18T09:15:26.000Z</time>
      </trkpt>
      <trkpt lat="47.319" lon="-2.43617">
        <ele>13.60000038147</ele>
        <time>2022-08-18T09:15:27.000Z</time>
      </trkpt>
      <trkpt lat="47.31894" lon="-2.43624">
        <ele>13.199999809265</ele>
        <time>2022-08-18T09:15:28.000Z</time>
      </trkpt>
      <trkpt lat="47.3189" lon="-2.4363">
        <ele>12.800000190735</ele>
        <time>2022-08-18T09:15:29.000Z</time>
      </trkpt>
      <trkpt lat="47.31887" lon="-2.43638">
        <ele>12.39999961853</ele>
        <time>2022-08-18T09:15:30.000Z</time>
      </trkpt>
      <trkpt lat="47.31889" lon="-2.43655">
        <ele>11.800000190735</ele>
        <time>2022-08-18T09:15:32.000Z</time>
      </trkpt>
      <trkpt lat="47.31893" lon="-2.43661">
        <ele>11.39999961853</ele>
        <time>2022-08-18T09:15:33.000Z</time>
      </trkpt>
      <trkpt lat="47.31896" lon="-2.43666">
        <ele>11</ele>
        <time>2022-08-18T09:15:34.000Z</time>
      </trkpt>
      <trkpt lat="47.319" lon="-2.43673">
        <ele>10.60000038147</ele>
        <time>2022-08-18T09:15:35.000Z</time>
      </trkpt>
      <trkpt lat="47.31903" lon="-2.43681">
        <ele>10</ele>
        <time>2022-08-18T09:15:36.000Z</time>
      </trkpt>
      <trkpt lat="47.31906" lon="-2.43688">
        <ele>10</ele>
        <time>2022-08-18T09:15:37.000Z</time>
      </trkpt>
      <trkpt lat="47.3191" lon="-2.43695">
        <ele>10</ele>
        <time>2022-08-18T09:15:38.000Z</time>
      </trkpt>
      <trkpt lat="47.31913" lon="-2.43704">
        <ele>10</ele>
        <time>2022-08-18T09:15:39.000Z</time>
      </trkpt>
      <trkpt lat="47.31926" lon="-2.43737">
        <ele>10</ele>
        <time>2022-08-18T09:15:43.000Z</time>
      </trkpt>
      <trkpt lat="47.31943" lon="-2.43781">
        <ele>10</ele>
        <time>2022-08-18T09:15:49.000Z</time>
      </trkpt>
      <trkpt lat="47.31965" lon="-2.43826">
        <ele>10</ele>
        <time>2022-08-18T09:15:56.000Z</time>
      </trkpt>
      <trkpt lat="47.31972" lon="-2.43835">
        <ele>10.39999961853</ele>
        <time>2022-08-18T09:15:58.000Z</time>
      </trkpt>
      <trkpt lat="47.31977" lon="-2.43838">
        <ele>10.800000190735</ele>
        <time>2022-08-18T09:15:59.000Z</time>
      </trkpt>
      <trkpt lat="47.31981" lon="-2.43839">
        <ele>11.199999809265</ele>
        <time>2022-08-18T09:16:00.000Z</time>
      </trkpt>
      <trkpt lat="47.31985" lon="-2.43839">
        <ele>11.60000038147</ele>
        <time>2022-08-18T09:16:01.000Z</time>
      </trkpt>
      <trkpt lat="47.31989" lon="-2.43835">
        <ele>12</ele>
        <time>2022-08-18T09:16:02.000Z</time>
      </trkpt>
      <trkpt lat="47.31993" lon="-2.43832">
        <ele>12</ele>
        <time>2022-08-18T09:16:03.000Z</time>
      </trkpt>
      <trkpt lat="47.32" lon="-2.43824">
        <ele>12</ele>
        <time>2022-08-18T09:16:05.000Z</time>
      </trkpt>
      <trkpt lat="47.32009" lon="-2.43814">
        <ele>12.60000038147</ele>
        <time>2022-08-18T09:16:08.000Z</time>
      </trkpt>
      <trkpt lat="47.32013" lon="-2.4381">
        <ele>13</ele>
        <time>2022-08-18T09:16:09.000Z</time>
      </trkpt>
      <trkpt lat="47.32016" lon="-2.43808">
        <ele>13.60000038147</ele>
        <time>2022-08-18T09:16:10.000Z</time>
      </trkpt>
      <trkpt lat="47.32019" lon="-2.43805">
        <ele>14</ele>
        <time>2022-08-18T09:16:11.000Z</time>
      </trkpt>
      <trkpt lat="47.32022" lon="-2.43804">
        <ele>14.39999961853</ele>
        <time>2022-08-18T09:16:12.000Z</time>
      </trkpt>
      <trkpt lat="47.32025" lon="-2.43802">
        <ele>14.800000190735</ele>
        <time>2022-08-18T09:16:13.000Z</time>
      </trkpt>
      <trkpt lat="47.32028" lon="-2.438">
        <ele>15.39999961853</ele>
        <time>2022-08-18T09:16:14.000Z</time>
      </trkpt>
      <trkpt lat="47.32032" lon="-2.43802">
        <ele>15.800000190735</ele>
        <time>2022-08-18T09:16:15.000Z</time>
      </trkpt>
      <trkpt lat="47.32034" lon="-2.43806">
        <ele>16.200000762939</ele>
        <time>2022-08-18T09:16:16.000Z</time>
      </trkpt>
      <trkpt lat="47.32035" lon="-2.43809">
        <ele>16.60000038147</ele>
        <time>2022-08-18T09:16:17.000Z</time>
      </trkpt>
      <trkpt lat="47.32038" lon="-2.43814">
        <ele>16.60000038147</ele>
        <time>2022-08-18T09:16:18.000Z</time>
      </trkpt>
      <trkpt lat="47.32045" lon="-2.43826">
        <ele>17</ele>
        <time>2022-08-18T09:16:21.000Z</time>
      </trkpt>
      <trkpt lat="47.32047" lon="-2.43831">
        <ele>17.39999961853</ele>
        <time>2022-08-18T09:16:22.000Z</time>
      </trkpt>
      <trkpt lat="47.32049" lon="-2.43835">
        <ele>17.799999237061</ele>
        <time>2022-08-18T09:16:23.000Z</time>
      </trkpt>
      <trkpt lat="47.32052" lon="-2.43839">
        <ele>18.200000762939</ele>
        <time>2022-08-18T09:16:24.000Z</time>
      </trkpt>
      <trkpt lat="47.32054" lon="-2.43843">
        <ele>18.60000038147</ele>
        <time>2022-08-18T09:16:25.000Z</time>
      </trkpt>
      <trkpt lat="47.32066" lon="-2.43866">
        <ele>18.60000038147</ele>
        <time>2022-08-18T09:16:30.000Z</time>
      </trkpt>
      <trkpt lat="47.32084" lon="-2.43894">
        <ele>18.60000038147</ele>
        <time>2022-08-18T09:16:37.000Z</time>
      </trkpt>
      <trkpt lat="47.32104" lon="-2.43904">
        <ele>18.60000038147</ele>
        <time>2022-08-18T09:16:43.000Z</time>
      </trkpt>
      <trkpt lat="47.32109" lon="-2.43909">
        <ele>19.200000762939</ele>
        <time>2022-08-18T09:16:45.000Z</time>
      </trkpt>
      <trkpt lat="47.32113" lon="-2.43909">
        <ele>19.60000038147</ele>
        <time>2022-08-18T09:16:46.000Z</time>
      </trkpt>
      <trkpt lat="47.32116" lon="-2.4391">
        <ele>20</ele>
        <time>2022-08-18T09:16:47.000Z</time>
      </trkpt>
      <trkpt lat="47.3212" lon="-2.43912">
        <ele>20.39999961853</ele>
        <time>2022-08-18T09:16:48.000Z</time>
      </trkpt>
      <trkpt lat="47.32122" lon="-2.43915">
        <ele>20.799999237061</ele>
        <time>2022-08-18T09:16:49.000Z</time>
      </trkpt>
      <trkpt lat="47.3213" lon="-2.43923">
        <ele>20.799999237061</ele>
        <time>2022-08-18T09:16:52.000Z</time>
      </trkpt>
      <trkpt lat="47.32136" lon="-2.43931">
        <ele>21.200000762939</ele>
        <time>2022-08-18T09:16:55.000Z</time>
      </trkpt>
      <trkpt lat="47.32138" lon="-2.43933">
        <ele>21.60000038147</ele>
        <time>2022-08-18T09:16:56.000Z</time>
      </trkpt>
      <trkpt lat="47.32141" lon="-2.43937">
        <ele>22</ele>
        <time>2022-08-18T09:16:57.000Z</time>
      </trkpt>
      <trkpt lat="47.32142" lon="-2.4394">
        <ele>22.39999961853</ele>
        <time>2022-08-18T09:16:58.000Z</time>
      </trkpt>
      <trkpt lat="47.32144" lon="-2.43944">
        <ele>22.799999237061</ele>
        <time>2022-08-18T09:16:59.000Z</time>
      </trkpt>
      <trkpt lat="47.32156" lon="-2.43958">
        <ele>23.200000762939</ele>
        <time>2022-08-18T09:17:04.000Z</time>
      </trkpt>
      <trkpt lat="47.32158" lon="-2.43961">
        <ele>23.60000038147</ele>
        <time>2022-08-18T09:17:05.000Z</time>
      </trkpt>
      <trkpt lat="47.32161" lon="-2.43964">
        <ele>24.200000762939</ele>
        <time>2022-08-18T09:17:06.000Z</time>
      </trkpt>
      <trkpt lat="47.32163" lon="-2.43967">
        <ele>24.60000038147</ele>
        <time>2022-08-18T09:17:07.000Z</time>
      </trkpt>
      <trkpt lat="47.32165" lon="-2.4397">
        <ele>25</ele>
        <time>2022-08-18T09:17:08.000Z</time>
      </trkpt>
      <trkpt lat="47.32172" lon="-2.43979">
        <ele>25</ele>
        <time>2022-08-18T09:17:11.000Z</time>
      </trkpt>
      <trkpt lat="47.32186" lon="-2.43998">
        <ele>25</ele>
        <time>2022-08-18T09:17:17.000Z</time>
      </trkpt>
      <trkpt lat="47.32194" lon="-2.44007">
        <ele>25.39999961853</ele>
        <time>2022-08-18T09:17:20.000Z</time>
      </trkpt>
      <trkpt lat="47.32196" lon="-2.4401">
        <ele>25.799999237061</ele>
        <time>2022-08-18T09:17:21.000Z</time>
      </trkpt>
      <trkpt lat="47.32198" lon="-2.44014">
        <ele>26.200000762939</ele>
        <time>2022-08-18T09:17:22.000Z</time>
      </trkpt>
      <trkpt lat="47.322" lon="-2.44017">
        <ele>26.60000038147</ele>
        <time>2022-08-18T09:17:23.000Z</time>
      </trkpt>
      <trkpt lat="47.32203" lon="-2.44021">
        <ele>27</ele>
        <time>2022-08-18T09:17:24.000Z</time>
      </trkpt>
      <trkpt lat="47.32216" lon="-2.44039">
        <ele>27</ele>
        <time>2022-08-18T09:17:31.000Z</time>
      </trkpt>
      <trkpt lat="47.32223" lon="-2.44048">
        <ele>27</ele>
        <time>2022-08-18T09:17:37.000Z</time>
      </trkpt>
      <trkpt lat="47.32222" lon="-2.44053">
        <ele>27</ele>
        <time>2022-08-18T09:17:39.000Z</time>
      </trkpt>
      <trkpt lat="47.32218" lon="-2.44058">
        <ele>27</ele>
        <time>2022-08-18T09:17:41.000Z</time>
      </trkpt>
      <trkpt lat="47.32201" lon="-2.44071">
        <ele>27</ele>
        <time>2022-08-18T09:17:47.000Z</time>
      </trkpt>
      <trkpt lat="47.32192" lon="-2.44081">
        <ele>27</ele>
        <time>2022-08-18T09:17:52.000Z</time>
      </trkpt>
      <trkpt lat="47.3219" lon="-2.44082">
        <ele>26.60000038147</ele>
        <time>2022-08-18T09:17:53.000Z</time>
      </trkpt>
      <trkpt lat="47.32188" lon="-2.44085">
        <ele>26.200000762939</ele>
        <time>2022-08-18T09:17:54.000Z</time>
      </trkpt>
      <trkpt lat="47.32186" lon="-2.44087">
        <ele>25.799999237061</ele>
        <time>2022-08-18T09:17:55.000Z</time>
      </trkpt>
      <trkpt lat="47.32183" lon="-2.44089">
        <ele>25.39999961853</ele>
        <time>2022-08-18T09:17:56.000Z</time>
      </trkpt>
      <trkpt lat="47.3218" lon="-2.44091">
        <ele>25</ele>
        <time>2022-08-18T09:17:57.000Z</time>
      </trkpt>
      <trkpt lat="47.32163" lon="-2.4411">
        <ele>25</ele>
        <time>2022-08-18T09:18:02.000Z</time>
      </trkpt>
      <trkpt lat="47.32151" lon="-2.44125">
        <ele>24.60000038147</ele>
        <time>2022-08-18T09:18:05.000Z</time>
      </trkpt>
      <trkpt lat="47.32147" lon="-2.44129">
        <ele>24</ele>
        <time>2022-08-18T09:18:06.000Z</time>
      </trkpt>
      <trkpt lat="47.32143" lon="-2.44135">
        <ele>23.60000038147</ele>
        <time>2022-08-18T09:18:07.000Z</time>
      </trkpt>
      <trkpt lat="47.3214" lon="-2.4414">
        <ele>23.200000762939</ele>
        <time>2022-08-18T09:18:08.000Z</time>
      </trkpt>
      <trkpt lat="47.32135" lon="-2.44146">
        <ele>22.60000038147</ele>
        <time>2022-08-18T09:18:09.000Z</time>
      </trkpt>
      <trkpt lat="47.32131" lon="-2.44153">
        <ele>22.200000762939</ele>
        <time>2022-08-18T09:18:10.000Z</time>
      </trkpt>
      <trkpt lat="47.32126" lon="-2.44159">
        <ele>21.799999237061</ele>
        <time>2022-08-18T09:18:11.000Z</time>
      </trkpt>
      <trkpt lat="47.32121" lon="-2.44165">
        <ele>21.39999961853</ele>
        <time>2022-08-18T09:18:12.000Z</time>
      </trkpt>
      <trkpt lat="47.32115" lon="-2.44172">
        <ele>21</ele>
        <time>2022-08-18T09:18:13.000Z</time>
      </trkpt>
      <trkpt lat="47.32109" lon="-2.44179">
        <ele>20.60000038147</ele>
        <time>2022-08-18T09:18:14.000Z</time>
      </trkpt>
      <trkpt lat="47.32103" lon="-2.44187">
        <ele>20</ele>
        <time>2022-08-18T09:18:15.000Z</time>
      </trkpt>
      <trkpt lat="47.32097" lon="-2.44195">
        <ele>19</ele>
        <time>2022-08-18T09:18:16.000Z</time>
      </trkpt>
      <trkpt lat="47.32091" lon="-2.44203">
        <ele>18.60000038147</ele>
        <time>2022-08-18T09:18:17.000Z</time>
      </trkpt>
      <trkpt lat="47.32085" lon="-2.44211">
        <ele>18</ele>
        <time>2022-08-18T09:18:18.000Z</time>
      </trkpt>
      <trkpt lat="47.32078" lon="-2.44219">
        <ele>17.60000038147</ele>
        <time>2022-08-18T09:18:19.000Z</time>
      </trkpt>
      <trkpt lat="47.32072" lon="-2.44228">
        <ele>17</ele>
        <time>2022-08-18T09:18:20.000Z</time>
      </trkpt>
      <trkpt lat="47.32065" lon="-2.44236">
        <ele>16.60000038147</ele>
        <time>2022-08-18T09:18:21.000Z</time>
      </trkpt>
      <trkpt lat="47.3206" lon="-2.44245">
        <ele>16</ele>
        <time>2022-08-18T09:18:22.000Z</time>
      </trkpt>
      <trkpt lat="47.32053" lon="-2.44255">
        <ele>15.60000038147</ele>
        <time>2022-08-18T09:18:23.000Z</time>
      </trkpt>
      <trkpt lat="47.32046" lon="-2.44265">
        <ele>15</ele>
        <time>2022-08-18T09:18:24.000Z</time>
      </trkpt>
      <trkpt lat="47.32039" lon="-2.44275">
        <ele>14.39999961853</ele>
        <time>2022-08-18T09:18:25.000Z</time>
      </trkpt>
      <trkpt lat="47.32033" lon="-2.44285">
        <ele>13.800000190735</ele>
        <time>2022-08-18T09:18:26.000Z</time>
      </trkpt>
      <trkpt lat="47.32027" lon="-2.44296">
        <ele>13.199999809265</ele>
        <time>2022-08-18T09:18:27.000Z</time>
      </trkpt>
      <trkpt lat="47.32021" lon="-2.44307">
        <ele>12.60000038147</ele>
        <time>2022-08-18T09:18:28.000Z</time>
      </trkpt>
      <trkpt lat="47.32015" lon="-2.44317">
        <ele>11.800000190735</ele>
        <time>2022-08-18T09:18:29.000Z</time>
      </trkpt>
      <trkpt lat="47.32008" lon="-2.44327">
        <ele>11.199999809265</ele>
        <time>2022-08-18T09:18:30.000Z</time>
      </trkpt>
      <trkpt lat="47.32001" lon="-2.44338">
        <ele>10.60000038147</ele>
        <time>2022-08-18T09:18:31.000Z</time>
      </trkpt>
      <trkpt lat="47.31994" lon="-2.44347">
        <ele>10</ele>
        <time>2022-08-18T09:18:32.000Z</time>
      </trkpt>
      <trkpt lat="47.31987" lon="-2.44355">
        <ele>9.3999996185303</ele>
        <time>2022-08-18T09:18:33.000Z</time>
      </trkpt>
      <trkpt lat="47.31982" lon="-2.44362">
        <ele>8.8000001907349</ele>
        <time>2022-08-18T09:18:34.000Z</time>
      </trkpt>
      <trkpt lat="47.31977" lon="-2.44369">
        <ele>8.3999996185303</ele>
        <time>2022-08-18T09:18:35.000Z</time>
      </trkpt>
      <trkpt lat="47.31972" lon="-2.44376">
        <ele>7.8000001907349</ele>
        <time>2022-08-18T09:18:36.000Z</time>
      </trkpt>
      <trkpt lat="47.31968" lon="-2.44384">
        <ele>7.1999998092651</ele>
        <time>2022-08-18T09:18:37.000Z</time>
      </trkpt>
      <trkpt lat="47.31963" lon="-2.44401">
        <ele>7.1999998092651</ele>
        <time>2022-08-18T09:18:39.000Z</time>
      </trkpt>
      <trkpt lat="47.3196" lon="-2.44409">
        <ele>6.4000000953674</ele>
        <time>2022-08-18T09:18:40.000Z</time>
      </trkpt>
      <trkpt lat="47.31957" lon="-2.44418">
        <ele>5.8000001907349</ele>
        <time>2022-08-18T09:18:41.000Z</time>
      </trkpt>
      <trkpt lat="47.31954" lon="-2.44426">
        <ele>5.4000000953674</ele>
        <time>2022-08-18T09:18:42.000Z</time>
      </trkpt>
      <trkpt lat="47.31951" lon="-2.44434">
        <ele>5</ele>
        <time>2022-08-18T09:18:43.000Z</time>
      </trkpt>
      <trkpt lat="47.31943" lon="-2.44456">
        <ele>5</ele>
        <time>2022-08-18T09:18:46.000Z</time>
      </trkpt>
      <trkpt lat="47.31931" lon="-2.44489">
        <ele>5</ele>
        <time>2022-08-18T09:18:50.000Z</time>
      </trkpt>
      <trkpt lat="47.31924" lon="-2.44504">
        <ele>5</ele>
        <time>2022-08-18T09:18:52.000Z</time>
      </trkpt>
      <trkpt lat="47.31903" lon="-2.44556">
        <ele>5</ele>
        <time>2022-08-18T09:18:58.000Z</time>
      </trkpt>
      <trkpt lat="47.31879" lon="-2.44616">
        <ele>5</ele>
        <time>2022-08-18T09:19:05.000Z</time>
      </trkpt>
      <trkpt lat="47.31854" lon="-2.44675">
        <ele>5</ele>
        <time>2022-08-18T09:19:12.000Z</time>
      </trkpt>
      <trkpt lat="47.31832" lon="-2.4471">
        <ele>5</ele>
        <time>2022-08-18T09:19:17.000Z</time>
      </trkpt>
      <trkpt lat="47.31821" lon="-2.44721">
        <ele>5</ele>
        <time>2022-08-18T09:19:19.000Z</time>
      </trkpt>
      <trkpt lat="47.31803" lon="-2.44732">
        <ele>5</ele>
        <time>2022-08-18T09:19:22.000Z</time>
      </trkpt>
      <trkpt lat="47.31771" lon="-2.4475">
        <ele>5</ele>
        <time>2022-08-18T09:19:28.000Z</time>
      </trkpt>
      <trkpt lat="47.31749" lon="-2.44769">
        <ele>5</ele>
        <time>2022-08-18T09:19:33.000Z</time>
      </trkpt>
      <trkpt lat="47.31746" lon="-2.44774">
        <ele>5</ele>
        <time>2022-08-18T09:19:34.000Z</time>
      </trkpt>
      <trkpt lat="47.31741" lon="-2.44778">
        <ele>5</ele>
        <time>2022-08-18T09:19:35.000Z</time>
      </trkpt>
      <trkpt lat="47.31734" lon="-2.44784">
        <ele>5</ele>
        <time>2022-08-18T09:19:37.000Z</time>
      </trkpt>
      <trkpt lat="47.31731" lon="-2.44785">
        <ele>4.5999999046326</ele>
        <time>2022-08-18T09:19:38.000Z</time>
      </trkpt>
      <trkpt lat="47.31728" lon="-2.44785">
        <ele>4.1999998092651</ele>
        <time>2022-08-18T09:19:39.000Z</time>
      </trkpt>
      <trkpt lat="47.31724" lon="-2.44784">
        <ele>3.5999999046326</ele>
        <time>2022-08-18T09:19:40.000Z</time>
      </trkpt>
      <trkpt lat="47.31721" lon="-2.44779">
        <ele>3.2000000476837</ele>
        <time>2022-08-18T09:19:41.000Z</time>
      </trkpt>
      <trkpt lat="47.31718" lon="-2.44774">
        <ele>2.7999999523163</ele>
        <time>2022-08-18T09:19:42.000Z</time>
      </trkpt>
      <trkpt lat="47.31712" lon="-2.44761">
        <ele>2.7999999523163</ele>
        <time>2022-08-18T09:19:44.000Z</time>
      </trkpt>
      <trkpt lat="47.31703" lon="-2.44741">
        <ele>2.7999999523163</ele>
        <time>2022-08-18T09:19:47.000Z</time>
      </trkpt>
      <trkpt lat="47.31685" lon="-2.44699">
        <ele>2.7999999523163</ele>
        <time>2022-08-18T09:19:53.000Z</time>
      </trkpt>
      <trkpt lat="47.31659" lon="-2.44635">
        <ele>2.7999999523163</ele>
        <time>2022-08-18T09:20:01.000Z</time>
      </trkpt>
      <trkpt lat="47.31633" lon="-2.44581">
        <ele>2.7999999523163</ele>
        <time>2022-08-18T09:20:08.000Z</time>
      </trkpt>
      <trkpt lat="47.31597" lon="-2.4452">
        <ele>2.7999999523163</ele>
        <time>2022-08-18T09:20:16.000Z</time>
      </trkpt>
      <trkpt lat="47.31589" lon="-2.44501">
        <ele>2.7999999523163</ele>
        <time>2022-08-18T09:20:18.000Z</time>
      </trkpt>
      <trkpt lat="47.31584" lon="-2.44481">
        <ele>2.7999999523163</ele>
        <time>2022-08-18T09:20:20.000Z</time>
      </trkpt>
      <trkpt lat="47.31574" lon="-2.44429">
        <ele>2.7999999523163</ele>
        <time>2022-08-18T09:20:25.000Z</time>
      </trkpt>
      <trkpt lat="47.31565" lon="-2.44365">
        <ele>2.7999999523163</ele>
        <time>2022-08-18T09:20:31.000Z</time>
      </trkpt>
      <trkpt lat="47.31556" lon="-2.44304">
        <ele>2.7999999523163</ele>
        <time>2022-08-18T09:20:37.000Z</time>
      </trkpt>
      <trkpt lat="47.31542" lon="-2.44223">
        <ele>2.7999999523163</ele>
        <time>2022-08-18T09:20:45.000Z</time>
      </trkpt>
      <trkpt lat="47.31527" lon="-2.44176">
        <ele>2.7999999523163</ele>
        <time>2022-08-18T09:20:50.000Z</time>
      </trkpt>
      <trkpt lat="47.31503" lon="-2.44135">
        <ele>2.7999999523163</ele>
        <time>2022-08-18T09:20:55.000Z</time>
      </trkpt>
      <trkpt lat="47.31463" lon="-2.44083">
        <ele>2.7999999523163</ele>
        <time>2022-08-18T09:21:02.000Z</time>
      </trkpt>
      <trkpt lat="47.31426" lon="-2.44034">
        <ele>2.7999999523163</ele>
        <time>2022-08-18T09:21:09.000Z</time>
      </trkpt>
      <trkpt lat="47.3139" lon="-2.43986">
        <ele>2.7999999523163</ele>
        <time>2022-08-18T09:21:16.000Z</time>
      </trkpt>
      <trkpt lat="47.31361" lon="-2.43943">
        <ele>2.7999999523163</ele>
        <time>2022-08-18T09:21:22.000Z</time>
      </trkpt>
      <trkpt lat="47.31358" lon="-2.43934">
        <ele>2.7999999523163</ele>
        <time>2022-08-18T09:21:23.000Z</time>
      </trkpt>
      <trkpt lat="47.31333" lon="-2.43871">
        <ele>2.7999999523163</ele>
        <time>2022-08-18T09:21:30.000Z</time>
      </trkpt>
      <trkpt lat="47.31313" lon="-2.43828">
        <ele>2.7999999523163</ele>
        <time>2022-08-18T09:21:35.000Z</time>
      </trkpt>
      <trkpt lat="47.31302" lon="-2.43814">
        <ele>2.7999999523163</ele>
        <time>2022-08-18T09:21:37.000Z</time>
      </trkpt>
      <trkpt lat="47.31287" lon="-2.43789">
        <ele>2.7999999523163</ele>
        <time>2022-08-18T09:21:40.000Z</time>
      </trkpt>
      <trkpt lat="47.3128" lon="-2.43771">
        <ele>2.7999999523163</ele>
        <time>2022-08-18T09:21:42.000Z</time>
      </trkpt>
      <trkpt lat="47.31251" lon="-2.43695">
        <ele>2.7999999523163</ele>
        <time>2022-08-18T09:21:50.000Z</time>
      </trkpt>
      <trkpt lat="47.31248" lon="-2.43686">
        <ele>2.7999999523163</ele>
        <time>2022-08-18T09:21:51.000Z</time>
      </trkpt>
      <trkpt lat="47.31236" lon="-2.43634">
        <ele>2.7999999523163</ele>
        <time>2022-08-18T09:21:56.000Z</time>
      </trkpt>
      <trkpt lat="47.31224" lon="-2.4355">
        <ele>2.7999999523163</ele>
        <time>2022-08-18T09:22:04.000Z</time>
      </trkpt>
      <trkpt lat="47.31211" lon="-2.43464">
        <ele>2.7999999523163</ele>
        <time>2022-08-18T09:22:12.000Z</time>
      </trkpt>
      <trkpt lat="47.31208" lon="-2.43443">
        <ele>2.7999999523163</ele>
        <time>2022-08-18T09:22:14.000Z</time>
      </trkpt>
      <trkpt lat="47.31195" lon="-2.43359">
        <ele>2.7999999523163</ele>
        <time>2022-08-18T09:22:22.000Z</time>
      </trkpt>
      <trkpt lat="47.31191" lon="-2.43338">
        <ele>2.7999999523163</ele>
        <time>2022-08-18T09:22:24.000Z</time>
      </trkpt>
      <trkpt lat="47.31169" lon="-2.43284">
        <ele>2.7999999523163</ele>
        <time>2022-08-18T09:22:30.000Z</time>
      </trkpt>
      <trkpt lat="47.31133" lon="-2.43227">
        <ele>2.7999999523163</ele>
        <time>2022-08-18T09:22:37.000Z</time>
      </trkpt>
      <trkpt lat="47.31114" lon="-2.43199">
        <ele>2.7999999523163</ele>
        <time>2022-08-18T09:22:41.000Z</time>
      </trkpt>
      <trkpt lat="47.3111" lon="-2.43194">
        <ele>2.7999999523163</ele>
        <time>2022-08-18T09:22:42.000Z</time>
      </trkpt>
      <trkpt lat="47.311" lon="-2.43194">
        <ele>2.7999999523163</ele>
        <time>2022-08-18T09:22:44.000Z</time>
      </trkpt>
      <trkpt lat="47.31089" lon="-2.43203">
        <ele>2.7999999523163</ele>
        <time>2022-08-18T09:22:46.000Z</time>
      </trkpt>
      <trkpt lat="47.31078" lon="-2.43212">
        <ele>2.7999999523163</ele>
        <time>2022-08-18T09:22:48.000Z</time>
      </trkpt>
      <trkpt lat="47.31055" lon="-2.43233">
        <ele>2.7999999523163</ele>
        <time>2022-08-18T09:22:52.000Z</time>
      </trkpt>
      <trkpt lat="47.31049" lon="-2.4324">
        <ele>2.7999999523163</ele>
        <time>2022-08-18T09:22:53.000Z</time>
      </trkpt>
      <trkpt lat="47.31034" lon="-2.4326">
        <ele>2.7999999523163</ele>
        <time>2022-08-18T09:22:56.000Z</time>
      </trkpt>
      <trkpt lat="47.31024" lon="-2.43274">
        <ele>2.7999999523163</ele>
        <time>2022-08-18T09:22:58.000Z</time>
      </trkpt>
      <trkpt lat="47.31009" lon="-2.43294">
        <ele>2.7999999523163</ele>
        <time>2022-08-18T09:23:01.000Z</time>
      </trkpt>
      <trkpt lat="47.30984" lon="-2.43314">
        <ele>2.7999999523163</ele>
        <time>2022-08-18T09:23:05.000Z</time>
      </trkpt>
      <trkpt lat="47.30928" lon="-2.43337">
        <ele>2.7999999523163</ele>
        <time>2022-08-18T09:23:13.000Z</time>
      </trkpt>
      <trkpt lat="47.30879" lon="-2.43359">
        <ele>2.7999999523163</ele>
        <time>2022-08-18T09:23:20.000Z</time>
      </trkpt>
      <trkpt lat="47.30838" lon="-2.43377">
        <ele>2.7999999523163</ele>
        <time>2022-08-18T09:23:26.000Z</time>
      </trkpt>
      <trkpt lat="47.30818" lon="-2.43385">
        <ele>2.7999999523163</ele>
        <time>2022-08-18T09:23:29.000Z</time>
      </trkpt>
      <trkpt lat="47.30805" lon="-2.43388">
        <ele>2.7999999523163</ele>
        <time>2022-08-18T09:23:31.000Z</time>
      </trkpt>
      <trkpt lat="47.30791" lon="-2.4339">
        <ele>2.7999999523163</ele>
        <time>2022-08-18T09:23:33.000Z</time>
      </trkpt>
      <trkpt lat="47.30762" lon="-2.43389">
        <ele>2.7999999523163</ele>
        <time>2022-08-18T09:23:37.000Z</time>
      </trkpt>
      <trkpt lat="47.30726" lon="-2.43391">
        <ele>2.7999999523163</ele>
        <time>2022-08-18T09:23:42.000Z</time>
      </trkpt>
      <trkpt lat="47.30683" lon="-2.43394">
        <ele>2.7999999523163</ele>
        <time>2022-08-18T09:23:48.000Z</time>
      </trkpt>
      <trkpt lat="47.30641" lon="-2.43405">
        <ele>2.7999999523163</ele>
        <time>2022-08-18T09:23:54.000Z</time>
      </trkpt>
      <trkpt lat="47.30584" lon="-2.43418">
        <ele>2.7999999523163</ele>
        <time>2022-08-18T09:24:02.000Z</time>
      </trkpt>
      <trkpt lat="47.30551" lon="-2.43421">
        <ele>2.7999999523163</ele>
        <time>2022-08-18T09:24:07.000Z</time>
      </trkpt>
      <trkpt lat="47.30537" lon="-2.4342">
        <ele>2.7999999523163</ele>
        <time>2022-08-18T09:24:09.000Z</time>
      </trkpt>
      <trkpt lat="47.30491" lon="-2.43415">
        <ele>2.7999999523163</ele>
        <time>2022-08-18T09:24:16.000Z</time>
      </trkpt>
      <trkpt lat="47.30472" lon="-2.43413">
        <ele>2.7999999523163</ele>
        <time>2022-08-18T09:24:19.000Z</time>
      </trkpt>
      <trkpt lat="47.30454" lon="-2.43418">
        <ele>2.7999999523163</ele>
        <time>2022-08-18T09:24:22.000Z</time>
      </trkpt>
      <trkpt lat="47.30449" lon="-2.4342">
        <ele>2.7999999523163</ele>
        <time>2022-08-18T09:24:23.000Z</time>
      </trkpt>
      <trkpt lat="47.30443" lon="-2.43422">
        <ele>2.7999999523163</ele>
        <time>2022-08-18T09:24:24.000Z</time>
      </trkpt>
      <trkpt lat="47.30432" lon="-2.43418">
        <ele>2.7999999523163</ele>
        <time>2022-08-18T09:24:26.000Z</time>
      </trkpt>
      <trkpt lat="47.30422" lon="-2.43396">
        <ele>2.7999999523163</ele>
        <time>2022-08-18T09:24:29.000Z</time>
      </trkpt>
      <trkpt lat="47.30419" lon="-2.43378">
        <ele>2.7999999523163</ele>
        <time>2022-08-18T09:24:31.000Z</time>
      </trkpt>
      <trkpt lat="47.30413" lon="-2.43349">
        <ele>2.7999999523163</ele>
        <time>2022-08-18T09:24:34.000Z</time>
      </trkpt>
      <trkpt lat="47.30396" lon="-2.43272">
        <ele>2.7999999523163</ele>
        <time>2022-08-18T09:24:42.000Z</time>
      </trkpt>
      <trkpt lat="47.30386" lon="-2.43248">
        <ele>2.7999999523163</ele>
        <time>2022-08-18T09:24:45.000Z</time>
      </trkpt>
      <trkpt lat="47.30382" lon="-2.43243">
        <ele>2.7999999523163</ele>
        <time>2022-08-18T09:24:46.000Z</time>
      </trkpt>
      <trkpt lat="47.30363" lon="-2.43239">
        <ele>2.7999999523163</ele>
        <time>2022-08-18T09:24:49.000Z</time>
      </trkpt>
      <trkpt lat="47.30356" lon="-2.43241">
        <ele>2.7999999523163</ele>
        <time>2022-08-18T09:24:50.000Z</time>
      </trkpt>
      <trkpt lat="47.30326" lon="-2.43248">
        <ele>2.7999999523163</ele>
        <time>2022-08-18T09:24:54.000Z</time>
      </trkpt>
      <trkpt lat="47.30274" lon="-2.4326">
        <ele>2.7999999523163</ele>
        <time>2022-08-18T09:25:01.000Z</time>
      </trkpt>
      <trkpt lat="47.30232" lon="-2.43276">
        <ele>2.7999999523163</ele>
        <time>2022-08-18T09:25:07.000Z</time>
      </trkpt>
      <trkpt lat="47.3019" lon="-2.43294">
        <ele>2.7999999523163</ele>
        <time>2022-08-18T09:25:13.000Z</time>
      </trkpt>
      <trkpt lat="47.30149" lon="-2.43312">
        <ele>2.7999999523163</ele>
        <time>2022-08-18T09:25:19.000Z</time>
      </trkpt>
      <trkpt lat="47.30107" lon="-2.43322">
        <ele>2.7999999523163</ele>
        <time>2022-08-18T09:25:25.000Z</time>
      </trkpt>
      <trkpt lat="47.30061" lon="-2.43333">
        <ele>2.7999999523163</ele>
        <time>2022-08-18T09:25:32.000Z</time>
      </trkpt>
      <trkpt lat="47.3003" lon="-2.43335">
        <ele>2.7999999523163</ele>
        <time>2022-08-18T09:25:37.000Z</time>
      </trkpt>
      <trkpt lat="47.30001" lon="-2.4332">
        <ele>2.7999999523163</ele>
        <time>2022-08-18T09:25:42.000Z</time>
      </trkpt>
      <trkpt lat="47.29974" lon="-2.43297">
        <ele>2.7999999523163</ele>
        <time>2022-08-18T09:25:47.000Z</time>
      </trkpt>
      <trkpt lat="47.29969" lon="-2.43294">
        <ele>2.7999999523163</ele>
        <time>2022-08-18T09:25:48.000Z</time>
      </trkpt>
      <trkpt lat="47.29951" lon="-2.43297">
        <ele>2.7999999523163</ele>
        <time>2022-08-18T09:25:51.000Z</time>
      </trkpt>
      <trkpt lat="47.29921" lon="-2.4331">
        <ele>2.7999999523163</ele>
        <time>2022-08-18T09:25:57.000Z</time>
      </trkpt>
      <trkpt lat="47.29917" lon="-2.43311">
        <ele>2.7999999523163</ele>
        <time>2022-08-18T09:25:58.000Z</time>
      </trkpt>
      <trkpt lat="47.299" lon="-2.43314">
        <ele>2.7999999523163</ele>
        <time>2022-08-18T09:26:02.000Z</time>
      </trkpt>
      <trkpt lat="47.29881" lon="-2.43315">
        <ele>2.7999999523163</ele>
        <time>2022-08-18T09:26:08.000Z</time>
      </trkpt>
      <trkpt lat="47.29875" lon="-2.43306">
        <ele>2.7999999523163</ele>
        <time>2022-08-18T09:26:11.000Z</time>
      </trkpt>
      <trkpt lat="47.29866" lon="-2.43288">
        <ele>2.7999999523163</ele>
        <time>2022-08-18T09:26:14.000Z</time>
      </trkpt>
      <trkpt lat="47.29858" lon="-2.43268">
        <ele>2.7999999523163</ele>
        <time>2022-08-18T09:26:17.000Z</time>
      </trkpt>
      <trkpt lat="47.29845" lon="-2.43244">
        <ele>2.7999999523163</ele>
        <time>2022-08-18T09:26:21.000Z</time>
      </trkpt>
      <trkpt lat="47.29836" lon="-2.43225">
        <ele>2.7999999523163</ele>
        <time>2022-08-18T09:26:24.000Z</time>
      </trkpt>
      <trkpt lat="47.29815" lon="-2.43194">
        <ele>2.7999999523163</ele>
        <time>2022-08-18T09:26:30.000Z</time>
      </trkpt>
      <trkpt lat="47.29807" lon="-2.43186">
        <ele>2.7999999523163</ele>
        <time>2022-08-18T09:26:32.000Z</time>
      </trkpt>
      <trkpt lat="47.29794" lon="-2.43185">
        <ele>2.7999999523163</ele>
        <time>2022-08-18T09:26:35.000Z</time>
      </trkpt>
      <trkpt lat="47.2979" lon="-2.43186">
        <ele>2.7999999523163</ele>
        <time>2022-08-18T09:26:36.000Z</time>
      </trkpt>
      <trkpt lat="47.29759" lon="-2.43194">
        <ele>2.7999999523163</ele>
        <time>2022-08-18T09:26:42.000Z</time>
      </trkpt>
      <trkpt lat="47.29749" lon="-2.43196">
        <ele>2.7999999523163</ele>
        <time>2022-08-18T09:26:44.000Z</time>
      </trkpt>
      <trkpt lat="47.29709" lon="-2.43209">
        <ele>2.7999999523163</ele>
        <time>2022-08-18T09:26:51.000Z</time>
      </trkpt>
      <trkpt lat="47.2969" lon="-2.43216">
        <ele>2.7999999523163</ele>
        <time>2022-08-18T09:26:55.000Z</time>
      </trkpt>
      <trkpt lat="47.29682" lon="-2.43219">
        <ele>2.7999999523163</ele>
        <time>2022-08-18T09:26:57.000Z</time>
      </trkpt>
      <trkpt lat="47.29669" lon="-2.43221">
        <ele>2.7999999523163</ele>
        <time>2022-08-18T09:27:00.000Z</time>
      </trkpt>
      <trkpt lat="47.29664" lon="-2.43223">
        <ele>2.7999999523163</ele>
        <time>2022-08-18T09:27:01.000Z</time>
      </trkpt>
      <trkpt lat="47.29647" lon="-2.43227">
        <ele>2.7999999523163</ele>
        <time>2022-08-18T09:27:04.000Z</time>
      </trkpt>
      <trkpt lat="47.29642" lon="-2.43229">
        <ele>2.7999999523163</ele>
        <time>2022-08-18T09:27:05.000Z</time>
      </trkpt>
      <trkpt lat="47.29609" lon="-2.43241">
        <ele>2.7999999523163</ele>
        <time>2022-08-18T09:27:11.000Z</time>
      </trkpt>
      <trkpt lat="47.2958" lon="-2.43257">
        <ele>2.7999999523163</ele>
        <time>2022-08-18T09:27:17.000Z</time>
      </trkpt>
      <trkpt lat="47.29569" lon="-2.43267">
        <ele>2.7999999523163</ele>
        <time>2022-08-18T09:27:20.000Z</time>
      </trkpt>
      <trkpt lat="47.29566" lon="-2.43272">
        <ele>2.7999999523163</ele>
        <time>2022-08-18T09:27:21.000Z</time>
      </trkpt>
      <trkpt lat="47.29548" lon="-2.43301">
        <ele>2.7999999523163</ele>
        <time>2022-08-18T09:27:27.000Z</time>
      </trkpt>
      <trkpt lat="47.29546" lon="-2.43306">
        <ele>3.2000000476837</ele>
        <time>2022-08-18T09:27:28.000Z</time>
      </trkpt>
      <trkpt lat="47.29544" lon="-2.43311">
        <ele>3.5999999046326</ele>
        <time>2022-08-18T09:27:29.000Z</time>
      </trkpt>
      <trkpt lat="47.29541" lon="-2.43315">
        <ele>4.1999998092651</ele>
        <time>2022-08-18T09:27:30.000Z</time>
      </trkpt>
      <trkpt lat="47.29539" lon="-2.4332">
        <ele>4.5999999046326</ele>
        <time>2022-08-18T09:27:31.000Z</time>
      </trkpt>
      <trkpt lat="47.29537" lon="-2.43324">
        <ele>5</ele>
        <time>2022-08-18T09:27:32.000Z</time>
      </trkpt>
      <trkpt lat="47.29522" lon="-2.43349">
        <ele>5</ele>
        <time>2022-08-18T09:27:39.000Z</time>
      </trkpt>
      <trkpt lat="47.29507" lon="-2.43376">
        <ele>5</ele>
        <time>2022-08-18T09:27:46.000Z</time>
      </trkpt>
      <trkpt lat="47.29488" lon="-2.43414">
        <ele>5</ele>
        <time>2022-08-18T09:27:55.000Z</time>
      </trkpt>
      <trkpt lat="47.29477" lon="-2.43434">
        <ele>5</ele>
        <time>2022-08-18T09:28:00.000Z</time>
      </trkpt>
      <trkpt lat="47.29464" lon="-2.43456">
        <ele>5</ele>
        <time>2022-08-18T09:28:06.000Z</time>
      </trkpt>
      <trkpt lat="47.29452" lon="-2.43461">
        <ele>5</ele>
        <time>2022-08-18T09:28:11.000Z</time>
      </trkpt>
      <trkpt lat="47.2945" lon="-2.43459">
        <ele>5</ele>
        <time>2022-08-18T09:28:13.000Z</time>
      </trkpt>
      <trkpt lat="47.29449" lon="-2.43457">
        <ele>4.5999999046326</ele>
        <time>2022-08-18T09:28:15.000Z</time>
      </trkpt>
      <trkpt lat="47.29448" lon="-2.43456">
        <ele>4.1999998092651</ele>
        <time>2022-08-18T09:28:16.000Z</time>
      </trkpt>
      <trkpt lat="47.29447" lon="-2.43454">
        <ele>3.5999999046326</ele>
        <time>2022-08-18T09:28:17.000Z</time>
      </trkpt>
      <trkpt lat="47.29447" lon="-2.43453">
        <ele>3.2000000476837</ele>
        <time>2022-08-18T09:28:18.000Z</time>
      </trkpt>
      <trkpt lat="47.29447" lon="-2.43452">
        <ele>2.7999999523163</ele>
        <time>2022-08-18T09:28:19.000Z</time>
      </trkpt>
      <trkpt lat="47.29443" lon="-2.43448">
        <ele>2.7999999523163</ele>
        <time>2022-08-18T09:28:52.000Z</time>
      </trkpt>
      <trkpt lat="47.29439" lon="-2.43435">
        <ele>2.7999999523163</ele>
        <time>2022-08-18T09:28:56.000Z</time>
      </trkpt>
      <trkpt lat="47.29434" lon="-2.43406">
        <ele>2.7999999523163</ele>
        <time>2022-08-18T09:29:01.000Z</time>
      </trkpt>
      <trkpt lat="47.29429" lon="-2.43391">
        <ele>2.7999999523163</ele>
        <time>2022-08-18T09:29:04.000Z</time>
      </trkpt>
      <trkpt lat="47.29425" lon="-2.43388">
        <ele>2.7999999523163</ele>
        <time>2022-08-18T09:29:05.000Z</time>
      </trkpt>
      <trkpt lat="47.29411" lon="-2.43381">
        <ele>2.7999999523163</ele>
        <time>2022-08-18T09:29:09.000Z</time>
      </trkpt>
      <trkpt lat="47.29406" lon="-2.43362">
        <ele>2.7999999523163</ele>
        <time>2022-08-18T09:29:13.000Z</time>
      </trkpt>
      <trkpt lat="47.29404" lon="-2.43356">
        <ele>2.7999999523163</ele>
        <time>2022-08-18T09:29:14.000Z</time>
      </trkpt>
      <trkpt lat="47.29393" lon="-2.43336">
        <ele>2.7999999523163</ele>
        <time>2022-08-18T09:29:18.000Z</time>
      </trkpt>
      <trkpt lat="47.2939" lon="-2.43331">
        <ele>2.7999999523163</ele>
        <time>2022-08-18T09:29:19.000Z</time>
      </trkpt>
      <trkpt lat="47.29377" lon="-2.43311">
        <ele>2.7999999523163</ele>
        <time>2022-08-18T09:29:23.000Z</time>
      </trkpt>
      <trkpt lat="47.29365" lon="-2.43296">
        <ele>2.7999999523163</ele>
        <time>2022-08-18T09:29:26.000Z</time>
      </trkpt>
      <trkpt lat="47.29361" lon="-2.43283">
        <ele>2.7999999523163</ele>
        <time>2022-08-18T09:29:28.000Z</time>
      </trkpt>
      <trkpt lat="47.29359" lon="-2.43258">
        <ele>2.7999999523163</ele>
        <time>2022-08-18T09:29:32.000Z</time>
      </trkpt>
      <trkpt lat="47.29362" lon="-2.43237">
        <ele>2.7999999523163</ele>
        <time>2022-08-18T09:29:36.000Z</time>
      </trkpt>
      <trkpt lat="47.29366" lon="-2.43231">
        <ele>2.7999999523163</ele>
        <time>2022-08-18T09:29:37.000Z</time>
      </trkpt>
      <trkpt lat="47.29369" lon="-2.43223">
        <ele>2.7999999523163</ele>
        <time>2022-08-18T09:29:38.000Z</time>
      </trkpt>
      <trkpt lat="47.29371" lon="-2.43215">
        <ele>2.7999999523163</ele>
        <time>2022-08-18T09:29:39.000Z</time>
      </trkpt>
      <trkpt lat="47.29372" lon="-2.43182">
        <ele>2.7999999523163</ele>
        <time>2022-08-18T09:29:43.000Z</time>
      </trkpt>
      <trkpt lat="47.29368" lon="-2.43165">
        <ele>2.7999999523163</ele>
        <time>2022-08-18T09:29:45.000Z</time>
      </trkpt>
      <trkpt lat="47.2936" lon="-2.43134">
        <ele>2.7999999523163</ele>
        <time>2022-08-18T09:29:49.000Z</time>
      </trkpt>
      <trkpt lat="47.29345" lon="-2.43102">
        <ele>2.7999999523163</ele>
        <time>2022-08-18T09:29:54.000Z</time>
      </trkpt>
      <trkpt lat="47.29342" lon="-2.43096">
        <ele>2.7999999523163</ele>
        <time>2022-08-18T09:29:55.000Z</time>
      </trkpt>
      <trkpt lat="47.2933" lon="-2.43085">
        <ele>2.7999999523163</ele>
        <time>2022-08-18T09:29:58.000Z</time>
      </trkpt>
      <trkpt lat="47.29325" lon="-2.43082">
        <ele>2.7999999523163</ele>
        <time>2022-08-18T09:29:59.000Z</time>
      </trkpt>
      <trkpt lat="47.29308" lon="-2.4307">
        <ele>2.7999999523163</ele>
        <time>2022-08-18T09:30:03.000Z</time>
      </trkpt>
      <trkpt lat="47.29305" lon="-2.43064">
        <ele>2.7999999523163</ele>
        <time>2022-08-18T09:30:04.000Z</time>
      </trkpt>
      <trkpt lat="47.29303" lon="-2.4304">
        <ele>2.7999999523163</ele>
        <time>2022-08-18T09:30:07.000Z</time>
      </trkpt>
      <trkpt lat="47.29305" lon="-2.43023">
        <ele>2.7999999523163</ele>
        <time>2022-08-18T09:30:09.000Z</time>
      </trkpt>
      <trkpt lat="47.2931" lon="-2.4299">
        <ele>2.7999999523163</ele>
        <time>2022-08-18T09:30:13.000Z</time>
      </trkpt>
      <trkpt lat="47.29311" lon="-2.42963">
        <ele>2.7999999523163</ele>
        <time>2022-08-18T09:30:16.000Z</time>
      </trkpt>
      <trkpt lat="47.2931" lon="-2.42945">
        <ele>2.7999999523163</ele>
        <time>2022-08-18T09:30:18.000Z</time>
      </trkpt>
      <trkpt lat="47.2931" lon="-2.42937">
        <ele>2.7999999523163</ele>
        <time>2022-08-18T09:30:19.000Z</time>
      </trkpt>
      <trkpt lat="47.29313" lon="-2.42921">
        <ele>2.7999999523163</ele>
        <time>2022-08-18T09:30:21.000Z</time>
      </trkpt>
      <trkpt lat="47.29328" lon="-2.42865">
        <ele>2.7999999523163</ele>
        <time>2022-08-18T09:30:28.000Z</time>
      </trkpt>
      <trkpt lat="47.29345" lon="-2.4283">
        <ele>2.7999999523163</ele>
        <time>2022-08-18T09:30:33.000Z</time>
      </trkpt>
      <trkpt lat="47.2935" lon="-2.42824">
        <ele>2.7999999523163</ele>
        <time>2022-08-18T09:30:34.000Z</time>
      </trkpt>
      <trkpt lat="47.29363" lon="-2.42811">
        <ele>2.7999999523163</ele>
        <time>2022-08-18T09:30:37.000Z</time>
      </trkpt>
      <trkpt lat="47.29367" lon="-2.42807">
        <ele>2.7999999523163</ele>
        <time>2022-08-18T09:30:38.000Z</time>
      </trkpt>
      <trkpt lat="47.2937" lon="-2.42801">
        <ele>2.7999999523163</ele>
        <time>2022-08-18T09:30:39.000Z</time>
      </trkpt>
      <trkpt lat="47.2938" lon="-2.42772">
        <ele>2.7999999523163</ele>
        <time>2022-08-18T09:30:43.000Z</time>
      </trkpt>
      <trkpt lat="47.29382" lon="-2.42765">
        <ele>2.7999999523163</ele>
        <time>2022-08-18T09:30:44.000Z</time>
      </trkpt>
      <trkpt lat="47.29397" lon="-2.42715">
        <ele>2.7999999523163</ele>
        <time>2022-08-18T09:30:50.000Z</time>
      </trkpt>
      <trkpt lat="47.29413" lon="-2.42673">
        <ele>2.7999999523163</ele>
        <time>2022-08-18T09:30:55.000Z</time>
      </trkpt>
      <trkpt lat="47.29418" lon="-2.42627">
        <ele>2.7999999523163</ele>
        <time>2022-08-18T09:31:00.000Z</time>
      </trkpt>
      <trkpt lat="47.2942" lon="-2.4261">
        <ele>2.7999999523163</ele>
        <time>2022-08-18T09:31:02.000Z</time>
      </trkpt>
      <trkpt lat="47.29423" lon="-2.42584">
        <ele>2.7999999523163</ele>
        <time>2022-08-18T09:31:05.000Z</time>
      </trkpt>
      <trkpt lat="47.29436" lon="-2.42566">
        <ele>2.7999999523163</ele>
        <time>2022-08-18T09:31:08.000Z</time>
      </trkpt>
      <trkpt lat="47.29449" lon="-2.4255">
        <ele>2.7999999523163</ele>
        <time>2022-08-18T09:31:11.000Z</time>
      </trkpt>
      <trkpt lat="47.29458" lon="-2.42542">
        <ele>2.7999999523163</ele>
        <time>2022-08-18T09:31:13.000Z</time>
      </trkpt>
      <trkpt lat="47.29479" lon="-2.4252">
        <ele>2.7999999523163</ele>
        <time>2022-08-18T09:31:18.000Z</time>
      </trkpt>
      <trkpt lat="47.29498" lon="-2.42501">
        <ele>2.7999999523163</ele>
        <time>2022-08-18T09:31:22.000Z</time>
      </trkpt>
      <trkpt lat="47.29512" lon="-2.42484">
        <ele>2.7999999523163</ele>
        <time>2022-08-18T09:31:25.000Z</time>
      </trkpt>
      <trkpt lat="47.29533" lon="-2.42465">
        <ele>2.7999999523163</ele>
        <time>2022-08-18T09:31:29.000Z</time>
      </trkpt>
      <trkpt lat="47.29548" lon="-2.42439">
        <ele>2.7999999523163</ele>
        <time>2022-08-18T09:31:33.000Z</time>
      </trkpt>
      <trkpt lat="47.29567" lon="-2.42423">
        <ele>2.7999999523163</ele>
        <time>2022-08-18T09:31:37.000Z</time>
      </trkpt>
      <trkpt lat="47.29588" lon="-2.42425">
        <ele>2.7999999523163</ele>
        <time>2022-08-18T09:31:41.000Z</time>
      </trkpt>
      <trkpt lat="47.29593" lon="-2.42427">
        <ele>2.7999999523163</ele>
        <time>2022-08-18T09:31:42.000Z</time>
      </trkpt>
      <trkpt lat="47.29619" lon="-2.42436">
        <ele>2.7999999523163</ele>
        <time>2022-08-18T09:31:48.000Z</time>
      </trkpt>
      <trkpt lat="47.29621" lon="-2.42435">
        <ele>2.7999999523163</ele>
        <time>2022-08-18T09:31:49.000Z</time>
      </trkpt>
      <trkpt lat="47.29625" lon="-2.42426">
        <ele>2.7999999523163</ele>
        <time>2022-08-18T09:31:51.000Z</time>
      </trkpt>
      <trkpt lat="47.29629" lon="-2.42404">
        <ele>2.7999999523163</ele>
        <time>2022-08-18T09:31:54.000Z</time>
      </trkpt>
      <trkpt lat="47.29641" lon="-2.4235">
        <ele>2.7999999523163</ele>
        <time>2022-08-18T09:32:00.000Z</time>
      </trkpt>
      <trkpt lat="47.29656" lon="-2.42282">
        <ele>2.7999999523163</ele>
        <time>2022-08-18T09:32:08.000Z</time>
      </trkpt>
      <trkpt lat="47.2966" lon="-2.42266">
        <ele>2.7999999523163</ele>
        <time>2022-08-18T09:32:10.000Z</time>
      </trkpt>
      <trkpt lat="47.2967" lon="-2.42235">
        <ele>2.7999999523163</ele>
        <time>2022-08-18T09:32:14.000Z</time>
      </trkpt>
      <trkpt lat="47.29675" lon="-2.42219">
        <ele>2.7999999523163</ele>
        <time>2022-08-18T09:32:16.000Z</time>
      </trkpt>
      <trkpt lat="47.29687" lon="-2.42197">
        <ele>2.7999999523163</ele>
        <time>2022-08-18T09:32:19.000Z</time>
      </trkpt>
      <trkpt lat="47.29715" lon="-2.42147">
        <ele>2.7999999523163</ele>
        <time>2022-08-18T09:32:26.000Z</time>
      </trkpt>
      <trkpt lat="47.2975" lon="-2.42083">
        <ele>2.7999999523163</ele>
        <time>2022-08-18T09:32:35.000Z</time>
      </trkpt>
      <trkpt lat="47.29754" lon="-2.42075">
        <ele>2.7999999523163</ele>
        <time>2022-08-18T09:32:36.000Z</time>
      </trkpt>
      <trkpt lat="47.29782" lon="-2.42022">
        <ele>2.7999999523163</ele>
        <time>2022-08-18T09:32:43.000Z</time>
      </trkpt>
      <trkpt lat="47.29784" lon="-2.42013">
        <ele>2.7999999523163</ele>
        <time>2022-08-18T09:32:44.000Z</time>
      </trkpt>
      <trkpt lat="47.29785" lon="-2.41983">
        <ele>2.7999999523163</ele>
        <time>2022-08-18T09:32:47.000Z</time>
      </trkpt>
      <trkpt lat="47.29781" lon="-2.41963">
        <ele>2.7999999523163</ele>
        <time>2022-08-18T09:32:49.000Z</time>
      </trkpt>
      <trkpt lat="47.29772" lon="-2.41925">
        <ele>2.7999999523163</ele>
        <time>2022-08-18T09:32:53.000Z</time>
      </trkpt>
      <trkpt lat="47.29765" lon="-2.4187">
        <ele>2.7999999523163</ele>
        <time>2022-08-18T09:32:59.000Z</time>
      </trkpt>
      <trkpt lat="47.29768" lon="-2.41815">
        <ele>2.7999999523163</ele>
        <time>2022-08-18T09:33:06.000Z</time>
      </trkpt>
      <trkpt lat="47.29767" lon="-2.41768">
        <ele>2.7999999523163</ele>
        <time>2022-08-18T09:33:12.000Z</time>
      </trkpt>
      <trkpt lat="47.29765" lon="-2.41755">
        <ele>2.7999999523163</ele>
        <time>2022-08-18T09:33:14.000Z</time>
      </trkpt>
      <trkpt lat="47.29756" lon="-2.41747">
        <ele>2.7999999523163</ele>
        <time>2022-08-18T09:33:16.000Z</time>
      </trkpt>
      <trkpt lat="47.29741" lon="-2.41753">
        <ele>2.7999999523163</ele>
        <time>2022-08-18T09:33:19.000Z</time>
      </trkpt>
      <trkpt lat="47.29736" lon="-2.41757">
        <ele>2.7999999523163</ele>
        <time>2022-08-18T09:33:20.000Z</time>
      </trkpt>
      <trkpt lat="47.29722" lon="-2.41774">
        <ele>2.7999999523163</ele>
        <time>2022-08-18T09:33:23.000Z</time>
      </trkpt>
      <trkpt lat="47.29718" lon="-2.41781">
        <ele>2.7999999523163</ele>
        <time>2022-08-18T09:33:24.000Z</time>
      </trkpt>
      <trkpt lat="47.29705" lon="-2.41803">
        <ele>2.7999999523163</ele>
        <time>2022-08-18T09:33:27.000Z</time>
      </trkpt>
      <trkpt lat="47.29691" lon="-2.41819">
        <ele>2.7999999523163</ele>
        <time>2022-08-18T09:33:30.000Z</time>
      </trkpt>
      <trkpt lat="47.29666" lon="-2.41824">
        <ele>2.7999999523163</ele>
        <time>2022-08-18T09:33:34.000Z</time>
      </trkpt>
      <trkpt lat="47.29643" lon="-2.41822">
        <ele>2.7999999523163</ele>
        <time>2022-08-18T09:33:38.000Z</time>
      </trkpt>
      <trkpt lat="47.29634" lon="-2.418">
        <ele>2.7999999523163</ele>
        <time>2022-08-18T09:33:41.000Z</time>
      </trkpt>
      <trkpt lat="47.29633" lon="-2.41792">
        <ele>2.7999999523163</ele>
        <time>2022-08-18T09:33:42.000Z</time>
      </trkpt>
      <trkpt lat="47.29631" lon="-2.41775">
        <ele>2.7999999523163</ele>
        <time>2022-08-18T09:33:44.000Z</time>
      </trkpt>
      <trkpt lat="47.29613" lon="-2.41747">
        <ele>2.7999999523163</ele>
        <time>2022-08-18T09:33:48.000Z</time>
      </trkpt>
      <trkpt lat="47.29575" lon="-2.41714">
        <ele>2.7999999523163</ele>
        <time>2022-08-18T09:33:55.000Z</time>
      </trkpt>
      <trkpt lat="47.29569" lon="-2.41711">
        <ele>2.7999999523163</ele>
        <time>2022-08-18T09:33:56.000Z</time>
      </trkpt>
      <trkpt lat="47.29553" lon="-2.41699">
        <ele>2.7999999523163</ele>
        <time>2022-08-18T09:33:59.000Z</time>
      </trkpt>
      <trkpt lat="47.29543" lon="-2.41681">
        <ele>2.7999999523163</ele>
        <time>2022-08-18T09:34:02.000Z</time>
      </trkpt>
      <trkpt lat="47.2954" lon="-2.41674">
        <ele>2.7999999523163</ele>
        <time>2022-08-18T09:34:03.000Z</time>
      </trkpt>
      <trkpt lat="47.29534" lon="-2.41659">
        <ele>2.7999999523163</ele>
        <time>2022-08-18T09:34:05.000Z</time>
      </trkpt>
      <trkpt lat="47.2953" lon="-2.41642">
        <ele>2.7999999523163</ele>
        <time>2022-08-18T09:34:07.000Z</time>
      </trkpt>
      <trkpt lat="47.29527" lon="-2.41626">
        <ele>2.7999999523163</ele>
        <time>2022-08-18T09:34:09.000Z</time>
      </trkpt>
      <trkpt lat="47.29526" lon="-2.41609">
        <ele>2.7999999523163</ele>
        <time>2022-08-18T09:34:11.000Z</time>
      </trkpt>
      <trkpt lat="47.29526" lon="-2.41601">
        <ele>2.7999999523163</ele>
        <time>2022-08-18T09:34:12.000Z</time>
      </trkpt>
      <trkpt lat="47.29527" lon="-2.41586">
        <ele>2.7999999523163</ele>
        <time>2022-08-18T09:34:14.000Z</time>
      </trkpt>
      <trkpt lat="47.29532" lon="-2.41567">
        <ele>2.7999999523163</ele>
        <time>2022-08-18T09:34:17.000Z</time>
      </trkpt>
      <trkpt lat="47.29538" lon="-2.41544">
        <ele>2.7999999523163</ele>
        <time>2022-08-18T09:34:20.000Z</time>
      </trkpt>
      <trkpt lat="47.29539" lon="-2.41528">
        <ele>2.7999999523163</ele>
        <time>2022-08-18T09:34:22.000Z</time>
      </trkpt>
      <trkpt lat="47.29532" lon="-2.41505">
        <ele>2.7999999523163</ele>
        <time>2022-08-18T09:34:25.000Z</time>
      </trkpt>
      <trkpt lat="47.29525" lon="-2.41491">
        <ele>2.7999999523163</ele>
        <time>2022-08-18T09:34:27.000Z</time>
      </trkpt>
      <trkpt lat="47.29516" lon="-2.41479">
        <ele>2.7999999523163</ele>
        <time>2022-08-18T09:34:29.000Z</time>
      </trkpt>
      <trkpt lat="47.29511" lon="-2.41475">
        <ele>2.7999999523163</ele>
        <time>2022-08-18T09:34:30.000Z</time>
      </trkpt>
      <trkpt lat="47.29495" lon="-2.4148">
        <ele>2.7999999523163</ele>
        <time>2022-08-18T09:34:33.000Z</time>
      </trkpt>
      <trkpt lat="47.29489" lon="-2.41483">
        <ele>2.7999999523163</ele>
        <time>2022-08-18T09:34:34.000Z</time>
      </trkpt>
      <trkpt lat="47.29484" lon="-2.41484">
        <ele>2.7999999523163</ele>
        <time>2022-08-18T09:34:35.000Z</time>
      </trkpt>
      <trkpt lat="47.29472" lon="-2.41482">
        <ele>2.7999999523163</ele>
        <time>2022-08-18T09:34:37.000Z</time>
      </trkpt>
      <trkpt lat="47.29453" lon="-2.41484">
        <ele>2.7999999523163</ele>
        <time>2022-08-18T09:34:40.000Z</time>
      </trkpt>
      <trkpt lat="47.29447" lon="-2.41485">
        <ele>2.7999999523163</ele>
        <time>2022-08-18T09:34:41.000Z</time>
      </trkpt>
      <trkpt lat="47.29441" lon="-2.41486">
        <ele>2.7999999523163</ele>
        <time>2022-08-18T09:34:42.000Z</time>
      </trkpt>
      <trkpt lat="47.29424" lon="-2.41478">
        <ele>2.7999999523163</ele>
        <time>2022-08-18T09:34:45.000Z</time>
      </trkpt>
      <trkpt lat="47.2941" lon="-2.4146">
        <ele>2.7999999523163</ele>
        <time>2022-08-18T09:34:48.000Z</time>
      </trkpt>
      <trkpt lat="47.29394" lon="-2.41431">
        <ele>2.7999999523163</ele>
        <time>2022-08-18T09:34:52.000Z</time>
      </trkpt>
      <trkpt lat="47.29376" lon="-2.41391">
        <ele>2.7999999523163</ele>
        <time>2022-08-18T09:34:57.000Z</time>
      </trkpt>
      <trkpt lat="47.29371" lon="-2.41384">
        <ele>2.7999999523163</ele>
        <time>2022-08-18T09:34:58.000Z</time>
      </trkpt>
      <trkpt lat="47.29352" lon="-2.41357">
        <ele>2.7999999523163</ele>
        <time>2022-08-18T09:35:02.000Z</time>
      </trkpt>
      <trkpt lat="47.29349" lon="-2.41349">
        <ele>2.7999999523163</ele>
        <time>2022-08-18T09:35:03.000Z</time>
      </trkpt>
      <trkpt lat="47.29349" lon="-2.41322">
        <ele>2.7999999523163</ele>
        <time>2022-08-18T09:35:06.000Z</time>
      </trkpt>
      <trkpt lat="47.29358" lon="-2.41301">
        <ele>2.7999999523163</ele>
        <time>2022-08-18T09:35:09.000Z</time>
      </trkpt>
      <trkpt lat="47.29359" lon="-2.41293">
        <ele>2.7999999523163</ele>
        <time>2022-08-18T09:35:10.000Z</time>
      </trkpt>
      <trkpt lat="47.29357" lon="-2.41269">
        <ele>2.7999999523163</ele>
        <time>2022-08-18T09:35:13.000Z</time>
      </trkpt>
      <trkpt lat="47.29349" lon="-2.41239">
        <ele>2.7999999523163</ele>
        <time>2022-08-18T09:35:17.000Z</time>
      </trkpt>
      <trkpt lat="47.29335" lon="-2.41222">
        <ele>2.7999999523163</ele>
        <time>2022-08-18T09:35:20.000Z</time>
      </trkpt>
      <trkpt lat="47.2933" lon="-2.41216">
        <ele>2.7999999523163</ele>
        <time>2022-08-18T09:35:21.000Z</time>
      </trkpt>
      <trkpt lat="47.29311" lon="-2.41194">
        <ele>2.7999999523163</ele>
        <time>2022-08-18T09:35:25.000Z</time>
      </trkpt>
      <trkpt lat="47.29302" lon="-2.41183">
        <ele>2.7999999523163</ele>
        <time>2022-08-18T09:35:27.000Z</time>
      </trkpt>
      <trkpt lat="47.29294" lon="-2.41161">
        <ele>2.7999999523163</ele>
        <time>2022-08-18T09:35:30.000Z</time>
      </trkpt>
      <trkpt lat="47.29283" lon="-2.41139">
        <ele>2.7999999523163</ele>
        <time>2022-08-18T09:35:33.000Z</time>
      </trkpt>
      <trkpt lat="47.29275" lon="-2.41126">
        <ele>2.7999999523163</ele>
        <time>2022-08-18T09:35:35.000Z</time>
      </trkpt>
      <trkpt lat="47.29271" lon="-2.4112">
        <ele>2.7999999523163</ele>
        <time>2022-08-18T09:35:36.000Z</time>
      </trkpt>
      <trkpt lat="47.29252" lon="-2.41097">
        <ele>2.7999999523163</ele>
        <time>2022-08-18T09:35:40.000Z</time>
      </trkpt>
      <trkpt lat="47.29247" lon="-2.41067">
        <ele>2.7999999523163</ele>
        <time>2022-08-18T09:35:44.000Z</time>
      </trkpt>
      <trkpt lat="47.29255" lon="-2.41046">
        <ele>2.7999999523163</ele>
        <time>2022-08-18T09:35:47.000Z</time>
      </trkpt>
      <trkpt lat="47.2925" lon="-2.41032">
        <ele>2.7999999523163</ele>
        <time>2022-08-18T09:35:49.000Z</time>
      </trkpt>
      <trkpt lat="47.29241" lon="-2.41021">
        <ele>2.7999999523163</ele>
        <time>2022-08-18T09:35:51.000Z</time>
      </trkpt>
      <trkpt lat="47.29237" lon="-2.41014">
        <ele>2.7999999523163</ele>
        <time>2022-08-18T09:35:52.000Z</time>
      </trkpt>
      <trkpt lat="47.2923" lon="-2.41">
        <ele>2.7999999523163</ele>
        <time>2022-08-18T09:35:54.000Z</time>
      </trkpt>
      <trkpt lat="47.29208" lon="-2.40954">
        <ele>2.7999999523163</ele>
        <time>2022-08-18T09:36:00.000Z</time>
      </trkpt>
      <trkpt lat="47.29191" lon="-2.40944">
        <ele>2.7999999523163</ele>
        <time>2022-08-18T09:36:03.000Z</time>
      </trkpt>
      <trkpt lat="47.29166" lon="-2.40934">
        <ele>2.7999999523163</ele>
        <time>2022-08-18T09:36:07.000Z</time>
      </trkpt>
      <trkpt lat="47.29161" lon="-2.40918">
        <ele>2.7999999523163</ele>
        <time>2022-08-18T09:36:09.000Z</time>
      </trkpt>
      <trkpt lat="47.29165" lon="-2.40891">
        <ele>2.7999999523163</ele>
        <time>2022-08-18T09:36:12.000Z</time>
      </trkpt>
      <trkpt lat="47.29171" lon="-2.40855">
        <ele>2.7999999523163</ele>
        <time>2022-08-18T09:36:16.000Z</time>
      </trkpt>
      <trkpt lat="47.29171" lon="-2.40838">
        <ele>2.7999999523163</ele>
        <time>2022-08-18T09:36:18.000Z</time>
      </trkpt>
      <trkpt lat="47.29171" lon="-2.4082">
        <ele>2.7999999523163</ele>
        <time>2022-08-18T09:36:20.000Z</time>
      </trkpt>
      <trkpt lat="47.29174" lon="-2.40802">
        <ele>2.7999999523163</ele>
        <time>2022-08-18T09:36:22.000Z</time>
      </trkpt>
      <trkpt lat="47.29177" lon="-2.40794">
        <ele>2.7999999523163</ele>
        <time>2022-08-18T09:36:23.000Z</time>
      </trkpt>
      <trkpt lat="47.29185" lon="-2.40771">
        <ele>2.7999999523163</ele>
        <time>2022-08-18T09:36:26.000Z</time>
      </trkpt>
      <trkpt lat="47.29191" lon="-2.40755">
        <ele>2.7999999523163</ele>
        <time>2022-08-18T09:36:28.000Z</time>
      </trkpt>
      <trkpt lat="47.29203" lon="-2.40734">
        <ele>2.7999999523163</ele>
        <time>2022-08-18T09:36:31.000Z</time>
      </trkpt>
      <trkpt lat="47.29207" lon="-2.40729">
        <ele>2.7999999523163</ele>
        <time>2022-08-18T09:36:32.000Z</time>
      </trkpt>
      <trkpt lat="47.29222" lon="-2.40703">
        <ele>2.7999999523163</ele>
        <time>2022-08-18T09:36:36.000Z</time>
      </trkpt>
      <trkpt lat="47.29225" lon="-2.40696">
        <ele>2.7999999523163</ele>
        <time>2022-08-18T09:36:37.000Z</time>
      </trkpt>
      <trkpt lat="47.29231" lon="-2.40681">
        <ele>2.7999999523163</ele>
        <time>2022-08-18T09:36:39.000Z</time>
      </trkpt>
      <trkpt lat="47.29231" lon="-2.40663">
        <ele>2.7999999523163</ele>
        <time>2022-08-18T09:36:41.000Z</time>
      </trkpt>
      <trkpt lat="47.29222" lon="-2.40637">
        <ele>2.7999999523163</ele>
        <time>2022-08-18T09:36:44.000Z</time>
      </trkpt>
      <trkpt lat="47.29218" lon="-2.4063">
        <ele>2.7999999523163</ele>
        <time>2022-08-18T09:36:45.000Z</time>
      </trkpt>
      <trkpt lat="47.29204" lon="-2.40613">
        <ele>2.7999999523163</ele>
        <time>2022-08-18T09:36:48.000Z</time>
      </trkpt>
      <trkpt lat="47.29187" lon="-2.40617">
        <ele>2.7999999523163</ele>
        <time>2022-08-18T09:36:51.000Z</time>
      </trkpt>
      <trkpt lat="47.29183" lon="-2.4062">
        <ele>2.7999999523163</ele>
        <time>2022-08-18T09:36:52.000Z</time>
      </trkpt>
      <trkpt lat="47.2916" lon="-2.40637">
        <ele>2.7999999523163</ele>
        <time>2022-08-18T09:36:57.000Z</time>
      </trkpt>
      <trkpt lat="47.29151" lon="-2.40643">
        <ele>2.7999999523163</ele>
        <time>2022-08-18T09:36:59.000Z</time>
      </trkpt>
      <trkpt lat="47.29143" lon="-2.40636">
        <ele>2.7999999523163</ele>
        <time>2022-08-18T09:37:01.000Z</time>
      </trkpt>
      <trkpt lat="47.2914" lon="-2.40616">
        <ele>2.7999999523163</ele>
        <time>2022-08-18T09:37:04.000Z</time>
      </trkpt>
      <trkpt lat="47.29138" lon="-2.40601">
        <ele>2.7999999523163</ele>
        <time>2022-08-18T09:37:06.000Z</time>
      </trkpt>
      <trkpt lat="47.29129" lon="-2.4058">
        <ele>2.7999999523163</ele>
        <time>2022-08-18T09:37:09.000Z</time>
      </trkpt>
      <trkpt lat="47.29112" lon="-2.40557">
        <ele>2.7999999523163</ele>
        <time>2022-08-18T09:37:13.000Z</time>
      </trkpt>
      <trkpt lat="47.29108" lon="-2.40552">
        <ele>2.7999999523163</ele>
        <time>2022-08-18T09:37:14.000Z</time>
      </trkpt>
      <trkpt lat="47.291" lon="-2.40541">
        <ele>2.7999999523163</ele>
        <time>2022-08-18T09:37:16.000Z</time>
      </trkpt>
      <trkpt lat="47.29099" lon="-2.40525">
        <ele>2.7999999523163</ele>
        <time>2022-08-18T09:37:18.000Z</time>
      </trkpt>
      <trkpt lat="47.29109" lon="-2.40505">
        <ele>2.7999999523163</ele>
        <time>2022-08-18T09:37:21.000Z</time>
      </trkpt>
      <trkpt lat="47.29124" lon="-2.40495">
        <ele>2.7999999523163</ele>
        <time>2022-08-18T09:37:24.000Z</time>
      </trkpt>
      <trkpt lat="47.29129" lon="-2.40493">
        <ele>2.7999999523163</ele>
        <time>2022-08-18T09:37:25.000Z</time>
      </trkpt>
      <trkpt lat="47.29146" lon="-2.40487">
        <ele>2.7999999523163</ele>
        <time>2022-08-18T09:37:28.000Z</time>
      </trkpt>
      <trkpt lat="47.29156" lon="-2.40488">
        <ele>2.7999999523163</ele>
        <time>2022-08-18T09:37:30.000Z</time>
      </trkpt>
      <trkpt lat="47.29166" lon="-2.40506">
        <ele>2.7999999523163</ele>
        <time>2022-08-18T09:37:33.000Z</time>
      </trkpt>
      <trkpt lat="47.29178" lon="-2.4052">
        <ele>2.7999999523163</ele>
        <time>2022-08-18T09:37:36.000Z</time>
      </trkpt>
      <trkpt lat="47.29192" lon="-2.40514">
        <ele>2.7999999523163</ele>
        <time>2022-08-18T09:37:39.000Z</time>
      </trkpt>
      <trkpt lat="47.29208" lon="-2.40507">
        <ele>2.7999999523163</ele>
        <time>2022-08-18T09:37:42.000Z</time>
      </trkpt>
      <trkpt lat="47.29228" lon="-2.40493">
        <ele>2.7999999523163</ele>
        <time>2022-08-18T09:37:46.000Z</time>
      </trkpt>
      <trkpt lat="47.29238" lon="-2.40487">
        <ele>2.7999999523163</ele>
        <time>2022-08-18T09:37:48.000Z</time>
      </trkpt>
      <trkpt lat="47.29253" lon="-2.4048">
        <ele>2.7999999523163</ele>
        <time>2022-08-18T09:37:51.000Z</time>
      </trkpt>
      <trkpt lat="47.29268" lon="-2.40472">
        <ele>2.7999999523163</ele>
        <time>2022-08-18T09:37:54.000Z</time>
      </trkpt>
      <trkpt lat="47.29283" lon="-2.40467">
        <ele>2.7999999523163</ele>
        <time>2022-08-18T09:37:57.000Z</time>
      </trkpt>
      <trkpt lat="47.29294" lon="-2.40451">
        <ele>2.7999999523163</ele>
        <time>2022-08-18T09:38:00.000Z</time>
      </trkpt>
      <trkpt lat="47.29303" lon="-2.40422">
        <ele>2.7999999523163</ele>
        <time>2022-08-18T09:38:04.000Z</time>
      </trkpt>
      <trkpt lat="47.29305" lon="-2.40414">
        <ele>2.7999999523163</ele>
        <time>2022-08-18T09:38:05.000Z</time>
      </trkpt>
      <trkpt lat="47.29306" lon="-2.40406">
        <ele>2.7999999523163</ele>
        <time>2022-08-18T09:38:06.000Z</time>
      </trkpt>
      <trkpt lat="47.293" lon="-2.4039">
        <ele>2.7999999523163</ele>
        <time>2022-08-18T09:38:08.000Z</time>
      </trkpt>
      <trkpt lat="47.29287" lon="-2.40364">
        <ele>2.7999999523163</ele>
        <time>2022-08-18T09:38:12.000Z</time>
      </trkpt>
      <trkpt lat="47.29286" lon="-2.40356">
        <ele>2.7999999523163</ele>
        <time>2022-08-18T09:38:13.000Z</time>
      </trkpt>
      <trkpt lat="47.29292" lon="-2.40335">
        <ele>2.7999999523163</ele>
        <time>2022-08-18T09:38:16.000Z</time>
      </trkpt>
      <trkpt lat="47.29304" lon="-2.40322">
        <ele>2.7999999523163</ele>
        <time>2022-08-18T09:38:19.000Z</time>
      </trkpt>
      <trkpt lat="47.29309" lon="-2.40317">
        <ele>2.7999999523163</ele>
        <time>2022-08-18T09:38:20.000Z</time>
      </trkpt>
      <trkpt lat="47.29318" lon="-2.40307">
        <ele>2.7999999523163</ele>
        <time>2022-08-18T09:38:22.000Z</time>
      </trkpt>
      <trkpt lat="47.2933" lon="-2.40292">
        <ele>2.7999999523163</ele>
        <time>2022-08-18T09:38:25.000Z</time>
      </trkpt>
      <trkpt lat="47.29349" lon="-2.40274">
        <ele>2.7999999523163</ele>
        <time>2022-08-18T09:38:29.000Z</time>
      </trkpt>
      <trkpt lat="47.29358" lon="-2.40265">
        <ele>2.7999999523163</ele>
        <time>2022-08-18T09:38:31.000Z</time>
      </trkpt>
      <trkpt lat="47.29375" lon="-2.40248">
        <ele>2.7999999523163</ele>
        <time>2022-08-18T09:38:35.000Z</time>
      </trkpt>
      <trkpt lat="47.29384" lon="-2.40242">
        <ele>2.7999999523163</ele>
        <time>2022-08-18T09:38:37.000Z</time>
      </trkpt>
      <trkpt lat="47.29415" lon="-2.40223">
        <ele>2.7999999523163</ele>
        <time>2022-08-18T09:38:44.000Z</time>
      </trkpt>
      <trkpt lat="47.29429" lon="-2.40217">
        <ele>2.7999999523163</ele>
        <time>2022-08-18T09:38:47.000Z</time>
      </trkpt>
      <trkpt lat="47.29439" lon="-2.40217">
        <ele>2.7999999523163</ele>
        <time>2022-08-18T09:38:49.000Z</time>
      </trkpt>
      <trkpt lat="47.29445" lon="-2.40207">
        <ele>2.7999999523163</ele>
        <time>2022-08-18T09:38:51.000Z</time>
      </trkpt>
      <trkpt lat="47.29448" lon="-2.40191">
        <ele>2.7999999523163</ele>
        <time>2022-08-18T09:38:53.000Z</time>
      </trkpt>
      <trkpt lat="47.2945" lon="-2.40176">
        <ele>2.7999999523163</ele>
        <time>2022-08-18T09:38:55.000Z</time>
      </trkpt>
      <trkpt lat="47.29453" lon="-2.40155">
        <ele>2.7999999523163</ele>
        <time>2022-08-18T09:38:58.000Z</time>
      </trkpt>
      <trkpt lat="47.29454" lon="-2.40131">
        <ele>2.7999999523163</ele>
        <time>2022-08-18T09:39:01.000Z</time>
      </trkpt>
      <trkpt lat="47.29455" lon="-2.40116">
        <ele>2.7999999523163</ele>
        <time>2022-08-18T09:39:03.000Z</time>
      </trkpt>
      <trkpt lat="47.29459" lon="-2.40091">
        <ele>2.7999999523163</ele>
        <time>2022-08-18T09:39:06.000Z</time>
      </trkpt>
      <trkpt lat="47.29461" lon="-2.40075">
        <ele>2.7999999523163</ele>
        <time>2022-08-18T09:39:08.000Z</time>
      </trkpt>
      <trkpt lat="47.29461" lon="-2.40043">
        <ele>2.7999999523163</ele>
        <time>2022-08-18T09:39:12.000Z</time>
      </trkpt>
      <trkpt lat="47.29459" lon="-2.40012">
        <ele>2.7999999523163</ele>
        <time>2022-08-18T09:39:16.000Z</time>
      </trkpt>
      <trkpt lat="47.2946" lon="-2.40005">
        <ele>2.7999999523163</ele>
        <time>2022-08-18T09:39:17.000Z</time>
      </trkpt>
      <trkpt lat="47.29466" lon="-2.3997">
        <ele>2.7999999523163</ele>
        <time>2022-08-18T09:39:22.000Z</time>
      </trkpt>
      <trkpt lat="47.29468" lon="-2.39964">
        <ele>2.7999999523163</ele>
        <time>2022-08-18T09:39:23.000Z</time>
      </trkpt>
      <trkpt lat="47.2948" lon="-2.39935">
        <ele>2.7999999523163</ele>
        <time>2022-08-18T09:39:28.000Z</time>
      </trkpt>
      <trkpt lat="47.29484" lon="-2.39924">
        <ele>2.7999999523163</ele>
        <time>2022-08-18T09:39:30.000Z</time>
      </trkpt>
      <trkpt lat="47.2949" lon="-2.39906">
        <ele>2.7999999523163</ele>
        <time>2022-08-18T09:39:34.000Z</time>
      </trkpt>
      <trkpt lat="47.29501" lon="-2.39891">
        <ele>2.7999999523163</ele>
        <time>2022-08-18T09:39:38.000Z</time>
      </trkpt>
      <trkpt lat="47.29514" lon="-2.39869">
        <ele>2.7999999523163</ele>
        <time>2022-08-18T09:39:44.000Z</time>
      </trkpt>
      <trkpt lat="47.29529" lon="-2.39841">
        <ele>2.7999999523163</ele>
        <time>2022-08-18T09:39:52.000Z</time>
      </trkpt>
      <trkpt lat="47.29541" lon="-2.39817">
        <ele>2.7999999523163</ele>
        <time>2022-08-18T09:40:00.000Z</time>
      </trkpt>
      <trkpt lat="47.29552" lon="-2.39795">
        <ele>2.7999999523163</ele>
        <time>2022-08-18T09:40:08.000Z</time>
      </trkpt>
      <trkpt lat="47.2956" lon="-2.39769">
        <ele>2.7999999523163</ele>
        <time>2022-08-18T09:40:15.000Z</time>
      </trkpt>
      <trkpt lat="47.29575" lon="-2.39739">
        <ele>2.7999999523163</ele>
        <time>2022-08-18T09:40:23.000Z</time>
      </trkpt>
      <trkpt lat="47.29589" lon="-2.39712">
        <ele>2.7999999523163</ele>
        <time>2022-08-18T09:40:31.000Z</time>
      </trkpt>
      <trkpt lat="47.29602" lon="-2.39689">
        <ele>2.7999999523163</ele>
        <time>2022-08-18T09:40:38.000Z</time>
      </trkpt>
      <trkpt lat="47.29616" lon="-2.39666">
        <ele>2.7999999523163</ele>
        <time>2022-08-18T09:40:46.000Z</time>
      </trkpt>
      <trkpt lat="47.29624" lon="-2.39647">
        <ele>2.7999999523163</ele>
        <time>2022-08-18T09:40:52.000Z</time>
      </trkpt>
      <trkpt lat="47.29626" lon="-2.39621">
        <ele>2.7999999523163</ele>
        <time>2022-08-18T09:40:58.000Z</time>
      </trkpt>
      <trkpt lat="47.29627" lon="-2.39598">
        <ele>2.7999999523163</ele>
        <time>2022-08-18T09:41:04.000Z</time>
      </trkpt>
      <trkpt lat="47.29628" lon="-2.39584">
        <ele>2.7999999523163</ele>
        <time>2022-08-18T09:41:09.000Z</time>
      </trkpt>
      <trkpt lat="47.29622" lon="-2.39578">
        <ele>2.7999999523163</ele>
        <time>2022-08-18T09:41:13.000Z</time>
      </trkpt>
      <trkpt lat="47.29617" lon="-2.39578">
        <ele>2.7999999523163</ele>
        <time>2022-08-18T09:41:15.000Z</time>
      </trkpt>
      <trkpt lat="47.29611" lon="-2.39577">
        <ele>2.7999999523163</ele>
        <time>2022-08-18T09:41:18.000Z</time>
      </trkpt>
      <trkpt lat="47.29609" lon="-2.39573">
        <ele>2.7999999523163</ele>
        <time>2022-08-18T09:41:20.000Z</time>
      </trkpt>
      <trkpt lat="47.29609" lon="-2.39571">
        <ele>3.2000000476837</ele>
        <time>2022-08-18T09:41:21.000Z</time>
      </trkpt>
      <trkpt lat="47.2961" lon="-2.39569">
        <ele>3.5999999046326</ele>
        <time>2022-08-18T09:41:22.000Z</time>
      </trkpt>
      <trkpt lat="47.29612" lon="-2.39568">
        <ele>4.1999998092651</ele>
        <time>2022-08-18T09:41:23.000Z</time>
      </trkpt>
      <trkpt lat="47.29614" lon="-2.39568">
        <ele>4.5999999046326</ele>
        <time>2022-08-18T09:41:24.000Z</time>
      </trkpt>
      <trkpt lat="47.29615" lon="-2.39568">
        <ele>5</ele>
        <time>2022-08-18T09:41:25.000Z</time>
      </trkpt>
      <trkpt lat="47.29617" lon="-2.39567">
        <ele>5</ele>
        <time>2022-08-18T09:41:27.000Z</time>
      </trkpt>
      <trkpt lat="47.29623" lon="-2.39559">
        <ele>5</ele>
        <time>2022-08-18T09:41:33.000Z</time>
      </trkpt>
      <trkpt lat="47.29623" lon="-2.39557">
        <ele>5</ele>
        <time>2022-08-18T09:41:34.000Z</time>
      </trkpt>
      <trkpt lat="47.29618" lon="-2.39555">
        <ele>5.4000000953674</ele>
        <time>2022-08-18T09:41:37.000Z</time>
      </trkpt>
      <trkpt lat="47.29615" lon="-2.39555">
        <ele>5.8000001907349</ele>
        <time>2022-08-18T09:41:38.000Z</time>
      </trkpt>
      <trkpt lat="47.29612" lon="-2.39555">
        <ele>6.1999998092651</ele>
        <time>2022-08-18T09:41:39.000Z</time>
      </trkpt>
      <trkpt lat="47.29609" lon="-2.39555">
        <ele>6.5999999046326</ele>
        <time>2022-08-18T09:41:40.000Z</time>
      </trkpt>
      <trkpt lat="47.29606" lon="-2.39555">
        <ele>7</ele>
        <time>2022-08-18T09:41:41.000Z</time>
      </trkpt>
      <trkpt lat="47.29603" lon="-2.39554">
        <ele>7</ele>
        <time>2022-08-18T09:41:42.000Z</time>
      </trkpt>
      <trkpt lat="47.296" lon="-2.39553">
        <ele>7</ele>
        <time>2022-08-18T09:41:43.000Z</time>
      </trkpt>
      <trkpt lat="47.29591" lon="-2.39551">
        <ele>7.4000000953674</ele>
        <time>2022-08-18T09:41:47.000Z</time>
      </trkpt>
      <trkpt lat="47.29588" lon="-2.39551">
        <ele>7.8000001907349</ele>
        <time>2022-08-18T09:41:48.000Z</time>
      </trkpt>
      <trkpt lat="47.29586" lon="-2.3955">
        <ele>8.1999998092651</ele>
        <time>2022-08-18T09:41:49.000Z</time>
      </trkpt>
      <trkpt lat="47.29583" lon="-2.3955">
        <ele>8.6000003814697</ele>
        <time>2022-08-18T09:41:50.000Z</time>
      </trkpt>
      <trkpt lat="47.2958" lon="-2.3955">
        <ele>9</ele>
        <time>2022-08-18T09:41:51.000Z</time>
      </trkpt>
      <trkpt lat="47.29568" lon="-2.39546">
        <ele>9</ele>
        <time>2022-08-18T09:41:54.000Z</time>
      </trkpt>
      <trkpt lat="47.29555" lon="-2.3954">
        <ele>9</ele>
        <time>2022-08-18T09:41:57.000Z</time>
      </trkpt>
      <trkpt lat="47.29554" lon="-2.39536">
        <ele>8.6000003814697</ele>
        <time>2022-08-18T09:41:58.000Z</time>
      </trkpt>
      <trkpt lat="47.29554" lon="-2.39532">
        <ele>8.1999998092651</ele>
        <time>2022-08-18T09:41:59.000Z</time>
      </trkpt>
      <trkpt lat="47.29555" lon="-2.39529">
        <ele>7.5999999046326</ele>
        <time>2022-08-18T09:42:00.000Z</time>
      </trkpt>
      <trkpt lat="47.29555" lon="-2.39525">
        <ele>7.1999998092651</ele>
        <time>2022-08-18T09:42:01.000Z</time>
      </trkpt>
      <trkpt lat="47.29555" lon="-2.39523">
        <ele>6.8000001907349</ele>
        <time>2022-08-18T09:42:02.000Z</time>
      </trkpt>
      <trkpt lat="47.29554" lon="-2.39518">
        <ele>6.8000001907349</ele>
        <time>2022-08-18T09:42:03.000Z</time>
      </trkpt>
      <trkpt lat="47.29554" lon="-2.39507">
        <ele>6.8000001907349</ele>
        <time>2022-08-18T09:42:05.000Z</time>
      </trkpt>
      <trkpt lat="47.29555" lon="-2.39502">
        <ele>6.4000000953674</ele>
        <time>2022-08-18T09:42:06.000Z</time>
      </trkpt>
      <trkpt lat="47.29556" lon="-2.39497">
        <ele>5.8000001907349</ele>
        <time>2022-08-18T09:42:07.000Z</time>
      </trkpt>
      <trkpt lat="47.29558" lon="-2.39491">
        <ele>5.4000000953674</ele>
        <time>2022-08-18T09:42:08.000Z</time>
      </trkpt>
      <trkpt lat="47.29557" lon="-2.39487">
        <ele>4.4000000953674</ele>
        <time>2022-08-18T09:42:09.000Z</time>
      </trkpt>
      <trkpt lat="47.29549" lon="-2.39481">
        <ele>4.4000000953674</ele>
        <time>2022-08-18T09:42:12.000Z</time>
      </trkpt>
      <trkpt lat="47.29545" lon="-2.3948">
        <ele>4.4000000953674</ele>
        <time>2022-08-18T09:42:13.000Z</time>
      </trkpt>
      <trkpt lat="47.29528" lon="-2.39474">
        <ele>4.4000000953674</ele>
        <time>2022-08-18T09:42:17.000Z</time>
      </trkpt>
      <trkpt lat="47.29524" lon="-2.39472">
        <ele>4.4000000953674</ele>
        <time>2022-08-18T09:42:18.000Z</time>
      </trkpt>
      <trkpt lat="47.2951" lon="-2.39469">
        <ele>4.4000000953674</ele>
        <time>2022-08-18T09:42:21.000Z</time>
      </trkpt>
      <trkpt lat="47.29496" lon="-2.39469">
        <ele>4.4000000953674</ele>
        <time>2022-08-18T09:42:24.000Z</time>
      </trkpt>
      <trkpt lat="47.2947" lon="-2.39471">
        <ele>4.4000000953674</ele>
        <time>2022-08-18T09:42:30.000Z</time>
      </trkpt>
      <trkpt lat="47.29441" lon="-2.3947">
        <ele>4.4000000953674</ele>
        <time>2022-08-18T09:42:36.000Z</time>
      </trkpt>
      <trkpt lat="47.29431" lon="-2.3947">
        <ele>4.4000000953674</ele>
        <time>2022-08-18T09:42:38.000Z</time>
      </trkpt>
      <trkpt lat="47.29427" lon="-2.39469">
        <ele>4.4000000953674</ele>
        <time>2022-08-18T09:42:39.000Z</time>
      </trkpt>
      <trkpt lat="47.29409" lon="-2.39465">
        <ele>4.4000000953674</ele>
        <time>2022-08-18T09:42:43.000Z</time>
      </trkpt>
      <trkpt lat="47.29386" lon="-2.39466">
        <ele>4.4000000953674</ele>
        <time>2022-08-18T09:42:48.000Z</time>
      </trkpt>
      <trkpt lat="47.29378" lon="-2.39467">
        <ele>4.4000000953674</ele>
        <time>2022-08-18T09:42:50.000Z</time>
      </trkpt>
      <trkpt lat="47.29361" lon="-2.39463">
        <ele>4.4000000953674</ele>
        <time>2022-08-18T09:42:54.000Z</time>
      </trkpt>
      <trkpt lat="47.29358" lon="-2.39458">
        <ele>4.4000000953674</ele>
        <time>2022-08-18T09:42:55.000Z</time>
      </trkpt>
      <trkpt lat="47.2935" lon="-2.39435">
        <ele>4.4000000953674</ele>
        <time>2022-08-18T09:42:59.000Z</time>
      </trkpt>
      <trkpt lat="47.2935" lon="-2.39421">
        <ele>4.4000000953674</ele>
        <time>2022-08-18T09:43:01.000Z</time>
      </trkpt>
      <trkpt lat="47.29347" lon="-2.39395">
        <ele>4.4000000953674</ele>
        <time>2022-08-18T09:43:05.000Z</time>
      </trkpt>
      <trkpt lat="47.29344" lon="-2.39362">
        <ele>4.4000000953674</ele>
        <time>2022-08-18T09:43:11.000Z</time>
      </trkpt>
      <trkpt lat="47.29345" lon="-2.3934">
        <ele>4.4000000953674</ele>
        <time>2022-08-18T09:43:15.000Z</time>
      </trkpt>
      <trkpt lat="47.29348" lon="-2.39305">
        <ele>4.4000000953674</ele>
        <time>2022-08-18T09:43:20.000Z</time>
      </trkpt>
      <trkpt lat="47.29351" lon="-2.39275">
        <ele>4.4000000953674</ele>
        <time>2022-08-18T09:43:24.000Z</time>
      </trkpt>
      <trkpt lat="47.2935" lon="-2.3926">
        <ele>4.4000000953674</ele>
        <time>2022-08-18T09:43:26.000Z</time>
      </trkpt>
      <trkpt lat="47.29348" lon="-2.39206">
        <ele>4.4000000953674</ele>
        <time>2022-08-18T09:43:33.000Z</time>
      </trkpt>
      <trkpt lat="47.29353" lon="-2.39169">
        <ele>4.4000000953674</ele>
        <time>2022-08-18T09:43:38.000Z</time>
      </trkpt>
      <trkpt lat="47.29356" lon="-2.39163">
        <ele>4.4000000953674</ele>
        <time>2022-08-18T09:43:39.000Z</time>
      </trkpt>
      <trkpt lat="47.29367" lon="-2.39162">
        <ele>4.4000000953674</ele>
        <time>2022-08-18T09:43:41.000Z</time>
      </trkpt>
      <trkpt lat="47.29377" lon="-2.39166">
        <ele>4.4000000953674</ele>
        <time>2022-08-18T09:43:43.000Z</time>
      </trkpt>
      <trkpt lat="47.29392" lon="-2.39171">
        <ele>4.4000000953674</ele>
        <time>2022-08-18T09:43:46.000Z</time>
      </trkpt>
      <trkpt lat="47.29412" lon="-2.39172">
        <ele>4.4000000953674</ele>
        <time>2022-08-18T09:43:50.000Z</time>
      </trkpt>
      <trkpt lat="47.29415" lon="-2.39168">
        <ele>4.4000000953674</ele>
        <time>2022-08-18T09:43:51.000Z</time>
      </trkpt>
      <trkpt lat="47.29418" lon="-2.39146">
        <ele>4.4000000953674</ele>
        <time>2022-08-18T09:43:54.000Z</time>
      </trkpt>
      <trkpt lat="47.29418" lon="-2.39137">
        <ele>4.4000000953674</ele>
        <time>2022-08-18T09:43:55.000Z</time>
      </trkpt>
      <trkpt lat="47.29418" lon="-2.39092">
        <ele>4.4000000953674</ele>
        <time>2022-08-18T09:44:00.000Z</time>
      </trkpt>
      <trkpt lat="47.29423" lon="-2.3903">
        <ele>4.4000000953674</ele>
        <time>2022-08-18T09:44:07.000Z</time>
      </trkpt>
      <trkpt lat="47.29436" lon="-2.38972">
        <ele>4.4000000953674</ele>
        <time>2022-08-18T09:44:14.000Z</time>
      </trkpt>
      <trkpt lat="47.29448" lon="-2.38913">
        <ele>4.4000000953674</ele>
        <time>2022-08-18T09:44:21.000Z</time>
      </trkpt>
      <trkpt lat="47.29455" lon="-2.38884">
        <ele>4.4000000953674</ele>
        <time>2022-08-18T09:44:25.000Z</time>
      </trkpt>
      <trkpt lat="47.29458" lon="-2.38871">
        <ele>4.4000000953674</ele>
        <time>2022-08-18T09:44:27.000Z</time>
      </trkpt>
      <trkpt lat="47.2947" lon="-2.3884">
        <ele>4.4000000953674</ele>
        <time>2022-08-18T09:44:32.000Z</time>
      </trkpt>
      <trkpt lat="47.2947" lon="-2.38833">
        <ele>4.4000000953674</ele>
        <time>2022-08-18T09:44:33.000Z</time>
      </trkpt>
      <trkpt lat="47.2947" lon="-2.38817">
        <ele>4.4000000953674</ele>
        <time>2022-08-18T09:44:35.000Z</time>
      </trkpt>
      <trkpt lat="47.2947" lon="-2.38756">
        <ele>4.4000000953674</ele>
        <time>2022-08-18T09:44:42.000Z</time>
      </trkpt>
      <trkpt lat="47.29467" lon="-2.3869">
        <ele>4.4000000953674</ele>
        <time>2022-08-18T09:44:49.000Z</time>
      </trkpt>
      <trkpt lat="47.29462" lon="-2.38631">
        <ele>4.4000000953674</ele>
        <time>2022-08-18T09:44:55.000Z</time>
      </trkpt>
      <trkpt lat="47.29459" lon="-2.38559">
        <ele>4.4000000953674</ele>
        <time>2022-08-18T09:45:02.000Z</time>
      </trkpt>
      <trkpt lat="47.29457" lon="-2.38476">
        <ele>4.4000000953674</ele>
        <time>2022-08-18T09:45:10.000Z</time>
      </trkpt>
      <trkpt lat="47.29453" lon="-2.38395">
        <ele>4.4000000953674</ele>
        <time>2022-08-18T09:45:18.000Z</time>
      </trkpt>
      <trkpt lat="47.29452" lon="-2.38375">
        <ele>4.4000000953674</ele>
        <time>2022-08-18T09:45:20.000Z</time>
      </trkpt>
      <trkpt lat="47.29454" lon="-2.38308">
        <ele>4.4000000953674</ele>
        <time>2022-08-18T09:45:27.000Z</time>
      </trkpt>
      <trkpt lat="47.29454" lon="-2.3826">
        <ele>4.4000000953674</ele>
        <time>2022-08-18T09:45:33.000Z</time>
      </trkpt>
      <trkpt lat="47.29448" lon="-2.38204">
        <ele>4.4000000953674</ele>
        <time>2022-08-18T09:45:40.000Z</time>
      </trkpt>
      <trkpt lat="47.29441" lon="-2.3815">
        <ele>4.4000000953674</ele>
        <time>2022-08-18T09:45:46.000Z</time>
      </trkpt>
      <trkpt lat="47.2944" lon="-2.38141">
        <ele>4.4000000953674</ele>
        <time>2022-08-18T09:45:47.000Z</time>
      </trkpt>
      <trkpt lat="47.29425" lon="-2.38094">
        <ele>4.4000000953674</ele>
        <time>2022-08-18T09:45:52.000Z</time>
      </trkpt>
      <trkpt lat="47.29402" lon="-2.38032">
        <ele>4.4000000953674</ele>
        <time>2022-08-18T09:45:59.000Z</time>
      </trkpt>
      <trkpt lat="47.29382" lon="-2.37978">
        <ele>4.4000000953674</ele>
        <time>2022-08-18T09:46:06.000Z</time>
      </trkpt>
      <trkpt lat="47.29364" lon="-2.37928">
        <ele>4.4000000953674</ele>
        <time>2022-08-18T09:46:13.000Z</time>
      </trkpt>
      <trkpt lat="47.29349" lon="-2.37888">
        <ele>4.8000001907349</ele>
        <time>2022-08-18T09:46:19.000Z</time>
      </trkpt>
      <trkpt lat="47.29347" lon="-2.37881">
        <ele>5.1999998092651</ele>
        <time>2022-08-18T09:46:20.000Z</time>
      </trkpt>
      <trkpt lat="47.29345" lon="-2.37874">
        <ele>5.5999999046326</ele>
        <time>2022-08-18T09:46:21.000Z</time>
      </trkpt>
      <trkpt lat="47.29343" lon="-2.37867">
        <ele>6.1999998092651</ele>
        <time>2022-08-18T09:46:22.000Z</time>
      </trkpt>
      <trkpt lat="47.29341" lon="-2.3786">
        <ele>6.5999999046326</ele>
        <time>2022-08-18T09:46:23.000Z</time>
      </trkpt>
      <trkpt lat="47.29335" lon="-2.37833">
        <ele>6.5999999046326</ele>
        <time>2022-08-18T09:46:27.000Z</time>
      </trkpt>
      <trkpt lat="47.29333" lon="-2.37797">
        <ele>7</ele>
        <time>2022-08-18T09:46:32.000Z</time>
      </trkpt>
      <trkpt lat="47.29332" lon="-2.37791">
        <ele>7.4000000953674</ele>
        <time>2022-08-18T09:46:33.000Z</time>
      </trkpt>
      <trkpt lat="47.29332" lon="-2.37784">
        <ele>7.8000001907349</ele>
        <time>2022-08-18T09:46:34.000Z</time>
      </trkpt>
      <trkpt lat="47.29331" lon="-2.37778">
        <ele>8.1999998092651</ele>
        <time>2022-08-18T09:46:35.000Z</time>
      </trkpt>
      <trkpt lat="47.29331" lon="-2.37773">
        <ele>8.6000003814697</ele>
        <time>2022-08-18T09:46:36.000Z</time>
      </trkpt>
      <trkpt lat="47.2933" lon="-2.37756">
        <ele>8.6000003814697</ele>
        <time>2022-08-18T09:46:39.000Z</time>
      </trkpt>
      <trkpt lat="47.29329" lon="-2.3774">
        <ele>9</ele>
        <time>2022-08-18T09:46:42.000Z</time>
      </trkpt>
      <trkpt lat="47.29328" lon="-2.37734">
        <ele>9.3999996185303</ele>
        <time>2022-08-18T09:46:43.000Z</time>
      </trkpt>
      <trkpt lat="47.29328" lon="-2.37729">
        <ele>9.8000001907349</ele>
        <time>2022-08-18T09:46:44.000Z</time>
      </trkpt>
      <trkpt lat="47.29328" lon="-2.37724">
        <ele>10.39999961853</ele>
        <time>2022-08-18T09:46:45.000Z</time>
      </trkpt>
      <trkpt lat="47.29328" lon="-2.37719">
        <ele>10.800000190735</ele>
        <time>2022-08-18T09:46:46.000Z</time>
      </trkpt>
      <trkpt lat="47.29327" lon="-2.37692">
        <ele>11.199999809265</ele>
        <time>2022-08-18T09:46:51.000Z</time>
      </trkpt>
      <trkpt lat="47.29327" lon="-2.37686">
        <ele>11.60000038147</ele>
        <time>2022-08-18T09:46:52.000Z</time>
      </trkpt>
      <trkpt lat="47.29327" lon="-2.37681">
        <ele>12</ele>
        <time>2022-08-18T09:46:53.000Z</time>
      </trkpt>
      <trkpt lat="47.29327" lon="-2.37675">
        <ele>12.39999961853</ele>
        <time>2022-08-18T09:46:54.000Z</time>
      </trkpt>
      <trkpt lat="47.29327" lon="-2.37669">
        <ele>12.800000190735</ele>
        <time>2022-08-18T09:46:55.000Z</time>
      </trkpt>
      <trkpt lat="47.29324" lon="-2.37646">
        <ele>12.800000190735</ele>
        <time>2022-08-18T09:46:59.000Z</time>
      </trkpt>
      <trkpt lat="47.29318" lon="-2.37622">
        <ele>13.199999809265</ele>
        <time>2022-08-18T09:47:05.000Z</time>
      </trkpt>
      <trkpt lat="47.29316" lon="-2.37619">
        <ele>13.60000038147</ele>
        <time>2022-08-18T09:47:06.000Z</time>
      </trkpt>
      <trkpt lat="47.29315" lon="-2.37616">
        <ele>14</ele>
        <time>2022-08-18T09:47:07.000Z</time>
      </trkpt>
      <trkpt lat="47.29314" lon="-2.37613">
        <ele>14.39999961853</ele>
        <time>2022-08-18T09:47:08.000Z</time>
      </trkpt>
      <trkpt lat="47.29312" lon="-2.3761">
        <ele>14.800000190735</ele>
        <time>2022-08-18T09:47:09.000Z</time>
      </trkpt>
      <trkpt lat="47.29308" lon="-2.37604">
        <ele>14.800000190735</ele>
        <time>2022-08-18T09:47:11.000Z</time>
      </trkpt>
      <trkpt lat="47.29297" lon="-2.37588">
        <ele>14.800000190735</ele>
        <time>2022-08-18T09:47:16.000Z</time>
      </trkpt>
      <trkpt lat="47.29287" lon="-2.37573">
        <ele>14.800000190735</ele>
        <time>2022-08-18T09:47:20.000Z</time>
      </trkpt>
      <trkpt lat="47.29275" lon="-2.37551">
        <ele>14.800000190735</ele>
        <time>2022-08-18T09:47:24.000Z</time>
      </trkpt>
      <trkpt lat="47.29269" lon="-2.37539">
        <ele>14.800000190735</ele>
        <time>2022-08-18T09:47:26.000Z</time>
      </trkpt>
      <trkpt lat="47.29254" lon="-2.37515">
        <ele>14.800000190735</ele>
        <time>2022-08-18T09:47:32.000Z</time>
      </trkpt>
      <trkpt lat="47.29239" lon="-2.37494">
        <ele>14.800000190735</ele>
        <time>2022-08-18T09:47:39.000Z</time>
      </trkpt>
      <trkpt lat="47.29223" lon="-2.37469">
        <ele>14.800000190735</ele>
        <time>2022-08-18T09:47:46.000Z</time>
      </trkpt>
      <trkpt lat="47.29207" lon="-2.37442">
        <ele>14.800000190735</ele>
        <time>2022-08-18T09:47:53.000Z</time>
      </trkpt>
      <trkpt lat="47.29204" lon="-2.37438">
        <ele>15.60000038147</ele>
        <time>2022-08-18T09:47:54.000Z</time>
      </trkpt>
      <trkpt lat="47.29201" lon="-2.37434">
        <ele>16</ele>
        <time>2022-08-18T09:47:55.000Z</time>
      </trkpt>
      <trkpt lat="47.29199" lon="-2.3743">
        <ele>16.39999961853</ele>
        <time>2022-08-18T09:47:56.000Z</time>
      </trkpt>
      <trkpt lat="47.29196" lon="-2.37426">
        <ele>16.799999237061</ele>
        <time>2022-08-18T09:47:57.000Z</time>
      </trkpt>
      <trkpt lat="47.29187" lon="-2.37408">
        <ele>16.799999237061</ele>
        <time>2022-08-18T09:48:01.000Z</time>
      </trkpt>
      <trkpt lat="47.29169" lon="-2.37378">
        <ele>16.799999237061</ele>
        <time>2022-08-18T09:48:09.000Z</time>
      </trkpt>
      <trkpt lat="47.29167" lon="-2.37375">
        <ele>17.200000762939</ele>
        <time>2022-08-18T09:48:10.000Z</time>
      </trkpt>
      <trkpt lat="47.29165" lon="-2.37372">
        <ele>17.60000038147</ele>
        <time>2022-08-18T09:48:11.000Z</time>
      </trkpt>
      <trkpt lat="47.29163" lon="-2.37368">
        <ele>18</ele>
        <time>2022-08-18T09:48:12.000Z</time>
      </trkpt>
      <trkpt lat="47.29162" lon="-2.37365">
        <ele>18.39999961853</ele>
        <time>2022-08-18T09:48:13.000Z</time>
      </trkpt>
      <trkpt lat="47.2916" lon="-2.37361">
        <ele>18.799999237061</ele>
        <time>2022-08-18T09:48:14.000Z</time>
      </trkpt>
      <trkpt lat="47.29159" lon="-2.37357">
        <ele>18.799999237061</ele>
        <time>2022-08-18T09:48:15.000Z</time>
      </trkpt>
      <trkpt lat="47.29148" lon="-2.37332">
        <ele>18.799999237061</ele>
        <time>2022-08-18T09:48:22.000Z</time>
      </trkpt>
      <trkpt lat="47.29136" lon="-2.37312">
        <ele>18.799999237061</ele>
        <time>2022-08-18T09:48:28.000Z</time>
      </trkpt>
      <trkpt lat="47.29115" lon="-2.3729">
        <ele>18.799999237061</ele>
        <time>2022-08-18T09:48:34.000Z</time>
      </trkpt>
      <trkpt lat="47.29109" lon="-2.37282">
        <ele>18.799999237061</ele>
        <time>2022-08-18T09:48:36.000Z</time>
      </trkpt>
      <trkpt lat="47.29096" lon="-2.37268">
        <ele>18.799999237061</ele>
        <time>2022-08-18T09:48:40.000Z</time>
      </trkpt>
      <trkpt lat="47.29086" lon="-2.37257">
        <ele>18.799999237061</ele>
        <time>2022-08-18T09:48:43.000Z</time>
      </trkpt>
      <trkpt lat="47.29075" lon="-2.37247">
        <ele>18.799999237061</ele>
        <time>2022-08-18T09:48:46.000Z</time>
      </trkpt>
      <trkpt lat="47.29056" lon="-2.37228">
        <ele>18.799999237061</ele>
        <time>2022-08-18T09:48:51.000Z</time>
      </trkpt>
      <trkpt lat="47.29047" lon="-2.3722">
        <ele>18.799999237061</ele>
        <time>2022-08-18T09:48:53.000Z</time>
      </trkpt>
      <trkpt lat="47.29023" lon="-2.37195">
        <ele>18.39999961853</ele>
        <time>2022-08-18T09:48:58.000Z</time>
      </trkpt>
      <trkpt lat="47.29018" lon="-2.3719">
        <ele>18</ele>
        <time>2022-08-18T09:48:59.000Z</time>
      </trkpt>
      <trkpt lat="47.29013" lon="-2.37184">
        <ele>17.60000038147</ele>
        <time>2022-08-18T09:49:00.000Z</time>
      </trkpt>
      <trkpt lat="47.29009" lon="-2.37178">
        <ele>17</ele>
        <time>2022-08-18T09:49:01.000Z</time>
      </trkpt>
      <trkpt lat="47.29006" lon="-2.37172">
        <ele>16.60000038147</ele>
        <time>2022-08-18T09:49:02.000Z</time>
      </trkpt>
      <trkpt lat="47.29003" lon="-2.37158">
        <ele>16.60000038147</ele>
        <time>2022-08-18T09:49:04.000Z</time>
      </trkpt>
      <trkpt lat="47.28996" lon="-2.37137">
        <ele>16.60000038147</ele>
        <time>2022-08-18T09:49:08.000Z</time>
      </trkpt>
      <trkpt lat="47.28994" lon="-2.37132">
        <ele>16.60000038147</ele>
        <time>2022-08-18T09:49:09.000Z</time>
      </trkpt>
      <trkpt lat="47.28986" lon="-2.3711">
        <ele>16.60000038147</ele>
        <time>2022-08-18T09:49:13.000Z</time>
      </trkpt>
      <trkpt lat="47.28984" lon="-2.37105">
        <ele>16.60000038147</ele>
        <time>2022-08-18T09:49:14.000Z</time>
      </trkpt>
      <trkpt lat="47.28972" lon="-2.37076">
        <ele>17</ele>
        <time>2022-08-18T09:49:19.000Z</time>
      </trkpt>
      <trkpt lat="47.2897" lon="-2.37071">
        <ele>17.39999961853</ele>
        <time>2022-08-18T09:49:20.000Z</time>
      </trkpt>
      <trkpt lat="47.28968" lon="-2.37065">
        <ele>18</ele>
        <time>2022-08-18T09:49:21.000Z</time>
      </trkpt>
      <trkpt lat="47.28967" lon="-2.3706">
        <ele>18.39999961853</ele>
        <time>2022-08-18T09:49:22.000Z</time>
      </trkpt>
      <trkpt lat="47.28965" lon="-2.37054">
        <ele>18.799999237061</ele>
        <time>2022-08-18T09:49:23.000Z</time>
      </trkpt>
      <trkpt lat="47.28963" lon="-2.37048">
        <ele>18.799999237061</ele>
        <time>2022-08-18T09:49:24.000Z</time>
      </trkpt>
      <trkpt lat="47.28956" lon="-2.37033">
        <ele>18.799999237061</ele>
        <time>2022-08-18T09:49:27.000Z</time>
      </trkpt>
      <trkpt lat="47.28954" lon="-2.37028">
        <ele>18.799999237061</ele>
        <time>2022-08-18T09:49:28.000Z</time>
      </trkpt>
      <trkpt lat="47.28944" lon="-2.37005">
        <ele>18.799999237061</ele>
        <time>2022-08-18T09:49:33.000Z</time>
      </trkpt>
      <trkpt lat="47.28945" lon="-2.36999">
        <ele>18.799999237061</ele>
        <time>2022-08-18T09:49:34.000Z</time>
      </trkpt>
      <trkpt lat="47.28946" lon="-2.36993">
        <ele>19.200000762939</ele>
        <time>2022-08-18T09:49:35.000Z</time>
      </trkpt>
      <trkpt lat="47.28948" lon="-2.36988">
        <ele>19.60000038147</ele>
        <time>2022-08-18T09:49:36.000Z</time>
      </trkpt>
      <trkpt lat="47.2895" lon="-2.36984">
        <ele>20</ele>
        <time>2022-08-18T09:49:37.000Z</time>
      </trkpt>
      <trkpt lat="47.28953" lon="-2.36979">
        <ele>20.39999961853</ele>
        <time>2022-08-18T09:49:38.000Z</time>
      </trkpt>
      <trkpt lat="47.28956" lon="-2.36976">
        <ele>21</ele>
        <time>2022-08-18T09:49:39.000Z</time>
      </trkpt>
      <trkpt lat="47.28959" lon="-2.36971">
        <ele>21</ele>
        <time>2022-08-18T09:49:40.000Z</time>
      </trkpt>
      <trkpt lat="47.28972" lon="-2.36951">
        <ele>21</ele>
        <time>2022-08-18T09:49:45.000Z</time>
      </trkpt>
      <trkpt lat="47.28978" lon="-2.36943">
        <ele>21.39999961853</ele>
        <time>2022-08-18T09:49:47.000Z</time>
      </trkpt>
      <trkpt lat="47.2898" lon="-2.3694">
        <ele>21.799999237061</ele>
        <time>2022-08-18T09:49:48.000Z</time>
      </trkpt>
      <trkpt lat="47.28983" lon="-2.36936">
        <ele>22.200000762939</ele>
        <time>2022-08-18T09:49:49.000Z</time>
      </trkpt>
      <trkpt lat="47.28986" lon="-2.36932">
        <ele>22.60000038147</ele>
        <time>2022-08-18T09:49:50.000Z</time>
      </trkpt>
      <trkpt lat="47.28988" lon="-2.36929">
        <ele>23</ele>
        <time>2022-08-18T09:49:51.000Z</time>
      </trkpt>
      <trkpt lat="47.28993" lon="-2.36921">
        <ele>23</ele>
        <time>2022-08-18T09:49:53.000Z</time>
      </trkpt>
      <trkpt lat="47.29003" lon="-2.36907">
        <ele>23.39999961853</ele>
        <time>2022-08-18T09:49:57.000Z</time>
      </trkpt>
      <trkpt lat="47.29005" lon="-2.36904">
        <ele>23.799999237061</ele>
        <time>2022-08-18T09:49:58.000Z</time>
      </trkpt>
      <trkpt lat="47.29006" lon="-2.36901">
        <ele>24.39999961853</ele>
        <time>2022-08-18T09:49:59.000Z</time>
      </trkpt>
      <trkpt lat="47.29008" lon="-2.36898">
        <ele>24.799999237061</ele>
        <time>2022-08-18T09:50:00.000Z</time>
      </trkpt>
      <trkpt lat="47.2901" lon="-2.36895">
        <ele>25.200000762939</ele>
        <time>2022-08-18T09:50:01.000Z</time>
      </trkpt>
      <trkpt lat="47.2901" lon="-2.36886">
        <ele>25.200000762939</ele>
        <time>2022-08-18T09:50:04.000Z</time>
      </trkpt>
      <trkpt lat="47.29009" lon="-2.36884">
        <ele>25.200000762939</ele>
        <time>2022-08-18T09:50:05.000Z</time>
      </trkpt>
      <trkpt lat="47.29004" lon="-2.36877">
        <ele>25.200000762939</ele>
        <time>2022-08-18T09:50:08.000Z</time>
      </trkpt>
      <trkpt lat="47.28999" lon="-2.36873">
        <ele>25.200000762939</ele>
        <time>2022-08-18T09:50:10.000Z</time>
      </trkpt>
      <trkpt lat="47.28983" lon="-2.36857">
        <ele>25.200000762939</ele>
        <time>2022-08-18T09:50:16.000Z</time>
      </trkpt>
      <trkpt lat="47.2896" lon="-2.36833">
        <ele>25.200000762939</ele>
        <time>2022-08-18T09:50:24.000Z</time>
      </trkpt>
      <trkpt lat="47.28938" lon="-2.36813">
        <ele>25.200000762939</ele>
        <time>2022-08-18T09:50:31.000Z</time>
      </trkpt>
      <trkpt lat="47.28928" lon="-2.36802">
        <ele>25.200000762939</ele>
        <time>2022-08-18T09:50:36.000Z</time>
      </trkpt>
      <trkpt lat="47.2892" lon="-2.36793">
        <ele>25.200000762939</ele>
        <time>2022-08-18T09:50:42.000Z</time>
      </trkpt>
      <trkpt lat="47.28909" lon="-2.36785">
        <ele>24.200000762939</ele>
        <time>2022-08-18T09:50:47.000Z</time>
      </trkpt>
      <trkpt lat="47.28905" lon="-2.36783">
        <ele>23.799999237061</ele>
        <time>2022-08-18T09:50:48.000Z</time>
      </trkpt>
      <trkpt lat="47.28902" lon="-2.36782">
        <ele>23.39999961853</ele>
        <time>2022-08-18T09:50:49.000Z</time>
      </trkpt>
      <trkpt lat="47.28898" lon="-2.36781">
        <ele>22.799999237061</ele>
        <time>2022-08-18T09:50:50.000Z</time>
      </trkpt>
      <trkpt lat="47.28888" lon="-2.36779">
        <ele>22.799999237061</ele>
        <time>2022-08-18T09:50:53.000Z</time>
      </trkpt>
      <trkpt lat="47.28882" lon="-2.36777">
        <ele>22.799999237061</ele>
        <time>2022-08-18T09:50:57.000Z</time>
      </trkpt>
      <trkpt lat="47.28881" lon="-2.36774">
        <ele>22.799999237061</ele>
        <time>2022-08-18T09:50:58.000Z</time>
      </trkpt>
      <trkpt lat="47.28883" lon="-2.36761">
        <ele>22.799999237061</ele>
        <time>2022-08-18T09:51:01.000Z</time>
      </trkpt>
      <trkpt lat="47.28887" lon="-2.36733">
        <ele>22.799999237061</ele>
        <time>2022-08-18T09:51:06.000Z</time>
      </trkpt>
      <trkpt lat="47.28894" lon="-2.36706">
        <ele>22.799999237061</ele>
        <time>2022-08-18T09:51:10.000Z</time>
      </trkpt>
      <trkpt lat="47.289" lon="-2.36694">
        <ele>22.799999237061</ele>
        <time>2022-08-18T09:51:12.000Z</time>
      </trkpt>
      <trkpt lat="47.28918" lon="-2.36655">
        <ele>22.799999237061</ele>
        <time>2022-08-18T09:51:18.000Z</time>
      </trkpt>
      <trkpt lat="47.28936" lon="-2.36613">
        <ele>22.799999237061</ele>
        <time>2022-08-18T09:51:24.000Z</time>
      </trkpt>
      <trkpt lat="47.28965" lon="-2.36556">
        <ele>22.799999237061</ele>
        <time>2022-08-18T09:51:32.000Z</time>
      </trkpt>
      <trkpt lat="47.28988" lon="-2.36531">
        <ele>22.799999237061</ele>
        <time>2022-08-18T09:51:37.000Z</time>
      </trkpt>
      <trkpt lat="47.28997" lon="-2.36523">
        <ele>22.799999237061</ele>
        <time>2022-08-18T09:51:39.000Z</time>
      </trkpt>
      <trkpt lat="47.29015" lon="-2.3651">
        <ele>22.799999237061</ele>
        <time>2022-08-18T09:51:43.000Z</time>
      </trkpt>
      <trkpt lat="47.29018" lon="-2.36505">
        <ele>22.799999237061</ele>
        <time>2022-08-18T09:51:44.000Z</time>
      </trkpt>
      <trkpt lat="47.29019" lon="-2.36493">
        <ele>22.799999237061</ele>
        <time>2022-08-18T09:51:46.000Z</time>
      </trkpt>
      <trkpt lat="47.29017" lon="-2.36485">
        <ele>22.39999961853</ele>
        <time>2022-08-18T09:51:47.000Z</time>
      </trkpt>
      <trkpt lat="47.29013" lon="-2.36477">
        <ele>22</ele>
        <time>2022-08-18T09:51:48.000Z</time>
      </trkpt>
      <trkpt lat="47.29008" lon="-2.36468">
        <ele>21.60000038147</ele>
        <time>2022-08-18T09:51:49.000Z</time>
      </trkpt>
      <trkpt lat="47.29003" lon="-2.3646">
        <ele>21.200000762939</ele>
        <time>2022-08-18T09:51:50.000Z</time>
      </trkpt>
      <trkpt lat="47.28997" lon="-2.36453">
        <ele>20.60000038147</ele>
        <time>2022-08-18T09:51:51.000Z</time>
      </trkpt>
      <trkpt lat="47.28993" lon="-2.36446">
        <ele>20.200000762939</ele>
        <time>2022-08-18T09:51:52.000Z</time>
      </trkpt>
      <trkpt lat="47.28988" lon="-2.36439">
        <ele>19.60000038147</ele>
        <time>2022-08-18T09:51:53.000Z</time>
      </trkpt>
      <trkpt lat="47.28984" lon="-2.36432">
        <ele>19.200000762939</ele>
        <time>2022-08-18T09:51:54.000Z</time>
      </trkpt>
      <trkpt lat="47.28979" lon="-2.36425">
        <ele>18.60000038147</ele>
        <time>2022-08-18T09:51:55.000Z</time>
      </trkpt>
      <trkpt lat="47.28975" lon="-2.36419">
        <ele>18.60000038147</ele>
        <time>2022-08-18T09:51:56.000Z</time>
      </trkpt>
      <trkpt lat="47.28964" lon="-2.36402">
        <ele>18.60000038147</ele>
        <time>2022-08-18T09:51:59.000Z</time>
      </trkpt>
      <trkpt lat="47.28941" lon="-2.36374">
        <ele>18.60000038147</ele>
        <time>2022-08-18T09:52:05.000Z</time>
      </trkpt>
      <trkpt lat="47.28932" lon="-2.36367">
        <ele>19</ele>
        <time>2022-08-18T09:52:07.000Z</time>
      </trkpt>
      <trkpt lat="47.28928" lon="-2.36363">
        <ele>19.39999961853</ele>
        <time>2022-08-18T09:52:08.000Z</time>
      </trkpt>
      <trkpt lat="47.28924" lon="-2.3636">
        <ele>19.799999237061</ele>
        <time>2022-08-18T09:52:09.000Z</time>
      </trkpt>
      <trkpt lat="47.2892" lon="-2.36357">
        <ele>20.39999961853</ele>
        <time>2022-08-18T09:52:10.000Z</time>
      </trkpt>
      <trkpt lat="47.28916" lon="-2.36354">
        <ele>20.799999237061</ele>
        <time>2022-08-18T09:52:11.000Z</time>
      </trkpt>
      <trkpt lat="47.28908" lon="-2.36345">
        <ele>20.799999237061</ele>
        <time>2022-08-18T09:52:13.000Z</time>
      </trkpt>
      <trkpt lat="47.28899" lon="-2.36341">
        <ele>20.799999237061</ele>
        <time>2022-08-18T09:52:15.000Z</time>
      </trkpt>
      <trkpt lat="47.28895" lon="-2.3634">
        <ele>20.799999237061</ele>
        <time>2022-08-18T09:52:16.000Z</time>
      </trkpt>
      <trkpt lat="47.28888" lon="-2.36338">
        <ele>21.200000762939</ele>
        <time>2022-08-18T09:52:18.000Z</time>
      </trkpt>
      <trkpt lat="47.28885" lon="-2.36337">
        <ele>21.60000038147</ele>
        <time>2022-08-18T09:52:19.000Z</time>
      </trkpt>
      <trkpt lat="47.28883" lon="-2.36336">
        <ele>22.200000762939</ele>
        <time>2022-08-18T09:52:20.000Z</time>
      </trkpt>
      <trkpt lat="47.2888" lon="-2.36335">
        <ele>22.60000038147</ele>
        <time>2022-08-18T09:52:21.000Z</time>
      </trkpt>
      <trkpt lat="47.28878" lon="-2.36333">
        <ele>23</ele>
        <time>2022-08-18T09:52:22.000Z</time>
      </trkpt>
      <trkpt lat="47.28876" lon="-2.36333">
        <ele>23.60000038147</ele>
        <time>2022-08-18T09:52:23.000Z</time>
      </trkpt>
      <trkpt lat="47.28874" lon="-2.36332">
        <ele>24</ele>
        <time>2022-08-18T09:52:24.000Z</time>
      </trkpt>
      <trkpt lat="47.28873" lon="-2.36332">
        <ele>24.39999961853</ele>
        <time>2022-08-18T09:52:25.000Z</time>
      </trkpt>
      <trkpt lat="47.28871" lon="-2.36332">
        <ele>25.200000762939</ele>
        <time>2022-08-18T09:52:26.000Z</time>
      </trkpt>
      <trkpt lat="47.28868" lon="-2.36332">
        <ele>25.799999237061</ele>
        <time>2022-08-18T09:52:28.000Z</time>
      </trkpt>
      <trkpt lat="47.28867" lon="-2.36333">
        <ele>26.200000762939</ele>
        <time>2022-08-18T09:52:29.000Z</time>
      </trkpt>
      <trkpt lat="47.28865" lon="-2.36333">
        <ele>26.60000038147</ele>
        <time>2022-08-18T09:52:30.000Z</time>
      </trkpt>
      <trkpt lat="47.28864" lon="-2.36332">
        <ele>27</ele>
        <time>2022-08-18T09:52:31.000Z</time>
      </trkpt>
      <trkpt lat="47.28862" lon="-2.36332">
        <ele>27.39999961853</ele>
        <time>2022-08-18T09:52:32.000Z</time>
      </trkpt>
      <trkpt lat="47.28861" lon="-2.36331">
        <ele>28</ele>
        <time>2022-08-18T09:52:33.000Z</time>
      </trkpt>
      <trkpt lat="47.2886" lon="-2.3633">
        <ele>28.39999961853</ele>
        <time>2022-08-18T09:52:34.000Z</time>
      </trkpt>
      <trkpt lat="47.2886" lon="-2.3633">
        <ele>28.799999237061</ele>
        <time>2022-08-18T09:52:35.000Z</time>
      </trkpt>
      <trkpt lat="47.2886" lon="-2.3633">
        <ele>29.200000762939</ele>
        <time>2022-08-18T09:52:36.000Z</time>
      </trkpt>
      <trkpt lat="47.28841" lon="-2.36313">
        <ele>31.799999237061</ele>
        <time>2022-08-18T09:55:47.000Z</time>
      </trkpt>
      <trkpt lat="47.28831" lon="-2.36307">
        <ele>31.799999237061</ele>
        <time>2022-08-18T09:55:52.000Z</time>
      </trkpt>
      <trkpt lat="47.28818" lon="-2.36294">
        <ele>31.799999237061</ele>
        <time>2022-08-18T09:55:57.000Z</time>
      </trkpt>
      <trkpt lat="47.28802" lon="-2.3628">
        <ele>31.799999237061</ele>
        <time>2022-08-18T09:56:03.000Z</time>
      </trkpt>
      <trkpt lat="47.28787" lon="-2.36265">
        <ele>32.200000762939</ele>
        <time>2022-08-18T09:56:09.000Z</time>
      </trkpt>
      <trkpt lat="47.28785" lon="-2.36261">
        <ele>32.599998474121</ele>
        <time>2022-08-18T09:56:10.000Z</time>
      </trkpt>
      <trkpt lat="47.28782" lon="-2.36258">
        <ele>33</ele>
        <time>2022-08-18T09:56:11.000Z</time>
      </trkpt>
      <trkpt lat="47.2878" lon="-2.36255">
        <ele>33.400001525879</ele>
        <time>2022-08-18T09:56:12.000Z</time>
      </trkpt>
      <trkpt lat="47.28777" lon="-2.36252">
        <ele>33.799999237061</ele>
        <time>2022-08-18T09:56:13.000Z</time>
      </trkpt>
      <trkpt lat="47.28769" lon="-2.36241">
        <ele>33.799999237061</ele>
        <time>2022-08-18T09:56:16.000Z</time>
      </trkpt>
      <trkpt lat="47.28758" lon="-2.36221">
        <ele>33.799999237061</ele>
        <time>2022-08-18T09:56:22.000Z</time>
      </trkpt>
      <trkpt lat="47.2875" lon="-2.362">
        <ele>33.799999237061</ele>
        <time>2022-08-18T09:56:27.000Z</time>
      </trkpt>
      <trkpt lat="47.28741" lon="-2.36166">
        <ele>33.799999237061</ele>
        <time>2022-08-18T09:56:34.000Z</time>
      </trkpt>
      <trkpt lat="47.28733" lon="-2.3613">
        <ele>33.799999237061</ele>
        <time>2022-08-18T09:56:40.000Z</time>
      </trkpt>
      <trkpt lat="47.28731" lon="-2.36124">
        <ele>33.799999237061</ele>
        <time>2022-08-18T09:56:41.000Z</time>
      </trkpt>
      <trkpt lat="47.28721" lon="-2.36091">
        <ele>33.799999237061</ele>
        <time>2022-08-18T09:56:46.000Z</time>
      </trkpt>
      <trkpt lat="47.28701" lon="-2.36037">
        <ele>33.799999237061</ele>
        <time>2022-08-18T09:56:54.000Z</time>
      </trkpt>
      <trkpt lat="47.28679" lon="-2.35981">
        <ele>33.799999237061</ele>
        <time>2022-08-18T09:57:02.000Z</time>
      </trkpt>
      <trkpt lat="47.28673" lon="-2.35968">
        <ele>33.799999237061</ele>
        <time>2022-08-18T09:57:04.000Z</time>
      </trkpt>
      <trkpt lat="47.28665" lon="-2.35962">
        <ele>33.799999237061</ele>
        <time>2022-08-18T09:57:06.000Z</time>
      </trkpt>
      <trkpt lat="47.28628" lon="-2.35961">
        <ele>33.799999237061</ele>
        <time>2022-08-18T09:57:13.000Z</time>
      </trkpt>
      <trkpt lat="47.28608" lon="-2.35948">
        <ele>33.799999237061</ele>
        <time>2022-08-18T09:57:17.000Z</time>
      </trkpt>
      <trkpt lat="47.28603" lon="-2.35943">
        <ele>33.799999237061</ele>
        <time>2022-08-18T09:57:18.000Z</time>
      </trkpt>
      <trkpt lat="47.2859" lon="-2.35926">
        <ele>33.799999237061</ele>
        <time>2022-08-18T09:57:21.000Z</time>
      </trkpt>
      <trkpt lat="47.28587" lon="-2.35919">
        <ele>33.400001525879</ele>
        <time>2022-08-18T09:57:22.000Z</time>
      </trkpt>
      <trkpt lat="47.28584" lon="-2.35911">
        <ele>32.599998474121</ele>
        <time>2022-08-18T09:57:23.000Z</time>
      </trkpt>
      <trkpt lat="47.2858" lon="-2.35903">
        <ele>32.200000762939</ele>
        <time>2022-08-18T09:57:24.000Z</time>
      </trkpt>
      <trkpt lat="47.28577" lon="-2.35895">
        <ele>31.799999237061</ele>
        <time>2022-08-18T09:57:25.000Z</time>
      </trkpt>
      <trkpt lat="47.28566" lon="-2.3587">
        <ele>31.799999237061</ele>
        <time>2022-08-18T09:57:28.000Z</time>
      </trkpt>
      <trkpt lat="47.28556" lon="-2.35855">
        <ele>31.799999237061</ele>
        <time>2022-08-18T09:57:30.000Z</time>
      </trkpt>
      <trkpt lat="47.28545" lon="-2.35843">
        <ele>31.39999961853</ele>
        <time>2022-08-18T09:57:32.000Z</time>
      </trkpt>
      <trkpt lat="47.28539" lon="-2.35839">
        <ele>31</ele>
        <time>2022-08-18T09:57:33.000Z</time>
      </trkpt>
      <trkpt lat="47.28532" lon="-2.35835">
        <ele>30.60000038147</ele>
        <time>2022-08-18T09:57:34.000Z</time>
      </trkpt>
      <trkpt lat="47.28525" lon="-2.35832">
        <ele>30.200000762939</ele>
        <time>2022-08-18T09:57:35.000Z</time>
      </trkpt>
      <trkpt lat="47.28518" lon="-2.35829">
        <ele>29.799999237061</ele>
        <time>2022-08-18T09:57:36.000Z</time>
      </trkpt>
      <trkpt lat="47.28511" lon="-2.35826">
        <ele>29.799999237061</ele>
        <time>2022-08-18T09:57:37.000Z</time>
      </trkpt>
      <trkpt lat="47.28469" lon="-2.3581">
        <ele>29.799999237061</ele>
        <time>2022-08-18T09:57:43.000Z</time>
      </trkpt>
      <trkpt lat="47.2842" lon="-2.35792">
        <ele>29.799999237061</ele>
        <time>2022-08-18T09:57:50.000Z</time>
      </trkpt>
      <trkpt lat="47.28394" lon="-2.35783">
        <ele>29.799999237061</ele>
        <time>2022-08-18T09:57:54.000Z</time>
      </trkpt>
      <trkpt lat="47.28374" lon="-2.35774">
        <ele>29.799999237061</ele>
        <time>2022-08-18T09:57:57.000Z</time>
      </trkpt>
      <trkpt lat="47.28354" lon="-2.35766">
        <ele>29.39999961853</ele>
        <time>2022-08-18T09:58:00.000Z</time>
      </trkpt>
      <trkpt lat="47.28347" lon="-2.35763">
        <ele>29</ele>
        <time>2022-08-18T09:58:01.000Z</time>
      </trkpt>
      <trkpt lat="47.28341" lon="-2.35759">
        <ele>28.60000038147</ele>
        <time>2022-08-18T09:58:02.000Z</time>
      </trkpt>
      <trkpt lat="47.28335" lon="-2.35755">
        <ele>28.200000762939</ele>
        <time>2022-08-18T09:58:03.000Z</time>
      </trkpt>
      <trkpt lat="47.28328" lon="-2.35751">
        <ele>27.799999237061</ele>
        <time>2022-08-18T09:58:04.000Z</time>
      </trkpt>
      <trkpt lat="47.28315" lon="-2.35743">
        <ele>27.799999237061</ele>
        <time>2022-08-18T09:58:06.000Z</time>
      </trkpt>
      <trkpt lat="47.28303" lon="-2.35732">
        <ele>27.799999237061</ele>
        <time>2022-08-18T09:58:08.000Z</time>
      </trkpt>
      <trkpt lat="47.28266" lon="-2.35694">
        <ele>27.799999237061</ele>
        <time>2022-08-18T09:58:14.000Z</time>
      </trkpt>
      <trkpt lat="47.28255" lon="-2.3568">
        <ele>27.200000762939</ele>
        <time>2022-08-18T09:58:16.000Z</time>
      </trkpt>
      <trkpt lat="47.28249" lon="-2.35673">
        <ele>26.799999237061</ele>
        <time>2022-08-18T09:58:17.000Z</time>
      </trkpt>
      <trkpt lat="47.28244" lon="-2.35665">
        <ele>26.39999961853</ele>
        <time>2022-08-18T09:58:18.000Z</time>
      </trkpt>
      <trkpt lat="47.28239" lon="-2.35658">
        <ele>26</ele>
        <time>2022-08-18T09:58:19.000Z</time>
      </trkpt>
      <trkpt lat="47.28234" lon="-2.3565">
        <ele>25.39999961853</ele>
        <time>2022-08-18T09:58:20.000Z</time>
      </trkpt>
      <trkpt lat="47.28212" lon="-2.3562">
        <ele>25.39999961853</ele>
        <time>2022-08-18T09:58:24.000Z</time>
      </trkpt>
      <trkpt lat="47.28195" lon="-2.35598">
        <ele>25</ele>
        <time>2022-08-18T09:58:27.000Z</time>
      </trkpt>
      <trkpt lat="47.28188" lon="-2.35591">
        <ele>24.60000038147</ele>
        <time>2022-08-18T09:58:28.000Z</time>
      </trkpt>
      <trkpt lat="47.28182" lon="-2.35585">
        <ele>24.200000762939</ele>
        <time>2022-08-18T09:58:29.000Z</time>
      </trkpt>
      <trkpt lat="47.28175" lon="-2.3558">
        <ele>23.799999237061</ele>
        <time>2022-08-18T09:58:30.000Z</time>
      </trkpt>
      <trkpt lat="47.28168" lon="-2.35575">
        <ele>23.39999961853</ele>
        <time>2022-08-18T09:58:31.000Z</time>
      </trkpt>
      <trkpt lat="47.28161" lon="-2.35571">
        <ele>23.39999961853</ele>
        <time>2022-08-18T09:58:32.000Z</time>
      </trkpt>
      <trkpt lat="47.28145" lon="-2.35566">
        <ele>23.39999961853</ele>
        <time>2022-08-18T09:58:34.000Z</time>
      </trkpt>
      <trkpt lat="47.28106" lon="-2.35559">
        <ele>23.39999961853</ele>
        <time>2022-08-18T09:58:39.000Z</time>
      </trkpt>
      <trkpt lat="47.28097" lon="-2.35558">
        <ele>23</ele>
        <time>2022-08-18T09:58:40.000Z</time>
      </trkpt>
      <trkpt lat="47.28089" lon="-2.35558">
        <ele>22.60000038147</ele>
        <time>2022-08-18T09:58:41.000Z</time>
      </trkpt>
      <trkpt lat="47.28081" lon="-2.35558">
        <ele>22.200000762939</ele>
        <time>2022-08-18T09:58:42.000Z</time>
      </trkpt>
      <trkpt lat="47.28073" lon="-2.35558">
        <ele>21.60000038147</ele>
        <time>2022-08-18T09:58:43.000Z</time>
      </trkpt>
      <trkpt lat="47.28065" lon="-2.35558">
        <ele>21.200000762939</ele>
        <time>2022-08-18T09:58:44.000Z</time>
      </trkpt>
      <trkpt lat="47.28049" lon="-2.35558">
        <ele>21.200000762939</ele>
        <time>2022-08-18T09:58:46.000Z</time>
      </trkpt>
      <trkpt lat="47.28043" lon="-2.35558">
        <ele>20.799999237061</ele>
        <time>2022-08-18T09:58:47.000Z</time>
      </trkpt>
      <trkpt lat="47.28038" lon="-2.3556">
        <ele>20.39999961853</ele>
        <time>2022-08-18T09:58:48.000Z</time>
      </trkpt>
      <trkpt lat="47.28035" lon="-2.35564">
        <ele>20</ele>
        <time>2022-08-18T09:58:49.000Z</time>
      </trkpt>
      <trkpt lat="47.28034" lon="-2.3557">
        <ele>19.60000038147</ele>
        <time>2022-08-18T09:58:50.000Z</time>
      </trkpt>
      <trkpt lat="47.28035" lon="-2.35574">
        <ele>19.200000762939</ele>
        <time>2022-08-18T09:58:51.000Z</time>
      </trkpt>
      <trkpt lat="47.28042" lon="-2.35579">
        <ele>19.200000762939</ele>
        <time>2022-08-18T09:58:54.000Z</time>
      </trkpt>
      <trkpt lat="47.28044" lon="-2.35577">
        <ele>19.200000762939</ele>
        <time>2022-08-18T09:58:55.000Z</time>
      </trkpt>
      <trkpt lat="47.28052" lon="-2.35573">
        <ele>19.200000762939</ele>
        <time>2022-08-18T09:59:00.000Z</time>
      </trkpt>
      <trkpt lat="47.28052" lon="-2.35573">
        <ele>19.200000762939</ele>
        <time>2022-08-18T09:59:01.000Z</time>
      </trkpt>
      <trkpt lat="47.28054" lon="-2.35578">
        <ele>19.200000762939</ele>
        <time>2022-08-18T10:33:24.000Z</time>
      </trkpt>
      <trkpt lat="47.28056" lon="-2.35579">
        <ele>19.200000762939</ele>
        <time>2022-08-18T10:33:26.000Z</time>
      </trkpt>
      <trkpt lat="47.28058" lon="-2.35581">
        <ele>19.200000762939</ele>
        <time>2022-08-18T10:33:29.000Z</time>
      </trkpt>
      <trkpt lat="47.28061" lon="-2.35582">
        <ele>19.200000762939</ele>
        <time>2022-08-18T10:33:32.000Z</time>
      </trkpt>
      <trkpt lat="47.28061" lon="-2.35583">
        <ele>19.200000762939</ele>
        <time>2022-08-18T10:33:34.000Z</time>
      </trkpt>
      <trkpt lat="47.28058" lon="-2.3558">
        <ele>21.200000762939</ele>
        <time>2022-08-18T10:34:40.000Z</time>
      </trkpt>
      <trkpt lat="47.28054" lon="-2.35578">
        <ele>21.200000762939</ele>
        <time>2022-08-18T10:34:42.000Z</time>
      </trkpt>
      <trkpt lat="47.28046" lon="-2.35578">
        <ele>21.200000762939</ele>
        <time>2022-08-18T10:34:45.000Z</time>
      </trkpt>
      <trkpt lat="47.28041" lon="-2.35578">
        <ele>21.200000762939</ele>
        <time>2022-08-18T10:34:47.000Z</time>
      </trkpt>
      <trkpt lat="47.28028" lon="-2.35567">
        <ele>21.200000762939</ele>
        <time>2022-08-18T10:34:51.000Z</time>
      </trkpt>
      <trkpt lat="47.28012" lon="-2.35564">
        <ele>21.200000762939</ele>
        <time>2022-08-18T10:34:55.000Z</time>
      </trkpt>
      <trkpt lat="47.28004" lon="-2.35567">
        <ele>21.200000762939</ele>
        <time>2022-08-18T10:34:57.000Z</time>
      </trkpt>
      <trkpt lat="47.27993" lon="-2.35572">
        <ele>21.200000762939</ele>
        <time>2022-08-18T10:35:00.000Z</time>
      </trkpt>
      <trkpt lat="47.27976" lon="-2.35578">
        <ele>20.799999237061</ele>
        <time>2022-08-18T10:35:05.000Z</time>
      </trkpt>
      <trkpt lat="47.27972" lon="-2.35579">
        <ele>20.39999961853</ele>
        <time>2022-08-18T10:35:06.000Z</time>
      </trkpt>
      <trkpt lat="47.27968" lon="-2.3558">
        <ele>20</ele>
        <time>2022-08-18T10:35:07.000Z</time>
      </trkpt>
      <trkpt lat="47.27964" lon="-2.3558">
        <ele>19.60000038147</ele>
        <time>2022-08-18T10:35:08.000Z</time>
      </trkpt>
      <trkpt lat="47.2796" lon="-2.3558">
        <ele>19.200000762939</ele>
        <time>2022-08-18T10:35:09.000Z</time>
      </trkpt>
      <trkpt lat="47.27951" lon="-2.35581">
        <ele>19.200000762939</ele>
        <time>2022-08-18T10:35:11.000Z</time>
      </trkpt>
      <trkpt lat="47.27942" lon="-2.35585">
        <ele>19.200000762939</ele>
        <time>2022-08-18T10:35:13.000Z</time>
      </trkpt>
      <trkpt lat="47.27928" lon="-2.3559">
        <ele>19.200000762939</ele>
        <time>2022-08-18T10:35:16.000Z</time>
      </trkpt>
      <trkpt lat="47.27917" lon="-2.35592">
        <ele>19.200000762939</ele>
        <time>2022-08-18T10:35:18.000Z</time>
      </trkpt>
      <trkpt lat="47.27892" lon="-2.35597">
        <ele>19.200000762939</ele>
        <time>2022-08-18T10:35:23.000Z</time>
      </trkpt>
      <trkpt lat="47.27881" lon="-2.356">
        <ele>18.799999237061</ele>
        <time>2022-08-18T10:35:25.000Z</time>
      </trkpt>
      <trkpt lat="47.27875" lon="-2.35601">
        <ele>18.39999961853</ele>
        <time>2022-08-18T10:35:26.000Z</time>
      </trkpt>
      <trkpt lat="47.2787" lon="-2.35603">
        <ele>18</ele>
        <time>2022-08-18T10:35:27.000Z</time>
      </trkpt>
      <trkpt lat="47.27864" lon="-2.35604">
        <ele>17.60000038147</ele>
        <time>2022-08-18T10:35:28.000Z</time>
      </trkpt>
      <trkpt lat="47.27858" lon="-2.35605">
        <ele>17.200000762939</ele>
        <time>2022-08-18T10:35:29.000Z</time>
      </trkpt>
      <trkpt lat="47.27822" lon="-2.35616">
        <ele>17.200000762939</ele>
        <time>2022-08-18T10:35:35.000Z</time>
      </trkpt>
      <trkpt lat="47.27792" lon="-2.35626">
        <ele>16.200000762939</ele>
        <time>2022-08-18T10:35:40.000Z</time>
      </trkpt>
      <trkpt lat="47.27786" lon="-2.35629">
        <ele>15.800000190735</ele>
        <time>2022-08-18T10:35:41.000Z</time>
      </trkpt>
      <trkpt lat="47.2778" lon="-2.35633">
        <ele>15.39999961853</ele>
        <time>2022-08-18T10:35:42.000Z</time>
      </trkpt>
      <trkpt lat="47.27774" lon="-2.35638">
        <ele>15</ele>
        <time>2022-08-18T10:35:43.000Z</time>
      </trkpt>
      <trkpt lat="47.27764" lon="-2.35647">
        <ele>15</ele>
        <time>2022-08-18T10:35:45.000Z</time>
      </trkpt>
      <trkpt lat="47.27754" lon="-2.35659">
        <ele>15</ele>
        <time>2022-08-18T10:35:47.000Z</time>
      </trkpt>
      <trkpt lat="47.2773" lon="-2.35696">
        <ele>14.60000038147</ele>
        <time>2022-08-18T10:35:53.000Z</time>
      </trkpt>
      <trkpt lat="47.27726" lon="-2.35702">
        <ele>14.199999809265</ele>
        <time>2022-08-18T10:35:54.000Z</time>
      </trkpt>
      <trkpt lat="47.27721" lon="-2.35708">
        <ele>13.800000190735</ele>
        <time>2022-08-18T10:35:55.000Z</time>
      </trkpt>
      <trkpt lat="47.27716" lon="-2.35713">
        <ele>13.199999809265</ele>
        <time>2022-08-18T10:35:56.000Z</time>
      </trkpt>
      <trkpt lat="47.27711" lon="-2.35718">
        <ele>12.800000190735</ele>
        <time>2022-08-18T10:35:57.000Z</time>
      </trkpt>
      <trkpt lat="47.27694" lon="-2.35732">
        <ele>12.800000190735</ele>
        <time>2022-08-18T10:36:00.000Z</time>
      </trkpt>
      <trkpt lat="47.27689" lon="-2.35738">
        <ele>12.800000190735</ele>
        <time>2022-08-18T10:36:01.000Z</time>
      </trkpt>
      <trkpt lat="47.27679" lon="-2.35747">
        <ele>12.39999961853</ele>
        <time>2022-08-18T10:36:03.000Z</time>
      </trkpt>
      <trkpt lat="47.27674" lon="-2.35748">
        <ele>11.60000038147</ele>
        <time>2022-08-18T10:36:04.000Z</time>
      </trkpt>
      <trkpt lat="47.2767" lon="-2.35745">
        <ele>11.199999809265</ele>
        <time>2022-08-18T10:36:05.000Z</time>
      </trkpt>
      <trkpt lat="47.27666" lon="-2.35741">
        <ele>10.800000190735</ele>
        <time>2022-08-18T10:36:06.000Z</time>
      </trkpt>
      <trkpt lat="47.27663" lon="-2.35736">
        <ele>10.800000190735</ele>
        <time>2022-08-18T10:36:07.000Z</time>
      </trkpt>
      <trkpt lat="47.27659" lon="-2.35732">
        <ele>10.800000190735</ele>
        <time>2022-08-18T10:36:08.000Z</time>
      </trkpt>
      <trkpt lat="47.27644" lon="-2.35724">
        <ele>10.800000190735</ele>
        <time>2022-08-18T10:36:11.000Z</time>
      </trkpt>
      <trkpt lat="47.27632" lon="-2.3572">
        <ele>10.800000190735</ele>
        <time>2022-08-18T10:36:13.000Z</time>
      </trkpt>
      <trkpt lat="47.27615" lon="-2.35714">
        <ele>10.800000190735</ele>
        <time>2022-08-18T10:36:16.000Z</time>
      </trkpt>
      <trkpt lat="47.27575" lon="-2.35705">
        <ele>10.39999961853</ele>
        <time>2022-08-18T10:36:23.000Z</time>
      </trkpt>
      <trkpt lat="47.27569" lon="-2.35704">
        <ele>10</ele>
        <time>2022-08-18T10:36:24.000Z</time>
      </trkpt>
      <trkpt lat="47.27563" lon="-2.35703">
        <ele>9.6000003814697</ele>
        <time>2022-08-18T10:36:25.000Z</time>
      </trkpt>
      <trkpt lat="47.27558" lon="-2.35701">
        <ele>9.1999998092651</ele>
        <time>2022-08-18T10:36:26.000Z</time>
      </trkpt>
      <trkpt lat="47.27553" lon="-2.357">
        <ele>8.8000001907349</ele>
        <time>2022-08-18T10:36:27.000Z</time>
      </trkpt>
      <trkpt lat="47.27547" lon="-2.35699">
        <ele>8.8000001907349</ele>
        <time>2022-08-18T10:36:28.000Z</time>
      </trkpt>
      <trkpt lat="47.27531" lon="-2.35695">
        <ele>8.8000001907349</ele>
        <time>2022-08-18T10:36:31.000Z</time>
      </trkpt>
      <trkpt lat="47.27502" lon="-2.35687">
        <ele>8.8000001907349</ele>
        <time>2022-08-18T10:36:36.000Z</time>
      </trkpt>
      <trkpt lat="47.27484" lon="-2.35684">
        <ele>8.3999996185303</ele>
        <time>2022-08-18T10:36:39.000Z</time>
      </trkpt>
      <trkpt lat="47.27479" lon="-2.35683">
        <ele>8</ele>
        <time>2022-08-18T10:36:40.000Z</time>
      </trkpt>
      <trkpt lat="47.27473" lon="-2.35682">
        <ele>7.5999999046326</ele>
        <time>2022-08-18T10:36:41.000Z</time>
      </trkpt>
      <trkpt lat="47.27467" lon="-2.3568">
        <ele>7</ele>
        <time>2022-08-18T10:36:42.000Z</time>
      </trkpt>
      <trkpt lat="47.27462" lon="-2.35679">
        <ele>6.5999999046326</ele>
        <time>2022-08-18T10:36:43.000Z</time>
      </trkpt>
      <trkpt lat="47.27434" lon="-2.35672">
        <ele>6.5999999046326</ele>
        <time>2022-08-18T10:36:48.000Z</time>
      </trkpt>
      <trkpt lat="47.27429" lon="-2.35671">
        <ele>6.5999999046326</ele>
        <time>2022-08-18T10:36:49.000Z</time>
      </trkpt>
      <trkpt lat="47.27424" lon="-2.35669">
        <ele>6.5999999046326</ele>
        <time>2022-08-18T10:36:50.000Z</time>
      </trkpt>
      <trkpt lat="47.27409" lon="-2.35671">
        <ele>6.5999999046326</ele>
        <time>2022-08-18T10:36:53.000Z</time>
      </trkpt>
      <trkpt lat="47.27383" lon="-2.35684">
        <ele>6.5999999046326</ele>
        <time>2022-08-18T10:36:58.000Z</time>
      </trkpt>
      <trkpt lat="47.27358" lon="-2.357">
        <ele>6.1999998092651</ele>
        <time>2022-08-18T10:37:03.000Z</time>
      </trkpt>
      <trkpt lat="47.27354" lon="-2.35703">
        <ele>5.8000001907349</ele>
        <time>2022-08-18T10:37:04.000Z</time>
      </trkpt>
      <trkpt lat="47.27349" lon="-2.35705">
        <ele>5.4000000953674</ele>
        <time>2022-08-18T10:37:05.000Z</time>
      </trkpt>
      <trkpt lat="47.27345" lon="-2.35708">
        <ele>5</ele>
        <time>2022-08-18T10:37:06.000Z</time>
      </trkpt>
      <trkpt lat="47.27343" lon="-2.35709">
        <ele>4.5999999046326</ele>
        <time>2022-08-18T10:37:07.000Z</time>
      </trkpt>
      <trkpt lat="47.27341" lon="-2.35711">
        <ele>4.5999999046326</ele>
        <time>2022-08-18T10:37:09.000Z</time>
      </trkpt>
      <trkpt lat="47.27335" lon="-2.35718">
        <ele>4.5999999046326</ele>
        <time>2022-08-18T10:37:15.000Z</time>
      </trkpt>
      <trkpt lat="47.27324" lon="-2.35732">
        <ele>4.5999999046326</ele>
        <time>2022-08-18T10:37:19.000Z</time>
      </trkpt>
      <trkpt lat="47.27312" lon="-2.35741">
        <ele>4.5999999046326</ele>
        <time>2022-08-18T10:37:23.000Z</time>
      </trkpt>
      <trkpt lat="47.27308" lon="-2.35727">
        <ele>4.5999999046326</ele>
        <time>2022-08-18T10:37:26.000Z</time>
      </trkpt>
      <trkpt lat="47.27304" lon="-2.35719">
        <ele>4.5999999046326</ele>
        <time>2022-08-18T10:37:29.000Z</time>
      </trkpt>
      <trkpt lat="47.27297" lon="-2.35709">
        <ele>4.5999999046326</ele>
        <time>2022-08-18T10:37:33.000Z</time>
      </trkpt>
      <trkpt lat="47.27286" lon="-2.35682">
        <ele>4.5999999046326</ele>
        <time>2022-08-18T10:37:39.000Z</time>
      </trkpt>
      <trkpt lat="47.27277" lon="-2.35663">
        <ele>5</ele>
        <time>2022-08-18T10:37:43.000Z</time>
      </trkpt>
      <trkpt lat="47.27275" lon="-2.35658">
        <ele>5.4000000953674</ele>
        <time>2022-08-18T10:37:44.000Z</time>
      </trkpt>
      <trkpt lat="47.27272" lon="-2.35653">
        <ele>5.8000001907349</ele>
        <time>2022-08-18T10:37:45.000Z</time>
      </trkpt>
      <trkpt lat="47.27271" lon="-2.35648">
        <ele>6.1999998092651</ele>
        <time>2022-08-18T10:37:46.000Z</time>
      </trkpt>
      <trkpt lat="47.27268" lon="-2.35643">
        <ele>6.5999999046326</ele>
        <time>2022-08-18T10:37:47.000Z</time>
      </trkpt>
      <trkpt lat="47.27257" lon="-2.35618">
        <ele>6.5999999046326</ele>
        <time>2022-08-18T10:37:52.000Z</time>
      </trkpt>
      <trkpt lat="47.27243" lon="-2.35588">
        <ele>6.5999999046326</ele>
        <time>2022-08-18T10:37:58.000Z</time>
      </trkpt>
      <trkpt lat="47.27237" lon="-2.35572">
        <ele>6.5999999046326</ele>
        <time>2022-08-18T10:38:01.000Z</time>
      </trkpt>
      <trkpt lat="47.27215" lon="-2.35525">
        <ele>6.5999999046326</ele>
        <time>2022-08-18T10:38:10.000Z</time>
      </trkpt>
      <trkpt lat="47.27193" lon="-2.35479">
        <ele>6.5999999046326</ele>
        <time>2022-08-18T10:38:19.000Z</time>
      </trkpt>
      <trkpt lat="47.27165" lon="-2.35426">
        <ele>6.5999999046326</ele>
        <time>2022-08-18T10:38:29.000Z</time>
      </trkpt>
      <trkpt lat="47.27158" lon="-2.35412">
        <ele>6.5999999046326</ele>
        <time>2022-08-18T10:38:33.000Z</time>
      </trkpt>
      <trkpt lat="47.27156" lon="-2.35409">
        <ele>6.5999999046326</ele>
        <time>2022-08-18T10:38:37.000Z</time>
      </trkpt>
      <trkpt lat="47.27152" lon="-2.35403">
        <ele>6.5999999046326</ele>
        <time>2022-08-18T10:38:39.000Z</time>
      </trkpt>
      <trkpt lat="47.27148" lon="-2.35394">
        <ele>6.5999999046326</ele>
        <time>2022-08-18T10:38:41.000Z</time>
      </trkpt>
      <trkpt lat="47.27141" lon="-2.35379">
        <ele>6.5999999046326</ele>
        <time>2022-08-18T10:38:44.000Z</time>
      </trkpt>
      <trkpt lat="47.27114" lon="-2.35335">
        <ele>6.5999999046326</ele>
        <time>2022-08-18T10:38:53.000Z</time>
      </trkpt>
      <trkpt lat="47.27091" lon="-2.353">
        <ele>6.5999999046326</ele>
        <time>2022-08-18T10:39:00.000Z</time>
      </trkpt>
      <trkpt lat="47.27054" lon="-2.35242">
        <ele>6.5999999046326</ele>
        <time>2022-08-18T10:39:11.000Z</time>
      </trkpt>
      <trkpt lat="47.27027" lon="-2.352">
        <ele>6.5999999046326</ele>
        <time>2022-08-18T10:39:19.000Z</time>
      </trkpt>
      <trkpt lat="47.26999" lon="-2.35159">
        <ele>6.5999999046326</ele>
        <time>2022-08-18T10:39:27.000Z</time>
      </trkpt>
      <trkpt lat="47.2699" lon="-2.35143">
        <ele>6.5999999046326</ele>
        <time>2022-08-18T10:39:30.000Z</time>
      </trkpt>
      <trkpt lat="47.26977" lon="-2.35123">
        <ele>6.5999999046326</ele>
        <time>2022-08-18T10:39:34.000Z</time>
      </trkpt>
      <trkpt lat="47.26946" lon="-2.35078">
        <ele>6.5999999046326</ele>
        <time>2022-08-18T10:39:43.000Z</time>
      </trkpt>
      <trkpt lat="47.26938" lon="-2.35069">
        <ele>6.5999999046326</ele>
        <time>2022-08-18T10:39:45.000Z</time>
      </trkpt>
      <trkpt lat="47.26934" lon="-2.35063">
        <ele>6.5999999046326</ele>
        <time>2022-08-18T10:39:46.000Z</time>
      </trkpt>
      <trkpt lat="47.26927" lon="-2.35051">
        <ele>6.5999999046326</ele>
        <time>2022-08-18T10:39:48.000Z</time>
      </trkpt>
      <trkpt lat="47.26902" lon="-2.35013">
        <ele>6.5999999046326</ele>
        <time>2022-08-18T10:39:55.000Z</time>
      </trkpt>
      <trkpt lat="47.26873" lon="-2.34969">
        <ele>6.5999999046326</ele>
        <time>2022-08-18T10:40:03.000Z</time>
      </trkpt>
      <trkpt lat="47.26834" lon="-2.3491">
        <ele>6.5999999046326</ele>
        <time>2022-08-18T10:40:14.000Z</time>
      </trkpt>
      <trkpt lat="47.2683" lon="-2.34904">
        <ele>6.5999999046326</ele>
        <time>2022-08-18T10:40:15.000Z</time>
      </trkpt>
      <trkpt lat="47.26801" lon="-2.34862">
        <ele>6.5999999046326</ele>
        <time>2022-08-18T10:40:23.000Z</time>
      </trkpt>
      <trkpt lat="47.26772" lon="-2.34821">
        <ele>6.5999999046326</ele>
        <time>2022-08-18T10:40:31.000Z</time>
      </trkpt>
      <trkpt lat="47.26762" lon="-2.34807">
        <ele>6.5999999046326</ele>
        <time>2022-08-18T10:40:34.000Z</time>
      </trkpt>
      <trkpt lat="47.26752" lon="-2.3479">
        <ele>6.5999999046326</ele>
        <time>2022-08-18T10:40:37.000Z</time>
      </trkpt>
      <trkpt lat="47.2673" lon="-2.34766">
        <ele>6.5999999046326</ele>
        <time>2022-08-18T10:40:42.000Z</time>
      </trkpt>
      <trkpt lat="47.26692" lon="-2.34721">
        <ele>6.5999999046326</ele>
        <time>2022-08-18T10:40:51.000Z</time>
      </trkpt>
      <trkpt lat="47.26658" lon="-2.3468">
        <ele>6.5999999046326</ele>
        <time>2022-08-18T10:40:59.000Z</time>
      </trkpt>
      <trkpt lat="47.26626" lon="-2.3464">
        <ele>6.5999999046326</ele>
        <time>2022-08-18T10:41:06.000Z</time>
      </trkpt>
      <trkpt lat="47.26585" lon="-2.34591">
        <ele>6.5999999046326</ele>
        <time>2022-08-18T10:41:15.000Z</time>
      </trkpt>
      <trkpt lat="47.26543" lon="-2.34547">
        <ele>6.5999999046326</ele>
        <time>2022-08-18T10:41:24.000Z</time>
      </trkpt>
      <trkpt lat="47.2652" lon="-2.34526">
        <ele>6.5999999046326</ele>
        <time>2022-08-18T10:41:29.000Z</time>
      </trkpt>
      <trkpt lat="47.26515" lon="-2.34522">
        <ele>6.5999999046326</ele>
        <time>2022-08-18T10:41:30.000Z</time>
      </trkpt>
      <trkpt lat="47.2651" lon="-2.34518">
        <ele>6.5999999046326</ele>
        <time>2022-08-18T10:41:31.000Z</time>
      </trkpt>
      <trkpt lat="47.26465" lon="-2.34487">
        <ele>6.5999999046326</ele>
        <time>2022-08-18T10:41:40.000Z</time>
      </trkpt>
      <trkpt lat="47.2642" lon="-2.34454">
        <ele>6.5999999046326</ele>
        <time>2022-08-18T10:41:49.000Z</time>
      </trkpt>
      <trkpt lat="47.26375" lon="-2.34417">
        <ele>6.5999999046326</ele>
        <time>2022-08-18T10:41:58.000Z</time>
      </trkpt>
      <trkpt lat="47.2634" lon="-2.34386">
        <ele>6.5999999046326</ele>
        <time>2022-08-18T10:42:05.000Z</time>
      </trkpt>
      <trkpt lat="47.26335" lon="-2.34384">
        <ele>6.5999999046326</ele>
        <time>2022-08-18T10:42:06.000Z</time>
      </trkpt>
      <trkpt lat="47.26324" lon="-2.34381">
        <ele>6.5999999046326</ele>
        <time>2022-08-18T10:42:08.000Z</time>
      </trkpt>
      <trkpt lat="47.26313" lon="-2.34364">
        <ele>6.5999999046326</ele>
        <time>2022-08-18T10:42:11.000Z</time>
      </trkpt>
      <trkpt lat="47.26297" lon="-2.34344">
        <ele>6.5999999046326</ele>
        <time>2022-08-18T10:42:15.000Z</time>
      </trkpt>
      <trkpt lat="47.26292" lon="-2.34339">
        <ele>6.5999999046326</ele>
        <time>2022-08-18T10:42:16.000Z</time>
      </trkpt>
      <trkpt lat="47.2628" lon="-2.34324">
        <ele>6.5999999046326</ele>
        <time>2022-08-18T10:42:19.000Z</time>
      </trkpt>
      <trkpt lat="47.26271" lon="-2.34316">
        <ele>6.5999999046326</ele>
        <time>2022-08-18T10:42:21.000Z</time>
      </trkpt>
      <trkpt lat="47.26234" lon="-2.34277">
        <ele>6.5999999046326</ele>
        <time>2022-08-18T10:42:29.000Z</time>
      </trkpt>
      <trkpt lat="47.26216" lon="-2.34257">
        <ele>6.5999999046326</ele>
        <time>2022-08-18T10:42:33.000Z</time>
      </trkpt>
      <trkpt lat="47.26192" lon="-2.34234">
        <ele>6.5999999046326</ele>
        <time>2022-08-18T10:42:38.000Z</time>
      </trkpt>
      <trkpt lat="47.26151" lon="-2.34191">
        <ele>6.5999999046326</ele>
        <time>2022-08-18T10:42:47.000Z</time>
      </trkpt>
      <trkpt lat="47.26146" lon="-2.34188">
        <ele>6.5999999046326</ele>
        <time>2022-08-18T10:42:48.000Z</time>
      </trkpt>
      <trkpt lat="47.2613" lon="-2.34178">
        <ele>6.5999999046326</ele>
        <time>2022-08-18T10:42:51.000Z</time>
      </trkpt>
      <trkpt lat="47.2611" lon="-2.34162">
        <ele>6.5999999046326</ele>
        <time>2022-08-18T10:42:55.000Z</time>
      </trkpt>
      <trkpt lat="47.26099" lon="-2.34156">
        <ele>6.5999999046326</ele>
        <time>2022-08-18T10:42:57.000Z</time>
      </trkpt>
      <trkpt lat="47.26072" lon="-2.34144">
        <ele>6.1999998092651</ele>
        <time>2022-08-18T10:43:03.000Z</time>
      </trkpt>
      <trkpt lat="47.26066" lon="-2.34141">
        <ele>5.8000001907349</ele>
        <time>2022-08-18T10:43:04.000Z</time>
      </trkpt>
      <trkpt lat="47.26061" lon="-2.34138">
        <ele>5.4000000953674</ele>
        <time>2022-08-18T10:43:05.000Z</time>
      </trkpt>
      <trkpt lat="47.26055" lon="-2.34135">
        <ele>4.5999999046326</ele>
        <time>2022-08-18T10:43:06.000Z</time>
      </trkpt>
      <trkpt lat="47.2605" lon="-2.34132">
        <ele>4.5999999046326</ele>
        <time>2022-08-18T10:43:07.000Z</time>
      </trkpt>
      <trkpt lat="47.25994" lon="-2.34105">
        <ele>4.5999999046326</ele>
        <time>2022-08-18T10:43:17.000Z</time>
      </trkpt>
      <trkpt lat="47.25957" lon="-2.34088">
        <ele>4.5999999046326</ele>
        <time>2022-08-18T10:43:24.000Z</time>
      </trkpt>
      <trkpt lat="47.25924" lon="-2.34076">
        <ele>4.5999999046326</ele>
        <time>2022-08-18T10:43:30.000Z</time>
      </trkpt>
      <trkpt lat="47.25913" lon="-2.34075">
        <ele>4.5999999046326</ele>
        <time>2022-08-18T10:43:32.000Z</time>
      </trkpt>
      <trkpt lat="47.25908" lon="-2.34073">
        <ele>4.5999999046326</ele>
        <time>2022-08-18T10:43:33.000Z</time>
      </trkpt>
      <trkpt lat="47.25899" lon="-2.34062">
        <ele>4.5999999046326</ele>
        <time>2022-08-18T10:43:35.000Z</time>
      </trkpt>
      <trkpt lat="47.25896" lon="-2.34038">
        <ele>4.5999999046326</ele>
        <time>2022-08-18T10:43:38.000Z</time>
      </trkpt>
      <trkpt lat="47.25902" lon="-2.34017">
        <ele>4.5999999046326</ele>
        <time>2022-08-18T10:43:41.000Z</time>
      </trkpt>
      <trkpt lat="47.25906" lon="-2.34002">
        <ele>4.5999999046326</ele>
        <time>2022-08-18T10:43:43.000Z</time>
      </trkpt>
      <trkpt lat="47.25917" lon="-2.33971">
        <ele>4.5999999046326</ele>
        <time>2022-08-18T10:43:47.000Z</time>
      </trkpt>
      <trkpt lat="47.25937" lon="-2.3393">
        <ele>4.5999999046326</ele>
        <time>2022-08-18T10:43:53.000Z</time>
      </trkpt>
      <trkpt lat="47.25941" lon="-2.33925">
        <ele>4.5999999046326</ele>
        <time>2022-08-18T10:43:54.000Z</time>
      </trkpt>
      <trkpt lat="47.25945" lon="-2.33919">
        <ele>4.5999999046326</ele>
        <time>2022-08-18T10:43:57.000Z</time>
      </trkpt>
      <trkpt lat="47.2595" lon="-2.33907">
        <ele>4.5999999046326</ele>
        <time>2022-08-18T10:44:01.000Z</time>
      </trkpt>
      <trkpt lat="47.25953" lon="-2.33905">
        <ele>4.5999999046326</ele>
        <time>2022-08-18T10:44:02.000Z</time>
      </trkpt>
      <trkpt lat="47.25959" lon="-2.33905">
        <ele>4.5999999046326</ele>
        <time>2022-08-18T10:44:04.000Z</time>
      </trkpt>
      <trkpt lat="47.25969" lon="-2.33903">
        <ele>4.5999999046326</ele>
        <time>2022-08-18T10:44:08.000Z</time>
      </trkpt>
      <trkpt lat="47.25974" lon="-2.33889">
        <ele>4.5999999046326</ele>
        <time>2022-08-18T10:44:12.000Z</time>
      </trkpt>
      <trkpt lat="47.25977" lon="-2.33877">
        <ele>4.5999999046326</ele>
        <time>2022-08-18T10:44:16.000Z</time>
      </trkpt>
      <trkpt lat="47.2598" lon="-2.33872">
        <ele>4.5999999046326</ele>
        <time>2022-08-18T10:44:17.000Z</time>
      </trkpt>
      <trkpt lat="47.2599" lon="-2.33842">
        <ele>4.5999999046326</ele>
        <time>2022-08-18T10:44:22.000Z</time>
      </trkpt>
      <trkpt lat="47.26009" lon="-2.33788">
        <ele>4.5999999046326</ele>
        <time>2022-08-18T10:44:30.000Z</time>
      </trkpt>
      <trkpt lat="47.26029" lon="-2.33733">
        <ele>4.5999999046326</ele>
        <time>2022-08-18T10:44:38.000Z</time>
      </trkpt>
      <trkpt lat="47.26037" lon="-2.33713">
        <ele>4.5999999046326</ele>
        <time>2022-08-18T10:44:41.000Z</time>
      </trkpt>
      <trkpt lat="47.26048" lon="-2.33689">
        <ele>4.5999999046326</ele>
        <time>2022-08-18T10:44:45.000Z</time>
      </trkpt>
      <trkpt lat="47.2606" lon="-2.33649">
        <ele>4.5999999046326</ele>
        <time>2022-08-18T10:44:51.000Z</time>
      </trkpt>
      <trkpt lat="47.26074" lon="-2.3361">
        <ele>4.5999999046326</ele>
        <time>2022-08-18T10:44:57.000Z</time>
      </trkpt>
      <trkpt lat="47.2609" lon="-2.33563">
        <ele>4.5999999046326</ele>
        <time>2022-08-18T10:45:04.000Z</time>
      </trkpt>
      <trkpt lat="47.26102" lon="-2.33529">
        <ele>4.1999998092651</ele>
        <time>2022-08-18T10:45:09.000Z</time>
      </trkpt>
      <trkpt lat="47.26105" lon="-2.33522">
        <ele>3.7999999523163</ele>
        <time>2022-08-18T10:45:10.000Z</time>
      </trkpt>
      <trkpt lat="47.26107" lon="-2.33515">
        <ele>3.4000000953674</ele>
        <time>2022-08-18T10:45:11.000Z</time>
      </trkpt>
      <trkpt lat="47.26109" lon="-2.33509">
        <ele>3</ele>
        <time>2022-08-18T10:45:12.000Z</time>
      </trkpt>
      <trkpt lat="47.26112" lon="-2.33502">
        <ele>2.5999999046326</ele>
        <time>2022-08-18T10:45:13.000Z</time>
      </trkpt>
      <trkpt lat="47.26124" lon="-2.33469">
        <ele>2.5999999046326</ele>
        <time>2022-08-18T10:45:18.000Z</time>
      </trkpt>
      <trkpt lat="47.26134" lon="-2.33438">
        <ele>2.5999999046326</ele>
        <time>2022-08-18T10:45:24.000Z</time>
      </trkpt>
      <trkpt lat="47.26131" lon="-2.3342">
        <ele>2.5999999046326</ele>
        <time>2022-08-18T10:45:27.000Z</time>
      </trkpt>
      <trkpt lat="47.26116" lon="-2.33405">
        <ele>2.5999999046326</ele>
        <time>2022-08-18T10:45:31.000Z</time>
      </trkpt>
      <trkpt lat="47.26108" lon="-2.33395">
        <ele>2.5999999046326</ele>
        <time>2022-08-18T10:45:33.000Z</time>
      </trkpt>
      <trkpt lat="47.26092" lon="-2.33375">
        <ele>2.5999999046326</ele>
        <time>2022-08-18T10:45:37.000Z</time>
      </trkpt>
      <trkpt lat="47.26089" lon="-2.3337">
        <ele>2.5999999046326</ele>
        <time>2022-08-18T10:45:38.000Z</time>
      </trkpt>
      <trkpt lat="47.26078" lon="-2.33352">
        <ele>2.5999999046326</ele>
        <time>2022-08-18T10:45:41.000Z</time>
      </trkpt>
      <trkpt lat="47.26069" lon="-2.33331">
        <ele>2.5999999046326</ele>
        <time>2022-08-18T10:45:44.000Z</time>
      </trkpt>
      <trkpt lat="47.26063" lon="-2.33317">
        <ele>2.5999999046326</ele>
        <time>2022-08-18T10:45:46.000Z</time>
      </trkpt>
      <trkpt lat="47.26046" lon="-2.33266">
        <ele>2.5999999046326</ele>
        <time>2022-08-18T10:45:53.000Z</time>
      </trkpt>
      <trkpt lat="47.2602" lon="-2.33192">
        <ele>2.5999999046326</ele>
        <time>2022-08-18T10:46:03.000Z</time>
      </trkpt>
      <trkpt lat="47.25997" lon="-2.33128">
        <ele>2.5999999046326</ele>
        <time>2022-08-18T10:46:12.000Z</time>
      </trkpt>
      <trkpt lat="47.25986" lon="-2.33089">
        <ele>2.5999999046326</ele>
        <time>2022-08-18T10:46:17.000Z</time>
      </trkpt>
      <trkpt lat="47.25983" lon="-2.33081">
        <ele>2.5999999046326</ele>
        <time>2022-08-18T10:46:18.000Z</time>
      </trkpt>
      <trkpt lat="47.25965" lon="-2.33037">
        <ele>2.5999999046326</ele>
        <time>2022-08-18T10:46:24.000Z</time>
      </trkpt>
      <trkpt lat="47.25945" lon="-2.3298">
        <ele>2.5999999046326</ele>
        <time>2022-08-18T10:46:32.000Z</time>
      </trkpt>
      <trkpt lat="47.25921" lon="-2.32908">
        <ele>2.5999999046326</ele>
        <time>2022-08-18T10:46:42.000Z</time>
      </trkpt>
      <trkpt lat="47.25901" lon="-2.3286">
        <ele>2.5999999046326</ele>
        <time>2022-08-18T10:46:49.000Z</time>
      </trkpt>
      <trkpt lat="47.25883" lon="-2.32805">
        <ele>2.5999999046326</ele>
        <time>2022-08-18T10:46:57.000Z</time>
      </trkpt>
      <trkpt lat="47.25863" lon="-2.32742">
        <ele>2.5999999046326</ele>
        <time>2022-08-18T10:47:06.000Z</time>
      </trkpt>
      <trkpt lat="47.25862" lon="-2.32734">
        <ele>2.5999999046326</ele>
        <time>2022-08-18T10:47:07.000Z</time>
      </trkpt>
      <trkpt lat="47.25863" lon="-2.32719">
        <ele>2.5999999046326</ele>
        <time>2022-08-18T10:47:09.000Z</time>
      </trkpt>
      <trkpt lat="47.25858" lon="-2.32698">
        <ele>2.5999999046326</ele>
        <time>2022-08-18T10:47:12.000Z</time>
      </trkpt>
      <trkpt lat="47.25856" lon="-2.32691">
        <ele>2.5999999046326</ele>
        <time>2022-08-18T10:47:13.000Z</time>
      </trkpt>
      <trkpt lat="47.25837" lon="-2.32621">
        <ele>2.5999999046326</ele>
        <time>2022-08-18T10:47:23.000Z</time>
      </trkpt>
      <trkpt lat="47.25824" lon="-2.32571">
        <ele>2.5999999046326</ele>
        <time>2022-08-18T10:47:30.000Z</time>
      </trkpt>
      <trkpt lat="47.25812" lon="-2.3252">
        <ele>2.5999999046326</ele>
        <time>2022-08-18T10:47:37.000Z</time>
      </trkpt>
      <trkpt lat="47.25809" lon="-2.32507">
        <ele>2.5999999046326</ele>
        <time>2022-08-18T10:47:39.000Z</time>
      </trkpt>
      <trkpt lat="47.25811" lon="-2.325">
        <ele>2.5999999046326</ele>
        <time>2022-08-18T10:47:40.000Z</time>
      </trkpt>
      <trkpt lat="47.2582" lon="-2.32488">
        <ele>2.5999999046326</ele>
        <time>2022-08-18T10:47:43.000Z</time>
      </trkpt>
      <trkpt lat="47.25839" lon="-2.32486">
        <ele>2.5999999046326</ele>
        <time>2022-08-18T10:47:47.000Z</time>
      </trkpt>
      <trkpt lat="47.25854" lon="-2.32485">
        <ele>2.5999999046326</ele>
        <time>2022-08-18T10:47:50.000Z</time>
      </trkpt>
      <trkpt lat="47.25868" lon="-2.32487">
        <ele>2.5999999046326</ele>
        <time>2022-08-18T10:47:53.000Z</time>
      </trkpt>
      <trkpt lat="47.25873" lon="-2.32488">
        <ele>2.5999999046326</ele>
        <time>2022-08-18T10:47:54.000Z</time>
      </trkpt>
      <trkpt lat="47.25878" lon="-2.32488">
        <ele>2.5999999046326</ele>
        <time>2022-08-18T10:47:55.000Z</time>
      </trkpt>
      <trkpt lat="47.25889" lon="-2.32478">
        <ele>2.5999999046326</ele>
        <time>2022-08-18T10:47:58.000Z</time>
      </trkpt>
      <trkpt lat="47.25893" lon="-2.32465">
        <ele>2.5999999046326</ele>
        <time>2022-08-18T10:48:01.000Z</time>
      </trkpt>
      <trkpt lat="47.25907" lon="-2.32448">
        <ele>2.5999999046326</ele>
        <time>2022-08-18T10:48:05.000Z</time>
      </trkpt>
      <trkpt lat="47.25912" lon="-2.32444">
        <ele>2.5999999046326</ele>
        <time>2022-08-18T10:48:06.000Z</time>
      </trkpt>
      <trkpt lat="47.25941" lon="-2.32408">
        <ele>2.5999999046326</ele>
        <time>2022-08-18T10:48:13.000Z</time>
      </trkpt>
      <trkpt lat="47.25964" lon="-2.32377">
        <ele>2.5999999046326</ele>
        <time>2022-08-18T10:48:19.000Z</time>
      </trkpt>
      <trkpt lat="47.25997" lon="-2.32336">
        <ele>2.5999999046326</ele>
        <time>2022-08-18T10:48:27.000Z</time>
      </trkpt>
      <trkpt lat="47.26032" lon="-2.32292">
        <ele>2.5999999046326</ele>
        <time>2022-08-18T10:48:36.000Z</time>
      </trkpt>
      <trkpt lat="47.26064" lon="-2.32255">
        <ele>2.5999999046326</ele>
        <time>2022-08-18T10:48:44.000Z</time>
      </trkpt>
      <trkpt lat="47.26069" lon="-2.32251">
        <ele>2.5999999046326</ele>
        <time>2022-08-18T10:48:45.000Z</time>
      </trkpt>
      <trkpt lat="47.2608" lon="-2.32237">
        <ele>2.5999999046326</ele>
        <time>2022-08-18T10:48:48.000Z</time>
      </trkpt>
      <trkpt lat="47.26098" lon="-2.3221">
        <ele>2.5999999046326</ele>
        <time>2022-08-18T10:48:53.000Z</time>
      </trkpt>
      <trkpt lat="47.26104" lon="-2.32197">
        <ele>2.5999999046326</ele>
        <time>2022-08-18T10:48:55.000Z</time>
      </trkpt>
      <trkpt lat="47.26119" lon="-2.32159">
        <ele>2.5999999046326</ele>
        <time>2022-08-18T10:49:01.000Z</time>
      </trkpt>
      <trkpt lat="47.26131" lon="-2.32125">
        <ele>2.5999999046326</ele>
        <time>2022-08-18T10:49:06.000Z</time>
      </trkpt>
      <trkpt lat="47.26132" lon="-2.32119">
        <ele>2.5999999046326</ele>
        <time>2022-08-18T10:49:07.000Z</time>
      </trkpt>
      <trkpt lat="47.26137" lon="-2.32091">
        <ele>2.5999999046326</ele>
        <time>2022-08-18T10:49:11.000Z</time>
      </trkpt>
      <trkpt lat="47.26139" lon="-2.32085">
        <ele>2.5999999046326</ele>
        <time>2022-08-18T10:49:12.000Z</time>
      </trkpt>
      <trkpt lat="47.26153" lon="-2.3204">
        <ele>2.5999999046326</ele>
        <time>2022-08-18T10:49:19.000Z</time>
      </trkpt>
      <trkpt lat="47.26156" lon="-2.32034">
        <ele>2.5999999046326</ele>
        <time>2022-08-18T10:49:20.000Z</time>
      </trkpt>
      <trkpt lat="47.26167" lon="-2.32023">
        <ele>2.5999999046326</ele>
        <time>2022-08-18T10:49:23.000Z</time>
      </trkpt>
      <trkpt lat="47.26179" lon="-2.32023">
        <ele>2.5999999046326</ele>
        <time>2022-08-18T10:49:26.000Z</time>
      </trkpt>
      <trkpt lat="47.26183" lon="-2.32023">
        <ele>2.5999999046326</ele>
        <time>2022-08-18T10:49:27.000Z</time>
      </trkpt>
      <trkpt lat="47.2619" lon="-2.32027">
        <ele>2.5999999046326</ele>
        <time>2022-08-18T10:49:31.000Z</time>
      </trkpt>
      <trkpt lat="47.26195" lon="-2.32022">
        <ele>2.5999999046326</ele>
        <time>2022-08-18T10:49:34.000Z</time>
      </trkpt>
      <trkpt lat="47.26194" lon="-2.32018">
        <ele>2.5999999046326</ele>
        <time>2022-08-18T10:49:35.000Z</time>
      </trkpt>
      <trkpt lat="47.26201" lon="-2.32007">
        <ele>2.5999999046326</ele>
        <time>2022-08-18T10:49:39.000Z</time>
      </trkpt>
      <trkpt lat="47.26212" lon="-2.31996">
        <ele>2.5999999046326</ele>
        <time>2022-08-18T10:49:43.000Z</time>
      </trkpt>
      <trkpt lat="47.26215" lon="-2.31993">
        <ele>2.5999999046326</ele>
        <time>2022-08-18T10:49:44.000Z</time>
      </trkpt>
      <trkpt lat="47.26226" lon="-2.31975">
        <ele>2.5999999046326</ele>
        <time>2022-08-18T10:49:48.000Z</time>
      </trkpt>
      <trkpt lat="47.26231" lon="-2.31972">
        <ele>2.5999999046326</ele>
        <time>2022-08-18T10:49:49.000Z</time>
      </trkpt>
      <trkpt lat="47.26245" lon="-2.3196">
        <ele>2.5999999046326</ele>
        <time>2022-08-18T10:49:53.000Z</time>
      </trkpt>
      <trkpt lat="47.26258" lon="-2.31939">
        <ele>2.5999999046326</ele>
        <time>2022-08-18T10:49:58.000Z</time>
      </trkpt>
      <trkpt lat="47.26266" lon="-2.31929">
        <ele>2.5999999046326</ele>
        <time>2022-08-18T10:50:01.000Z</time>
      </trkpt>
      <trkpt lat="47.26284" lon="-2.31905">
        <ele>2.5999999046326</ele>
        <time>2022-08-18T10:50:07.000Z</time>
      </trkpt>
      <trkpt lat="47.26299" lon="-2.31885">
        <ele>2.5999999046326</ele>
        <time>2022-08-18T10:50:12.000Z</time>
      </trkpt>
      <trkpt lat="47.26299" lon="-2.31874">
        <ele>2.5999999046326</ele>
        <time>2022-08-18T10:50:14.000Z</time>
      </trkpt>
      <trkpt lat="47.26299" lon="-2.31862">
        <ele>2.5999999046326</ele>
        <time>2022-08-18T10:50:16.000Z</time>
      </trkpt>
      <trkpt lat="47.263" lon="-2.3183">
        <ele>2.5999999046326</ele>
        <time>2022-08-18T10:50:22.000Z</time>
      </trkpt>
      <trkpt lat="47.26301" lon="-2.31824">
        <ele>2.5999999046326</ele>
        <time>2022-08-18T10:50:23.000Z</time>
      </trkpt>
      <trkpt lat="47.26302" lon="-2.31788">
        <ele>2.5999999046326</ele>
        <time>2022-08-18T10:50:29.000Z</time>
      </trkpt>
      <trkpt lat="47.263" lon="-2.3174">
        <ele>2.5999999046326</ele>
        <time>2022-08-18T10:50:37.000Z</time>
      </trkpt>
      <trkpt lat="47.26302" lon="-2.31727">
        <ele>2.5999999046326</ele>
        <time>2022-08-18T10:50:39.000Z</time>
      </trkpt>
      <trkpt lat="47.26305" lon="-2.31722">
        <ele>2.5999999046326</ele>
        <time>2022-08-18T10:50:40.000Z</time>
      </trkpt>
      <trkpt lat="47.26319" lon="-2.31712">
        <ele>2.5999999046326</ele>
        <time>2022-08-18T10:50:44.000Z</time>
      </trkpt>
      <trkpt lat="47.26322" lon="-2.3171">
        <ele>2.5999999046326</ele>
        <time>2022-08-18T10:50:45.000Z</time>
      </trkpt>
      <trkpt lat="47.26332" lon="-2.31697">
        <ele>3</ele>
        <time>2022-08-18T10:50:49.000Z</time>
      </trkpt>
      <trkpt lat="47.26334" lon="-2.31693">
        <ele>3.4000000953674</ele>
        <time>2022-08-18T10:50:50.000Z</time>
      </trkpt>
      <trkpt lat="47.26336" lon="-2.3169">
        <ele>3.7999999523163</ele>
        <time>2022-08-18T10:50:51.000Z</time>
      </trkpt>
      <trkpt lat="47.26339" lon="-2.31689">
        <ele>4.1999998092651</ele>
        <time>2022-08-18T10:50:52.000Z</time>
      </trkpt>
      <trkpt lat="47.26341" lon="-2.31688">
        <ele>4.5999999046326</ele>
        <time>2022-08-18T10:50:53.000Z</time>
      </trkpt>
      <trkpt lat="47.26355" lon="-2.3168">
        <ele>4.5999999046326</ele>
        <time>2022-08-18T10:50:58.000Z</time>
      </trkpt>
      <trkpt lat="47.2636" lon="-2.31678">
        <ele>5</ele>
        <time>2022-08-18T10:51:00.000Z</time>
      </trkpt>
      <trkpt lat="47.26363" lon="-2.31676">
        <ele>5.4000000953674</ele>
        <time>2022-08-18T10:51:01.000Z</time>
      </trkpt>
      <trkpt lat="47.26366" lon="-2.31674">
        <ele>5.8000001907349</ele>
        <time>2022-08-18T10:51:02.000Z</time>
      </trkpt>
      <trkpt lat="47.26369" lon="-2.31673">
        <ele>6.1999998092651</ele>
        <time>2022-08-18T10:51:03.000Z</time>
      </trkpt>
      <trkpt lat="47.26373" lon="-2.31672">
        <ele>6.5999999046326</ele>
        <time>2022-08-18T10:51:04.000Z</time>
      </trkpt>
      <trkpt lat="47.26386" lon="-2.31664">
        <ele>6.5999999046326</ele>
        <time>2022-08-18T10:51:09.000Z</time>
      </trkpt>
      <trkpt lat="47.26402" lon="-2.31655">
        <ele>6.5999999046326</ele>
        <time>2022-08-18T10:51:15.000Z</time>
      </trkpt>
      <trkpt lat="47.26409" lon="-2.31643">
        <ele>6.5999999046326</ele>
        <time>2022-08-18T10:51:19.000Z</time>
      </trkpt>
      <trkpt lat="47.2641" lon="-2.31622">
        <ele>6.5999999046326</ele>
        <time>2022-08-18T10:51:24.000Z</time>
      </trkpt>
      <trkpt lat="47.2641" lon="-2.31584">
        <ele>6.5999999046326</ele>
        <time>2022-08-18T10:51:32.000Z</time>
      </trkpt>
      <trkpt lat="47.26409" lon="-2.31559">
        <ele>6.5999999046326</ele>
        <time>2022-08-18T10:51:38.000Z</time>
      </trkpt>
      <trkpt lat="47.2641" lon="-2.31555">
        <ele>6.5999999046326</ele>
        <time>2022-08-18T10:51:39.000Z</time>
      </trkpt>
      <trkpt lat="47.26412" lon="-2.31553">
        <ele>7.1999998092651</ele>
        <time>2022-08-18T10:51:40.000Z</time>
      </trkpt>
      <trkpt lat="47.26413" lon="-2.31554">
        <ele>7.5999999046326</ele>
        <time>2022-08-18T10:51:41.000Z</time>
      </trkpt>
      <trkpt lat="47.26415" lon="-2.31554">
        <ele>8</ele>
        <time>2022-08-18T10:51:42.000Z</time>
      </trkpt>
      <trkpt lat="47.26416" lon="-2.31554">
        <ele>8.3999996185303</ele>
        <time>2022-08-18T10:51:43.000Z</time>
      </trkpt>
      <trkpt lat="47.26417" lon="-2.31553">
        <ele>8.8000001907349</ele>
        <time>2022-08-18T10:51:44.000Z</time>
      </trkpt>
      <trkpt lat="47.26417" lon="-2.31554">
        <ele>8.8000001907349</ele>
        <time>2022-08-18T10:51:46.000Z</time>
      </trkpt>
    </trkseg>
  </trk>
</gpx>